GFSGBSN_prec_precacc_024.txt.gz
Total_Precipitation_Accumulation
0.11 0.10 0.06 0.02 0.02 0.03 0.03 0.03 0.02 0.01 0.01 0.00 0.00 0.00 0.00 0.00 0.00 0.00 0.02 0.04 0.06 0.07 0.06 0.10 0.15 0.20 0.15 0.09 0.01 0.00 0.00 0.00 0.00 0.00 0.04 0.04 0.05 0.03 0.03 0.01 0.02 0.00 0.00 0.00 0.00 0.00 0.00
0.10 0.09 0.09 0.07 0.04 0.03 0.03 0.03 0.02 0.02 0.01 0.01 0.00 0.00 0.00 0.00 0.00 0.00 0.01 0.03 0.05 0.05 0.08 0.07 0.17 0.29 0.09 0.03 0.00 0.00 0.00 0.00 0.00 0.01 0.03 0.07 0.05 0.01 0.02 0.01 0.02 0.00 0.00 0.00 0.00 0.00 0.00
0.08 0.09 0.08 0.08 0.09 0.06 0.03 0.02 0.02 0.02 0.02 0.02 0.02 0.01 0.01 0.00 0.00 0.00 0.00 0.00 0.02 0.09 0.19 0.20 0.26 0.28 0.10 0.00 0.00 0.00 0.00 0.00 0.00 0.01 0.03 0.02 0.05 0.12 0.05 0.03 0.00 0.00 0.01 0.00 0.00 0.00 0.00
0.08 0.08 0.08 0.09 0.10 0.11 0.06 0.03 0.02 0.02 0.02 0.05 0.06 0.04 0.02 0.01 0.01 0.02 0.05 0.04 0.04 0.07 0.10 0.14 0.37 0.38 0.07 0.00 0.00 0.00 0.00 0.00 0.00 0.01 0.09 0.14 0.22 0.14 0.09 0.06 0.03 0.03 0.04 0.01 0.00 0.00 0.00
0.08 0.07 0.07 0.07 0.08 0.09 0.09 0.07 0.04 0.03 0.03 0.06 0.07 0.06 0.06 0.07 0.07 0.06 0.07 0.08 0.09 0.13 0.20 0.35 0.33 0.26 0.04 0.00 0.00 0.00 0.00 0.00 0.00 0.01 0.09 0.17 0.28 0.20 0.12 0.10 0.11 0.07 0.03 0.01 0.00 0.00 0.00
0.08 0.08 0.08 0.08 0.08 0.08 0.08 0.08 0.08 0.06 0.06 0.06 0.07 0.07 0.12 0.20 0.17 0.13 0.14 0.18 0.24 0.23 0.32 0.30 0.22 0.27 0.03 0.00 0.00 0.00 0.00 0.00 0.05 0.12 0.20 0.29 0.25 0.32 0.21 0.22 0.13 0.02 0.01 0.00 0.00 0.00 0.00
0.08 0.08 0.08 0.07 0.08 0.08 0.08 0.09 0.10 0.07 0.06 0.06 0.07 0.08 0.09 0.15 0.25 0.34 0.34 0.61 0.29 0.24 0.16 0.06 0.10 0.08 0.01 0.01 0.00 0.00 0.00 0.00 0.04 0.18 0.19 0.31 0.37 0.32 0.19 0.11 0.02 0.01 0.02 0.01 0.00 0.00 0.00
0.11 0.14 0.13 0.12 0.12 0.14 0.15 0.14 0.13 0.10 0.07 0.07 0.08 0.10 0.14 0.16 0.24 0.35 0.35 0.30 0.13 0.08 0.13 0.06 0.01 0.01 0.07 0.04 0.03 0.03 0.01 0.02 0.05 0.13 0.24 0.45 0.37 0.07 0.09 0.06 0.07 0.04 0.04 0.04 0.01 0.00 0.01
0.14 0.14 0.11 0.12 0.14 0.17 0.19 0.17 0.15 0.15 0.12 0.10 0.09 0.14 0.27 0.31 0.35 0.46 0.42 0.35 0.38 0.24 0.52 0.27 0.02 0.01 0.05 0.09 0.05 0.13 0.03 0.09 0.05 0.10 0.33 0.39 0.25 0.06 0.18 0.14 0.14 0.13 0.04 0.03 0.03 0.01 0.01
0.18 0.24 0.24 0.23 0.19 0.16 0.17 0.19 0.27 0.32 0.23 0.13 0.12 0.23 0.40 0.53 0.58 0.33 0.64 0.70 0.55 0.75 1.34 0.30 0.06 0.03 0.13 0.25 0.18 0.07 0.07 0.18 0.09 0.06 0.25 0.30 0.17 0.15 0.25 0.23 0.13 0.16 0.07 0.01 0.05 0.09 0.07
0.23 0.35 0.37 0.30 0.29 0.27 0.22 0.19 0.19 0.29 0.35 0.21 0.16 0.27 0.45 0.89 0.95 0.53 0.61 0.61 0.70 1.36 0.95 0.05 0.06 0.06 0.13 0.22 0.20 0.15 0.17 0.33 0.15 0.14 0.44 0.41 0.22 0.24 0.27 0.28 0.08 0.16 0.10 0.03 0.08 0.15 0.16
0.39 0.32 0.29 0.29 0.31 0.30 0.28 0.25 0.25 0.26 0.26 0.25 0.17 0.22 0.49 1.00 1.14 0.79 0.76 0.90 1.14 1.48 0.60 0.11 0.17 0.17 0.24 0.19 0.24 0.28 0.44 0.38 0.38 0.39 0.40 0.24 0.13 0.21 0.18 0.14 0.11 0.17 0.20 0.19 0.11 0.33 0.33
0.31 0.27 0.31 0.35 0.33 0.32 0.30 0.29 0.31 0.31 0.26 0.26 0.22 0.16 0.26 0.53 1.03 1.16 1.11 1.20 1.35 0.80 0.26 0.35 0.28 0.31 0.28 0.18 0.31 0.37 0.68 0.66 1.08 0.68 0.68 0.64 0.46 0.24 0.20 0.43 0.42 0.54 0.57 0.73 0.46 0.41 0.38
0.33 0.34 0.32 0.33 0.32 0.32 0.42 0.40 0.35 0.42 0.31 0.37 0.33 0.42 0.24 0.17 0.99 1.14 1.30 1.14 0.91 0.27 0.33 0.34 0.26 0.29 0.33 0.16 0.33 0.42 0.65 0.55 0.50 0.24 0.39 0.62 0.62 0.33 0.25 0.69 0.77 0.57 0.73 0.62 0.29 0.14 0.11
0.36 0.36 0.37 0.38 0.43 0.45 0.46 0.36 0.26 0.28 0.27 0.44 0.62 0.82 0.75 0.18 0.79 1.35 1.44 1.19 0.44 0.24 0.33 0.33 0.36 0.30 0.22 0.18 0.43 0.47 0.52 0.27 0.20 0.09 0.40 0.48 0.44 0.20 0.14 0.37 0.49 0.52 0.67 0.36 0.30 0.10 0.09
0.37 0.38 0.44 0.53 0.58 0.66 0.57 0.34 0.32 0.25 0.27 0.44 0.78 0.94 0.61 0.23 0.80 1.79 1.89 0.90 0.38 0.41 0.43 0.31 0.23 0.15 0.09 0.15 0.45 0.40 0.42 0.16 0.09 0.02 0.17 0.37 0.56 0.36 0.39 0.48 0.60 0.54 0.33 0.40 0.60 0.33 0.14
0.41 0.41 0.48 0.63 0.67 0.76 0.73 0.46 0.39 0.34 0.30 0.45 0.58 0.96 0.38 0.50 1.40 2.09 1.51 0.77 0.36 0.31 0.42 0.34 0.11 0.10 0.05 0.04 0.29 0.20 0.20 0.08 0.03 0.00 0.12 0.48 0.70 0.48 0.63 0.72 0.51 0.70 0.76 0.37 0.32 0.20 0.25
0.39 0.41 0.45 0.62 0.68 0.68 0.78 0.52 0.41 0.43 0.44 0.54 0.61 0.57 0.39 0.66 1.68 1.23 1.02 0.94 0.45 0.28 0.38 0.36 0.16 0.05 0.04 0.03 0.16 0.12 0.06 0.02 0.01 0.01 0.11 0.40 0.71 0.58 0.31 0.29 0.08 0.31 0.32 0.24 0.36 0.19 0.20
0.31 0.34 0.46 0.52 0.61 0.66 0.77 0.62 0.43 0.42 0.65 0.68 0.45 0.59 0.85 0.55 0.84 0.65 0.81 0.83 0.53 0.35 0.35 0.32 0.10 0.03 0.01 0.02 0.05 0.03 0.05 0.00 0.00 0.01 0.11 0.38 0.75 0.57 0.27 0.54 0.23 0.32 0.29 0.38 0.51 0.28 0.25
0.27 0.32 0.36 0.35 0.43 0.54 0.71 0.52 0.46 0.47 0.66 0.61 0.44 0.54 0.88 0.75 0.41 0.60 0.78 0.72 0.57 0.33 0.26 0.27 0.12 0.03 0.01 0.01 0.01 0.01 0.05 0.00 0.00 0.00 0.06 0.31 0.39 0.50 0.25 0.30 0.17 0.04 0.14 0.38 0.61 0.41 0.15
0.26 0.32 0.30 0.30 0.38 0.47 0.57 0.57 0.58 0.54 0.58 0.52 0.34 0.21 0.15 0.24 0.16 0.35 0.75 0.67 0.56 0.51 0.31 0.22 0.14 0.06 0.01 0.01 0.01 0.01 0.02 0.01 0.00 0.00 0.04 0.30 0.54 0.70 0.28 0.06 0.13 0.10 0.10 0.25 0.41 0.33 0.22
0.30 0.30 0.27 0.29 0.32 0.41 0.49 0.61 0.65 0.85 1.18 0.60 0.25 0.07 0.06 0.02 0.01 0.15 0.68 0.85 0.59 0.52 0.39 0.18 0.08 0.02 0.01 0.00 0.00 0.00 0.00 0.01 0.01 0.01 0.01 0.13 0.53 0.61 0.28 0.02 0.02 0.14 0.21 0.25 0.30 0.26 0.27
0.24 0.26 0.27 0.24 0.29 0.36 0.43 0.57 0.78 1.02 1.35 0.68 0.15 0.04 0.04 0.04 0.02 0.09 0.41 0.65 0.50 0.45 0.29 0.08 0.04 0.04 0.02 0.01 0.00 0.00 0.00 0.00 0.03 0.00 0.01 0.03 0.24 0.29 0.11 0.05 0.03 0.07 0.09 0.10 0.09 0.07 0.11
0.24 0.25 0.29 0.26 0.25 0.29 0.31 0.38 0.47 0.61 0.70 0.50 0.07 0.04 0.13 0.07 0.02 0.05 0.19 0.38 0.40 0.36 0.35 0.06 0.06 0.05 0.03 0.02 0.02 0.02 0.07 0.01 0.03 0.06 0.01 0.01 0.03 0.05 0.02 0.05 0.01 0.00 0.00 0.00 0.00 0.00 0.00
0.26 0.22 0.26 0.27 0.24 0.25 0.24 0.35 0.48 0.56 0.66 0.32 0.09 0.05 0.11 0.07 0.02 0.03 0.14 0.28 0.41 0.41 0.46 0.17 0.04 0.03 0.03 0.04 0.09 0.11 0.16 0.18 0.08 0.04 0.01 0.01 0.05 0.06 0.00 0.00 0.00 0.00 0.00 0.00 0.00 0.00 0.00
0.24 0.22 0.23 0.27 0.22 0.24 0.31 0.37 0.43 0.50 0.46 0.24 0.12 0.08 0.12 0.10 0.05 0.02 0.04 0.13 0.35 0.35 0.40 0.22 0.05 0.01 0.10 0.15 0.09 0.12 0.13 0.08 0.06 0.09 0.02 0.00 0.05 0.13 0.02 0.00 0.00 0.00 0.00 0.00 0.00 0.00 0.00
0.21 0.20 0.23 0.26 0.24 0.19 0.25 0.29 0.25 0.30 0.38 0.25 0.11 0.04 0.18 0.11 0.02 0.01 0.02 0.04 0.26 0.40 0.40 0.22 0.14 0.03 0.13 0.20 0.14 0.12 0.03 0.00 0.00 0.01 0.01 0.01 0.05 0.11 0.08 0.04 0.00 0.00 0.00 0.00 0.00 0.00 0.00
0.19 0.20 0.25 0.25 0.22 0.18 0.18 0.23 0.26 0.24 0.43 0.31 0.12 0.07 0.13 0.09 0.03 0.00 0.00 0.00 0.14 0.32 0.40 0.30 0.29 0.15 0.15 0.25 0.15 0.07 0.02 0.01 0.00 0.00 0.00 0.00 0.01 0.02 0.03 0.03 0.00 0.00 0.00 0.00 0.00 0.00 0.00
0.23 0.22 0.25 0.23 0.20 0.20 0.17 0.19 0.21 0.17 0.30 0.36 0.10 0.09 0.16 0.09 0.02 0.01 0.00 0.00 0.03 0.17 0.36 0.30 0.24 0.07 0.09 0.12 0.07 0.04 0.01 0.00 0.00 0.00 0.00 0.00 0.00 0.00 0.00 0.00 0.00 0.00 0.00 0.00 0.00 0.00 0.00

GFSGBSN_prec_precacc_027.txt.gz
Total_Precipitation_Accumulation
0.11 0.12 0.12 0.10 0.09 0.08 0.07 0.04 0.03 0.02 0.02 0.03 0.02 0.01 0.00 0.00 0.00 0.00 0.02 0.04 0.06 0.07 0.06 0.10 0.15 0.20 0.15 0.09 0.01 0.00 0.00 0.00 0.00 0.01 0.04 0.04 0.05 0.03 0.03 0.01 0.02 0.00 0.00 0.00 0.00 0.00 0.00
0.10 0.09 0.09 0.09 0.10 0.12 0.12 0.08 0.04 0.03 0.02 0.02 0.02 0.01 0.00 0.00 0.00 0.00 0.01 0.03 0.05 0.05 0.08 0.07 0.17 0.29 0.09 0.03 0.00 0.00 0.00 0.00 0.00 0.01 0.03 0.07 0.05 0.01 0.02 0.01 0.02 0.00 0.00 0.00 0.00 0.00 0.00
0.08 0.10 0.08 0.08 0.10 0.13 0.13 0.12 0.09 0.05 0.03 0.03 0.04 0.04 0.01 0.00 0.00 0.00 0.00 0.00 0.02 0.09 0.19 0.20 0.26 0.28 0.10 0.00 0.00 0.00 0.00 0.00 0.00 0.01 0.03 0.02 0.05 0.14 0.06 0.03 0.00 0.00 0.01 0.00 0.00 0.00 0.00
0.08 0.09 0.09 0.09 0.10 0.11 0.11 0.11 0.12 0.08 0.04 0.06 0.07 0.06 0.04 0.02 0.01 0.03 0.05 0.05 0.04 0.07 0.10 0.14 0.37 0.38 0.07 0.00 0.00 0.00 0.00 0.00 0.00 0.01 0.09 0.14 0.22 0.14 0.09 0.06 0.03 0.03 0.04 0.01 0.00 0.00 0.00
0.09 0.08 0.07 0.08 0.09 0.09 0.10 0.10 0.09 0.09 0.08 0.08 0.09 0.10 0.10 0.08 0.07 0.06 0.08 0.10 0.09 0.13 0.20 0.36 0.33 0.26 0.04 0.00 0.00 0.00 0.00 0.00 0.00 0.01 0.09 0.17 0.28 0.20 0.12 0.11 0.11 0.07 0.03 0.01 0.00 0.00 0.00
0.08 0.08 0.08 0.08 0.09 0.08 0.09 0.09 0.10 0.11 0.14 0.14 0.10 0.12 0.17 0.23 0.18 0.14 0.16 0.20 0.24 0.23 0.33 0.33 0.23 0.27 0.03 0.00 0.00 0.00 0.00 0.00 0.05 0.12 0.20 0.29 0.25 0.32 0.21 0.22 0.13 0.02 0.01 0.00 0.00 0.00 0.00
0.08 0.08 0.08 0.08 0.08 0.08 0.08 0.10 0.11 0.10 0.11 0.14 0.12 0.13 0.16 0.21 0.26 0.35 0.36 0.61 0.29 0.24 0.17 0.07 0.11 0.08 0.01 0.01 0.00 0.00 0.00 0.00 0.04 0.18 0.19 0.31 0.37 0.32 0.19 0.11 0.02 0.01 0.02 0.01 0.00 0.00 0.00
0.11 0.14 0.13 0.12 0.12 0.14 0.15 0.15 0.13 0.12 0.12 0.13 0.14 0.15 0.20 0.22 0.28 0.37 0.35 0.30 0.13 0.08 0.13 0.06 0.01 0.01 0.07 0.04 0.03 0.03 0.01 0.02 0.05 0.13 0.24 0.45 0.38 0.07 0.09 0.06 0.07 0.04 0.04 0.04 0.01 0.00 0.01
0.14 0.15 0.12 0.12 0.15 0.18 0.20 0.18 0.16 0.16 0.17 0.18 0.20 0.23 0.35 0.40 0.41 0.48 0.42 0.35 0.38 0.24 0.52 0.27 0.02 0.01 0.05 0.10 0.05 0.13 0.03 0.09 0.05 0.10 0.33 0.39 0.25 0.06 0.18 0.14 0.14 0.13 0.04 0.03 0.03 0.01 0.01
0.18 0.24 0.25 0.25 0.21 0.19 0.20 0.22 0.29 0.33 0.32 0.35 0.34 0.40 0.49 0.66 0.65 0.34 0.64 0.70 0.55 0.75 1.34 0.30 0.06 0.03 0.14 0.26 0.18 0.07 0.07 0.18 0.09 0.06 0.26 0.31 0.17 0.15 0.25 0.23 0.13 0.16 0.07 0.01 0.05 0.10 0.07
0.24 0.36 0.37 0.31 0.33 0.32 0.28 0.23 0.22 0.32 0.42 0.43 0.50 0.56 0.60 0.98 0.98 0.53 0.61 0.61 0.70 1.36 0.95 0.05 0.06 0.06 0.13 0.23 0.20 0.15 0.17 0.34 0.15 0.14 0.45 0.42 0.22 0.24 0.27 0.28 0.08 0.16 0.10 0.03 0.08 0.16 0.16
0.40 0.34 0.31 0.32 0.35 0.37 0.34 0.28 0.27 0.27 0.30 0.41 0.48 0.60 0.76 1.11 1.17 0.79 0.76 0.90 1.14 1.48 0.60 0.11 0.17 0.17 0.25 0.19 0.24 0.28 0.44 0.39 0.41 0.43 0.44 0.24 0.13 0.21 0.18 0.14 0.11 0.17 0.20 0.19 0.12 0.34 0.34
0.32 0.28 0.33 0.37 0.36 0.36 0.34 0.33 0.33 0.32 0.26 0.33 0.47 0.54 0.77 0.66 1.06 1.17 1.11 1.20 1.36 0.80 0.26 0.35 0.28 0.31 0.28 0.18 0.31 0.37 0.69 0.67 1.11 0.73 0.76 0.72 0.48 0.24 0.20 0.43 0.42 0.55 0.61 0.77 0.49 0.44 0.38
0.34 0.36 0.33 0.34 0.34 0.35 0.47 0.44 0.42 0.49 0.35 0.39 0.52 0.79 0.84 0.44 1.04 1.15 1.31 1.14 0.92 0.27 0.33 0.34 0.26 0.29 0.33 0.16 0.33 0.43 0.66 0.56 0.52 0.31 0.51 0.68 0.66 0.35 0.26 0.69 0.78 0.58 0.75 0.67 0.30 0.14 0.12
0.39 0.38 0.38 0.39 0.44 0.47 0.55 0.53 0.39 0.35 0.31 0.47 0.73 1.12 1.61 0.40 0.90 1.37 1.45 1.21 0.44 0.24 0.33 0.33 0.36 0.30 0.22 0.18 0.43 0.48 0.53 0.27 0.20 0.09 0.42 0.50 0.45 0.20 0.14 0.37 0.52 0.58 0.73 0.40 0.31 0.11 0.10
0.39 0.40 0.45 0.54 0.58 0.67 0.71 0.56 0.54 0.43 0.34 0.53 0.97 1.26 1.50 0.45 0.88 1.85 1.93 0.91 0.38 0.41 0.43 0.31 0.23 0.15 0.09 0.15 0.46 0.40 0.42 0.16 0.09 0.02 0.17 0.37 0.57 0.36 0.39 0.49 0.62 0.55 0.34 0.43 0.70 0.36 0.15
0.43 0.44 0.49 0.64 0.68 0.76 0.82 0.67 0.69 0.69 0.46 0.58 0.84 1.55 1.01 0.81 1.52 2.27 1.61 0.78 0.36 0.31 0.42 0.34 0.11 0.10 0.05 0.04 0.29 0.20 0.20 0.08 0.03 0.00 0.12 0.48 0.70 0.48 0.63 0.72 0.52 0.71 0.79 0.41 0.34 0.21 0.25
0.40 0.43 0.47 0.62 0.68 0.68 0.86 0.67 0.52 0.71 0.62 0.68 0.96 1.03 0.96 1.28 2.10 1.45 1.09 0.94 0.45 0.28 0.38 0.36 0.16 0.06 0.04 0.03 0.17 0.12 0.06 0.02 0.01 0.01 0.11 0.40 0.74 0.59 0.31 0.29 0.09 0.34 0.35 0.26 0.39 0.19 0.20
0.33 0.36 0.47 0.52 0.61 0.66 0.82 0.74 0.52 0.60 0.82 1.07 1.05 1.05 1.47 0.90 1.07 0.72 0.82 0.83 0.53 0.35 0.35 0.34 0.11 0.03 0.01 0.03 0.06 0.03 0.05 0.00 0.00 0.01 0.11 0.42 0.85 0.63 0.31 0.66 0.32 0.44 0.33 0.44 0.54 0.31 0.26
0.28 0.33 0.38 0.36 0.43 0.55 0.74 0.57 0.49 0.57 0.78 0.96 0.92 1.01 1.66 1.18 0.47 0.60 0.79 0.74 0.57 0.33 0.27 0.30 0.14 0.06 0.03 0.03 0.01 0.01 0.05 0.00 0.00 0.00 0.06 0.38 0.47 0.53 0.32 0.51 0.37 0.10 0.15 0.40 0.65 0.48 0.17
0.28 0.33 0.31 0.31 0.38 0.47 0.60 0.59 0.61 0.62 0.68 0.87 0.60 0.37 0.36 0.39 0.21 0.35 0.75 0.69 0.56 0.52 0.32 0.27 0.16 0.08 0.02 0.01 0.01 0.01 0.02 0.01 0.00 0.00 0.07 0.39 0.62 0.75 0.33 0.09 0.27 0.20 0.13 0.25 0.42 0.36 0.27
0.33 0.32 0.29 0.30 0.33 0.42 0.51 0.62 0.68 0.92 1.25 0.79 0.49 0.13 0.06 0.02 0.01 0.15 0.68 0.85 0.59 0.52 0.40 0.20 0.09 0.03 0.02 0.00 0.00 0.00 0.00 0.01 0.01 0.01 0.05 0.27 0.72 0.83 0.49 0.10 0.05 0.23 0.37 0.34 0.34 0.35 0.40
0.26 0.29 0.29 0.25 0.30 0.36 0.44 0.58 0.81 1.10 1.49 0.84 0.37 0.07 0.04 0.05 0.02 0.10 0.42 0.65 0.50 0.45 0.29 0.09 0.08 0.06 0.04 0.01 0.00 0.00 0.00 0.00 0.03 0.01 0.06 0.14 0.39 0.56 0.37 0.18 0.12 0.35 0.38 0.40 0.28 0.25 0.32
0.26 0.30 0.31 0.27 0.26 0.29 0.31 0.39 0.50 0.68 0.90 0.72 0.26 0.12 0.14 0.08 0.02 0.05 0.20 0.38 0.41 0.37 0.35 0.08 0.10 0.08 0.04 0.02 0.02 0.03 0.08 0.02 0.03 0.06 0.02 0.06 0.11 0.22 0.26 0.21 0.20 0.17 0.20 0.22 0.25 0.23 0.26
0.28 0.27 0.29 0.28 0.24 0.25 0.24 0.36 0.49 0.59 0.79 0.49 0.21 0.12 0.12 0.08 0.03 0.03 0.15 0.33 0.44 0.42 0.48 0.21 0.05 0.03 0.03 0.04 0.11 0.13 0.17 0.19 0.08 0.04 0.01 0.01 0.05 0.07 0.02 0.01 0.01 0.00 0.01 0.04 0.03 0.04 0.04
0.26 0.25 0.25 0.28 0.22 0.24 0.31 0.37 0.44 0.51 0.51 0.35 0.32 0.14 0.12 0.10 0.06 0.02 0.04 0.15 0.39 0.38 0.45 0.28 0.09 0.02 0.10 0.17 0.13 0.13 0.14 0.09 0.07 0.09 0.02 0.00 0.06 0.14 0.02 0.00 0.00 0.00 0.00 0.00 0.00 0.00 0.00
0.25 0.24 0.24 0.26 0.24 0.19 0.25 0.30 0.26 0.32 0.43 0.32 0.34 0.13 0.18 0.11 0.03 0.01 0.02 0.05 0.29 0.44 0.46 0.30 0.22 0.04 0.14 0.30 0.19 0.13 0.03 0.00 0.00 0.01 0.01 0.01 0.05 0.11 0.08 0.04 0.00 0.00 0.00 0.00 0.00 0.00 0.00
0.23 0.23 0.27 0.26 0.22 0.18 0.18 0.24 0.27 0.25 0.47 0.37 0.25 0.16 0.16 0.12 0.03 0.00 0.00 0.01 0.16 0.36 0.46 0.37 0.41 0.17 0.16 0.31 0.22 0.09 0.02 0.01 0.00 0.00 0.00 0.00 0.01 0.02 0.03 0.03 0.00 0.00 0.00 0.00 0.00 0.00 0.00
0.26 0.24 0.26 0.24 0.20 0.20 0.17 0.19 0.23 0.18 0.35 0.46 0.24 0.19 0.17 0.12 0.03 0.01 0.01 0.01 0.04 0.20 0.41 0.36 0.30 0.08 0.09 0.13 0.08 0.04 0.01 0.00 0.00 0.00 0.00 0.00 0.00 0.00 0.00 0.00 0.00 0.00 0.00 0.00 0.00 0.00 0.00

GFSGBSN_prec_precacc_030.txt.gz
Total_Precipitation_Accumulation
0.12 0.12 0.12 0.11 0.09 0.09 0.09 0.10 0.08 0.06 0.05 0.05 0.06 0.05 0.01 0.00 0.00 0.00 0.02 0.04 0.06 0.07 0.06 0.10 0.15 0.20 0.15 0.09 0.01 0.00 0.00 0.00 0.00 0.02 0.05 0.05 0.05 0.03 0.03 0.01 0.02 0.00 0.00 0.00 0.00 0.00 0.00
0.11 0.10 0.09 0.09 0.10 0.12 0.12 0.11 0.11 0.12 0.10 0.05 0.05 0.05 0.03 0.01 0.00 0.00 0.01 0.03 0.05 0.05 0.08 0.07 0.17 0.30 0.09 0.03 0.00 0.00 0.00 0.00 0.00 0.01 0.05 0.08 0.06 0.01 0.02 0.01 0.02 0.00 0.00 0.00 0.00 0.00 0.00
0.09 0.10 0.09 0.08 0.10 0.13 0.13 0.12 0.14 0.16 0.12 0.10 0.07 0.07 0.05 0.03 0.01 0.00 0.01 0.00 0.03 0.09 0.19 0.20 0.26 0.28 0.10 0.00 0.00 0.00 0.00 0.00 0.00 0.01 0.04 0.03 0.07 0.14 0.07 0.03 0.00 0.00 0.01 0.00 0.00 0.00 0.00
0.09 0.09 0.09 0.10 0.11 0.12 0.11 0.12 0.12 0.11 0.12 0.17 0.17 0.10 0.08 0.06 0.03 0.03 0.05 0.05 0.05 0.08 0.10 0.14 0.37 0.38 0.07 0.00 0.00 0.00 0.00 0.00 0.00 0.01 0.09 0.14 0.23 0.15 0.10 0.06 0.03 0.03 0.04 0.01 0.00 0.00 0.00
0.09 0.08 0.07 0.08 0.09 0.10 0.11 0.10 0.09 0.09 0.13 0.19 0.22 0.16 0.15 0.15 0.12 0.07 0.08 0.11 0.11 0.14 0.20 0.37 0.33 0.26 0.04 0.00 0.00 0.00 0.00 0.00 0.00 0.01 0.09 0.17 0.28 0.20 0.12 0.11 0.11 0.08 0.03 0.01 0.00 0.00 0.00
0.08 0.08 0.08 0.08 0.09 0.09 0.10 0.10 0.11 0.11 0.15 0.19 0.21 0.21 0.22 0.30 0.24 0.16 0.18 0.23 0.26 0.23 0.33 0.35 0.23 0.27 0.03 0.00 0.00 0.00 0.00 0.00 0.05 0.12 0.20 0.29 0.25 0.32 0.21 0.23 0.13 0.02 0.01 0.00 0.00 0.00 0.00
0.08 0.08 0.08 0.08 0.08 0.09 0.09 0.11 0.12 0.11 0.11 0.14 0.17 0.20 0.23 0.29 0.34 0.38 0.38 0.62 0.29 0.24 0.17 0.07 0.11 0.08 0.01 0.01 0.00 0.00 0.00 0.00 0.04 0.18 0.19 0.31 0.37 0.32 0.19 0.11 0.02 0.01 0.02 0.01 0.00 0.00 0.00
0.11 0.14 0.14 0.13 0.12 0.15 0.16 0.16 0.16 0.14 0.13 0.13 0.16 0.23 0.29 0.32 0.35 0.42 0.35 0.30 0.13 0.08 0.13 0.06 0.01 0.01 0.07 0.04 0.03 0.03 0.01 0.02 0.05 0.13 0.24 0.45 0.38 0.07 0.09 0.06 0.07 0.04 0.04 0.04 0.01 0.00 0.01
0.14 0.15 0.13 0.13 0.16 0.19 0.21 0.21 0.19 0.19 0.19 0.19 0.21 0.27 0.46 0.57 0.58 0.62 0.43 0.35 0.38 0.24 0.52 0.27 0.02 0.01 0.05 0.10 0.05 0.13 0.03 0.09 0.05 0.10 0.33 0.39 0.25 0.06 0.18 0.14 0.14 0.13 0.04 0.03 0.03 0.01 0.01
0.19 0.25 0.26 0.25 0.22 0.20 0.22 0.26 0.32 0.37 0.36 0.38 0.34 0.47 0.67 0.87 1.04 0.50 0.71 0.71 0.55 0.75 1.34 0.30 0.06 0.03 0.14 0.27 0.18 0.07 0.07 0.18 0.09 0.06 0.26 0.31 0.17 0.15 0.25 0.23 0.13 0.16 0.07 0.01 0.05 0.10 0.08
0.24 0.37 0.39 0.31 0.33 0.34 0.31 0.27 0.28 0.38 0.45 0.44 0.50 0.62 0.90 1.37 1.43 0.65 0.64 0.62 0.70 1.36 0.95 0.05 0.06 0.07 0.14 0.23 0.20 0.15 0.17 0.34 0.16 0.14 0.45 0.43 0.22 0.24 0.27 0.28 0.08 0.16 0.10 0.03 0.09 0.16 0.16
0.40 0.35 0.32 0.32 0.36 0.39 0.37 0.35 0.33 0.31 0.31 0.42 0.48 0.65 1.09 1.69 1.57 0.87 0.76 0.90 1.14 1.48 0.60 0.12 0.17 0.18 0.26 0.20 0.25 0.28 0.44 0.40 0.41 0.44 0.46 0.24 0.13 0.21 0.18 0.14 0.11 0.18 0.21 0.20 0.14 0.36 0.36
0.33 0.31 0.35 0.38 0.38 0.39 0.38 0.37 0.38 0.42 0.33 0.35 0.48 0.57 1.07 1.29 1.38 1.23 1.15 1.21 1.37 0.81 0.26 0.35 0.28 0.32 0.29 0.18 0.31 0.38 0.69 0.68 1.13 0.76 0.78 0.73 0.49 0.24 0.20 0.43 0.42 0.56 0.67 0.85 0.56 0.50 0.40
0.36 0.38 0.35 0.36 0.37 0.37 0.48 0.47 0.57 0.62 0.46 0.47 0.56 0.87 1.10 1.06 1.39 1.22 1.35 1.14 0.92 0.27 0.33 0.34 0.26 0.30 0.33 0.16 0.33 0.43 0.66 0.57 0.52 0.32 0.53 0.70 0.66 0.35 0.26 0.69 0.78 0.58 0.78 0.78 0.33 0.15 0.12
0.41 0.41 0.40 0.41 0.47 0.48 0.55 0.59 0.53 0.50 0.38 0.57 0.81 1.28 1.99 1.15 1.42 1.49 1.47 1.23 0.44 0.24 0.33 0.33 0.36 0.30 0.22 0.18 0.43 0.48 0.53 0.27 0.20 0.09 0.43 0.52 0.45 0.20 0.14 0.37 0.52 0.61 0.82 0.47 0.40 0.18 0.16
0.41 0.42 0.47 0.57 0.61 0.68 0.71 0.61 0.70 0.61 0.46 0.63 1.04 1.34 1.84 1.17 1.25 2.04 1.98 0.92 0.38 0.41 0.43 0.31 0.23 0.15 0.09 0.15 0.46 0.41 0.42 0.16 0.09 0.02 0.17 0.37 0.57 0.36 0.39 0.49 0.63 0.58 0.36 0.48 0.88 0.47 0.17
0.45 0.46 0.52 0.66 0.69 0.76 0.82 0.70 0.76 0.94 0.81 0.73 0.90 1.62 1.15 1.43 1.87 2.56 1.69 0.78 0.36 0.31 0.42 0.34 0.11 0.10 0.05 0.04 0.29 0.20 0.20 0.08 0.03 0.00 0.12 0.48 0.71 0.48 0.64 0.73 0.52 0.71 0.84 0.45 0.36 0.21 0.25
0.42 0.46 0.49 0.64 0.69 0.69 0.86 0.70 0.56 0.91 0.89 0.82 0.99 1.09 1.14 1.75 2.68 1.75 1.13 0.94 0.45 0.28 0.38 0.36 0.16 0.06 0.05 0.03 0.17 0.12 0.06 0.02 0.01 0.01 0.11 0.40 0.76 0.60 0.31 0.29 0.09 0.34 0.35 0.26 0.39 0.19 0.20
0.36 0.39 0.50 0.54 0.62 0.67 0.83 0.75 0.54 0.73 1.14 1.36 1.07 1.10 1.87 1.19 1.33 0.85 0.85 0.83 0.53 0.35 0.35 0.35 0.11 0.04 0.02 0.04 0.07 0.03 0.05 0.00 0.00 0.01 0.11 0.42 0.88 0.65 0.32 0.70 0.40 0.54 0.36 0.47 0.57 0.36 0.29
0.32 0.37 0.40 0.38 0.44 0.55 0.75 0.57 0.50 0.64 0.90 1.09 1.01 1.22 2.37 1.70 0.60 0.61 0.79 0.74 0.57 0.33 0.27 0.30 0.15 0.07 0.05 0.04 0.02 0.01 0.05 0.00 0.00 0.00 0.06 0.38 0.48 0.54 0.35 0.57 0.56 0.24 0.22 0.47 0.78 0.64 0.21
0.31 0.37 0.35 0.33 0.40 0.47 0.60 0.60 0.62 0.70 0.74 0.92 0.81 0.52 0.54 0.60 0.35 0.35 0.75 0.70 0.57 0.52 0.32 0.28 0.18 0.08 0.05 0.04 0.02 0.01 0.02 0.01 0.00 0.00 0.07 0.42 0.67 0.78 0.35 0.11 0.40 0.36 0.22 0.34 0.52 0.41 0.34
0.35 0.35 0.32 0.33 0.34 0.42 0.51 0.63 0.69 0.99 1.32 0.87 0.67 0.27 0.10 0.03 0.02 0.16 0.69 0.85 0.60 0.52 0.41 0.21 0.10 0.05 0.06 0.02 0.00 0.00 0.00 0.01 0.01 0.01 0.06 0.32 0.82 0.91 0.56 0.19 0.14 0.30 0.40 0.39 0.39 0.36 0.43
0.29 0.31 0.33 0.28 0.31 0.37 0.44 0.58 0.82 1.18 1.62 1.06 0.66 0.16 0.09 0.09 0.04 0.12 0.43 0.65 0.50 0.45 0.29 0.09 0.08 0.11 0.08 0.01 0.00 0.00 0.00 0.00 0.04 0.04 0.16 0.26 0.47 0.69 0.43 0.32 0.24 0.50 0.47 0.43 0.29 0.26 0.33
0.28 0.32 0.36 0.29 0.26 0.29 0.31 0.39 0.51 0.71 0.98 0.86 0.49 0.28 0.21 0.12 0.04 0.06 0.20 0.40 0.41 0.37 0.36 0.08 0.10 0.10 0.05 0.02 0.03 0.03 0.08 0.02 0.03 0.07 0.07 0.10 0.21 0.42 0.36 0.40 0.46 0.36 0.41 0.32 0.34 0.32 0.29
0.30 0.30 0.33 0.29 0.25 0.25 0.24 0.36 0.50 0.62 0.84 0.52 0.26 0.21 0.18 0.09 0.03 0.03 0.15 0.33 0.45 0.46 0.51 0.22 0.06 0.05 0.05 0.05 0.12 0.13 0.17 0.19 0.08 0.04 0.01 0.01 0.12 0.18 0.10 0.06 0.09 0.01 0.04 0.16 0.17 0.19 0.10
0.28 0.28 0.28 0.29 0.22 0.25 0.31 0.37 0.45 0.53 0.53 0.36 0.33 0.17 0.14 0.11 0.06 0.02 0.04 0.15 0.42 0.42 0.49 0.32 0.12 0.05 0.12 0.18 0.15 0.14 0.14 0.09 0.07 0.09 0.02 0.00 0.08 0.21 0.03 0.01 0.00 0.00 0.00 0.00 0.00 0.00 0.00
0.26 0.27 0.27 0.27 0.25 0.19 0.25 0.30 0.26 0.34 0.45 0.34 0.40 0.24 0.21 0.11 0.03 0.01 0.02 0.05 0.29 0.48 0.52 0.35 0.28 0.10 0.15 0.31 0.21 0.15 0.03 0.00 0.00 0.01 0.01 0.01 0.05 0.14 0.09 0.04 0.00 0.00 0.00 0.00 0.00 0.00 0.00
0.24 0.25 0.29 0.27 0.22 0.19 0.18 0.24 0.27 0.27 0.48 0.39 0.29 0.22 0.21 0.13 0.03 0.00 0.00 0.01 0.17 0.40 0.53 0.44 0.51 0.27 0.19 0.33 0.25 0.10 0.02 0.01 0.00 0.00 0.00 0.00 0.01 0.02 0.03 0.03 0.00 0.00 0.00 0.00 0.00 0.00 0.00
0.27 0.25 0.28 0.24 0.21 0.20 0.17 0.19 0.23 0.19 0.36 0.47 0.26 0.27 0.24 0.17 0.05 0.01 0.01 0.01 0.05 0.25 0.50 0.43 0.36 0.14 0.10 0.14 0.09 0.05 0.02 0.00 0.00 0.00 0.00 0.00 0.00 0.00 0.00 0.00 0.00 0.00 0.00 0.00 0.00 0.00 0.00

GFSGBSN_prec_precacc_033.txt.gz
Total_Precipitation_Accumulation
0.12 0.12 0.12 0.11 0.09 0.09 0.10 0.10 0.09 0.07 0.09 0.10 0.10 0.09 0.07 0.06 0.02 0.00 0.02 0.04 0.06 0.07 0.06 0.10 0.15 0.20 0.15 0.09 0.01 0.00 0.00 0.00 0.00 0.03 0.05 0.05 0.05 0.03 0.03 0.01 0.02 0.00 0.00 0.00 0.00 0.00 0.00
0.11 0.10 0.09 0.09 0.10 0.12 0.12 0.11 0.11 0.12 0.13 0.10 0.11 0.09 0.07 0.06 0.05 0.01 0.01 0.03 0.05 0.05 0.08 0.07 0.17 0.30 0.09 0.03 0.00 0.00 0.00 0.00 0.00 0.01 0.05 0.09 0.06 0.01 0.02 0.01 0.02 0.00 0.00 0.00 0.00 0.00 0.00
0.09 0.10 0.09 0.08 0.10 0.13 0.13 0.13 0.14 0.16 0.12 0.12 0.13 0.13 0.10 0.08 0.06 0.02 0.01 0.00 0.03 0.09 0.19 0.20 0.26 0.28 0.10 0.00 0.00 0.00 0.00 0.00 0.00 0.01 0.04 0.03 0.07 0.15 0.07 0.03 0.00 0.00 0.01 0.00 0.00 0.00 0.00
0.09 0.09 0.09 0.10 0.11 0.12 0.11 0.12 0.13 0.12 0.12 0.18 0.20 0.17 0.13 0.12 0.10 0.08 0.06 0.05 0.06 0.08 0.10 0.14 0.38 0.38 0.07 0.00 0.00 0.00 0.00 0.00 0.00 0.01 0.09 0.14 0.23 0.15 0.10 0.06 0.03 0.03 0.04 0.01 0.00 0.00 0.00
0.09 0.08 0.07 0.08 0.09 0.10 0.11 0.11 0.10 0.10 0.13 0.19 0.22 0.21 0.22 0.22 0.20 0.16 0.13 0.12 0.13 0.16 0.21 0.38 0.34 0.26 0.04 0.00 0.00 0.00 0.00 0.00 0.00 0.01 0.09 0.17 0.28 0.20 0.12 0.11 0.11 0.08 0.03 0.01 0.00 0.00 0.00
0.08 0.08 0.08 0.08 0.09 0.09 0.10 0.11 0.12 0.13 0.17 0.20 0.21 0.22 0.28 0.36 0.32 0.25 0.24 0.26 0.28 0.23 0.33 0.37 0.23 0.27 0.03 0.00 0.00 0.00 0.00 0.00 0.05 0.12 0.20 0.29 0.25 0.32 0.21 0.23 0.13 0.02 0.01 0.00 0.00 0.00 0.00
0.09 0.08 0.08 0.09 0.09 0.09 0.09 0.11 0.13 0.13 0.12 0.15 0.19 0.21 0.27 0.35 0.46 0.53 0.50 0.64 0.29 0.24 0.17 0.07 0.11 0.08 0.01 0.01 0.00 0.00 0.00 0.00 0.04 0.18 0.19 0.31 0.37 0.32 0.19 0.11 0.02 0.01 0.02 0.01 0.00 0.00 0.00
0.12 0.15 0.14 0.14 0.13 0.15 0.16 0.17 0.16 0.16 0.16 0.16 0.18 0.26 0.31 0.36 0.46 0.76 0.48 0.31 0.13 0.08 0.13 0.06 0.01 0.01 0.07 0.04 0.03 0.03 0.01 0.02 0.05 0.13 0.24 0.45 0.38 0.07 0.09 0.06 0.07 0.04 0.04 0.04 0.01 0.00 0.01
0.14 0.15 0.14 0.14 0.16 0.19 0.21 0.22 0.22 0.23 0.24 0.23 0.23 0.28 0.47 0.61 0.73 1.16 0.60 0.36 0.38 0.24 0.52 0.27 0.02 0.01 0.05 0.10 0.05 0.13 0.03 0.09 0.05 0.10 0.33 0.39 0.25 0.06 0.18 0.14 0.14 0.13 0.04 0.03 0.03 0.01 0.01
0.19 0.25 0.26 0.26 0.22 0.21 0.23 0.28 0.37 0.44 0.42 0.40 0.35 0.47 0.67 0.94 1.35 0.96 0.97 0.74 0.55 0.75 1.34 0.30 0.06 0.03 0.14 0.27 0.19 0.07 0.07 0.18 0.09 0.06 0.26 0.31 0.17 0.15 0.25 0.23 0.13 0.16 0.07 0.01 0.05 0.10 0.08
0.25 0.38 0.40 0.32 0.34 0.35 0.32 0.31 0.33 0.43 0.47 0.46 0.50 0.62 0.90 1.46 1.87 1.03 0.93 0.69 0.70 1.36 0.95 0.05 0.07 0.07 0.15 0.24 0.20 0.15 0.17 0.34 0.16 0.14 0.45 0.43 0.22 0.24 0.27 0.28 0.08 0.16 0.10 0.03 0.09 0.16 0.17
0.41 0.37 0.33 0.33 0.37 0.40 0.38 0.37 0.36 0.34 0.43 0.52 0.53 0.66 1.10 1.72 1.92 1.34 0.94 0.96 1.15 1.49 0.60 0.12 0.17 0.19 0.27 0.21 0.25 0.29 0.45 0.40 0.42 0.44 0.46 0.24 0.13 0.21 0.18 0.14 0.11 0.18 0.21 0.21 0.15 0.39 0.40
0.34 0.32 0.37 0.39 0.39 0.40 0.38 0.38 0.40 0.58 0.59 0.50 0.55 0.58 1.07 1.31 1.64 1.71 1.41 1.38 1.39 0.81 0.26 0.35 0.29 0.32 0.29 0.18 0.31 0.38 0.70 0.69 1.14 0.76 0.78 0.73 0.49 0.24 0.20 0.43 0.42 0.57 0.72 0.90 0.62 0.56 0.41
0.37 0.41 0.37 0.37 0.38 0.38 0.48 0.47 0.62 0.74 0.62 0.62 0.74 0.92 1.11 1.08 1.69 1.68 1.70 1.26 0.93 0.27 0.33 0.34 0.26 0.30 0.33 0.16 0.33 0.43 0.67 0.57 0.53 0.32 0.54 0.70 0.66 0.35 0.26 0.69 0.78 0.58 0.79 0.83 0.36 0.15 0.12
0.42 0.43 0.42 0.44 0.48 0.49 0.55 0.59 0.55 0.57 0.50 0.70 0.89 1.37 2.04 1.19 1.72 2.11 1.86 1.35 0.44 0.24 0.33 0.33 0.36 0.30 0.23 0.18 0.43 0.49 0.54 0.27 0.20 0.10 0.44 0.52 0.45 0.20 0.14 0.37 0.52 0.62 0.84 0.48 0.45 0.23 0.24
0.43 0.44 0.50 0.59 0.62 0.68 0.71 0.61 0.71 0.67 0.76 0.87 1.08 1.41 1.88 1.26 1.55 2.73 2.30 0.98 0.38 0.41 0.43 0.31 0.23 0.15 0.09 0.15 0.46 0.41 0.42 0.16 0.09 0.02 0.17 0.37 0.57 0.36 0.39 0.50 0.63 0.59 0.36 0.50 0.95 0.53 0.21
0.46 0.47 0.55 0.69 0.70 0.77 0.83 0.70 0.77 1.00 1.04 0.87 0.93 1.66 1.21 1.72 2.22 3.22 1.99 0.81 0.36 0.31 0.42 0.34 0.11 0.10 0.05 0.04 0.29 0.20 0.20 0.08 0.03 0.00 0.12 0.48 0.71 0.48 0.64 0.73 0.52 0.72 0.86 0.48 0.38 0.23 0.26
0.43 0.48 0.52 0.67 0.70 0.70 0.86 0.70 0.58 0.96 1.00 0.97 1.05 1.12 1.25 2.09 3.15 2.16 1.23 0.94 0.45 0.28 0.38 0.36 0.16 0.06 0.05 0.03 0.17 0.12 0.06 0.02 0.01 0.01 0.11 0.40 0.77 0.61 0.31 0.29 0.09 0.34 0.36 0.29 0.46 0.21 0.23
0.38 0.41 0.53 0.57 0.63 0.68 0.83 0.75 0.55 0.77 1.32 1.66 1.13 1.18 2.03 1.33 1.43 0.96 0.88 0.83 0.53 0.35 0.35 0.35 0.11 0.04 0.02 0.04 0.07 0.03 0.05 0.00 0.00 0.01 0.11 0.42 0.89 0.66 0.32 0.70 0.40 0.56 0.37 0.51 0.67 0.50 0.42
0.34 0.39 0.43 0.41 0.46 0.56 0.75 0.57 0.51 0.67 0.95 1.19 1.02 1.29 2.89 1.92 0.63 0.62 0.79 0.74 0.57 0.33 0.27 0.30 0.15 0.07 0.06 0.05 0.02 0.01 0.05 0.00 0.00 0.00 0.06 0.38 0.49 0.54 0.35 0.57 0.62 0.38 0.24 0.52 0.98 0.89 0.27
0.33 0.38 0.37 0.36 0.42 0.48 0.60 0.60 0.63 0.77 0.80 0.97 0.82 0.53 0.64 0.68 0.37 0.35 0.75 0.70 0.57 0.52 0.32 0.28 0.18 0.09 0.05 0.05 0.02 0.02 0.02 0.01 0.00 0.00 0.07 0.42 0.68 0.78 0.36 0.13 0.47 0.48 0.33 0.45 0.73 0.51 0.51
0.36 0.36 0.34 0.36 0.36 0.44 0.51 0.63 0.70 1.04 1.44 0.93 0.68 0.30 0.11 0.03 0.02 0.16 0.69 0.85 0.60 0.53 0.41 0.21 0.10 0.05 0.07 0.03 0.01 0.00 0.00 0.01 0.01 0.01 0.06 0.33 0.85 0.92 0.57 0.20 0.23 0.49 0.50 0.57 0.54 0.46 0.55
0.30 0.32 0.35 0.31 0.32 0.37 0.44 0.58 0.82 1.22 1.76 1.11 0.70 0.30 0.13 0.11 0.05 0.13 0.43 0.65 0.51 0.46 0.29 0.09 0.08 0.12 0.10 0.02 0.00 0.00 0.00 0.00 0.04 0.04 0.16 0.29 0.52 0.77 0.46 0.35 0.35 0.69 0.61 0.51 0.33 0.32 0.40
0.29 0.33 0.38 0.31 0.27 0.30 0.31 0.39 0.51 0.73 1.08 0.96 0.64 0.43 0.29 0.17 0.06 0.07 0.20 0.40 0.42 0.37 0.36 0.09 0.10 0.10 0.06 0.02 0.03 0.03 0.08 0.02 0.03 0.07 0.07 0.11 0.28 0.52 0.41 0.49 0.71 0.51 0.47 0.35 0.35 0.33 0.30
0.31 0.31 0.35 0.31 0.25 0.25 0.24 0.36 0.50 0.62 0.88 0.56 0.40 0.36 0.25 0.12 0.04 0.04 0.16 0.36 0.48 0.46 0.52 0.25 0.08 0.06 0.08 0.08 0.13 0.13 0.17 0.19 0.08 0.04 0.01 0.01 0.15 0.26 0.16 0.14 0.16 0.01 0.04 0.17 0.17 0.19 0.10
0.29 0.29 0.30 0.31 0.23 0.25 0.31 0.37 0.45 0.54 0.54 0.37 0.35 0.30 0.37 0.13 0.07 0.03 0.05 0.16 0.44 0.44 0.51 0.37 0.17 0.09 0.17 0.22 0.17 0.15 0.14 0.09 0.07 0.09 0.02 0.00 0.09 0.26 0.06 0.05 0.01 0.00 0.00 0.00 0.00 0.00 0.00
0.27 0.27 0.28 0.30 0.25 0.20 0.25 0.30 0.26 0.34 0.46 0.34 0.42 0.32 0.27 0.12 0.03 0.01 0.02 0.05 0.30 0.50 0.55 0.38 0.34 0.14 0.19 0.35 0.22 0.16 0.03 0.00 0.00 0.01 0.01 0.01 0.06 0.15 0.11 0.06 0.00 0.00 0.00 0.00 0.00 0.00 0.02
0.24 0.25 0.30 0.28 0.23 0.19 0.18 0.24 0.27 0.27 0.50 0.39 0.33 0.28 0.25 0.13 0.03 0.00 0.00 0.02 0.17 0.40 0.56 0.50 0.57 0.33 0.28 0.37 0.26 0.11 0.02 0.01 0.00 0.00 0.00 0.00 0.01 0.02 0.04 0.03 0.00 0.00 0.00 0.00 0.00 0.00 0.00
0.27 0.26 0.29 0.26 0.21 0.20 0.17 0.19 0.23 0.20 0.39 0.48 0.31 0.28 0.25 0.17 0.05 0.01 0.01 0.01 0.05 0.26 0.55 0.53 0.45 0.25 0.16 0.15 0.09 0.05 0.02 0.00 0.00 0.00 0.00 0.00 0.00 0.00 0.00 0.00 0.00 0.00 0.00 0.00 0.00 0.00 0.00

GFSGBSN_prec_precacc_036.txt.gz
Total_Precipitation_Accumulation
0.12 0.12 0.12 0.11 0.09 0.09 0.10 0.10 0.09 0.07 0.09 0.10 0.11 0.12 0.11 0.09 0.08 0.07 0.03 0.04 0.06 0.07 0.06 0.10 0.15 0.20 0.15 0.09 0.01 0.00 0.00 0.00 0.00 0.04 0.06 0.05 0.05 0.03 0.03 0.01 0.02 0.00 0.00 0.00 0.00 0.00 0.00
0.11 0.10 0.09 0.09 0.10 0.12 0.12 0.11 0.11 0.12 0.13 0.10 0.11 0.10 0.10 0.09 0.08 0.08 0.03 0.03 0.05 0.05 0.08 0.07 0.17 0.30 0.09 0.03 0.00 0.00 0.00 0.00 0.00 0.02 0.06 0.09 0.06 0.01 0.02 0.01 0.02 0.00 0.00 0.00 0.00 0.00 0.00
0.09 0.10 0.09 0.08 0.10 0.13 0.13 0.13 0.14 0.16 0.13 0.13 0.13 0.13 0.11 0.11 0.12 0.10 0.07 0.01 0.03 0.09 0.19 0.20 0.26 0.28 0.10 0.00 0.00 0.00 0.00 0.00 0.00 0.01 0.05 0.04 0.08 0.15 0.07 0.03 0.00 0.00 0.01 0.00 0.00 0.00 0.00
0.09 0.09 0.09 0.10 0.11 0.12 0.11 0.12 0.13 0.12 0.12 0.18 0.21 0.17 0.14 0.14 0.15 0.16 0.16 0.08 0.06 0.08 0.10 0.14 0.38 0.38 0.07 0.00 0.00 0.00 0.00 0.00 0.00 0.02 0.11 0.15 0.24 0.16 0.10 0.06 0.03 0.03 0.04 0.01 0.00 0.00 0.00
0.09 0.08 0.08 0.08 0.09 0.10 0.11 0.11 0.10 0.10 0.13 0.21 0.24 0.22 0.23 0.23 0.24 0.24 0.22 0.20 0.15 0.18 0.22 0.38 0.34 0.26 0.04 0.00 0.00 0.00 0.00 0.00 0.00 0.01 0.09 0.17 0.28 0.20 0.12 0.11 0.11 0.08 0.03 0.01 0.00 0.00 0.00
0.09 0.09 0.09 0.09 0.10 0.10 0.11 0.11 0.12 0.13 0.18 0.21 0.22 0.23 0.28 0.36 0.36 0.33 0.42 0.46 0.33 0.26 0.35 0.38 0.24 0.27 0.03 0.00 0.00 0.00 0.00 0.00 0.05 0.12 0.20 0.29 0.25 0.32 0.21 0.23 0.13 0.02 0.01 0.00 0.00 0.00 0.00
0.09 0.08 0.08 0.09 0.10 0.10 0.10 0.12 0.14 0.14 0.14 0.17 0.21 0.24 0.28 0.36 0.47 0.65 1.03 1.13 0.35 0.24 0.18 0.07 0.11 0.08 0.01 0.01 0.00 0.00 0.00 0.00 0.04 0.18 0.19 0.31 0.37 0.32 0.19 0.11 0.02 0.01 0.02 0.01 0.00 0.00 0.00
0.12 0.15 0.15 0.15 0.14 0.16 0.17 0.18 0.18 0.18 0.18 0.21 0.23 0.27 0.31 0.37 0.47 0.88 1.09 0.67 0.15 0.08 0.13 0.06 0.01 0.01 0.07 0.04 0.03 0.03 0.01 0.02 0.05 0.13 0.24 0.45 0.38 0.07 0.09 0.06 0.07 0.04 0.05 0.04 0.01 0.00 0.01
0.15 0.16 0.15 0.14 0.17 0.20 0.22 0.23 0.24 0.26 0.29 0.29 0.25 0.29 0.48 0.61 0.74 1.26 1.01 0.60 0.39 0.24 0.52 0.27 0.02 0.01 0.05 0.10 0.05 0.13 0.03 0.09 0.05 0.10 0.33 0.39 0.25 0.06 0.18 0.14 0.14 0.13 0.04 0.03 0.03 0.01 0.01
0.20 0.26 0.27 0.27 0.24 0.22 0.24 0.29 0.39 0.47 0.45 0.42 0.37 0.48 0.67 0.95 1.37 1.01 1.25 0.94 0.63 0.76 1.34 0.30 0.06 0.03 0.14 0.27 0.19 0.07 0.07 0.18 0.09 0.06 0.26 0.31 0.17 0.15 0.25 0.23 0.13 0.16 0.07 0.01 0.05 0.10 0.08
0.26 0.38 0.41 0.34 0.36 0.36 0.33 0.32 0.35 0.44 0.49 0.53 0.64 0.71 0.94 1.51 1.88 1.11 1.13 0.91 0.88 1.38 0.95 0.05 0.07 0.07 0.15 0.24 0.20 0.15 0.17 0.34 0.16 0.14 0.45 0.43 0.22 0.24 0.27 0.28 0.08 0.16 0.10 0.03 0.09 0.16 0.17
0.42 0.38 0.35 0.36 0.38 0.42 0.39 0.38 0.37 0.34 0.49 0.70 0.67 0.72 1.15 1.76 1.94 1.40 1.16 1.35 1.50 1.54 0.61 0.12 0.17 0.21 0.29 0.21 0.26 0.29 0.45 0.41 0.42 0.45 0.46 0.24 0.13 0.21 0.18 0.14 0.11 0.18 0.21 0.21 0.15 0.40 0.42
0.35 0.33 0.39 0.41 0.41 0.42 0.40 0.39 0.40 0.59 0.65 0.61 0.65 0.69 1.12 1.33 1.64 1.76 1.90 1.88 1.78 0.87 0.26 0.35 0.29 0.34 0.30 0.19 0.32 0.38 0.70 0.70 1.14 0.76 0.79 0.74 0.49 0.24 0.20 0.43 0.42 0.58 0.74 0.91 0.63 0.59 0.42
0.38 0.42 0.39 0.40 0.41 0.40 0.50 0.48 0.62 0.75 0.67 0.69 0.89 0.96 1.17 1.09 1.71 1.85 2.28 1.71 1.04 0.28 0.33 0.34 0.26 0.31 0.33 0.16 0.33 0.43 0.67 0.58 0.53 0.32 0.54 0.71 0.66 0.35 0.26 0.69 0.78 0.58 0.80 0.83 0.36 0.15 0.12
0.44 0.45 0.45 0.47 0.51 0.52 0.58 0.60 0.55 0.58 0.56 0.89 0.96 1.38 2.10 1.20 1.77 2.44 2.36 1.62 0.47 0.24 0.33 0.33 0.36 0.31 0.23 0.18 0.43 0.49 0.54 0.27 0.21 0.10 0.44 0.52 0.45 0.20 0.14 0.37 0.53 0.63 0.85 0.49 0.47 0.24 0.25
0.45 0.46 0.53 0.63 0.64 0.72 0.73 0.62 0.71 0.68 0.83 1.06 1.15 1.43 1.96 1.31 1.62 3.17 2.70 1.16 0.38 0.41 0.43 0.31 0.23 0.15 0.09 0.15 0.46 0.41 0.42 0.16 0.09 0.02 0.17 0.37 0.57 0.36 0.39 0.50 0.63 0.59 0.37 0.51 0.98 0.54 0.21
0.47 0.49 0.58 0.72 0.71 0.81 0.84 0.72 0.77 1.00 1.09 1.01 0.99 1.70 1.26 1.81 2.34 3.56 2.42 0.92 0.36 0.31 0.42 0.34 0.11 0.10 0.05 0.04 0.29 0.20 0.20 0.08 0.03 0.00 0.12 0.48 0.71 0.48 0.64 0.73 0.52 0.72 0.87 0.50 0.42 0.23 0.27
0.45 0.50 0.55 0.69 0.71 0.72 0.87 0.71 0.58 0.96 1.05 1.07 1.10 1.26 1.31 2.15 3.22 2.34 1.47 0.97 0.45 0.28 0.38 0.36 0.16 0.06 0.05 0.03 0.17 0.12 0.06 0.02 0.01 0.01 0.11 0.40 0.77 0.61 0.31 0.29 0.09 0.34 0.36 0.30 0.55 0.24 0.29
0.39 0.43 0.55 0.59 0.66 0.69 0.85 0.76 0.55 0.78 1.52 1.87 1.22 1.44 2.18 1.38 1.46 1.00 1.00 0.86 0.53 0.35 0.35 0.35 0.11 0.04 0.02 0.04 0.07 0.03 0.05 0.00 0.00 0.01 0.11 0.42 0.90 0.66 0.32 0.70 0.40 0.56 0.37 0.51 0.72 0.67 0.60
0.35 0.40 0.45 0.42 0.49 0.57 0.76 0.57 0.51 0.69 1.05 1.26 1.16 1.40 2.98 2.03 0.66 0.62 0.81 0.76 0.58 0.33 0.27 0.30 0.15 0.07 0.06 0.05 0.02 0.01 0.05 0.00 0.00 0.00 0.06 0.38 0.49 0.54 0.35 0.57 0.63 0.44 0.28 0.57 1.18 1.16 0.34
0.34 0.39 0.37 0.38 0.45 0.49 0.61 0.60 0.64 0.79 0.82 0.99 0.84 0.54 0.65 0.71 0.38 0.35 0.76 0.70 0.58 0.52 0.32 0.28 0.18 0.09 0.05 0.05 0.03 0.02 0.02 0.01 0.00 0.00 0.07 0.42 0.69 0.78 0.36 0.13 0.47 0.50 0.39 0.54 0.99 0.64 0.63
0.38 0.37 0.34 0.38 0.38 0.44 0.51 0.63 0.70 1.07 1.52 1.08 0.71 0.31 0.13 0.06 0.03 0.16 0.69 0.86 0.60 0.53 0.41 0.21 0.10 0.05 0.07 0.04 0.01 0.00 0.00 0.01 0.01 0.01 0.06 0.33 0.86 0.93 0.57 0.21 0.25 0.58 0.56 0.67 0.63 0.53 0.61
0.31 0.33 0.35 0.32 0.34 0.38 0.44 0.58 0.82 1.22 1.80 1.15 0.70 0.33 0.15 0.12 0.05 0.13 0.43 0.65 0.51 0.46 0.29 0.09 0.08 0.12 0.10 0.02 0.00 0.00 0.00 0.00 0.04 0.04 0.17 0.29 0.55 0.81 0.47 0.37 0.37 0.78 0.73 0.57 0.35 0.33 0.41
0.30 0.34 0.38 0.32 0.29 0.30 0.31 0.39 0.51 0.73 1.11 1.00 0.69 0.52 0.36 0.18 0.06 0.07 0.20 0.40 0.42 0.38 0.36 0.09 0.10 0.10 0.06 0.02 0.03 0.03 0.08 0.02 0.03 0.07 0.07 0.12 0.30 0.56 0.43 0.50 0.78 0.57 0.51 0.35 0.35 0.33 0.30
0.32 0.31 0.35 0.32 0.27 0.26 0.25 0.36 0.50 0.62 0.89 0.58 0.53 0.48 0.33 0.14 0.06 0.04 0.16 0.36 0.48 0.46 0.52 0.25 0.09 0.07 0.09 0.10 0.15 0.14 0.18 0.19 0.08 0.04 0.01 0.01 0.16 0.31 0.18 0.16 0.17 0.02 0.05 0.17 0.20 0.25 0.13
0.30 0.30 0.30 0.31 0.24 0.25 0.31 0.37 0.45 0.54 0.55 0.37 0.43 0.43 0.44 0.15 0.07 0.03 0.05 0.16 0.45 0.45 0.52 0.39 0.22 0.11 0.19 0.26 0.19 0.15 0.14 0.09 0.07 0.09 0.02 0.01 0.10 0.30 0.09 0.08 0.01 0.00 0.00 0.00 0.01 0.10 0.16
0.27 0.28 0.29 0.30 0.26 0.20 0.25 0.30 0.26 0.34 0.47 0.35 0.44 0.44 0.32 0.12 0.03 0.01 0.02 0.05 0.30 0.51 0.56 0.41 0.35 0.16 0.24 0.40 0.23 0.16 0.03 0.00 0.00 0.01 0.01 0.01 0.06 0.17 0.13 0.10 0.00 0.00 0.00 0.00 0.00 0.09 0.10
0.25 0.26 0.31 0.30 0.23 0.19 0.19 0.24 0.27 0.27 0.51 0.40 0.34 0.34 0.29 0.14 0.03 0.00 0.00 0.02 0.17 0.40 0.57 0.51 0.60 0.34 0.32 0.42 0.28 0.11 0.03 0.01 0.00 0.00 0.00 0.00 0.02 0.02 0.04 0.03 0.00 0.00 0.00 0.00 0.00 0.00 0.00
0.27 0.26 0.30 0.27 0.22 0.21 0.17 0.19 0.23 0.20 0.39 0.48 0.32 0.30 0.28 0.18 0.05 0.01 0.01 0.01 0.05 0.26 0.56 0.55 0.49 0.28 0.21 0.19 0.10 0.05 0.02 0.00 0.00 0.00 0.00 0.00 0.00 0.00 0.00 0.00 0.00 0.00 0.00 0.00 0.00 0.00 0.00

GFSGBSN_prec_precacc_039.txt.gz
Total_Precipitation_Accumulation
0.12 0.12 0.12 0.11 0.09 0.09 0.10 0.10 0.09 0.07 0.09 0.10 0.11 0.12 0.11 0.10 0.09 0.10 0.11 0.10 0.06 0.07 0.06 0.10 0.15 0.20 0.15 0.09 0.01 0.00 0.00 0.00 0.00 0.10 0.10 0.05 0.05 0.03 0.03 0.01 0.02 0.00 0.00 0.00 0.00 0.00 0.00
0.11 0.10 0.09 0.09 0.10 0.12 0.12 0.11 0.11 0.12 0.13 0.10 0.11 0.11 0.10 0.09 0.09 0.10 0.09 0.09 0.05 0.05 0.08 0.07 0.17 0.30 0.09 0.03 0.00 0.00 0.00 0.00 0.00 0.03 0.10 0.10 0.06 0.01 0.02 0.01 0.02 0.00 0.00 0.00 0.00 0.00 0.00
0.09 0.10 0.09 0.08 0.10 0.13 0.13 0.13 0.14 0.16 0.13 0.13 0.14 0.14 0.12 0.11 0.12 0.13 0.14 0.14 0.09 0.10 0.19 0.20 0.26 0.28 0.10 0.00 0.00 0.00 0.00 0.00 0.00 0.01 0.07 0.05 0.08 0.15 0.07 0.03 0.00 0.00 0.01 0.00 0.00 0.00 0.00
0.09 0.10 0.09 0.10 0.11 0.12 0.11 0.12 0.13 0.12 0.12 0.18 0.22 0.18 0.15 0.15 0.16 0.19 0.23 0.19 0.18 0.09 0.10 0.14 0.38 0.38 0.07 0.00 0.00 0.00 0.00 0.00 0.00 0.02 0.12 0.16 0.24 0.16 0.10 0.06 0.03 0.03 0.04 0.01 0.00 0.00 0.00
0.10 0.09 0.08 0.09 0.10 0.11 0.12 0.12 0.10 0.10 0.13 0.21 0.25 0.23 0.24 0.24 0.25 0.25 0.31 0.37 0.41 0.19 0.22 0.38 0.34 0.26 0.04 0.00 0.00 0.00 0.00 0.00 0.00 0.01 0.09 0.18 0.29 0.20 0.12 0.11 0.11 0.08 0.03 0.01 0.00 0.00 0.00
0.09 0.09 0.09 0.09 0.11 0.11 0.12 0.12 0.13 0.14 0.18 0.21 0.23 0.24 0.31 0.39 0.38 0.35 0.49 0.69 0.89 0.38 0.39 0.40 0.24 0.27 0.03 0.00 0.00 0.00 0.00 0.00 0.05 0.12 0.20 0.29 0.26 0.32 0.21 0.23 0.13 0.02 0.01 0.00 0.00 0.00 0.00
0.10 0.09 0.09 0.10 0.11 0.11 0.12 0.14 0.15 0.15 0.15 0.18 0.24 0.30 0.32 0.38 0.51 0.67 1.09 1.62 1.15 0.53 0.22 0.08 0.12 0.08 0.01 0.01 0.00 0.00 0.00 0.00 0.04 0.19 0.19 0.31 0.37 0.32 0.19 0.11 0.02 0.01 0.02 0.01 0.00 0.00 0.00
0.12 0.16 0.16 0.16 0.14 0.18 0.19 0.19 0.19 0.19 0.22 0.24 0.27 0.30 0.32 0.37 0.48 0.89 1.18 1.24 0.50 0.14 0.14 0.06 0.01 0.01 0.07 0.04 0.03 0.03 0.01 0.02 0.05 0.13 0.24 0.45 0.38 0.07 0.09 0.06 0.07 0.04 0.05 0.04 0.01 0.00 0.01
0.15 0.17 0.15 0.15 0.19 0.23 0.25 0.24 0.25 0.29 0.32 0.31 0.29 0.32 0.49 0.64 0.76 1.27 1.03 0.76 0.60 0.40 0.57 0.27 0.02 0.01 0.05 0.10 0.05 0.13 0.03 0.09 0.05 0.10 0.33 0.39 0.25 0.06 0.18 0.14 0.14 0.13 0.04 0.03 0.03 0.01 0.01
0.22 0.26 0.28 0.29 0.26 0.26 0.26 0.30 0.41 0.50 0.46 0.44 0.43 0.56 0.75 1.02 1.41 1.02 1.25 0.95 0.91 0.99 1.42 0.31 0.06 0.03 0.14 0.27 0.19 0.07 0.07 0.18 0.09 0.06 0.26 0.31 0.17 0.15 0.25 0.23 0.13 0.16 0.07 0.01 0.05 0.10 0.08
0.26 0.38 0.42 0.35 0.39 0.39 0.35 0.35 0.38 0.46 0.49 0.55 0.73 0.93 1.09 1.64 1.97 1.14 1.18 0.95 1.16 1.78 1.10 0.05 0.07 0.07 0.15 0.24 0.20 0.15 0.17 0.34 0.16 0.14 0.45 0.43 0.22 0.24 0.27 0.28 0.08 0.16 0.10 0.03 0.09 0.16 0.17
0.42 0.38 0.36 0.37 0.41 0.44 0.43 0.41 0.38 0.35 0.49 0.72 0.70 0.76 1.20 1.82 1.99 1.41 1.25 1.49 1.95 1.98 0.71 0.13 0.18 0.22 0.30 0.22 0.26 0.29 0.46 0.41 0.42 0.45 0.46 0.24 0.13 0.21 0.18 0.14 0.11 0.18 0.21 0.21 0.15 0.40 0.43
0.35 0.35 0.41 0.44 0.43 0.45 0.44 0.41 0.41 0.60 0.65 0.61 0.66 0.72 1.17 1.39 1.66 1.76 2.19 2.13 2.29 1.07 0.29 0.36 0.30 0.35 0.30 0.19 0.32 0.39 0.71 0.71 1.15 0.77 0.79 0.74 0.49 0.24 0.20 0.43 0.43 0.58 0.74 0.91 0.63 0.60 0.43
0.39 0.44 0.42 0.43 0.43 0.44 0.54 0.49 0.62 0.76 0.67 0.70 0.91 0.97 1.21 1.10 1.75 1.88 2.73 1.99 1.28 0.33 0.33 0.34 0.27 0.32 0.34 0.17 0.34 0.44 0.68 0.59 0.53 0.33 0.54 0.71 0.66 0.35 0.26 0.69 0.78 0.59 0.80 0.83 0.36 0.15 0.12
0.45 0.47 0.47 0.49 0.53 0.55 0.61 0.61 0.55 0.58 0.56 0.91 0.99 1.41 2.19 1.21 1.83 2.51 2.57 1.88 0.56 0.24 0.33 0.34 0.37 0.31 0.24 0.19 0.44 0.49 0.54 0.28 0.21 0.10 0.44 0.52 0.45 0.20 0.14 0.37 0.53 0.63 0.86 0.49 0.48 0.25 0.25
0.46 0.48 0.55 0.65 0.66 0.75 0.75 0.62 0.71 0.68 0.84 1.13 1.20 1.48 2.04 1.36 1.68 3.28 2.87 1.33 0.39 0.41 0.43 0.31 0.23 0.15 0.09 0.16 0.46 0.41 0.42 0.16 0.09 0.02 0.17 0.37 0.57 0.36 0.39 0.50 0.63 0.59 0.37 0.52 1.00 0.54 0.21
0.49 0.51 0.59 0.73 0.73 0.83 0.85 0.72 0.77 1.00 1.10 1.07 1.01 1.89 1.39 1.88 2.38 3.65 2.60 1.00 0.36 0.31 0.42 0.34 0.11 0.10 0.05 0.04 0.29 0.20 0.20 0.08 0.03 0.00 0.12 0.48 0.71 0.48 0.64 0.73 0.52 0.72 0.88 0.50 0.42 0.24 0.27
0.47 0.52 0.56 0.71 0.73 0.73 0.88 0.71 0.58 0.97 1.08 1.11 1.16 1.52 1.38 2.20 3.27 2.48 1.63 1.00 0.46 0.28 0.38 0.36 0.16 0.06 0.05 0.03 0.17 0.12 0.06 0.02 0.01 0.01 0.11 0.40 0.77 0.61 0.31 0.29 0.09 0.34 0.36 0.31 0.56 0.24 0.32
0.40 0.44 0.56 0.60 0.67 0.69 0.85 0.76 0.55 0.80 1.63 1.96 1.43 1.63 2.27 1.46 1.50 1.09 1.11 0.88 0.54 0.35 0.35 0.35 0.11 0.04 0.02 0.04 0.07 0.03 0.05 0.00 0.00 0.01 0.11 0.42 0.90 0.67 0.32 0.70 0.40 0.56 0.37 0.51 0.74 0.77 0.68
0.37 0.41 0.46 0.43 0.50 0.57 0.76 0.57 0.51 0.70 1.07 1.41 1.35 1.52 3.02 2.04 0.67 0.63 0.85 0.78 0.58 0.33 0.27 0.30 0.15 0.07 0.06 0.05 0.02 0.01 0.05 0.00 0.00 0.00 0.06 0.38 0.49 0.54 0.35 0.57 0.63 0.44 0.28 0.59 1.35 1.36 0.37
0.36 0.40 0.38 0.39 0.46 0.49 0.61 0.60 0.64 0.79 0.82 1.07 0.88 0.56 0.66 0.71 0.39 0.36 0.77 0.71 0.60 0.52 0.32 0.28 0.18 0.09 0.05 0.05 0.03 0.02 0.02 0.01 0.00 0.00 0.07 0.42 0.69 0.78 0.36 0.13 0.47 0.50 0.39 0.55 1.08 0.77 0.79
0.38 0.38 0.35 0.38 0.39 0.44 0.51 0.63 0.70 1.07 1.52 1.09 0.73 0.32 0.14 0.06 0.03 0.17 0.70 0.86 0.61 0.53 0.41 0.21 0.10 0.05 0.07 0.04 0.01 0.00 0.00 0.01 0.01 0.01 0.06 0.33 0.87 0.94 0.57 0.21 0.25 0.58 0.56 0.70 0.68 0.58 0.68
0.31 0.33 0.36 0.32 0.34 0.38 0.44 0.58 0.82 1.22 1.81 1.16 0.71 0.33 0.16 0.13 0.05 0.14 0.44 0.65 0.51 0.46 0.29 0.09 0.08 0.12 0.10 0.02 0.00 0.00 0.00 0.00 0.04 0.05 0.17 0.30 0.55 0.82 0.48 0.37 0.37 0.79 0.74 0.59 0.36 0.35 0.42
0.31 0.34 0.39 0.33 0.29 0.30 0.31 0.39 0.51 0.73 1.12 1.02 0.71 0.56 0.38 0.19 0.07 0.07 0.20 0.40 0.42 0.38 0.36 0.09 0.10 0.10 0.06 0.02 0.03 0.03 0.08 0.03 0.04 0.08 0.08 0.12 0.31 0.58 0.44 0.51 0.78 0.58 0.51 0.35 0.36 0.35 0.30
0.33 0.32 0.36 0.33 0.27 0.26 0.25 0.36 0.50 0.62 0.89 0.59 0.57 0.52 0.36 0.15 0.06 0.05 0.16 0.36 0.48 0.46 0.52 0.25 0.09 0.07 0.09 0.10 0.16 0.14 0.18 0.20 0.09 0.04 0.01 0.02 0.17 0.35 0.20 0.17 0.18 0.02 0.05 0.17 0.23 0.32 0.17
0.30 0.30 0.31 0.32 0.24 0.25 0.31 0.37 0.45 0.54 0.55 0.38 0.48 0.48 0.48 0.17 0.08 0.03 0.05 0.16 0.45 0.45 0.52 0.39 0.23 0.13 0.21 0.28 0.21 0.16 0.14 0.09 0.07 0.10 0.03 0.01 0.11 0.38 0.11 0.12 0.01 0.00 0.00 0.00 0.03 0.19 0.25
0.27 0.28 0.29 0.31 0.26 0.20 0.25 0.30 0.26 0.34 0.47 0.35 0.46 0.49 0.34 0.14 0.04 0.01 0.03 0.06 0.30 0.51 0.57 0.42 0.37 0.17 0.28 0.44 0.25 0.17 0.04 0.00 0.00 0.02 0.01 0.02 0.08 0.21 0.15 0.15 0.01 0.00 0.00 0.00 0.00 0.10 0.11
0.25 0.26 0.31 0.30 0.23 0.20 0.19 0.24 0.27 0.27 0.51 0.40 0.35 0.36 0.31 0.15 0.04 0.00 0.00 0.02 0.17 0.40 0.57 0.51 0.60 0.35 0.34 0.46 0.30 0.12 0.03 0.01 0.00 0.00 0.00 0.01 0.02 0.03 0.05 0.06 0.01 0.00 0.00 0.00 0.00 0.00 0.00
0.27 0.26 0.30 0.27 0.22 0.21 0.17 0.19 0.23 0.20 0.39 0.48 0.32 0.31 0.31 0.19 0.06 0.01 0.01 0.01 0.05 0.26 0.56 0.55 0.49 0.28 0.21 0.20 0.11 0.06 0.03 0.01 0.00 0.00 0.00 0.00 0.00 0.00 0.00 0.00 0.00 0.00 0.00 0.00 0.00 0.00 0.00

GFSGBSN_prec_precacc_042.txt.gz
Total_Precipitation_Accumulation
0.12 0.12 0.12 0.11 0.09 0.09 0.10 0.10 0.09 0.07 0.09 0.10 0.11 0.12 0.11 0.10 0.09 0.10 0.11 0.15 0.16 0.11 0.07 0.10 0.15 0.20 0.15 0.10 0.02 0.00 0.00 0.00 0.03 0.18 0.14 0.06 0.05 0.03 0.03 0.01 0.02 0.00 0.00 0.00 0.00 0.00 0.00
0.11 0.10 0.10 0.09 0.10 0.12 0.12 0.11 0.11 0.12 0.13 0.11 0.12 0.11 0.10 0.10 0.10 0.10 0.09 0.11 0.18 0.16 0.10 0.07 0.17 0.30 0.09 0.03 0.00 0.00 0.00 0.00 0.00 0.07 0.18 0.12 0.06 0.01 0.02 0.01 0.02 0.00 0.00 0.00 0.00 0.00 0.00
0.09 0.11 0.10 0.09 0.10 0.13 0.13 0.13 0.15 0.16 0.13 0.13 0.14 0.14 0.12 0.12 0.12 0.13 0.14 0.16 0.19 0.23 0.23 0.20 0.26 0.28 0.10 0.00 0.00 0.00 0.00 0.00 0.00 0.02 0.15 0.10 0.08 0.15 0.07 0.04 0.00 0.00 0.01 0.00 0.00 0.00 0.00
0.10 0.11 0.09 0.10 0.12 0.13 0.12 0.14 0.14 0.12 0.13 0.19 0.22 0.18 0.15 0.15 0.16 0.19 0.23 0.22 0.31 0.31 0.17 0.14 0.38 0.38 0.07 0.00 0.00 0.00 0.00 0.00 0.00 0.02 0.15 0.19 0.24 0.16 0.10 0.06 0.03 0.03 0.04 0.01 0.00 0.00 0.00
0.11 0.09 0.08 0.10 0.11 0.12 0.13 0.13 0.12 0.11 0.14 0.21 0.25 0.23 0.24 0.25 0.28 0.27 0.31 0.39 0.53 0.54 0.40 0.41 0.34 0.26 0.04 0.00 0.00 0.00 0.00 0.00 0.00 0.01 0.10 0.19 0.29 0.21 0.12 0.11 0.11 0.08 0.03 0.01 0.00 0.00 0.00
0.10 0.09 0.10 0.11 0.12 0.13 0.14 0.15 0.16 0.15 0.19 0.24 0.25 0.26 0.35 0.43 0.44 0.41 0.52 0.70 1.02 0.97 0.72 0.46 0.25 0.27 0.03 0.00 0.00 0.00 0.00 0.00 0.05 0.12 0.21 0.32 0.26 0.32 0.21 0.23 0.13 0.02 0.01 0.00 0.00 0.00 0.00
0.10 0.09 0.11 0.11 0.12 0.13 0.16 0.18 0.17 0.16 0.18 0.22 0.27 0.32 0.38 0.40 0.52 0.71 1.11 1.63 1.40 1.40 0.65 0.14 0.12 0.08 0.01 0.01 0.00 0.00 0.00 0.00 0.04 0.19 0.20 0.31 0.38 0.32 0.19 0.11 0.02 0.01 0.02 0.01 0.00 0.00 0.00
0.13 0.17 0.17 0.16 0.17 0.21 0.23 0.23 0.20 0.21 0.26 0.27 0.29 0.32 0.36 0.39 0.49 0.92 1.20 1.26 0.76 0.60 0.43 0.12 0.02 0.01 0.07 0.04 0.03 0.03 0.01 0.02 0.06 0.13 0.24 0.45 0.38 0.07 0.09 0.06 0.07 0.04 0.05 0.04 0.01 0.00 0.01
0.16 0.18 0.16 0.17 0.21 0.25 0.28 0.26 0.27 0.33 0.35 0.32 0.30 0.36 0.56 0.74 0.78 1.29 1.05 0.77 0.75 0.82 0.86 0.35 0.03 0.01 0.05 0.10 0.05 0.13 0.03 0.09 0.05 0.10 0.33 0.39 0.25 0.06 0.18 0.14 0.14 0.13 0.04 0.03 0.03 0.01 0.01
0.22 0.26 0.29 0.31 0.29 0.28 0.29 0.32 0.44 0.54 0.47 0.44 0.43 0.59 0.88 1.18 1.55 1.05 1.26 0.95 1.03 1.49 1.74 0.41 0.09 0.04 0.14 0.27 0.19 0.07 0.07 0.18 0.09 0.07 0.26 0.31 0.17 0.15 0.25 0.23 0.13 0.16 0.07 0.01 0.05 0.10 0.08
0.28 0.39 0.44 0.38 0.41 0.41 0.38 0.37 0.41 0.47 0.50 0.56 0.73 0.94 1.13 1.72 2.16 1.21 1.22 0.98 1.30 2.20 1.34 0.12 0.08 0.08 0.15 0.24 0.20 0.15 0.17 0.34 0.16 0.14 0.45 0.43 0.22 0.24 0.27 0.28 0.08 0.16 0.10 0.03 0.09 0.16 0.17
0.43 0.39 0.39 0.40 0.43 0.46 0.45 0.43 0.41 0.36 0.51 0.72 0.70 0.77 1.23 1.85 2.04 1.43 1.35 1.61 2.11 2.36 0.94 0.22 0.19 0.22 0.30 0.22 0.26 0.29 0.46 0.41 0.42 0.45 0.46 0.24 0.13 0.21 0.18 0.14 0.11 0.18 0.21 0.21 0.15 0.40 0.43
0.36 0.37 0.43 0.46 0.45 0.47 0.45 0.44 0.44 0.61 0.66 0.62 0.66 0.72 1.18 1.42 1.71 1.82 2.30 2.21 2.44 1.26 0.39 0.38 0.30 0.36 0.31 0.19 0.33 0.39 0.72 0.71 1.15 0.77 0.79 0.74 0.49 0.24 0.20 0.43 0.43 0.58 0.75 0.91 0.63 0.60 0.43
0.40 0.46 0.44 0.44 0.44 0.45 0.56 0.52 0.64 0.76 0.67 0.70 0.92 0.97 1.25 1.15 1.84 1.90 2.96 2.12 1.37 0.37 0.38 0.35 0.27 0.33 0.35 0.17 0.35 0.44 0.69 0.59 0.53 0.33 0.54 0.71 0.66 0.35 0.26 0.69 0.78 0.59 0.81 0.84 0.36 0.15 0.12
0.45 0.48 0.49 0.50 0.54 0.57 0.63 0.62 0.56 0.58 0.56 0.93 1.01 1.41 2.30 1.28 1.91 2.52 2.71 1.95 0.69 0.28 0.33 0.34 0.38 0.33 0.26 0.19 0.44 0.50 0.55 0.28 0.21 0.10 0.45 0.52 0.45 0.20 0.14 0.37 0.53 0.63 0.86 0.49 0.48 0.25 0.25
0.47 0.49 0.57 0.66 0.67 0.77 0.76 0.63 0.72 0.68 0.84 1.17 1.23 1.52 2.15 1.43 1.71 3.30 2.94 1.41 0.51 0.42 0.43 0.31 0.24 0.15 0.10 0.16 0.47 0.41 0.42 0.16 0.09 0.02 0.17 0.37 0.57 0.36 0.39 0.50 0.63 0.59 0.37 0.52 1.01 0.54 0.21
0.50 0.52 0.61 0.74 0.74 0.84 0.85 0.73 0.77 1.01 1.11 1.09 1.04 2.09 1.49 1.96 2.45 3.72 2.64 1.20 0.41 0.31 0.42 0.34 0.11 0.10 0.05 0.04 0.29 0.20 0.20 0.08 0.03 0.00 0.12 0.48 0.71 0.48 0.64 0.73 0.52 0.72 0.88 0.50 0.42 0.24 0.27
0.47 0.53 0.57 0.72 0.74 0.74 0.88 0.71 0.58 0.97 1.10 1.13 1.18 1.58 1.48 2.23 3.29 2.51 1.71 1.13 0.47 0.28 0.38 0.36 0.16 0.06 0.05 0.03 0.17 0.12 0.06 0.02 0.01 0.01 0.11 0.40 0.78 0.61 0.31 0.29 0.09 0.34 0.36 0.31 0.57 0.24 0.33
0.41 0.46 0.57 0.61 0.67 0.70 0.85 0.76 0.55 0.80 1.66 2.00 1.46 1.67 2.34 1.52 1.53 1.19 1.25 0.93 0.54 0.35 0.35 0.35 0.11 0.04 0.02 0.04 0.07 0.03 0.05 0.00 0.00 0.01 0.11 0.42 0.90 0.67 0.32 0.70 0.40 0.56 0.37 0.51 0.75 0.83 0.73
0.37 0.42 0.47 0.44 0.50 0.58 0.76 0.58 0.51 0.70 1.11 1.55 1.36 1.57 3.07 2.09 0.73 0.82 0.93 0.81 0.59 0.34 0.27 0.30 0.15 0.07 0.06 0.05 0.02 0.01 0.05 0.00 0.00 0.00 0.06 0.38 0.49 0.54 0.35 0.57 0.64 0.44 0.28 0.60 1.42 1.46 0.39
0.36 0.41 0.39 0.39 0.46 0.50 0.61 0.60 0.64 0.79 0.82 1.08 0.91 0.56 0.67 0.71 0.41 0.46 0.81 0.73 0.60 0.52 0.32 0.28 0.19 0.09 0.06 0.05 0.03 0.02 0.02 0.01 0.00 0.00 0.07 0.42 0.69 0.78 0.36 0.13 0.47 0.50 0.39 0.55 1.12 0.80 0.87
0.39 0.38 0.36 0.39 0.40 0.45 0.51 0.63 0.70 1.07 1.52 1.09 0.74 0.33 0.14 0.06 0.03 0.19 0.72 0.86 0.61 0.53 0.41 0.21 0.10 0.05 0.07 0.04 0.01 0.00 0.00 0.01 0.01 0.01 0.06 0.33 0.87 0.94 0.58 0.21 0.25 0.58 0.56 0.70 0.69 0.59 0.70
0.32 0.34 0.36 0.32 0.35 0.38 0.45 0.58 0.82 1.22 1.81 1.16 0.71 0.33 0.17 0.13 0.06 0.14 0.44 0.66 0.52 0.47 0.30 0.09 0.08 0.12 0.10 0.02 0.00 0.00 0.00 0.00 0.04 0.05 0.17 0.31 0.55 0.83 0.48 0.37 0.37 0.80 0.74 0.59 0.37 0.35 0.44
0.31 0.34 0.39 0.33 0.30 0.31 0.32 0.40 0.51 0.73 1.12 1.02 0.72 0.56 0.39 0.20 0.07 0.07 0.20 0.41 0.43 0.38 0.37 0.09 0.10 0.10 0.06 0.02 0.03 0.03 0.08 0.03 0.04 0.08 0.08 0.13 0.31 0.59 0.45 0.51 0.79 0.58 0.51 0.35 0.36 0.36 0.32
0.33 0.32 0.36 0.33 0.28 0.26 0.25 0.36 0.50 0.62 0.89 0.59 0.57 0.54 0.37 0.16 0.06 0.05 0.16 0.36 0.49 0.46 0.52 0.25 0.09 0.07 0.09 0.10 0.16 0.15 0.18 0.20 0.09 0.05 0.01 0.02 0.17 0.36 0.21 0.17 0.18 0.02 0.05 0.17 0.23 0.33 0.18
0.30 0.30 0.31 0.32 0.25 0.26 0.31 0.37 0.45 0.54 0.55 0.38 0.48 0.49 0.50 0.18 0.08 0.03 0.05 0.16 0.45 0.45 0.52 0.39 0.23 0.13 0.21 0.28 0.22 0.17 0.15 0.09 0.07 0.11 0.03 0.01 0.12 0.40 0.12 0.13 0.01 0.00 0.00 0.00 0.03 0.19 0.25
0.27 0.28 0.29 0.31 0.26 0.20 0.26 0.30 0.26 0.34 0.47 0.35 0.46 0.49 0.35 0.17 0.06 0.02 0.03 0.06 0.30 0.51 0.57 0.43 0.38 0.17 0.29 0.45 0.25 0.18 0.04 0.00 0.01 0.03 0.02 0.02 0.09 0.24 0.16 0.18 0.01 0.00 0.00 0.00 0.00 0.10 0.11
0.25 0.26 0.31 0.30 0.23 0.20 0.19 0.24 0.27 0.27 0.51 0.40 0.35 0.37 0.31 0.17 0.07 0.01 0.01 0.03 0.18 0.41 0.57 0.51 0.60 0.35 0.35 0.46 0.30 0.12 0.03 0.01 0.00 0.00 0.00 0.01 0.02 0.03 0.06 0.07 0.01 0.00 0.00 0.00 0.00 0.00 0.00
0.28 0.26 0.30 0.27 0.22 0.21 0.17 0.19 0.23 0.20 0.39 0.48 0.32 0.31 0.31 0.20 0.08 0.02 0.01 0.01 0.05 0.26 0.56 0.55 0.49 0.28 0.21 0.20 0.11 0.07 0.04 0.01 0.00 0.00 0.00 0.00 0.00 0.01 0.00 0.00 0.00 0.00 0.00 0.00 0.00 0.00 0.00

GFSGBSN_prec_precacc_045.txt.gz
Total_Precipitation_Accumulation
0.12 0.12 0.13 0.12 0.09 0.09 0.10 0.11 0.09 0.08 0.09 0.10 0.12 0.12 0.11 0.10 0.09 0.11 0.12 0.16 0.17 0.16 0.15 0.13 0.15 0.20 0.15 0.10 0.02 0.00 0.00 0.01 0.07 0.25 0.16 0.06 0.05 0.03 0.03 0.01 0.02 0.00 0.00 0.00 0.00 0.00 0.00
0.11 0.11 0.11 0.10 0.10 0.13 0.13 0.12 0.12 0.13 0.14 0.11 0.12 0.11 0.10 0.10 0.10 0.11 0.10 0.11 0.19 0.20 0.20 0.13 0.18 0.30 0.09 0.03 0.00 0.00 0.00 0.00 0.01 0.14 0.22 0.16 0.07 0.01 0.02 0.01 0.02 0.00 0.00 0.00 0.00 0.00 0.00
0.10 0.12 0.10 0.09 0.11 0.15 0.15 0.14 0.16 0.17 0.14 0.15 0.15 0.14 0.13 0.12 0.12 0.13 0.15 0.17 0.19 0.25 0.35 0.30 0.27 0.28 0.10 0.00 0.00 0.00 0.00 0.00 0.00 0.03 0.22 0.16 0.11 0.15 0.07 0.04 0.00 0.00 0.01 0.00 0.00 0.00 0.00
0.11 0.11 0.10 0.11 0.13 0.14 0.14 0.15 0.16 0.16 0.16 0.20 0.23 0.19 0.15 0.16 0.16 0.20 0.24 0.22 0.31 0.36 0.41 0.35 0.40 0.39 0.08 0.00 0.00 0.00 0.00 0.00 0.00 0.02 0.18 0.27 0.29 0.16 0.10 0.06 0.03 0.03 0.04 0.01 0.00 0.00 0.00
0.11 0.10 0.09 0.11 0.12 0.13 0.15 0.16 0.16 0.15 0.16 0.23 0.28 0.24 0.25 0.27 0.31 0.32 0.35 0.40 0.53 0.57 0.68 0.81 0.37 0.26 0.05 0.00 0.00 0.00 0.00 0.00 0.00 0.02 0.12 0.22 0.38 0.24 0.13 0.11 0.11 0.08 0.03 0.01 0.00 0.00 0.00
0.10 0.11 0.11 0.12 0.12 0.14 0.17 0.18 0.19 0.16 0.21 0.27 0.29 0.28 0.36 0.47 0.49 0.44 0.57 0.72 1.02 0.99 0.96 0.97 0.30 0.29 0.03 0.00 0.00 0.00 0.00 0.00 0.05 0.13 0.24 0.34 0.28 0.34 0.23 0.23 0.13 0.02 0.01 0.00 0.00 0.00 0.00
0.12 0.10 0.11 0.12 0.13 0.15 0.18 0.20 0.19 0.18 0.21 0.27 0.30 0.33 0.39 0.43 0.54 0.76 1.14 1.63 1.41 1.49 1.02 0.39 0.16 0.08 0.01 0.01 0.00 0.00 0.00 0.00 0.04 0.20 0.20 0.32 0.38 0.32 0.19 0.11 0.02 0.01 0.02 0.01 0.00 0.00 0.00
0.15 0.17 0.17 0.17 0.19 0.24 0.25 0.25 0.22 0.25 0.30 0.30 0.29 0.32 0.38 0.43 0.56 0.97 1.22 1.26 0.79 0.78 0.82 0.25 0.05 0.01 0.07 0.04 0.03 0.03 0.01 0.02 0.06 0.13 0.24 0.45 0.38 0.07 0.09 0.06 0.07 0.04 0.05 0.04 0.01 0.00 0.01
0.17 0.19 0.16 0.19 0.24 0.28 0.30 0.27 0.29 0.36 0.38 0.32 0.30 0.36 0.57 0.79 0.86 1.42 1.08 0.77 0.76 0.99 1.14 0.58 0.10 0.02 0.05 0.10 0.05 0.13 0.03 0.09 0.05 0.10 0.33 0.39 0.25 0.06 0.18 0.14 0.14 0.13 0.04 0.03 0.03 0.01 0.01
0.23 0.27 0.29 0.33 0.31 0.30 0.30 0.33 0.46 0.58 0.49 0.45 0.44 0.60 0.89 1.20 1.70 1.15 1.27 0.95 1.03 1.64 1.95 0.64 0.20 0.06 0.14 0.27 0.19 0.07 0.07 0.18 0.09 0.07 0.26 0.31 0.17 0.15 0.25 0.23 0.13 0.16 0.07 0.01 0.05 0.10 0.08
0.29 0.39 0.46 0.39 0.42 0.42 0.39 0.39 0.44 0.49 0.51 0.56 0.73 0.95 1.13 1.76 2.20 1.24 1.27 1.03 1.31 2.32 1.54 0.29 0.16 0.09 0.15 0.24 0.20 0.15 0.17 0.34 0.16 0.14 0.45 0.43 0.22 0.24 0.27 0.28 0.08 0.16 0.10 0.03 0.09 0.16 0.17
0.43 0.40 0.41 0.41 0.44 0.47 0.47 0.46 0.43 0.38 0.51 0.72 0.71 0.77 1.24 1.86 2.06 1.44 1.41 1.64 2.13 2.48 1.17 0.47 0.25 0.23 0.31 0.23 0.26 0.29 0.46 0.41 0.42 0.45 0.46 0.24 0.13 0.21 0.18 0.14 0.11 0.18 0.21 0.21 0.15 0.40 0.43
0.36 0.37 0.44 0.47 0.46 0.47 0.47 0.45 0.45 0.62 0.66 0.62 0.66 0.73 1.21 1.45 1.74 1.85 2.33 2.22 2.45 1.32 0.63 0.47 0.32 0.37 0.32 0.20 0.33 0.39 0.72 0.71 1.15 0.77 0.79 0.74 0.49 0.24 0.20 0.43 0.43 0.58 0.75 0.91 0.63 0.61 0.43
0.40 0.47 0.45 0.46 0.46 0.46 0.57 0.52 0.65 0.76 0.67 0.71 0.93 0.98 1.27 1.21 1.89 1.92 2.98 2.12 1.37 0.40 0.51 0.37 0.27 0.33 0.36 0.18 0.36 0.45 0.69 0.59 0.53 0.33 0.54 0.71 0.66 0.35 0.26 0.69 0.78 0.59 0.81 0.84 0.36 0.15 0.12
0.45 0.49 0.51 0.52 0.56 0.57 0.63 0.62 0.57 0.58 0.57 0.95 1.03 1.45 2.37 1.36 1.95 2.52 2.72 1.96 0.73 0.39 0.37 0.37 0.41 0.34 0.27 0.20 0.45 0.50 0.55 0.28 0.21 0.10 0.45 0.52 0.45 0.20 0.14 0.37 0.53 0.63 0.86 0.49 0.48 0.25 0.25
0.47 0.50 0.59 0.68 0.68 0.77 0.76 0.63 0.72 0.68 0.85 1.21 1.24 1.53 2.20 1.49 1.72 3.30 2.97 1.46 0.60 0.50 0.43 0.31 0.27 0.16 0.11 0.16 0.47 0.42 0.43 0.16 0.09 0.02 0.17 0.37 0.57 0.36 0.39 0.50 0.63 0.59 0.37 0.52 1.01 0.54 0.21
0.50 0.53 0.62 0.76 0.75 0.85 0.85 0.73 0.77 1.01 1.13 1.12 1.04 2.09 1.54 1.97 2.45 3.73 2.74 1.30 0.55 0.33 0.42 0.35 0.11 0.10 0.05 0.04 0.29 0.20 0.20 0.08 0.03 0.00 0.12 0.48 0.71 0.48 0.64 0.73 0.52 0.72 0.88 0.50 0.42 0.24 0.27
0.47 0.54 0.58 0.73 0.74 0.75 0.88 0.71 0.58 0.99 1.16 1.16 1.18 1.58 1.51 2.24 3.29 2.53 1.83 1.39 0.59 0.31 0.38 0.36 0.16 0.06 0.05 0.03 0.17 0.12 0.06 0.02 0.01 0.01 0.11 0.40 0.78 0.61 0.31 0.29 0.09 0.34 0.36 0.31 0.57 0.24 0.33
0.41 0.47 0.58 0.61 0.68 0.70 0.85 0.76 0.55 0.82 1.73 2.02 1.46 1.67 2.35 1.54 1.54 1.22 1.38 1.05 0.58 0.37 0.36 0.35 0.11 0.04 0.02 0.04 0.07 0.03 0.05 0.00 0.00 0.01 0.11 0.42 0.90 0.67 0.32 0.70 0.40 0.56 0.37 0.51 0.75 0.84 0.73
0.38 0.43 0.48 0.45 0.51 0.59 0.76 0.58 0.51 0.70 1.12 1.55 1.36 1.58 3.08 2.12 0.80 0.91 0.99 0.84 0.62 0.35 0.28 0.30 0.15 0.07 0.06 0.05 0.02 0.01 0.05 0.00 0.00 0.00 0.06 0.38 0.49 0.54 0.35 0.57 0.64 0.44 0.28 0.60 1.43 1.49 0.40
0.36 0.42 0.39 0.40 0.47 0.51 0.61 0.60 0.64 0.79 0.82 1.08 0.91 0.56 0.67 0.75 0.52 0.51 0.86 0.75 0.61 0.52 0.32 0.28 0.19 0.09 0.06 0.05 0.03 0.02 0.02 0.01 0.00 0.00 0.07 0.42 0.69 0.78 0.36 0.13 0.47 0.50 0.39 0.55 1.14 0.81 0.92
0.39 0.39 0.36 0.39 0.41 0.45 0.51 0.63 0.70 1.07 1.52 1.09 0.74 0.33 0.14 0.06 0.05 0.22 0.75 0.89 0.62 0.53 0.41 0.21 0.11 0.05 0.07 0.04 0.01 0.00 0.00 0.01 0.01 0.01 0.06 0.33 0.87 0.94 0.58 0.21 0.25 0.58 0.56 0.70 0.69 0.59 0.70
0.33 0.34 0.37 0.32 0.35 0.39 0.45 0.58 0.82 1.22 1.81 1.16 0.71 0.33 0.17 0.13 0.06 0.14 0.44 0.66 0.52 0.47 0.30 0.09 0.08 0.12 0.10 0.02 0.00 0.00 0.00 0.00 0.04 0.05 0.17 0.31 0.55 0.83 0.48 0.37 0.37 0.80 0.74 0.59 0.37 0.35 0.44
0.31 0.35 0.39 0.33 0.30 0.31 0.32 0.40 0.51 0.73 1.12 1.03 0.72 0.56 0.39 0.20 0.07 0.07 0.20 0.41 0.43 0.38 0.37 0.09 0.10 0.10 0.06 0.02 0.03 0.03 0.08 0.03 0.04 0.08 0.08 0.13 0.31 0.59 0.45 0.51 0.79 0.58 0.51 0.35 0.36 0.36 0.32
0.33 0.32 0.36 0.33 0.28 0.27 0.25 0.36 0.50 0.62 0.89 0.59 0.58 0.54 0.37 0.16 0.06 0.05 0.16 0.36 0.49 0.46 0.52 0.25 0.09 0.07 0.09 0.10 0.16 0.15 0.18 0.20 0.09 0.05 0.02 0.02 0.17 0.36 0.21 0.17 0.18 0.02 0.05 0.17 0.23 0.33 0.18
0.31 0.30 0.31 0.32 0.25 0.26 0.31 0.37 0.45 0.54 0.55 0.38 0.49 0.50 0.50 0.19 0.09 0.03 0.05 0.16 0.45 0.45 0.52 0.39 0.23 0.13 0.21 0.28 0.22 0.17 0.15 0.09 0.07 0.11 0.03 0.01 0.12 0.41 0.13 0.13 0.01 0.00 0.00 0.00 0.03 0.19 0.25
0.28 0.28 0.29 0.31 0.26 0.20 0.26 0.30 0.26 0.34 0.47 0.35 0.47 0.49 0.35 0.19 0.06 0.02 0.03 0.06 0.30 0.51 0.57 0.43 0.38 0.18 0.29 0.45 0.25 0.18 0.04 0.00 0.01 0.03 0.02 0.03 0.11 0.26 0.18 0.20 0.01 0.00 0.00 0.00 0.00 0.10 0.11
0.26 0.26 0.31 0.30 0.24 0.20 0.19 0.24 0.27 0.27 0.51 0.40 0.35 0.37 0.31 0.19 0.08 0.02 0.02 0.04 0.18 0.41 0.57 0.51 0.60 0.36 0.36 0.46 0.30 0.12 0.03 0.01 0.00 0.01 0.00 0.01 0.03 0.04 0.07 0.08 0.01 0.00 0.00 0.00 0.00 0.00 0.00
0.29 0.27 0.30 0.27 0.22 0.21 0.17 0.19 0.23 0.20 0.39 0.48 0.32 0.32 0.32 0.22 0.10 0.03 0.01 0.01 0.05 0.27 0.56 0.55 0.49 0.28 0.21 0.20 0.11 0.07 0.04 0.01 0.00 0.00 0.00 0.00 0.00 0.01 0.00 0.00 0.00 0.00 0.00 0.00 0.00 0.00 0.00

GFSGBSN_prec_precacc_048.txt.gz
Total_Precipitation_Accumulation
0.12 0.13 0.13 0.12 0.10 0.10 0.11 0.12 0.10 0.09 0.11 0.12 0.14 0.15 0.13 0.11 0.10 0.11 0.12 0.16 0.17 0.17 0.16 0.21 0.28 0.21 0.16 0.11 0.02 0.00 0.02 0.01 0.10 0.30 0.16 0.06 0.05 0.03 0.03 0.01 0.02 0.00 0.00 0.00 0.00 0.00 0.00
0.12 0.12 0.11 0.10 0.11 0.14 0.14 0.13 0.13 0.15 0.17 0.15 0.15 0.14 0.11 0.10 0.10 0.11 0.10 0.12 0.19 0.21 0.20 0.20 0.37 0.33 0.10 0.03 0.00 0.00 0.04 0.02 0.03 0.17 0.23 0.16 0.07 0.01 0.02 0.01 0.02 0.00 0.00 0.00 0.00 0.00 0.00
0.11 0.12 0.10 0.10 0.12 0.16 0.16 0.15 0.18 0.19 0.18 0.17 0.17 0.17 0.14 0.13 0.14 0.15 0.16 0.18 0.20 0.26 0.35 0.42 0.60 0.33 0.10 0.00 0.00 0.00 0.01 0.02 0.03 0.06 0.24 0.17 0.13 0.15 0.07 0.04 0.00 0.00 0.01 0.00 0.00 0.00 0.00
0.11 0.11 0.11 0.12 0.14 0.15 0.14 0.16 0.17 0.17 0.17 0.22 0.27 0.21 0.16 0.19 0.20 0.21 0.26 0.25 0.32 0.36 0.41 0.44 0.76 0.49 0.08 0.00 0.00 0.00 0.00 0.00 0.00 0.03 0.20 0.31 0.35 0.16 0.10 0.06 0.03 0.03 0.04 0.01 0.00 0.00 0.00
0.11 0.11 0.10 0.11 0.12 0.14 0.16 0.17 0.17 0.16 0.17 0.26 0.31 0.27 0.28 0.31 0.35 0.33 0.38 0.42 0.53 0.57 0.68 0.95 0.78 0.33 0.05 0.00 0.00 0.00 0.00 0.00 0.02 0.05 0.15 0.28 0.50 0.27 0.13 0.11 0.11 0.08 0.03 0.01 0.00 0.00 0.00
0.11 0.11 0.12 0.13 0.13 0.16 0.19 0.20 0.20 0.17 0.23 0.31 0.33 0.30 0.38 0.49 0.52 0.47 0.57 0.72 1.02 0.99 0.99 1.43 0.68 0.38 0.03 0.00 0.00 0.00 0.00 0.00 0.09 0.17 0.27 0.38 0.48 0.54 0.27 0.24 0.13 0.02 0.01 0.00 0.00 0.00 0.00
0.12 0.11 0.13 0.12 0.14 0.18 0.19 0.21 0.19 0.19 0.24 0.30 0.32 0.34 0.40 0.45 0.58 0.83 1.16 1.63 1.42 1.51 1.09 0.69 0.32 0.12 0.01 0.01 0.00 0.00 0.00 0.01 0.07 0.22 0.20 0.33 0.40 0.38 0.26 0.12 0.02 0.01 0.02 0.01 0.00 0.00 0.00
0.15 0.18 0.18 0.18 0.21 0.25 0.26 0.26 0.22 0.27 0.33 0.31 0.30 0.32 0.39 0.45 0.59 1.03 1.27 1.26 0.79 0.79 0.84 0.34 0.16 0.06 0.07 0.04 0.03 0.03 0.01 0.02 0.07 0.14 0.24 0.45 0.38 0.07 0.11 0.06 0.07 0.04 0.05 0.04 0.01 0.00 0.01
0.17 0.20 0.16 0.20 0.25 0.29 0.31 0.28 0.30 0.38 0.39 0.33 0.31 0.37 0.58 0.80 0.87 1.44 1.13 0.78 0.77 1.00 1.16 0.62 0.27 0.07 0.05 0.10 0.05 0.13 0.03 0.09 0.05 0.10 0.33 0.39 0.25 0.06 0.18 0.14 0.14 0.13 0.04 0.03 0.03 0.01 0.01
0.24 0.28 0.30 0.34 0.31 0.30 0.31 0.35 0.47 0.59 0.50 0.45 0.44 0.60 0.90 1.21 1.71 1.15 1.29 0.96 1.03 1.65 2.01 0.72 0.37 0.12 0.14 0.27 0.19 0.07 0.07 0.18 0.09 0.07 0.26 0.31 0.17 0.15 0.25 0.23 0.13 0.16 0.07 0.01 0.05 0.10 0.08
0.29 0.39 0.46 0.40 0.43 0.43 0.40 0.40 0.45 0.50 0.52 0.56 0.74 0.95 1.14 1.80 2.22 1.24 1.29 1.04 1.31 2.35 1.66 0.41 0.27 0.13 0.16 0.24 0.20 0.16 0.17 0.34 0.16 0.14 0.45 0.43 0.22 0.24 0.27 0.28 0.08 0.16 0.10 0.03 0.09 0.16 0.17
0.44 0.40 0.42 0.42 0.46 0.48 0.47 0.46 0.44 0.38 0.51 0.73 0.71 0.78 1.29 1.88 2.07 1.44 1.41 1.65 2.14 2.51 1.42 0.75 0.32 0.27 0.33 0.23 0.26 0.30 0.46 0.41 0.42 0.45 0.46 0.24 0.13 0.21 0.18 0.14 0.11 0.18 0.21 0.21 0.15 0.40 0.43
0.36 0.37 0.45 0.48 0.47 0.48 0.48 0.46 0.45 0.62 0.67 0.62 0.68 0.76 1.26 1.49 1.75 1.86 2.35 2.23 2.45 1.37 0.86 0.68 0.38 0.38 0.33 0.21 0.34 0.40 0.72 0.71 1.15 0.77 0.79 0.74 0.49 0.24 0.20 0.43 0.43 0.58 0.75 0.91 0.63 0.61 0.43
0.40 0.47 0.46 0.47 0.47 0.47 0.58 0.53 0.65 0.76 0.67 0.72 0.97 0.99 1.30 1.25 1.90 1.93 2.99 2.12 1.39 0.43 0.64 0.47 0.28 0.34 0.37 0.18 0.36 0.45 0.69 0.59 0.53 0.33 0.54 0.71 0.66 0.35 0.26 0.69 0.78 0.59 0.81 0.84 0.36 0.15 0.12
0.45 0.49 0.51 0.53 0.56 0.58 0.65 0.62 0.57 0.58 0.57 0.97 1.04 1.45 2.40 1.37 1.96 2.52 2.73 1.99 0.77 0.49 0.51 0.43 0.45 0.35 0.29 0.20 0.45 0.51 0.56 0.28 0.21 0.10 0.45 0.52 0.45 0.20 0.14 0.37 0.53 0.63 0.86 0.49 0.48 0.25 0.25
0.47 0.50 0.59 0.68 0.69 0.78 0.77 0.64 0.72 0.68 0.86 1.24 1.24 1.53 2.21 1.49 1.72 3.31 3.03 1.52 0.65 0.56 0.45 0.31 0.31 0.17 0.12 0.17 0.47 0.42 0.43 0.16 0.09 0.02 0.17 0.37 0.57 0.36 0.39 0.50 0.63 0.59 0.37 0.52 1.01 0.54 0.21
0.50 0.53 0.63 0.76 0.75 0.85 0.86 0.73 0.77 1.02 1.14 1.14 1.04 2.10 1.55 1.97 2.45 3.74 2.82 1.40 0.70 0.37 0.43 0.35 0.11 0.11 0.05 0.04 0.29 0.20 0.20 0.08 0.03 0.00 0.12 0.48 0.71 0.48 0.64 0.73 0.52 0.72 0.88 0.50 0.42 0.24 0.27
0.47 0.55 0.59 0.73 0.74 0.75 0.88 0.72 0.58 1.00 1.18 1.16 1.18 1.59 1.52 2.25 3.30 2.56 1.98 1.56 0.71 0.35 0.38 0.36 0.16 0.06 0.05 0.03 0.17 0.12 0.06 0.02 0.01 0.01 0.11 0.40 0.78 0.61 0.31 0.29 0.09 0.34 0.36 0.31 0.57 0.24 0.33
0.42 0.47 0.58 0.62 0.68 0.71 0.85 0.76 0.55 0.82 1.74 2.02 1.46 1.67 2.35 1.54 1.55 1.28 1.54 1.15 0.63 0.39 0.37 0.35 0.11 0.04 0.02 0.04 0.07 0.03 0.05 0.00 0.00 0.01 0.11 0.42 0.90 0.67 0.32 0.70 0.40 0.56 0.37 0.51 0.75 0.84 0.73
0.38 0.43 0.48 0.45 0.52 0.59 0.76 0.58 0.51 0.70 1.13 1.55 1.36 1.58 3.08 2.12 0.80 0.94 1.10 0.98 0.69 0.35 0.28 0.30 0.15 0.07 0.06 0.05 0.02 0.01 0.05 0.00 0.00 0.00 0.06 0.38 0.49 0.54 0.35 0.57 0.64 0.44 0.28 0.60 1.43 1.50 0.40
0.36 0.42 0.40 0.40 0.47 0.51 0.61 0.60 0.64 0.79 0.82 1.08 0.91 0.56 0.67 0.76 0.53 0.52 0.87 0.75 0.61 0.52 0.32 0.28 0.19 0.09 0.06 0.05 0.03 0.02 0.02 0.01 0.00 0.00 0.07 0.42 0.69 0.78 0.36 0.13 0.47 0.50 0.39 0.55 1.14 0.81 0.94
0.39 0.39 0.36 0.39 0.41 0.46 0.52 0.63 0.70 1.07 1.52 1.09 0.74 0.33 0.14 0.06 0.05 0.22 0.75 0.89 0.62 0.53 0.41 0.21 0.11 0.05 0.07 0.04 0.01 0.00 0.00 0.01 0.01 0.01 0.06 0.33 0.87 0.94 0.58 0.21 0.25 0.58 0.56 0.70 0.69 0.59 0.70
0.33 0.34 0.37 0.32 0.35 0.39 0.45 0.58 0.82 1.22 1.81 1.16 0.71 0.33 0.17 0.13 0.06 0.14 0.44 0.66 0.52 0.47 0.30 0.09 0.08 0.12 0.10 0.02 0.00 0.00 0.00 0.00 0.04 0.05 0.17 0.31 0.55 0.83 0.48 0.37 0.37 0.80 0.74 0.59 0.37 0.35 0.44
0.31 0.35 0.39 0.33 0.30 0.31 0.32 0.40 0.51 0.73 1.13 1.03 0.72 0.57 0.39 0.20 0.07 0.07 0.20 0.41 0.43 0.38 0.37 0.09 0.10 0.10 0.06 0.02 0.03 0.03 0.08 0.03 0.04 0.08 0.08 0.13 0.31 0.59 0.45 0.51 0.79 0.58 0.51 0.35 0.36 0.36 0.32
0.33 0.32 0.36 0.33 0.28 0.27 0.25 0.36 0.50 0.62 0.89 0.59 0.58 0.54 0.37 0.16 0.06 0.05 0.16 0.36 0.49 0.46 0.52 0.25 0.09 0.07 0.09 0.10 0.16 0.15 0.18 0.20 0.09 0.05 0.02 0.02 0.17 0.36 0.21 0.17 0.18 0.02 0.05 0.17 0.23 0.33 0.18
0.31 0.31 0.31 0.32 0.25 0.26 0.31 0.37 0.45 0.54 0.55 0.38 0.49 0.50 0.51 0.19 0.09 0.03 0.05 0.16 0.45 0.45 0.52 0.39 0.23 0.13 0.21 0.28 0.22 0.17 0.15 0.09 0.07 0.11 0.03 0.02 0.12 0.41 0.13 0.13 0.01 0.00 0.00 0.00 0.03 0.19 0.25
0.28 0.29 0.30 0.31 0.27 0.20 0.26 0.30 0.26 0.34 0.47 0.35 0.47 0.49 0.36 0.19 0.06 0.02 0.03 0.06 0.30 0.51 0.58 0.44 0.38 0.18 0.29 0.45 0.25 0.18 0.04 0.00 0.01 0.03 0.03 0.04 0.12 0.27 0.19 0.21 0.01 0.00 0.00 0.00 0.00 0.10 0.11
0.26 0.27 0.31 0.30 0.24 0.20 0.19 0.24 0.27 0.27 0.51 0.40 0.35 0.37 0.32 0.19 0.08 0.02 0.02 0.04 0.18 0.42 0.58 0.51 0.60 0.36 0.36 0.46 0.30 0.12 0.03 0.01 0.00 0.01 0.00 0.02 0.03 0.04 0.08 0.09 0.01 0.00 0.00 0.00 0.00 0.00 0.00
0.29 0.28 0.31 0.28 0.23 0.21 0.17 0.19 0.23 0.20 0.39 0.48 0.33 0.32 0.32 0.23 0.11 0.03 0.01 0.01 0.05 0.27 0.56 0.55 0.49 0.28 0.21 0.20 0.11 0.07 0.04 0.01 0.00 0.01 0.00 0.00 0.00 0.01 0.00 0.00 0.00 0.00 0.00 0.00 0.00 0.00 0.00

GFSGBSN_prec_precacc_051.txt.gz
Total_Precipitation_Accumulation
0.13 0.15 0.14 0.12 0.11 0.11 0.12 0.12 0.11 0.10 0.12 0.15 0.16 0.16 0.16 0.13 0.11 0.12 0.13 0.16 0.18 0.17 0.16 0.21 0.32 0.56 0.35 0.11 0.02 0.00 0.03 0.01 0.10 0.31 0.17 0.07 0.05 0.03 0.03 0.01 0.02 0.00 0.00 0.00 0.00 0.00 0.00
0.13 0.12 0.11 0.11 0.12 0.15 0.15 0.14 0.14 0.16 0.18 0.16 0.16 0.16 0.14 0.14 0.12 0.12 0.12 0.13 0.20 0.22 0.21 0.20 0.39 0.67 0.29 0.04 0.00 0.00 0.05 0.03 0.04 0.20 0.23 0.17 0.07 0.01 0.02 0.01 0.02 0.00 0.00 0.00 0.00 0.00 0.00
0.12 0.13 0.12 0.11 0.12 0.16 0.16 0.17 0.19 0.20 0.19 0.18 0.19 0.19 0.15 0.17 0.16 0.18 0.20 0.20 0.21 0.26 0.35 0.42 0.62 0.69 0.26 0.01 0.00 0.00 0.03 0.08 0.10 0.11 0.25 0.17 0.13 0.15 0.07 0.04 0.00 0.00 0.01 0.00 0.00 0.00 0.00
0.11 0.13 0.12 0.12 0.14 0.15 0.16 0.19 0.19 0.19 0.19 0.23 0.30 0.23 0.18 0.22 0.22 0.24 0.29 0.26 0.32 0.37 0.44 0.44 0.78 0.82 0.22 0.00 0.00 0.00 0.00 0.03 0.06 0.14 0.28 0.35 0.38 0.17 0.10 0.06 0.03 0.03 0.04 0.01 0.00 0.00 0.00
0.12 0.11 0.11 0.13 0.13 0.15 0.19 0.18 0.18 0.17 0.18 0.28 0.34 0.28 0.30 0.33 0.38 0.35 0.39 0.44 0.53 0.58 0.70 0.96 0.83 0.50 0.09 0.00 0.00 0.00 0.00 0.00 0.02 0.08 0.23 0.39 0.59 0.30 0.13 0.11 0.11 0.08 0.03 0.01 0.00 0.00 0.00
0.12 0.12 0.13 0.13 0.14 0.17 0.20 0.21 0.21 0.18 0.25 0.33 0.34 0.31 0.39 0.51 0.55 0.48 0.59 0.72 1.02 0.99 0.99 1.45 0.80 0.62 0.09 0.00 0.00 0.00 0.00 0.01 0.15 0.26 0.34 0.47 0.74 0.63 0.27 0.24 0.13 0.02 0.01 0.00 0.00 0.00 0.00
0.13 0.12 0.14 0.13 0.16 0.19 0.20 0.23 0.20 0.22 0.26 0.32 0.33 0.35 0.41 0.46 0.59 0.87 1.18 1.63 1.42 1.52 1.11 0.71 0.39 0.25 0.04 0.01 0.00 0.00 0.00 0.02 0.19 0.31 0.23 0.38 0.54 0.63 0.29 0.12 0.02 0.01 0.02 0.01 0.00 0.00 0.00
0.16 0.19 0.19 0.18 0.22 0.26 0.27 0.27 0.25 0.28 0.34 0.33 0.32 0.33 0.39 0.45 0.60 1.05 1.27 1.26 0.79 0.80 0.84 0.36 0.23 0.16 0.08 0.04 0.03 0.03 0.01 0.04 0.13 0.16 0.26 0.46 0.41 0.12 0.22 0.15 0.07 0.04 0.05 0.04 0.01 0.00 0.01
0.18 0.21 0.16 0.21 0.26 0.31 0.32 0.30 0.32 0.39 0.42 0.35 0.31 0.37 0.58 0.80 0.87 1.44 1.13 0.78 0.77 1.00 1.17 0.67 0.30 0.18 0.07 0.10 0.05 0.13 0.03 0.11 0.08 0.11 0.33 0.39 0.25 0.08 0.20 0.24 0.17 0.13 0.04 0.03 0.03 0.01 0.01
0.25 0.28 0.30 0.35 0.33 0.32 0.32 0.36 0.49 0.61 0.52 0.46 0.45 0.62 0.92 1.24 1.72 1.15 1.30 0.97 1.03 1.65 2.01 0.83 0.44 0.22 0.16 0.27 0.19 0.07 0.07 0.19 0.11 0.07 0.26 0.31 0.17 0.15 0.25 0.23 0.13 0.16 0.07 0.01 0.05 0.10 0.08
0.30 0.39 0.47 0.42 0.45 0.45 0.41 0.42 0.46 0.51 0.52 0.57 0.76 0.98 1.21 1.91 2.29 1.26 1.31 1.06 1.31 2.36 1.69 0.45 0.38 0.21 0.17 0.24 0.20 0.17 0.18 0.34 0.16 0.14 0.45 0.43 0.22 0.24 0.27 0.28 0.08 0.16 0.10 0.03 0.09 0.16 0.17
0.44 0.40 0.42 0.43 0.47 0.49 0.48 0.49 0.44 0.39 0.53 0.75 0.74 0.82 1.34 1.97 2.14 1.46 1.42 1.66 2.14 2.55 1.57 0.93 0.53 0.33 0.35 0.23 0.26 0.31 0.46 0.41 0.42 0.45 0.46 0.24 0.13 0.21 0.18 0.14 0.11 0.18 0.21 0.21 0.15 0.40 0.43
0.36 0.37 0.46 0.49 0.48 0.49 0.49 0.48 0.45 0.63 0.68 0.64 0.72 0.78 1.28 1.51 1.76 1.86 2.38 2.24 2.46 1.42 0.96 0.88 0.49 0.40 0.33 0.21 0.35 0.41 0.72 0.71 1.15 0.78 0.80 0.74 0.49 0.24 0.20 0.43 0.43 0.58 0.75 0.91 0.63 0.61 0.43
0.40 0.47 0.47 0.47 0.47 0.47 0.60 0.53 0.65 0.77 0.68 0.74 1.00 1.00 1.30 1.27 1.91 1.93 3.00 2.13 1.43 0.47 0.77 0.58 0.29 0.35 0.37 0.19 0.39 0.46 0.69 0.59 0.53 0.33 0.54 0.71 0.66 0.35 0.26 0.69 0.78 0.59 0.81 0.84 0.36 0.15 0.12
0.45 0.49 0.52 0.53 0.57 0.58 0.66 0.62 0.57 0.59 0.59 1.00 1.05 1.45 2.40 1.37 1.96 2.52 2.74 2.05 0.83 0.66 0.71 0.48 0.46 0.36 0.32 0.21 0.47 0.51 0.56 0.28 0.21 0.10 0.45 0.52 0.45 0.20 0.14 0.37 0.53 0.63 0.86 0.49 0.48 0.25 0.25
0.47 0.50 0.60 0.68 0.69 0.78 0.78 0.64 0.72 0.69 0.89 1.25 1.24 1.53 2.21 1.49 1.72 3.31 3.06 1.60 0.78 0.66 0.48 0.31 0.33 0.20 0.13 0.17 0.48 0.42 0.43 0.16 0.09 0.02 0.17 0.37 0.57 0.36 0.39 0.50 0.63 0.59 0.37 0.52 1.01 0.54 0.21
0.50 0.53 0.63 0.77 0.76 0.85 0.86 0.73 0.77 1.02 1.15 1.14 1.04 2.10 1.55 1.97 2.45 3.74 2.85 1.48 0.75 0.37 0.43 0.35 0.11 0.11 0.05 0.04 0.29 0.20 0.20 0.08 0.03 0.00 0.12 0.48 0.71 0.48 0.64 0.73 0.52 0.72 0.88 0.50 0.42 0.24 0.27
0.47 0.55 0.59 0.73 0.75 0.75 0.89 0.72 0.58 1.00 1.18 1.16 1.18 1.59 1.52 2.25 3.30 2.57 2.04 1.62 0.77 0.37 0.38 0.36 0.16 0.06 0.05 0.03 0.17 0.12 0.06 0.02 0.01 0.01 0.11 0.40 0.78 0.61 0.31 0.29 0.09 0.34 0.36 0.31 0.57 0.24 0.33
0.42 0.47 0.58 0.62 0.68 0.71 0.85 0.76 0.55 0.82 1.74 2.02 1.46 1.67 2.35 1.54 1.55 1.32 1.60 1.17 0.64 0.39 0.37 0.35 0.11 0.04 0.02 0.04 0.07 0.03 0.05 0.00 0.00 0.01 0.11 0.42 0.90 0.67 0.32 0.70 0.40 0.56 0.37 0.51 0.75 0.84 0.73
0.38 0.43 0.48 0.45 0.52 0.59 0.77 0.58 0.51 0.70 1.13 1.55 1.36 1.58 3.08 2.12 0.80 0.96 1.16 0.99 0.69 0.35 0.28 0.30 0.15 0.07 0.06 0.05 0.02 0.01 0.05 0.00 0.00 0.00 0.06 0.38 0.49 0.54 0.35 0.57 0.64 0.44 0.28 0.60 1.43 1.50 0.40
0.36 0.42 0.40 0.40 0.47 0.51 0.61 0.60 0.64 0.79 0.82 1.08 0.91 0.56 0.67 0.76 0.53 0.52 0.87 0.75 0.61 0.52 0.32 0.28 0.19 0.09 0.06 0.05 0.03 0.02 0.02 0.01 0.00 0.00 0.07 0.42 0.69 0.78 0.36 0.13 0.47 0.50 0.39 0.55 1.14 0.81 0.94
0.39 0.39 0.36 0.39 0.41 0.46 0.52 0.63 0.70 1.07 1.52 1.09 0.74 0.33 0.14 0.06 0.05 0.22 0.75 0.89 0.62 0.53 0.41 0.21 0.11 0.05 0.07 0.04 0.01 0.00 0.00 0.01 0.01 0.01 0.06 0.33 0.87 0.94 0.58 0.21 0.25 0.58 0.56 0.70 0.69 0.59 0.70
0.33 0.35 0.37 0.32 0.35 0.39 0.45 0.58 0.82 1.22 1.81 1.16 0.71 0.33 0.17 0.13 0.06 0.14 0.44 0.66 0.52 0.47 0.30 0.09 0.08 0.12 0.10 0.02 0.00 0.00 0.00 0.00 0.04 0.05 0.17 0.31 0.55 0.83 0.48 0.37 0.37 0.80 0.74 0.59 0.37 0.35 0.44
0.31 0.35 0.40 0.33 0.30 0.31 0.32 0.40 0.51 0.73 1.13 1.03 0.72 0.58 0.39 0.20 0.07 0.07 0.20 0.41 0.43 0.38 0.37 0.09 0.10 0.10 0.06 0.02 0.03 0.03 0.08 0.03 0.04 0.08 0.08 0.13 0.31 0.59 0.45 0.51 0.79 0.58 0.51 0.35 0.36 0.36 0.32
0.33 0.32 0.36 0.33 0.28 0.27 0.25 0.36 0.50 0.62 0.89 0.59 0.58 0.55 0.38 0.16 0.06 0.05 0.16 0.36 0.49 0.46 0.52 0.25 0.09 0.07 0.09 0.10 0.16 0.15 0.18 0.20 0.09 0.05 0.02 0.02 0.17 0.36 0.21 0.17 0.18 0.02 0.05 0.17 0.23 0.33 0.18
0.31 0.31 0.31 0.32 0.25 0.26 0.31 0.37 0.45 0.54 0.55 0.38 0.49 0.50 0.51 0.19 0.09 0.03 0.05 0.16 0.45 0.45 0.52 0.39 0.23 0.13 0.21 0.28 0.22 0.17 0.15 0.09 0.07 0.11 0.03 0.02 0.12 0.41 0.14 0.13 0.01 0.00 0.00 0.00 0.03 0.19 0.25
0.28 0.29 0.30 0.31 0.27 0.20 0.26 0.30 0.26 0.34 0.47 0.35 0.47 0.49 0.36 0.19 0.06 0.02 0.03 0.06 0.30 0.51 0.58 0.44 0.38 0.18 0.29 0.45 0.25 0.18 0.04 0.00 0.01 0.03 0.03 0.05 0.13 0.28 0.19 0.21 0.01 0.00 0.00 0.00 0.00 0.10 0.11
0.26 0.27 0.32 0.30 0.24 0.20 0.19 0.24 0.27 0.27 0.51 0.40 0.35 0.38 0.32 0.19 0.08 0.02 0.02 0.04 0.18 0.42 0.58 0.51 0.60 0.36 0.36 0.46 0.30 0.12 0.03 0.01 0.00 0.01 0.00 0.02 0.03 0.05 0.08 0.09 0.01 0.00 0.00 0.00 0.00 0.00 0.00
0.29 0.28 0.31 0.28 0.23 0.22 0.17 0.19 0.23 0.20 0.39 0.48 0.33 0.32 0.33 0.24 0.11 0.03 0.01 0.01 0.05 0.27 0.56 0.55 0.49 0.28 0.21 0.20 0.11 0.07 0.04 0.01 0.00 0.01 0.00 0.00 0.00 0.01 0.00 0.00 0.00 0.00 0.00 0.00 0.00 0.00 0.00

GFSGBSN_prec_precacc_054.txt.gz
Total_Precipitation_Accumulation
0.14 0.15 0.14 0.14 0.12 0.11 0.12 0.13 0.13 0.12 0.13 0.16 0.17 0.18 0.18 0.15 0.13 0.13 0.16 0.19 0.18 0.18 0.17 0.21 0.33 0.58 0.61 0.28 0.04 0.01 0.03 0.02 0.10 0.31 0.17 0.09 0.05 0.03 0.03 0.01 0.02 0.00 0.00 0.00 0.00 0.00 0.00
0.13 0.12 0.13 0.12 0.13 0.15 0.15 0.16 0.16 0.18 0.19 0.17 0.19 0.18 0.15 0.15 0.13 0.14 0.15 0.15 0.22 0.24 0.22 0.21 0.40 0.69 0.46 0.13 0.01 0.00 0.05 0.05 0.05 0.21 0.23 0.18 0.08 0.01 0.02 0.01 0.02 0.00 0.00 0.00 0.00 0.00 0.00
0.12 0.13 0.12 0.12 0.13 0.17 0.17 0.19 0.21 0.21 0.20 0.21 0.21 0.20 0.15 0.18 0.17 0.19 0.23 0.22 0.21 0.27 0.36 0.43 0.64 0.72 0.39 0.05 0.01 0.00 0.03 0.15 0.11 0.12 0.25 0.17 0.14 0.15 0.07 0.04 0.00 0.00 0.01 0.00 0.00 0.00 0.00
0.11 0.13 0.12 0.13 0.15 0.16 0.18 0.20 0.19 0.20 0.21 0.25 0.31 0.23 0.19 0.23 0.23 0.25 0.31 0.28 0.34 0.40 0.47 0.49 0.80 0.86 0.28 0.01 0.01 0.00 0.03 0.10 0.11 0.24 0.36 0.41 0.38 0.17 0.10 0.06 0.03 0.03 0.04 0.01 0.00 0.00 0.00
0.13 0.12 0.11 0.13 0.13 0.17 0.20 0.19 0.20 0.18 0.20 0.30 0.36 0.29 0.31 0.33 0.38 0.36 0.40 0.46 0.55 0.59 0.70 1.01 0.86 0.53 0.11 0.01 0.03 0.00 0.02 0.06 0.04 0.17 0.37 0.53 0.69 0.32 0.13 0.11 0.11 0.08 0.03 0.01 0.00 0.00 0.00
0.12 0.12 0.13 0.14 0.15 0.19 0.22 0.22 0.23 0.20 0.26 0.34 0.37 0.33 0.40 0.51 0.55 0.49 0.60 0.73 1.02 0.99 1.00 1.49 0.82 0.68 0.10 0.02 0.02 0.00 0.00 0.02 0.18 0.30 0.47 0.58 0.82 0.67 0.28 0.24 0.13 0.02 0.01 0.00 0.00 0.00 0.00
0.13 0.12 0.14 0.13 0.16 0.21 0.23 0.25 0.22 0.23 0.27 0.34 0.36 0.36 0.41 0.46 0.60 0.89 1.19 1.63 1.42 1.54 1.14 0.73 0.41 0.31 0.04 0.06 0.03 0.01 0.00 0.04 0.33 0.43 0.41 0.60 0.66 0.69 0.29 0.12 0.02 0.01 0.02 0.01 0.00 0.00 0.00
0.16 0.20 0.19 0.19 0.23 0.29 0.29 0.29 0.26 0.30 0.36 0.35 0.33 0.33 0.39 0.46 0.61 1.06 1.28 1.26 0.79 0.80 0.84 0.38 0.29 0.25 0.12 0.13 0.06 0.03 0.01 0.06 0.20 0.26 0.38 0.70 0.62 0.19 0.26 0.16 0.08 0.04 0.05 0.04 0.01 0.00 0.01
0.18 0.21 0.16 0.21 0.28 0.33 0.33 0.31 0.34 0.42 0.43 0.36 0.31 0.38 0.62 0.86 0.92 1.45 1.13 0.78 0.77 1.00 1.17 0.69 0.39 0.24 0.14 0.16 0.06 0.13 0.03 0.14 0.14 0.16 0.41 0.48 0.32 0.18 0.28 0.36 0.21 0.14 0.04 0.03 0.03 0.01 0.01
0.25 0.28 0.30 0.36 0.35 0.33 0.33 0.38 0.52 0.62 0.54 0.48 0.48 0.66 1.01 1.48 1.86 1.18 1.30 0.97 1.03 1.65 2.02 0.89 0.48 0.26 0.27 0.31 0.19 0.07 0.08 0.22 0.15 0.12 0.29 0.33 0.18 0.22 0.30 0.31 0.24 0.18 0.07 0.01 0.05 0.10 0.08
0.30 0.39 0.47 0.42 0.46 0.45 0.42 0.44 0.47 0.51 0.55 0.60 0.80 1.03 1.27 2.03 2.39 1.34 1.32 1.06 1.31 2.36 1.71 0.48 0.43 0.29 0.30 0.26 0.20 0.17 0.19 0.35 0.17 0.20 0.46 0.44 0.22 0.24 0.27 0.29 0.11 0.17 0.10 0.03 0.09 0.16 0.17
0.44 0.40 0.42 0.44 0.47 0.50 0.49 0.50 0.44 0.39 0.55 0.77 0.78 0.85 1.35 1.98 2.17 1.49 1.42 1.66 2.14 2.57 1.67 0.99 0.62 0.42 0.40 0.25 0.27 0.31 0.47 0.42 0.43 0.45 0.46 0.24 0.13 0.21 0.18 0.14 0.11 0.18 0.21 0.21 0.15 0.40 0.43
0.36 0.37 0.46 0.50 0.49 0.50 0.50 0.49 0.45 0.63 0.71 0.68 0.75 0.80 1.28 1.52 1.77 1.86 2.38 2.24 2.48 1.50 1.04 1.00 0.62 0.43 0.34 0.23 0.36 0.43 0.74 0.71 1.15 0.78 0.81 0.74 0.49 0.24 0.20 0.43 0.43 0.58 0.75 0.91 0.63 0.61 0.43
0.40 0.47 0.47 0.48 0.48 0.48 0.61 0.54 0.66 0.77 0.70 0.76 1.00 1.00 1.30 1.27 1.91 1.93 3.00 2.14 1.49 0.52 0.89 0.75 0.31 0.35 0.39 0.20 0.42 0.49 0.69 0.59 0.53 0.33 0.54 0.71 0.66 0.35 0.26 0.69 0.78 0.59 0.81 0.84 0.36 0.15 0.12
0.45 0.50 0.52 0.53 0.57 0.59 0.66 0.63 0.57 0.59 0.61 1.01 1.05 1.45 2.40 1.37 1.96 2.52 2.74 2.06 0.89 0.77 0.93 0.57 0.47 0.38 0.34 0.24 0.51 0.52 0.56 0.28 0.21 0.10 0.45 0.52 0.45 0.20 0.14 0.37 0.53 0.63 0.86 0.49 0.48 0.25 0.25
0.47 0.50 0.60 0.68 0.69 0.78 0.78 0.64 0.72 0.69 0.89 1.25 1.24 1.53 2.21 1.49 1.72 3.31 3.06 1.70 0.89 0.71 0.50 0.31 0.35 0.21 0.13 0.18 0.48 0.43 0.43 0.16 0.09 0.02 0.17 0.37 0.57 0.36 0.39 0.50 0.63 0.59 0.37 0.52 1.01 0.54 0.21
0.50 0.53 0.64 0.77 0.76 0.85 0.86 0.73 0.77 1.02 1.15 1.14 1.04 2.10 1.55 1.97 2.45 3.74 2.85 1.53 0.78 0.38 0.43 0.35 0.11 0.11 0.05 0.04 0.29 0.20 0.20 0.08 0.03 0.00 0.12 0.48 0.71 0.48 0.64 0.73 0.52 0.72 0.88 0.50 0.42 0.24 0.27
0.47 0.55 0.59 0.73 0.75 0.75 0.89 0.72 0.58 1.00 1.18 1.16 1.18 1.59 1.52 2.25 3.30 2.57 2.04 1.62 0.77 0.37 0.38 0.36 0.16 0.06 0.05 0.03 0.17 0.12 0.06 0.02 0.01 0.01 0.11 0.40 0.78 0.61 0.31 0.29 0.09 0.34 0.36 0.31 0.57 0.24 0.33
0.42 0.47 0.58 0.62 0.68 0.71 0.85 0.76 0.55 0.82 1.74 2.02 1.46 1.67 2.35 1.54 1.55 1.32 1.60 1.17 0.64 0.39 0.37 0.35 0.11 0.04 0.02 0.04 0.07 0.03 0.05 0.00 0.00 0.01 0.11 0.42 0.90 0.67 0.32 0.70 0.40 0.56 0.37 0.51 0.75 0.84 0.73
0.38 0.44 0.48 0.45 0.52 0.59 0.77 0.58 0.51 0.70 1.13 1.55 1.36 1.58 3.08 2.12 0.80 0.96 1.16 0.99 0.69 0.35 0.28 0.30 0.15 0.07 0.06 0.05 0.02 0.01 0.05 0.00 0.00 0.00 0.06 0.38 0.49 0.54 0.35 0.57 0.64 0.44 0.28 0.60 1.43 1.50 0.40
0.37 0.42 0.40 0.40 0.47 0.51 0.61 0.60 0.64 0.79 0.82 1.08 0.91 0.56 0.67 0.76 0.53 0.52 0.87 0.75 0.61 0.52 0.32 0.28 0.19 0.09 0.06 0.05 0.03 0.02 0.02 0.01 0.00 0.00 0.07 0.42 0.69 0.78 0.36 0.13 0.47 0.50 0.39 0.55 1.14 0.81 0.94
0.39 0.39 0.36 0.39 0.41 0.46 0.52 0.63 0.70 1.07 1.52 1.09 0.74 0.33 0.14 0.06 0.05 0.22 0.75 0.89 0.62 0.53 0.41 0.21 0.11 0.05 0.07 0.04 0.01 0.00 0.00 0.01 0.01 0.01 0.06 0.33 0.87 0.94 0.58 0.21 0.25 0.58 0.56 0.70 0.69 0.59 0.70
0.33 0.35 0.37 0.32 0.35 0.39 0.45 0.58 0.82 1.22 1.81 1.16 0.71 0.33 0.18 0.13 0.06 0.14 0.44 0.66 0.52 0.47 0.30 0.09 0.08 0.12 0.10 0.02 0.00 0.00 0.00 0.00 0.04 0.05 0.17 0.31 0.55 0.83 0.48 0.37 0.37 0.80 0.74 0.59 0.37 0.35 0.44
0.31 0.35 0.40 0.33 0.30 0.31 0.32 0.40 0.51 0.73 1.13 1.03 0.73 0.58 0.39 0.20 0.07 0.07 0.20 0.41 0.43 0.38 0.37 0.09 0.10 0.10 0.06 0.02 0.03 0.03 0.08 0.03 0.04 0.08 0.08 0.13 0.31 0.59 0.45 0.51 0.79 0.58 0.51 0.35 0.36 0.36 0.32
0.33 0.33 0.36 0.33 0.28 0.27 0.25 0.36 0.50 0.62 0.89 0.59 0.58 0.55 0.38 0.16 0.06 0.05 0.16 0.36 0.49 0.46 0.52 0.25 0.09 0.07 0.09 0.10 0.16 0.15 0.18 0.20 0.09 0.05 0.02 0.02 0.17 0.36 0.21 0.17 0.18 0.02 0.05 0.17 0.23 0.33 0.18
0.31 0.31 0.31 0.33 0.25 0.26 0.31 0.37 0.45 0.54 0.55 0.38 0.50 0.50 0.51 0.19 0.09 0.03 0.05 0.16 0.45 0.45 0.52 0.39 0.23 0.13 0.21 0.28 0.22 0.17 0.15 0.09 0.07 0.11 0.03 0.02 0.12 0.42 0.14 0.14 0.01 0.00 0.00 0.00 0.03 0.19 0.25
0.28 0.29 0.30 0.31 0.27 0.20 0.26 0.30 0.26 0.34 0.47 0.35 0.47 0.49 0.36 0.19 0.06 0.02 0.03 0.06 0.30 0.51 0.58 0.44 0.38 0.18 0.29 0.45 0.25 0.18 0.04 0.00 0.01 0.03 0.04 0.06 0.13 0.28 0.19 0.21 0.01 0.00 0.00 0.00 0.00 0.10 0.11
0.26 0.27 0.32 0.31 0.24 0.20 0.19 0.24 0.27 0.27 0.51 0.40 0.35 0.38 0.32 0.20 0.08 0.02 0.02 0.04 0.18 0.42 0.58 0.51 0.60 0.36 0.36 0.46 0.30 0.12 0.03 0.01 0.00 0.01 0.00 0.02 0.03 0.05 0.08 0.09 0.01 0.00 0.00 0.00 0.00 0.00 0.00
0.29 0.28 0.31 0.28 0.24 0.22 0.17 0.20 0.23 0.20 0.40 0.48 0.33 0.33 0.33 0.25 0.11 0.03 0.01 0.01 0.05 0.27 0.56 0.55 0.49 0.28 0.21 0.20 0.11 0.07 0.04 0.01 0.00 0.01 0.00 0.00 0.00 0.01 0.00 0.00 0.00 0.00 0.00 0.00 0.00 0.00 0.00

GFSGBSN_prec_precacc_057.txt.gz
Total_Precipitation_Accumulation
0.15 0.15 0.15 0.14 0.12 0.12 0.13 0.14 0.14 0.13 0.14 0.16 0.19 0.21 0.19 0.15 0.14 0.13 0.17 0.19 0.18 0.20 0.19 0.23 0.34 0.58 0.65 0.33 0.08 0.07 0.05 0.02 0.10 0.31 0.17 0.10 0.06 0.03 0.03 0.01 0.02 0.00 0.00 0.00 0.00 0.00 0.00
0.14 0.13 0.13 0.12 0.13 0.16 0.16 0.17 0.18 0.18 0.19 0.19 0.21 0.21 0.15 0.15 0.13 0.15 0.16 0.16 0.25 0.27 0.24 0.22 0.43 0.74 0.53 0.19 0.01 0.02 0.06 0.07 0.05 0.21 0.23 0.19 0.08 0.01 0.02 0.01 0.02 0.00 0.00 0.00 0.00 0.00 0.00
0.12 0.14 0.13 0.12 0.14 0.17 0.19 0.20 0.22 0.22 0.21 0.23 0.24 0.22 0.16 0.19 0.18 0.20 0.24 0.23 0.22 0.28 0.38 0.45 0.69 0.78 0.43 0.07 0.01 0.02 0.03 0.17 0.13 0.12 0.25 0.19 0.15 0.15 0.07 0.04 0.00 0.00 0.01 0.00 0.00 0.00 0.00
0.12 0.13 0.13 0.14 0.15 0.17 0.20 0.21 0.21 0.21 0.22 0.26 0.34 0.25 0.21 0.26 0.24 0.26 0.31 0.28 0.34 0.44 0.54 0.57 0.90 0.91 0.30 0.01 0.01 0.02 0.04 0.17 0.14 0.24 0.36 0.46 0.42 0.18 0.10 0.06 0.03 0.03 0.04 0.01 0.00 0.00 0.00
0.13 0.12 0.12 0.14 0.13 0.17 0.23 0.21 0.22 0.19 0.21 0.32 0.39 0.32 0.34 0.35 0.39 0.37 0.41 0.46 0.55 0.60 0.72 1.09 0.94 0.56 0.13 0.02 0.04 0.02 0.05 0.14 0.09 0.22 0.45 0.70 0.84 0.36 0.13 0.11 0.11 0.08 0.03 0.01 0.00 0.00 0.00
0.12 0.13 0.14 0.14 0.15 0.21 0.25 0.25 0.24 0.21 0.29 0.37 0.40 0.35 0.41 0.51 0.55 0.50 0.62 0.73 1.02 0.99 1.00 1.52 0.86 0.70 0.10 0.02 0.06 0.03 0.02 0.13 0.26 0.36 0.60 0.75 0.93 0.71 0.29 0.24 0.13 0.02 0.01 0.00 0.00 0.00 0.00
0.13 0.13 0.14 0.13 0.17 0.23 0.24 0.27 0.23 0.26 0.30 0.36 0.37 0.36 0.41 0.47 0.62 0.91 1.20 1.63 1.42 1.54 1.14 0.73 0.42 0.33 0.07 0.06 0.10 0.04 0.03 0.14 0.45 0.50 0.54 0.69 0.69 0.70 0.30 0.12 0.02 0.01 0.02 0.01 0.00 0.00 0.00
0.16 0.20 0.19 0.19 0.24 0.30 0.30 0.30 0.29 0.33 0.37 0.36 0.35 0.35 0.43 0.53 0.66 1.12 1.28 1.26 0.79 0.80 0.84 0.39 0.30 0.29 0.14 0.15 0.20 0.07 0.05 0.13 0.28 0.33 0.62 0.97 0.64 0.20 0.27 0.17 0.08 0.04 0.05 0.04 0.01 0.00 0.01
0.18 0.21 0.16 0.22 0.28 0.34 0.34 0.31 0.38 0.42 0.44 0.39 0.35 0.45 0.72 0.98 1.13 1.59 1.13 0.78 0.77 1.00 1.17 0.69 0.39 0.32 0.19 0.23 0.18 0.15 0.06 0.17 0.19 0.32 0.61 0.91 0.43 0.22 0.34 0.39 0.22 0.14 0.04 0.03 0.03 0.01 0.01
0.25 0.28 0.30 0.36 0.36 0.35 0.34 0.38 0.54 0.62 0.56 0.50 0.51 0.73 1.09 1.54 2.03 1.25 1.30 0.97 1.03 1.65 2.02 0.90 0.50 0.34 0.33 0.47 0.28 0.08 0.10 0.27 0.23 0.38 0.49 0.60 0.42 0.34 0.44 0.42 0.26 0.18 0.07 0.01 0.05 0.10 0.08
0.30 0.39 0.47 0.43 0.47 0.46 0.42 0.44 0.48 0.52 0.58 0.62 0.82 1.07 1.31 2.05 2.40 1.35 1.33 1.06 1.31 2.36 1.72 0.53 0.50 0.41 0.47 0.40 0.24 0.17 0.20 0.36 0.19 0.29 0.55 0.60 0.36 0.38 0.49 0.45 0.17 0.22 0.10 0.03 0.09 0.16 0.17
0.44 0.40 0.43 0.44 0.48 0.51 0.49 0.50 0.45 0.40 0.58 0.78 0.78 0.85 1.37 1.98 2.18 1.49 1.42 1.66 2.14 2.57 1.71 1.05 0.75 0.58 0.57 0.28 0.27 0.31 0.50 0.42 0.43 0.57 0.48 0.27 0.16 0.23 0.22 0.18 0.15 0.20 0.21 0.21 0.15 0.40 0.43
0.36 0.37 0.46 0.50 0.49 0.50 0.50 0.49 0.46 0.64 0.73 0.69 0.75 0.80 1.28 1.52 1.77 1.86 2.38 2.24 2.49 1.52 1.06 1.04 0.77 0.48 0.40 0.24 0.37 0.45 0.79 0.72 1.16 0.84 0.83 0.74 0.49 0.24 0.20 0.43 0.43 0.58 0.75 0.91 0.63 0.61 0.43
0.40 0.47 0.47 0.48 0.48 0.48 0.61 0.54 0.66 0.78 0.70 0.76 1.00 1.00 1.30 1.27 1.91 1.93 3.00 2.15 1.50 0.54 0.92 0.81 0.34 0.38 0.42 0.21 0.43 0.50 0.73 0.59 0.53 0.33 0.54 0.71 0.67 0.35 0.26 0.69 0.78 0.59 0.81 0.84 0.36 0.15 0.12
0.45 0.50 0.52 0.53 0.57 0.59 0.66 0.63 0.57 0.59 0.61 1.01 1.05 1.45 2.40 1.37 1.96 2.52 2.74 2.07 0.93 0.82 1.00 0.60 0.48 0.38 0.35 0.24 0.52 0.54 0.57 0.28 0.21 0.10 0.45 0.52 0.45 0.20 0.14 0.37 0.53 0.63 0.86 0.49 0.48 0.25 0.25
0.47 0.50 0.60 0.68 0.69 0.78 0.78 0.64 0.72 0.69 0.89 1.25 1.24 1.53 2.21 1.49 1.72 3.31 3.06 1.71 0.90 0.73 0.51 0.31 0.36 0.21 0.14 0.19 0.49 0.43 0.43 0.16 0.09 0.02 0.17 0.37 0.57 0.36 0.39 0.50 0.63 0.59 0.37 0.52 1.01 0.54 0.21
0.50 0.53 0.64 0.77 0.76 0.85 0.86 0.73 0.77 1.02 1.15 1.14 1.04 2.10 1.55 1.97 2.45 3.74 2.86 1.53 0.78 0.38 0.43 0.35 0.11 0.11 0.05 0.04 0.29 0.20 0.20 0.08 0.03 0.00 0.12 0.48 0.71 0.48 0.64 0.73 0.52 0.72 0.88 0.50 0.42 0.24 0.27
0.47 0.55 0.59 0.73 0.75 0.75 0.89 0.72 0.58 1.00 1.18 1.16 1.18 1.59 1.52 2.25 3.30 2.57 2.04 1.62 0.77 0.37 0.38 0.36 0.16 0.06 0.05 0.03 0.17 0.12 0.06 0.02 0.01 0.01 0.11 0.40 0.78 0.61 0.31 0.29 0.09 0.34 0.36 0.31 0.57 0.24 0.33
0.42 0.47 0.58 0.62 0.68 0.71 0.85 0.76 0.55 0.82 1.74 2.02 1.46 1.67 2.35 1.54 1.55 1.32 1.60 1.17 0.64 0.39 0.37 0.35 0.11 0.04 0.02 0.04 0.07 0.03 0.05 0.00 0.00 0.01 0.11 0.42 0.90 0.67 0.32 0.70 0.40 0.56 0.37 0.51 0.75 0.84 0.73
0.38 0.44 0.48 0.45 0.52 0.59 0.77 0.58 0.51 0.70 1.13 1.55 1.36 1.58 3.08 2.12 0.80 0.96 1.16 0.99 0.69 0.35 0.28 0.30 0.15 0.07 0.06 0.05 0.02 0.01 0.05 0.00 0.00 0.00 0.06 0.38 0.49 0.54 0.35 0.57 0.64 0.44 0.28 0.60 1.43 1.50 0.40
0.37 0.42 0.40 0.41 0.47 0.51 0.61 0.60 0.64 0.79 0.82 1.08 0.91 0.56 0.67 0.76 0.53 0.52 0.87 0.75 0.61 0.52 0.32 0.28 0.19 0.09 0.06 0.05 0.03 0.02 0.02 0.01 0.00 0.00 0.07 0.42 0.69 0.78 0.36 0.13 0.47 0.50 0.39 0.55 1.14 0.81 0.94
0.39 0.39 0.36 0.40 0.41 0.46 0.52 0.63 0.70 1.07 1.52 1.09 0.74 0.33 0.14 0.06 0.05 0.22 0.75 0.89 0.62 0.53 0.41 0.21 0.11 0.05 0.07 0.04 0.01 0.00 0.00 0.01 0.01 0.01 0.06 0.33 0.87 0.94 0.58 0.21 0.25 0.58 0.56 0.70 0.69 0.59 0.70
0.33 0.35 0.37 0.33 0.36 0.39 0.45 0.58 0.82 1.22 1.81 1.16 0.71 0.33 0.18 0.13 0.06 0.14 0.44 0.66 0.52 0.47 0.30 0.09 0.08 0.12 0.10 0.02 0.00 0.00 0.00 0.00 0.04 0.05 0.17 0.31 0.55 0.83 0.48 0.37 0.37 0.80 0.74 0.59 0.37 0.35 0.44
0.31 0.35 0.40 0.34 0.30 0.31 0.32 0.40 0.51 0.73 1.13 1.03 0.73 0.58 0.39 0.20 0.07 0.07 0.20 0.41 0.43 0.38 0.37 0.09 0.10 0.10 0.06 0.02 0.03 0.03 0.08 0.03 0.04 0.08 0.08 0.13 0.31 0.59 0.45 0.51 0.79 0.58 0.51 0.35 0.36 0.36 0.32
0.33 0.33 0.36 0.33 0.28 0.27 0.25 0.36 0.50 0.62 0.89 0.59 0.58 0.56 0.38 0.16 0.06 0.05 0.16 0.36 0.49 0.46 0.52 0.25 0.09 0.07 0.09 0.10 0.16 0.15 0.18 0.20 0.09 0.05 0.02 0.02 0.17 0.36 0.21 0.17 0.18 0.02 0.05 0.17 0.23 0.33 0.18
0.31 0.31 0.31 0.33 0.26 0.26 0.31 0.37 0.45 0.54 0.55 0.38 0.50 0.50 0.51 0.19 0.09 0.03 0.05 0.16 0.45 0.45 0.52 0.39 0.23 0.13 0.21 0.28 0.22 0.17 0.15 0.09 0.07 0.11 0.03 0.02 0.12 0.42 0.14 0.14 0.01 0.00 0.00 0.00 0.03 0.19 0.25
0.28 0.29 0.30 0.31 0.27 0.21 0.26 0.30 0.26 0.34 0.47 0.35 0.47 0.49 0.36 0.20 0.06 0.02 0.03 0.06 0.30 0.51 0.58 0.44 0.38 0.18 0.29 0.45 0.25 0.18 0.04 0.00 0.01 0.03 0.04 0.06 0.14 0.28 0.19 0.21 0.01 0.00 0.00 0.00 0.01 0.10 0.11
0.26 0.27 0.32 0.31 0.24 0.21 0.19 0.24 0.27 0.27 0.51 0.40 0.35 0.38 0.32 0.20 0.08 0.02 0.02 0.04 0.18 0.42 0.58 0.51 0.60 0.36 0.36 0.46 0.30 0.12 0.03 0.01 0.00 0.01 0.00 0.02 0.03 0.05 0.08 0.10 0.01 0.00 0.00 0.00 0.00 0.00 0.00
0.29 0.28 0.31 0.28 0.24 0.22 0.18 0.20 0.24 0.21 0.40 0.48 0.33 0.33 0.33 0.25 0.11 0.03 0.01 0.01 0.05 0.27 0.56 0.55 0.49 0.28 0.21 0.20 0.11 0.07 0.04 0.01 0.00 0.01 0.00 0.00 0.00 0.01 0.00 0.00 0.00 0.00 0.00 0.00 0.00 0.00 0.00

GFSGBSN_prec_precacc_060.txt.gz
Total_Precipitation_Accumulation
0.15 0.15 0.15 0.15 0.13 0.13 0.13 0.15 0.16 0.14 0.15 0.17 0.20 0.23 0.22 0.16 0.14 0.15 0.18 0.21 0.19 0.20 0.19 0.23 0.34 0.60 0.68 0.35 0.09 0.11 0.09 0.04 0.14 0.34 0.17 0.10 0.07 0.05 0.03 0.01 0.02 0.00 0.00 0.00 0.00 0.00 0.00
0.14 0.13 0.14 0.13 0.14 0.16 0.16 0.19 0.21 0.20 0.20 0.20 0.23 0.25 0.20 0.17 0.14 0.16 0.16 0.17 0.26 0.29 0.25 0.23 0.45 0.81 0.58 0.21 0.01 0.04 0.13 0.07 0.06 0.23 0.24 0.20 0.09 0.02 0.03 0.01 0.02 0.00 0.00 0.00 0.00 0.00 0.00
0.12 0.14 0.13 0.13 0.15 0.17 0.19 0.24 0.26 0.24 0.23 0.25 0.26 0.26 0.17 0.22 0.23 0.22 0.25 0.23 0.23 0.30 0.39 0.48 0.74 0.89 0.46 0.08 0.02 0.05 0.10 0.17 0.16 0.13 0.25 0.20 0.16 0.16 0.08 0.04 0.00 0.00 0.01 0.00 0.00 0.00 0.00
0.12 0.13 0.13 0.14 0.16 0.17 0.21 0.24 0.24 0.22 0.24 0.30 0.38 0.30 0.25 0.31 0.29 0.27 0.32 0.28 0.34 0.44 0.59 0.68 1.03 0.98 0.31 0.01 0.02 0.03 0.07 0.19 0.17 0.25 0.37 0.52 0.46 0.19 0.10 0.06 0.03 0.03 0.04 0.01 0.00 0.00 0.00
0.13 0.12 0.12 0.14 0.14 0.18 0.25 0.22 0.23 0.21 0.25 0.36 0.42 0.35 0.36 0.35 0.39 0.37 0.41 0.46 0.55 0.60 0.73 1.19 1.03 0.60 0.15 0.04 0.06 0.02 0.06 0.17 0.13 0.24 0.49 0.85 0.97 0.41 0.14 0.11 0.11 0.08 0.03 0.01 0.00 0.00 0.00
0.12 0.13 0.14 0.14 0.15 0.22 0.27 0.25 0.25 0.25 0.32 0.40 0.43 0.38 0.42 0.52 0.56 0.52 0.62 0.73 1.02 0.99 1.00 1.53 0.88 0.74 0.11 0.03 0.10 0.04 0.03 0.18 0.33 0.41 0.73 0.97 1.13 0.80 0.31 0.24 0.13 0.02 0.01 0.00 0.00 0.00 0.00
0.13 0.13 0.15 0.13 0.17 0.24 0.26 0.27 0.24 0.29 0.31 0.40 0.43 0.43 0.47 0.55 0.75 0.98 1.21 1.63 1.42 1.54 1.15 0.74 0.43 0.36 0.10 0.12 0.14 0.08 0.05 0.35 0.61 0.52 0.55 0.74 0.88 0.77 0.30 0.12 0.02 0.01 0.02 0.01 0.00 0.00 0.00
0.16 0.20 0.19 0.19 0.24 0.31 0.31 0.31 0.30 0.34 0.40 0.41 0.40 0.41 0.50 0.62 0.91 1.24 1.31 1.26 0.79 0.80 0.84 0.39 0.32 0.30 0.15 0.20 0.23 0.19 0.09 0.52 0.40 0.34 0.64 1.00 0.67 0.21 0.28 0.17 0.08 0.04 0.05 0.04 0.01 0.00 0.01
0.19 0.21 0.16 0.22 0.29 0.34 0.35 0.32 0.39 0.43 0.47 0.42 0.38 0.47 0.74 1.00 1.20 1.76 1.14 0.78 0.77 1.00 1.17 0.71 0.43 0.38 0.24 0.29 0.22 0.25 0.17 0.32 0.24 0.37 0.80 0.99 0.45 0.25 0.34 0.39 0.22 0.14 0.04 0.03 0.03 0.01 0.01
0.26 0.28 0.30 0.37 0.36 0.35 0.34 0.39 0.54 0.63 0.58 0.51 0.52 0.75 1.09 1.54 2.03 1.25 1.30 0.97 1.03 1.65 2.04 0.95 0.59 0.43 0.39 0.51 0.37 0.10 0.35 0.35 0.27 0.57 0.71 0.81 0.53 0.38 0.46 0.43 0.26 0.19 0.07 0.01 0.05 0.10 0.08
0.30 0.39 0.47 0.43 0.47 0.47 0.43 0.45 0.48 0.52 0.59 0.62 0.82 1.07 1.32 2.05 2.40 1.35 1.33 1.06 1.31 2.36 1.78 0.62 0.58 0.49 0.51 0.45 0.39 0.25 0.39 0.50 0.30 0.45 0.75 0.84 0.63 0.45 0.57 0.50 0.19 0.22 0.10 0.03 0.09 0.16 0.17
0.44 0.40 0.43 0.44 0.48 0.51 0.49 0.51 0.45 0.40 0.58 0.79 0.78 0.85 1.37 1.98 2.18 1.50 1.42 1.66 2.14 2.57 1.77 1.10 0.80 0.64 0.60 0.39 0.31 0.37 0.55 0.58 0.52 0.62 0.56 0.56 0.49 0.42 0.34 0.34 0.25 0.21 0.21 0.21 0.15 0.40 0.43
0.36 0.37 0.46 0.50 0.49 0.50 0.50 0.49 0.46 0.64 0.73 0.69 0.75 0.80 1.28 1.52 1.77 1.86 2.38 2.24 2.49 1.53 1.09 1.12 0.84 0.52 0.43 0.29 0.37 0.47 0.81 0.75 1.19 0.91 0.94 1.04 0.63 0.35 0.28 0.50 0.51 0.61 0.75 0.91 0.63 0.61 0.43
0.40 0.47 0.47 0.48 0.48 0.48 0.61 0.54 0.66 0.78 0.70 0.77 1.00 1.00 1.30 1.27 1.91 1.93 3.00 2.15 1.51 0.56 0.97 0.88 0.37 0.42 0.45 0.22 0.44 0.54 0.74 0.59 0.53 0.33 0.58 0.76 0.71 0.39 0.31 0.70 0.79 0.59 0.81 0.84 0.36 0.15 0.12
0.45 0.50 0.52 0.53 0.57 0.59 0.66 0.63 0.57 0.59 0.61 1.01 1.05 1.45 2.40 1.37 1.96 2.52 2.74 2.07 0.94 0.84 1.02 0.62 0.49 0.39 0.35 0.24 0.53 0.56 0.57 0.28 0.21 0.10 0.45 0.52 0.45 0.20 0.14 0.37 0.53 0.63 0.86 0.49 0.48 0.25 0.25
0.47 0.50 0.60 0.68 0.69 0.78 0.78 0.64 0.72 0.69 0.90 1.25 1.24 1.53 2.21 1.49 1.72 3.31 3.06 1.71 0.91 0.73 0.51 0.31 0.36 0.22 0.14 0.20 0.49 0.43 0.43 0.16 0.09 0.02 0.17 0.37 0.58 0.36 0.39 0.50 0.63 0.59 0.37 0.52 1.01 0.54 0.21
0.50 0.53 0.64 0.77 0.76 0.85 0.86 0.73 0.77 1.02 1.15 1.14 1.04 2.10 1.55 1.97 2.45 3.74 2.86 1.53 0.78 0.38 0.43 0.35 0.11 0.11 0.05 0.04 0.29 0.20 0.20 0.08 0.03 0.00 0.12 0.48 0.71 0.49 0.64 0.73 0.52 0.72 0.88 0.50 0.42 0.24 0.27
0.47 0.55 0.59 0.73 0.75 0.75 0.89 0.72 0.58 1.00 1.18 1.16 1.18 1.59 1.52 2.25 3.30 2.57 2.04 1.62 0.77 0.37 0.38 0.36 0.16 0.06 0.05 0.03 0.17 0.12 0.06 0.02 0.01 0.01 0.11 0.40 0.78 0.61 0.31 0.29 0.09 0.34 0.36 0.31 0.57 0.24 0.33
0.42 0.47 0.59 0.62 0.68 0.71 0.85 0.76 0.55 0.82 1.74 2.02 1.46 1.67 2.35 1.54 1.55 1.32 1.60 1.17 0.64 0.39 0.37 0.35 0.11 0.04 0.02 0.04 0.07 0.03 0.05 0.00 0.00 0.01 0.11 0.42 0.90 0.67 0.32 0.70 0.40 0.56 0.37 0.51 0.75 0.84 0.73
0.38 0.44 0.48 0.45 0.52 0.59 0.77 0.58 0.51 0.70 1.13 1.55 1.36 1.58 3.08 2.12 0.80 0.96 1.16 0.99 0.69 0.35 0.28 0.30 0.15 0.07 0.06 0.05 0.02 0.01 0.05 0.00 0.00 0.00 0.06 0.38 0.49 0.54 0.35 0.57 0.64 0.44 0.28 0.60 1.43 1.50 0.40
0.37 0.42 0.40 0.41 0.47 0.51 0.61 0.60 0.64 0.79 0.82 1.08 0.91 0.56 0.67 0.76 0.53 0.52 0.87 0.75 0.61 0.52 0.32 0.28 0.19 0.09 0.06 0.05 0.03 0.02 0.02 0.01 0.00 0.00 0.07 0.42 0.69 0.78 0.36 0.13 0.47 0.50 0.39 0.55 1.14 0.81 0.94
0.39 0.39 0.36 0.40 0.41 0.46 0.52 0.63 0.70 1.07 1.52 1.09 0.74 0.33 0.14 0.06 0.05 0.22 0.75 0.89 0.62 0.53 0.41 0.21 0.11 0.05 0.07 0.04 0.01 0.00 0.00 0.01 0.01 0.01 0.06 0.33 0.87 0.94 0.58 0.21 0.25 0.58 0.56 0.70 0.69 0.59 0.70
0.33 0.35 0.37 0.33 0.36 0.39 0.45 0.58 0.82 1.22 1.81 1.16 0.71 0.33 0.18 0.13 0.06 0.14 0.44 0.66 0.52 0.47 0.30 0.09 0.08 0.12 0.10 0.02 0.00 0.00 0.00 0.00 0.04 0.05 0.17 0.31 0.55 0.83 0.48 0.37 0.37 0.80 0.74 0.59 0.37 0.35 0.44
0.31 0.35 0.40 0.34 0.30 0.31 0.32 0.40 0.51 0.73 1.13 1.03 0.73 0.59 0.39 0.20 0.07 0.07 0.20 0.41 0.43 0.38 0.37 0.09 0.10 0.10 0.06 0.02 0.03 0.03 0.08 0.03 0.04 0.08 0.08 0.13 0.31 0.59 0.45 0.51 0.79 0.58 0.51 0.35 0.36 0.36 0.32
0.33 0.33 0.36 0.33 0.28 0.27 0.25 0.36 0.50 0.62 0.89 0.59 0.58 0.56 0.38 0.16 0.06 0.05 0.16 0.36 0.49 0.46 0.52 0.25 0.09 0.07 0.09 0.10 0.16 0.15 0.18 0.20 0.09 0.05 0.02 0.02 0.17 0.36 0.21 0.17 0.18 0.02 0.05 0.17 0.23 0.33 0.18
0.31 0.31 0.32 0.33 0.26 0.26 0.32 0.37 0.45 0.54 0.55 0.38 0.50 0.50 0.51 0.20 0.09 0.03 0.05 0.16 0.45 0.45 0.52 0.39 0.23 0.13 0.21 0.28 0.22 0.17 0.15 0.09 0.07 0.11 0.03 0.02 0.12 0.42 0.14 0.14 0.01 0.00 0.00 0.00 0.03 0.19 0.25
0.28 0.29 0.30 0.31 0.27 0.21 0.26 0.30 0.26 0.34 0.47 0.35 0.47 0.49 0.36 0.20 0.06 0.02 0.03 0.06 0.30 0.51 0.58 0.44 0.38 0.18 0.29 0.45 0.25 0.18 0.04 0.00 0.01 0.04 0.04 0.06 0.14 0.28 0.20 0.22 0.01 0.00 0.00 0.00 0.02 0.10 0.11
0.26 0.27 0.32 0.31 0.24 0.21 0.20 0.25 0.27 0.27 0.51 0.40 0.35 0.38 0.33 0.20 0.08 0.02 0.02 0.04 0.18 0.42 0.58 0.51 0.60 0.36 0.36 0.46 0.30 0.12 0.03 0.01 0.00 0.01 0.00 0.02 0.04 0.06 0.09 0.10 0.01 0.00 0.00 0.00 0.00 0.00 0.00
0.29 0.28 0.31 0.28 0.24 0.22 0.18 0.21 0.24 0.21 0.40 0.49 0.33 0.33 0.33 0.25 0.11 0.03 0.01 0.01 0.05 0.27 0.56 0.55 0.49 0.28 0.21 0.20 0.11 0.07 0.04 0.01 0.00 0.01 0.00 0.00 0.00 0.01 0.00 0.00 0.00 0.00 0.00 0.00 0.00 0.00 0.00

GFSGBSN_prec_precacc_063.txt.gz
Total_Precipitation_Accumulation
0.16 0.16 0.16 0.15 0.14 0.14 0.13 0.16 0.19 0.17 0.16 0.18 0.23 0.27 0.25 0.20 0.19 0.19 0.21 0.22 0.20 0.23 0.22 0.24 0.35 0.62 0.68 0.36 0.09 0.16 0.11 0.08 0.21 0.41 0.17 0.11 0.08 0.06 0.04 0.01 0.02 0.00 0.00 0.00 0.00 0.00 0.00
0.14 0.13 0.14 0.13 0.15 0.16 0.16 0.21 0.23 0.22 0.21 0.23 0.27 0.29 0.22 0.21 0.20 0.24 0.20 0.18 0.26 0.31 0.29 0.25 0.49 0.89 0.60 0.22 0.01 0.04 0.16 0.10 0.17 0.30 0.24 0.21 0.09 0.03 0.04 0.02 0.02 0.00 0.00 0.00 0.00 0.00 0.00
0.12 0.14 0.13 0.13 0.15 0.17 0.20 0.26 0.26 0.24 0.25 0.29 0.30 0.28 0.19 0.26 0.26 0.26 0.27 0.25 0.25 0.31 0.41 0.52 0.82 0.98 0.48 0.08 0.02 0.06 0.14 0.19 0.21 0.21 0.25 0.21 0.16 0.19 0.09 0.05 0.00 0.00 0.01 0.00 0.00 0.00 0.00
0.12 0.13 0.13 0.14 0.16 0.18 0.22 0.27 0.24 0.23 0.27 0.32 0.41 0.32 0.28 0.33 0.30 0.28 0.32 0.28 0.34 0.45 0.62 0.72 1.14 1.04 0.32 0.01 0.02 0.03 0.12 0.21 0.20 0.37 0.37 0.53 0.50 0.24 0.14 0.07 0.03 0.03 0.04 0.01 0.00 0.00 0.00
0.13 0.13 0.12 0.14 0.14 0.19 0.26 0.24 0.23 0.22 0.27 0.40 0.47 0.40 0.40 0.37 0.40 0.37 0.41 0.46 0.55 0.60 0.73 1.21 1.09 0.63 0.16 0.04 0.06 0.03 0.13 0.19 0.14 0.36 0.51 0.90 1.07 0.48 0.17 0.13 0.13 0.08 0.03 0.01 0.00 0.00 0.00
0.12 0.13 0.14 0.14 0.15 0.22 0.27 0.26 0.26 0.26 0.35 0.45 0.47 0.42 0.46 0.56 0.59 0.53 0.62 0.73 1.02 0.99 1.00 1.54 0.91 0.77 0.12 0.04 0.13 0.08 0.14 0.24 0.38 0.58 0.79 1.10 1.27 0.90 0.37 0.26 0.14 0.02 0.01 0.00 0.00 0.00 0.00
0.13 0.13 0.15 0.13 0.17 0.24 0.26 0.28 0.25 0.30 0.35 0.44 0.44 0.45 0.49 0.60 0.81 1.04 1.23 1.63 1.43 1.56 1.17 0.77 0.46 0.37 0.13 0.19 0.31 0.19 0.16 0.43 0.73 0.57 0.57 0.82 1.07 0.84 0.31 0.12 0.02 0.01 0.02 0.01 0.00 0.00 0.00
0.16 0.20 0.19 0.19 0.24 0.31 0.31 0.31 0.31 0.35 0.43 0.43 0.41 0.43 0.50 0.63 0.92 1.26 1.31 1.27 0.79 0.81 0.86 0.39 0.34 0.32 0.16 0.40 0.59 0.32 0.17 0.69 0.56 0.36 0.65 1.06 0.79 0.28 0.31 0.18 0.08 0.04 0.05 0.04 0.01 0.00 0.01
0.19 0.21 0.16 0.22 0.29 0.34 0.35 0.33 0.40 0.44 0.49 0.43 0.39 0.48 0.74 1.00 1.20 1.77 1.15 0.78 0.77 1.00 1.19 0.72 0.43 0.38 0.26 0.39 0.36 0.32 0.26 0.75 0.39 0.39 0.82 1.00 0.47 0.33 0.40 0.41 0.23 0.14 0.04 0.03 0.03 0.01 0.01
0.26 0.28 0.30 0.37 0.36 0.35 0.34 0.39 0.55 0.63 0.59 0.52 0.52 0.75 1.09 1.54 2.03 1.25 1.30 0.97 1.03 1.65 2.11 0.99 0.61 0.44 0.42 0.55 0.45 0.20 0.77 0.85 0.39 0.59 0.74 0.83 0.55 0.50 0.51 0.45 0.26 0.19 0.07 0.01 0.05 0.10 0.08
0.30 0.39 0.47 0.43 0.47 0.47 0.43 0.45 0.49 0.53 0.59 0.63 0.82 1.07 1.32 2.05 2.40 1.35 1.33 1.06 1.31 2.38 1.90 0.72 0.63 0.51 0.55 0.53 0.51 0.48 0.72 0.70 0.33 0.49 0.77 0.89 0.66 0.50 0.61 0.52 0.19 0.22 0.10 0.03 0.09 0.16 0.17
0.44 0.40 0.43 0.44 0.48 0.51 0.49 0.51 0.45 0.40 0.59 0.79 0.78 0.85 1.37 1.98 2.18 1.50 1.42 1.66 2.15 2.58 1.82 1.13 0.81 0.65 0.67 0.49 0.48 0.65 0.65 0.61 0.54 0.72 0.64 0.68 0.60 0.51 0.45 0.36 0.26 0.21 0.21 0.21 0.15 0.40 0.43
0.36 0.37 0.46 0.50 0.49 0.50 0.50 0.49 0.46 0.64 0.74 0.69 0.75 0.80 1.28 1.52 1.77 1.86 2.38 2.24 2.49 1.55 1.12 1.15 0.86 0.55 0.48 0.36 0.49 0.56 0.87 0.85 1.28 1.04 1.09 1.29 0.89 0.56 0.42 0.62 0.57 0.62 0.75 0.92 0.64 0.61 0.43
0.40 0.47 0.47 0.48 0.48 0.48 0.61 0.54 0.66 0.78 0.71 0.77 1.00 1.00 1.30 1.27 1.91 1.93 3.00 2.15 1.52 0.58 0.98 0.90 0.39 0.43 0.46 0.23 0.44 0.54 0.75 0.62 0.55 0.35 0.67 0.91 0.94 0.65 0.49 0.82 0.90 0.64 0.81 0.85 0.36 0.15 0.12
0.45 0.50 0.52 0.53 0.57 0.59 0.66 0.63 0.57 0.59 0.61 1.01 1.05 1.45 2.40 1.37 1.96 2.52 2.74 2.08 0.95 0.86 1.02 0.63 0.49 0.40 0.36 0.24 0.53 0.56 0.57 0.28 0.21 0.11 0.47 0.53 0.48 0.28 0.19 0.39 0.56 0.68 0.87 0.49 0.48 0.25 0.25
0.47 0.50 0.60 0.68 0.69 0.78 0.78 0.64 0.72 0.69 0.90 1.25 1.24 1.53 2.21 1.49 1.72 3.31 3.06 1.72 0.91 0.73 0.51 0.31 0.36 0.22 0.14 0.20 0.49 0.43 0.43 0.16 0.09 0.02 0.17 0.37 0.58 0.36 0.39 0.50 0.63 0.59 0.37 0.52 1.01 0.54 0.21
0.50 0.53 0.64 0.77 0.76 0.85 0.86 0.73 0.77 1.02 1.15 1.14 1.04 2.10 1.55 1.97 2.45 3.74 2.86 1.54 0.79 0.38 0.43 0.35 0.11 0.11 0.05 0.04 0.29 0.20 0.20 0.08 0.03 0.00 0.12 0.48 0.71 0.49 0.64 0.73 0.52 0.72 0.88 0.50 0.42 0.24 0.27
0.47 0.55 0.59 0.73 0.75 0.75 0.89 0.72 0.58 1.00 1.18 1.16 1.18 1.59 1.52 2.25 3.30 2.57 2.04 1.62 0.77 0.37 0.38 0.36 0.16 0.06 0.05 0.03 0.17 0.12 0.06 0.02 0.01 0.01 0.11 0.40 0.78 0.61 0.32 0.29 0.09 0.34 0.36 0.31 0.57 0.24 0.33
0.42 0.47 0.59 0.62 0.68 0.71 0.85 0.76 0.55 0.82 1.74 2.02 1.46 1.67 2.35 1.54 1.55 1.32 1.60 1.17 0.64 0.39 0.37 0.35 0.11 0.04 0.02 0.04 0.07 0.03 0.05 0.00 0.00 0.01 0.11 0.42 0.90 0.67 0.32 0.70 0.40 0.56 0.37 0.51 0.75 0.84 0.73
0.38 0.44 0.48 0.45 0.52 0.59 0.77 0.58 0.51 0.70 1.13 1.55 1.36 1.58 3.08 2.12 0.80 0.96 1.16 0.99 0.69 0.35 0.28 0.30 0.15 0.07 0.06 0.05 0.02 0.01 0.05 0.00 0.00 0.00 0.06 0.38 0.49 0.54 0.35 0.57 0.64 0.44 0.28 0.60 1.43 1.50 0.40
0.37 0.42 0.40 0.41 0.47 0.51 0.61 0.60 0.64 0.79 0.82 1.08 0.91 0.56 0.67 0.76 0.53 0.52 0.87 0.75 0.61 0.52 0.32 0.28 0.19 0.09 0.06 0.05 0.03 0.02 0.02 0.01 0.00 0.00 0.07 0.42 0.69 0.78 0.36 0.13 0.47 0.50 0.39 0.55 1.14 0.81 0.94
0.39 0.39 0.36 0.40 0.41 0.46 0.52 0.63 0.70 1.07 1.52 1.09 0.74 0.33 0.14 0.06 0.05 0.22 0.75 0.89 0.62 0.53 0.41 0.21 0.11 0.05 0.07 0.04 0.01 0.00 0.00 0.01 0.01 0.01 0.06 0.33 0.87 0.94 0.58 0.21 0.25 0.58 0.56 0.70 0.69 0.59 0.70
0.33 0.35 0.37 0.33 0.36 0.39 0.45 0.58 0.82 1.22 1.81 1.16 0.72 0.33 0.18 0.13 0.06 0.14 0.44 0.66 0.52 0.47 0.30 0.09 0.08 0.12 0.10 0.02 0.00 0.00 0.00 0.00 0.04 0.05 0.17 0.31 0.55 0.83 0.48 0.37 0.37 0.80 0.74 0.59 0.37 0.35 0.44
0.31 0.35 0.40 0.34 0.30 0.31 0.32 0.40 0.51 0.73 1.13 1.03 0.73 0.59 0.40 0.20 0.07 0.07 0.20 0.41 0.43 0.38 0.37 0.09 0.10 0.10 0.06 0.02 0.03 0.03 0.08 0.03 0.04 0.08 0.08 0.13 0.31 0.59 0.45 0.51 0.79 0.58 0.51 0.35 0.36 0.36 0.32
0.33 0.33 0.36 0.33 0.28 0.27 0.25 0.36 0.50 0.62 0.89 0.59 0.59 0.56 0.39 0.16 0.06 0.05 0.16 0.36 0.49 0.46 0.52 0.25 0.09 0.07 0.09 0.10 0.16 0.15 0.18 0.20 0.09 0.05 0.02 0.02 0.17 0.36 0.21 0.17 0.18 0.02 0.05 0.17 0.23 0.33 0.18
0.31 0.31 0.32 0.33 0.26 0.26 0.32 0.37 0.45 0.54 0.55 0.38 0.50 0.50 0.51 0.20 0.09 0.03 0.05 0.16 0.45 0.45 0.52 0.39 0.23 0.13 0.21 0.28 0.22 0.17 0.15 0.09 0.08 0.11 0.03 0.02 0.12 0.42 0.14 0.14 0.01 0.00 0.00 0.00 0.03 0.19 0.25
0.28 0.29 0.30 0.31 0.27 0.21 0.26 0.30 0.26 0.34 0.47 0.35 0.47 0.49 0.36 0.20 0.06 0.02 0.03 0.06 0.30 0.51 0.58 0.44 0.38 0.18 0.29 0.46 0.26 0.18 0.04 0.00 0.01 0.04 0.04 0.07 0.14 0.29 0.20 0.22 0.01 0.00 0.00 0.00 0.02 0.11 0.11
0.26 0.27 0.32 0.31 0.24 0.21 0.20 0.25 0.28 0.27 0.51 0.40 0.35 0.38 0.33 0.20 0.08 0.02 0.02 0.04 0.18 0.42 0.58 0.51 0.60 0.36 0.36 0.47 0.30 0.12 0.03 0.01 0.00 0.01 0.00 0.02 0.04 0.06 0.09 0.10 0.01 0.00 0.00 0.01 0.01 0.00 0.00
0.29 0.28 0.31 0.28 0.24 0.22 0.18 0.21 0.25 0.22 0.41 0.49 0.33 0.33 0.33 0.25 0.11 0.03 0.01 0.01 0.05 0.27 0.57 0.55 0.50 0.28 0.21 0.21 0.12 0.07 0.04 0.02 0.00 0.01 0.00 0.00 0.00 0.01 0.00 0.00 0.00 0.00 0.00 0.00 0.00 0.00 0.00

GFSGBSN_prec_precacc_066.txt.gz
Total_Precipitation_Accumulation
0.16 0.16 0.16 0.16 0.14 0.14 0.13 0.17 0.21 0.17 0.16 0.19 0.25 0.30 0.28 0.23 0.22 0.27 0.28 0.24 0.21 0.25 0.24 0.29 0.39 0.64 0.68 0.36 0.09 0.16 0.14 0.11 0.26 0.48 0.19 0.11 0.08 0.07 0.05 0.01 0.02 0.00 0.00 0.00 0.00 0.00 0.00
0.14 0.13 0.14 0.13 0.15 0.16 0.17 0.23 0.24 0.22 0.22 0.24 0.29 0.32 0.26 0.23 0.21 0.27 0.26 0.22 0.28 0.33 0.31 0.31 0.51 0.90 0.61 0.22 0.01 0.05 0.16 0.11 0.29 0.41 0.28 0.21 0.09 0.03 0.05 0.03 0.02 0.00 0.00 0.00 0.00 0.00 0.00
0.12 0.14 0.13 0.13 0.15 0.18 0.21 0.28 0.27 0.24 0.25 0.31 0.33 0.31 0.23 0.30 0.28 0.27 0.27 0.25 0.26 0.31 0.42 0.55 0.85 1.00 0.49 0.08 0.02 0.07 0.15 0.20 0.29 0.35 0.30 0.21 0.16 0.19 0.10 0.08 0.01 0.00 0.01 0.00 0.00 0.00 0.00
0.12 0.14 0.13 0.15 0.16 0.18 0.23 0.28 0.24 0.23 0.28 0.36 0.43 0.35 0.32 0.37 0.33 0.30 0.32 0.29 0.34 0.45 0.62 0.73 1.18 1.06 0.33 0.01 0.02 0.03 0.12 0.22 0.21 0.44 0.44 0.53 0.50 0.25 0.16 0.10 0.05 0.05 0.05 0.02 0.00 0.00 0.00
0.13 0.13 0.12 0.14 0.14 0.19 0.26 0.24 0.23 0.22 0.29 0.43 0.48 0.43 0.42 0.39 0.43 0.41 0.41 0.46 0.55 0.60 0.73 1.21 1.09 0.65 0.16 0.04 0.06 0.03 0.14 0.20 0.15 0.48 0.59 0.92 1.09 0.54 0.22 0.19 0.18 0.11 0.04 0.01 0.00 0.00 0.00
0.12 0.13 0.14 0.14 0.15 0.22 0.28 0.27 0.26 0.26 0.36 0.47 0.47 0.44 0.47 0.56 0.62 0.58 0.63 0.73 1.02 1.00 1.00 1.54 0.93 0.80 0.14 0.04 0.13 0.08 0.21 0.28 0.40 0.79 1.00 1.19 1.34 0.97 0.43 0.31 0.16 0.03 0.01 0.00 0.00 0.00 0.00
0.13 0.13 0.15 0.13 0.17 0.24 0.26 0.28 0.25 0.31 0.36 0.45 0.45 0.46 0.50 0.60 0.82 1.05 1.23 1.63 1.45 1.60 1.18 0.80 0.50 0.40 0.17 0.25 0.37 0.26 0.34 0.50 0.82 1.11 0.80 0.86 1.11 0.86 0.32 0.12 0.02 0.01 0.02 0.01 0.00 0.00 0.00
0.16 0.20 0.19 0.19 0.24 0.31 0.31 0.31 0.31 0.36 0.43 0.44 0.42 0.44 0.51 0.63 0.92 1.26 1.31 1.27 0.79 0.82 0.88 0.40 0.34 0.33 0.19 0.48 0.68 0.51 0.36 0.83 0.75 0.84 0.74 1.09 0.80 0.28 0.31 0.18 0.08 0.04 0.05 0.04 0.01 0.00 0.01
0.19 0.21 0.16 0.22 0.29 0.34 0.35 0.33 0.40 0.44 0.49 0.43 0.39 0.48 0.74 1.00 1.20 1.77 1.15 0.78 0.77 1.00 1.24 0.74 0.44 0.42 0.39 0.82 0.61 0.51 0.45 0.97 0.56 0.50 0.83 1.00 0.48 0.34 0.44 0.43 0.23 0.14 0.04 0.03 0.03 0.01 0.01
0.26 0.28 0.30 0.37 0.36 0.35 0.34 0.39 0.55 0.63 0.59 0.52 0.52 0.76 1.09 1.54 2.03 1.25 1.30 0.97 1.03 1.65 2.16 1.01 0.62 0.50 0.66 0.91 0.60 0.33 0.87 1.04 0.50 0.60 0.76 0.85 0.56 0.55 0.67 0.48 0.28 0.19 0.07 0.01 0.05 0.10 0.08
0.30 0.39 0.47 0.43 0.47 0.47 0.43 0.45 0.49 0.53 0.60 0.63 0.82 1.07 1.32 2.05 2.40 1.35 1.33 1.06 1.31 2.38 1.93 0.73 0.64 0.53 0.62 0.61 0.58 0.62 0.81 0.95 0.41 0.50 0.78 0.91 0.70 0.58 0.88 0.68 0.21 0.23 0.10 0.03 0.09 0.16 0.17
0.44 0.40 0.43 0.44 0.48 0.51 0.49 0.51 0.45 0.40 0.59 0.80 0.78 0.85 1.37 1.98 2.18 1.50 1.42 1.66 2.15 2.59 1.84 1.15 0.84 0.68 0.71 0.54 0.57 0.87 0.78 0.78 0.57 0.72 0.65 0.68 0.62 0.56 0.64 0.63 0.37 0.23 0.22 0.21 0.15 0.40 0.43
0.36 0.37 0.46 0.50 0.49 0.50 0.50 0.49 0.46 0.64 0.74 0.69 0.75 0.80 1.28 1.52 1.77 1.86 2.38 2.24 2.49 1.55 1.13 1.16 0.91 0.65 0.63 0.57 0.72 0.72 1.00 0.92 1.31 1.08 1.10 1.33 0.93 0.57 0.47 0.76 0.63 0.63 0.75 0.93 0.65 0.61 0.43
0.40 0.47 0.47 0.48 0.48 0.48 0.61 0.54 0.66 0.78 0.71 0.77 1.00 1.00 1.30 1.27 1.91 1.93 3.00 2.15 1.52 0.60 0.99 0.90 0.39 0.44 0.47 0.24 0.48 0.59 0.82 0.67 0.58 0.37 0.71 0.97 1.03 0.72 0.54 0.87 0.92 0.64 0.82 0.86 0.36 0.15 0.12
0.45 0.50 0.52 0.53 0.57 0.59 0.66 0.63 0.57 0.59 0.61 1.01 1.05 1.45 2.40 1.37 1.96 2.52 2.74 2.08 0.95 0.86 1.02 0.63 0.49 0.40 0.36 0.24 0.53 0.56 0.58 0.29 0.24 0.14 0.52 0.59 0.56 0.42 0.35 0.45 0.61 0.71 0.88 0.49 0.48 0.25 0.25
0.47 0.50 0.60 0.68 0.69 0.78 0.78 0.64 0.72 0.69 0.90 1.25 1.24 1.53 2.21 1.49 1.72 3.31 3.06 1.72 0.91 0.73 0.51 0.31 0.36 0.22 0.14 0.20 0.49 0.43 0.44 0.16 0.09 0.02 0.17 0.38 0.62 0.45 0.52 0.57 0.68 0.64 0.38 0.52 1.01 0.54 0.21
0.50 0.53 0.64 0.77 0.76 0.85 0.86 0.73 0.77 1.02 1.15 1.14 1.04 2.10 1.55 1.97 2.45 3.74 2.86 1.54 0.79 0.38 0.43 0.35 0.11 0.11 0.05 0.04 0.30 0.20 0.20 0.08 0.03 0.00 0.12 0.48 0.72 0.50 0.65 0.75 0.53 0.74 0.89 0.50 0.42 0.24 0.27
0.47 0.55 0.59 0.73 0.75 0.75 0.89 0.72 0.58 1.00 1.18 1.16 1.18 1.59 1.52 2.25 3.30 2.57 2.04 1.62 0.77 0.37 0.38 0.36 0.16 0.06 0.05 0.03 0.17 0.12 0.06 0.02 0.01 0.01 0.11 0.40 0.78 0.61 0.32 0.29 0.09 0.34 0.36 0.31 0.57 0.24 0.33
0.42 0.47 0.59 0.62 0.68 0.71 0.85 0.76 0.55 0.82 1.74 2.02 1.46 1.67 2.35 1.54 1.55 1.32 1.60 1.17 0.64 0.39 0.37 0.35 0.11 0.04 0.02 0.04 0.07 0.03 0.05 0.00 0.00 0.01 0.11 0.42 0.90 0.67 0.32 0.70 0.40 0.56 0.37 0.51 0.75 0.84 0.73
0.38 0.44 0.48 0.45 0.52 0.59 0.77 0.58 0.51 0.70 1.13 1.55 1.36 1.58 3.08 2.12 0.80 0.96 1.16 0.99 0.69 0.35 0.28 0.30 0.15 0.07 0.06 0.05 0.02 0.01 0.05 0.00 0.00 0.00 0.06 0.38 0.49 0.54 0.35 0.57 0.64 0.44 0.28 0.60 1.43 1.50 0.40
0.37 0.42 0.40 0.41 0.47 0.51 0.61 0.60 0.64 0.79 0.82 1.08 0.91 0.56 0.67 0.76 0.53 0.52 0.87 0.75 0.61 0.52 0.32 0.28 0.19 0.09 0.06 0.05 0.03 0.02 0.02 0.01 0.00 0.00 0.07 0.42 0.69 0.78 0.36 0.13 0.47 0.50 0.39 0.55 1.14 0.81 0.94
0.39 0.39 0.36 0.40 0.41 0.46 0.52 0.63 0.70 1.07 1.52 1.09 0.74 0.33 0.14 0.06 0.05 0.22 0.75 0.89 0.62 0.53 0.41 0.21 0.11 0.05 0.07 0.04 0.01 0.00 0.00 0.01 0.01 0.01 0.06 0.33 0.87 0.94 0.58 0.21 0.25 0.58 0.56 0.70 0.69 0.59 0.70
0.33 0.35 0.37 0.33 0.36 0.39 0.45 0.58 0.82 1.22 1.81 1.16 0.72 0.33 0.18 0.13 0.06 0.14 0.44 0.66 0.52 0.47 0.30 0.09 0.08 0.12 0.10 0.02 0.00 0.00 0.00 0.00 0.04 0.05 0.17 0.31 0.55 0.83 0.48 0.37 0.37 0.80 0.74 0.59 0.37 0.35 0.44
0.31 0.35 0.40 0.34 0.30 0.31 0.32 0.40 0.51 0.73 1.13 1.03 0.73 0.59 0.40 0.20 0.07 0.07 0.20 0.41 0.43 0.38 0.37 0.09 0.10 0.10 0.06 0.02 0.03 0.03 0.08 0.03 0.04 0.08 0.08 0.13 0.31 0.59 0.45 0.51 0.79 0.58 0.51 0.35 0.36 0.36 0.32
0.33 0.33 0.36 0.33 0.28 0.27 0.25 0.36 0.50 0.62 0.89 0.59 0.59 0.56 0.39 0.17 0.06 0.05 0.16 0.36 0.49 0.46 0.52 0.25 0.09 0.07 0.09 0.10 0.16 0.15 0.18 0.21 0.09 0.05 0.02 0.02 0.18 0.36 0.21 0.17 0.18 0.02 0.05 0.17 0.23 0.33 0.18
0.31 0.31 0.32 0.33 0.26 0.26 0.32 0.37 0.45 0.54 0.55 0.38 0.50 0.50 0.52 0.20 0.09 0.03 0.05 0.16 0.45 0.46 0.53 0.40 0.23 0.13 0.21 0.29 0.23 0.17 0.15 0.10 0.08 0.12 0.03 0.02 0.12 0.42 0.15 0.14 0.01 0.00 0.00 0.00 0.03 0.19 0.25
0.28 0.29 0.30 0.31 0.27 0.21 0.26 0.30 0.26 0.34 0.47 0.35 0.47 0.49 0.36 0.20 0.06 0.02 0.03 0.06 0.30 0.52 0.59 0.46 0.38 0.18 0.29 0.47 0.27 0.19 0.05 0.00 0.01 0.04 0.04 0.07 0.14 0.29 0.20 0.22 0.01 0.00 0.00 0.00 0.03 0.11 0.11
0.26 0.27 0.32 0.31 0.24 0.21 0.20 0.25 0.28 0.27 0.51 0.40 0.35 0.38 0.33 0.20 0.08 0.02 0.02 0.04 0.18 0.42 0.60 0.54 0.62 0.36 0.38 0.48 0.31 0.12 0.03 0.01 0.00 0.01 0.00 0.03 0.04 0.06 0.09 0.10 0.01 0.00 0.00 0.01 0.01 0.00 0.00
0.29 0.28 0.31 0.28 0.24 0.22 0.18 0.21 0.25 0.22 0.42 0.50 0.33 0.33 0.34 0.26 0.11 0.03 0.01 0.01 0.05 0.27 0.60 0.59 0.53 0.28 0.23 0.22 0.12 0.07 0.04 0.02 0.01 0.01 0.00 0.00 0.00 0.01 0.00 0.00 0.00 0.00 0.00 0.00 0.00 0.00 0.00

GFSGBSN_prec_precacc_069.txt.gz
Total_Precipitation_Accumulation
0.16 0.16 0.16 0.16 0.14 0.14 0.14 0.18 0.21 0.17 0.17 0.20 0.27 0.33 0.31 0.27 0.27 0.31 0.31 0.27 0.26 0.26 0.27 0.32 0.41 0.65 0.69 0.36 0.09 0.16 0.15 0.11 0.27 0.68 0.27 0.11 0.08 0.07 0.05 0.01 0.02 0.00 0.00 0.00 0.00 0.00 0.00
0.14 0.13 0.14 0.13 0.15 0.17 0.17 0.23 0.25 0.22 0.23 0.25 0.31 0.33 0.27 0.26 0.26 0.30 0.26 0.23 0.31 0.37 0.36 0.32 0.53 0.91 0.61 0.22 0.01 0.05 0.16 0.11 0.31 0.57 0.44 0.22 0.09 0.03 0.05 0.04 0.03 0.00 0.00 0.00 0.00 0.00 0.00
0.12 0.14 0.13 0.13 0.15 0.18 0.21 0.28 0.27 0.25 0.26 0.32 0.34 0.32 0.24 0.31 0.32 0.30 0.27 0.25 0.26 0.31 0.42 0.55 0.85 1.00 0.49 0.08 0.02 0.08 0.15 0.20 0.30 0.42 0.42 0.23 0.16 0.19 0.10 0.08 0.02 0.02 0.01 0.01 0.00 0.00 0.00
0.12 0.14 0.13 0.15 0.16 0.18 0.23 0.28 0.25 0.24 0.29 0.37 0.44 0.36 0.33 0.37 0.35 0.33 0.33 0.29 0.35 0.45 0.62 0.73 1.18 1.06 0.33 0.01 0.02 0.03 0.12 0.22 0.21 0.48 0.55 0.57 0.50 0.25 0.16 0.10 0.06 0.09 0.05 0.02 0.00 0.00 0.00
0.13 0.13 0.12 0.14 0.14 0.19 0.26 0.25 0.24 0.23 0.29 0.44 0.49 0.43 0.42 0.39 0.44 0.45 0.42 0.46 0.55 0.60 0.73 1.21 1.09 0.65 0.16 0.04 0.06 0.03 0.14 0.20 0.15 0.52 0.65 0.97 1.12 0.56 0.23 0.20 0.21 0.16 0.05 0.01 0.00 0.00 0.00
0.12 0.13 0.14 0.14 0.15 0.22 0.28 0.27 0.27 0.27 0.36 0.48 0.48 0.45 0.47 0.57 0.62 0.60 0.63 0.73 1.02 1.00 1.00 1.54 0.94 0.80 0.14 0.04 0.13 0.08 0.21 0.29 0.41 0.87 1.13 1.37 1.41 1.00 0.44 0.34 0.18 0.03 0.02 0.00 0.00 0.00 0.00
0.13 0.13 0.15 0.13 0.17 0.24 0.26 0.28 0.26 0.31 0.36 0.46 0.46 0.46 0.50 0.60 0.82 1.05 1.23 1.63 1.46 1.61 1.18 0.81 0.51 0.40 0.17 0.26 0.39 0.27 0.35 0.54 0.85 1.25 0.97 0.94 1.12 0.87 0.32 0.12 0.02 0.01 0.02 0.01 0.00 0.00 0.00
0.16 0.20 0.19 0.19 0.24 0.31 0.31 0.31 0.31 0.36 0.43 0.44 0.42 0.44 0.51 0.63 0.92 1.26 1.31 1.27 0.79 0.82 0.88 0.41 0.35 0.36 0.23 0.48 0.73 0.57 0.39 0.93 0.80 0.98 0.97 1.17 0.80 0.28 0.31 0.18 0.08 0.05 0.05 0.04 0.01 0.00 0.01
0.19 0.21 0.16 0.22 0.29 0.34 0.35 0.33 0.40 0.44 0.49 0.44 0.40 0.48 0.74 1.00 1.20 1.77 1.15 0.78 0.77 1.00 1.25 0.76 0.48 0.45 0.41 0.84 0.77 0.74 0.51 1.06 0.67 0.70 0.98 1.06 0.48 0.34 0.44 0.43 0.23 0.14 0.04 0.03 0.03 0.01 0.01
0.26 0.28 0.30 0.37 0.36 0.35 0.34 0.39 0.55 0.63 0.59 0.53 0.53 0.76 1.09 1.54 2.03 1.25 1.30 0.97 1.03 1.65 2.16 1.04 0.67 0.55 0.69 0.93 0.83 0.53 0.98 1.29 0.64 0.76 0.83 0.88 0.57 0.55 0.67 0.48 0.28 0.19 0.07 0.01 0.05 0.10 0.08
0.30 0.39 0.47 0.43 0.47 0.47 0.43 0.45 0.49 0.53 0.60 0.63 0.82 1.07 1.32 2.05 2.40 1.35 1.33 1.06 1.31 2.38 1.98 0.81 0.75 0.71 0.75 0.63 0.59 0.70 0.99 1.19 0.47 0.57 0.81 0.91 0.71 0.58 0.88 0.68 0.22 0.23 0.10 0.03 0.09 0.16 0.17
0.44 0.40 0.43 0.44 0.48 0.51 0.49 0.51 0.45 0.40 0.59 0.80 0.78 0.85 1.37 1.98 2.18 1.50 1.42 1.66 2.15 2.59 1.89 1.27 1.05 0.78 0.72 0.55 0.59 0.92 0.87 0.92 0.58 0.72 0.65 0.69 0.62 0.56 0.65 0.71 0.41 0.25 0.23 0.21 0.15 0.41 0.43
0.36 0.37 0.46 0.50 0.49 0.50 0.50 0.49 0.46 0.64 0.74 0.69 0.75 0.80 1.28 1.52 1.77 1.86 2.38 2.24 2.49 1.56 1.13 1.16 0.95 0.72 0.69 0.65 0.77 0.75 1.04 0.94 1.31 1.08 1.11 1.33 0.94 0.58 0.49 0.94 0.85 0.68 0.78 0.94 0.67 0.62 0.43
0.40 0.47 0.47 0.48 0.48 0.48 0.61 0.54 0.66 0.78 0.71 0.77 1.00 1.00 1.30 1.27 1.91 1.93 3.00 2.15 1.52 0.60 0.99 0.90 0.39 0.44 0.48 0.27 0.55 0.67 0.86 0.68 0.58 0.37 0.71 0.97 1.04 0.73 0.54 0.95 1.23 0.78 0.83 0.86 0.37 0.15 0.12
0.45 0.50 0.52 0.53 0.57 0.59 0.66 0.63 0.57 0.59 0.61 1.01 1.05 1.45 2.40 1.37 1.96 2.52 2.74 2.08 0.95 0.86 1.02 0.63 0.49 0.40 0.36 0.24 0.53 0.59 0.62 0.30 0.24 0.15 0.53 0.59 0.56 0.42 0.35 0.46 0.75 0.86 0.88 0.49 0.48 0.25 0.25
0.47 0.50 0.60 0.68 0.69 0.78 0.78 0.64 0.72 0.69 0.90 1.25 1.24 1.53 2.21 1.49 1.72 3.31 3.06 1.72 0.91 0.73 0.51 0.31 0.36 0.22 0.15 0.20 0.49 0.43 0.44 0.16 0.09 0.02 0.17 0.38 0.64 0.47 0.54 0.59 0.74 0.68 0.39 0.53 1.01 0.54 0.21
0.50 0.53 0.64 0.77 0.76 0.85 0.86 0.73 0.77 1.02 1.15 1.14 1.04 2.10 1.55 1.97 2.45 3.74 2.86 1.54 0.79 0.38 0.43 0.35 0.11 0.11 0.05 0.04 0.30 0.20 0.20 0.08 0.03 0.00 0.12 0.48 0.72 0.54 0.69 0.81 0.57 0.78 0.93 0.51 0.42 0.24 0.27
0.47 0.55 0.59 0.73 0.75 0.75 0.89 0.72 0.58 1.00 1.18 1.16 1.18 1.59 1.52 2.25 3.30 2.57 2.04 1.62 0.77 0.37 0.38 0.36 0.16 0.06 0.05 0.03 0.17 0.12 0.06 0.02 0.01 0.01 0.11 0.40 0.78 0.62 0.32 0.30 0.09 0.34 0.36 0.31 0.57 0.24 0.33
0.42 0.47 0.59 0.62 0.68 0.71 0.85 0.76 0.55 0.82 1.74 2.02 1.46 1.67 2.35 1.54 1.55 1.32 1.60 1.17 0.64 0.39 0.37 0.35 0.11 0.04 0.02 0.04 0.07 0.03 0.05 0.00 0.00 0.01 0.11 0.42 0.90 0.67 0.32 0.70 0.40 0.56 0.37 0.52 0.75 0.84 0.73
0.38 0.44 0.48 0.45 0.52 0.59 0.77 0.58 0.51 0.70 1.13 1.55 1.36 1.58 3.08 2.12 0.80 0.96 1.16 0.99 0.69 0.35 0.28 0.30 0.15 0.07 0.06 0.05 0.02 0.01 0.05 0.00 0.00 0.00 0.06 0.38 0.49 0.54 0.35 0.57 0.64 0.44 0.28 0.60 1.43 1.50 0.40
0.37 0.42 0.40 0.41 0.47 0.51 0.61 0.60 0.64 0.79 0.82 1.08 0.91 0.56 0.67 0.76 0.53 0.52 0.87 0.75 0.61 0.52 0.32 0.28 0.19 0.09 0.06 0.05 0.03 0.02 0.02 0.01 0.00 0.00 0.07 0.42 0.69 0.78 0.36 0.13 0.47 0.50 0.39 0.55 1.14 0.81 0.94
0.39 0.39 0.36 0.40 0.41 0.46 0.52 0.63 0.70 1.07 1.52 1.09 0.74 0.33 0.14 0.06 0.05 0.22 0.75 0.89 0.62 0.53 0.41 0.21 0.11 0.05 0.07 0.04 0.01 0.00 0.00 0.01 0.01 0.01 0.06 0.33 0.87 0.94 0.58 0.21 0.25 0.58 0.56 0.70 0.69 0.59 0.70
0.33 0.35 0.37 0.33 0.36 0.39 0.45 0.58 0.82 1.22 1.81 1.16 0.72 0.33 0.18 0.13 0.06 0.14 0.44 0.66 0.52 0.47 0.30 0.09 0.08 0.12 0.10 0.02 0.00 0.00 0.00 0.00 0.04 0.05 0.17 0.31 0.55 0.83 0.48 0.37 0.37 0.80 0.74 0.59 0.37 0.35 0.44
0.31 0.35 0.40 0.34 0.30 0.31 0.32 0.40 0.51 0.73 1.13 1.03 0.73 0.59 0.40 0.20 0.07 0.07 0.20 0.41 0.43 0.38 0.37 0.09 0.10 0.10 0.06 0.02 0.03 0.03 0.08 0.03 0.04 0.08 0.08 0.13 0.31 0.59 0.45 0.51 0.79 0.58 0.51 0.35 0.36 0.36 0.32
0.33 0.33 0.36 0.33 0.28 0.27 0.25 0.36 0.50 0.62 0.89 0.59 0.59 0.56 0.39 0.17 0.06 0.05 0.16 0.36 0.49 0.46 0.52 0.25 0.09 0.07 0.09 0.10 0.16 0.15 0.18 0.21 0.09 0.05 0.02 0.02 0.18 0.36 0.21 0.17 0.18 0.02 0.05 0.17 0.23 0.33 0.18
0.31 0.31 0.32 0.33 0.26 0.26 0.32 0.37 0.45 0.54 0.55 0.38 0.50 0.50 0.52 0.20 0.09 0.03 0.05 0.16 0.45 0.46 0.53 0.40 0.24 0.13 0.21 0.29 0.23 0.17 0.15 0.10 0.08 0.12 0.03 0.02 0.12 0.42 0.15 0.14 0.01 0.00 0.00 0.00 0.03 0.19 0.25
0.28 0.29 0.30 0.31 0.27 0.21 0.26 0.30 0.26 0.34 0.47 0.35 0.47 0.49 0.36 0.20 0.06 0.02 0.03 0.06 0.30 0.53 0.59 0.47 0.40 0.18 0.29 0.47 0.29 0.19 0.05 0.00 0.01 0.04 0.04 0.07 0.14 0.29 0.20 0.22 0.01 0.00 0.00 0.00 0.03 0.11 0.11
0.27 0.27 0.32 0.31 0.24 0.21 0.20 0.25 0.28 0.27 0.51 0.40 0.35 0.38 0.33 0.20 0.08 0.02 0.02 0.04 0.18 0.42 0.61 0.56 0.70 0.46 0.39 0.49 0.32 0.12 0.03 0.01 0.00 0.01 0.00 0.03 0.04 0.06 0.09 0.10 0.01 0.00 0.00 0.01 0.01 0.00 0.00
0.30 0.29 0.31 0.28 0.24 0.22 0.18 0.21 0.25 0.22 0.42 0.51 0.34 0.33 0.34 0.26 0.11 0.03 0.01 0.01 0.05 0.27 0.60 0.60 0.58 0.36 0.28 0.23 0.12 0.07 0.04 0.02 0.01 0.01 0.00 0.00 0.00 0.01 0.00 0.00 0.00 0.00 0.00 0.00 0.00 0.00 0.00

GFSGBSN_prec_precacc_072.txt.gz
Total_Precipitation_Accumulation
0.16 0.16 0.16 0.16 0.14 0.14 0.14 0.18 0.22 0.18 0.18 0.21 0.28 0.33 0.32 0.28 0.29 0.33 0.31 0.27 0.29 0.29 0.29 0.32 0.41 0.65 0.69 0.36 0.10 0.17 0.15 0.11 0.27 0.72 0.38 0.13 0.08 0.07 0.05 0.02 0.03 0.01 0.00 0.00 0.00 0.00 0.01
0.14 0.13 0.14 0.13 0.15 0.17 0.17 0.24 0.25 0.23 0.23 0.26 0.33 0.34 0.28 0.28 0.28 0.31 0.27 0.23 0.31 0.37 0.37 0.33 0.53 0.91 0.61 0.22 0.01 0.06 0.16 0.11 0.31 0.63 0.51 0.28 0.09 0.03 0.05 0.04 0.05 0.01 0.00 0.00 0.00 0.00 0.00
0.12 0.14 0.13 0.13 0.16 0.18 0.21 0.28 0.28 0.26 0.27 0.33 0.35 0.33 0.25 0.32 0.33 0.31 0.28 0.25 0.26 0.31 0.42 0.55 0.85 1.00 0.49 0.08 0.03 0.08 0.15 0.20 0.31 0.47 0.50 0.30 0.18 0.19 0.10 0.08 0.03 0.04 0.03 0.03 0.00 0.00 0.00
0.12 0.14 0.14 0.15 0.16 0.18 0.23 0.28 0.25 0.25 0.29 0.38 0.45 0.37 0.33 0.38 0.35 0.33 0.33 0.29 0.35 0.45 0.62 0.73 1.18 1.06 0.33 0.01 0.02 0.03 0.12 0.22 0.21 0.49 0.58 0.61 0.55 0.25 0.16 0.10 0.07 0.13 0.07 0.03 0.00 0.00 0.00
0.13 0.13 0.13 0.14 0.14 0.19 0.26 0.25 0.24 0.24 0.30 0.45 0.50 0.44 0.42 0.39 0.44 0.45 0.42 0.46 0.55 0.60 0.73 1.21 1.09 0.65 0.16 0.04 0.06 0.03 0.14 0.20 0.15 0.52 0.73 1.05 1.22 0.56 0.23 0.21 0.22 0.18 0.05 0.01 0.00 0.00 0.00
0.12 0.13 0.14 0.14 0.15 0.22 0.28 0.27 0.27 0.27 0.37 0.49 0.49 0.45 0.47 0.57 0.62 0.60 0.63 0.73 1.02 1.00 1.00 1.55 0.94 0.80 0.14 0.04 0.13 0.08 0.22 0.29 0.41 0.89 1.34 1.50 1.48 1.00 0.44 0.34 0.18 0.03 0.02 0.00 0.00 0.00 0.00
0.13 0.13 0.15 0.13 0.17 0.24 0.26 0.28 0.26 0.31 0.36 0.46 0.47 0.46 0.50 0.60 0.82 1.05 1.23 1.63 1.46 1.61 1.18 0.81 0.51 0.40 0.17 0.26 0.39 0.27 0.35 0.54 0.85 1.32 1.13 1.04 1.16 0.87 0.32 0.12 0.02 0.01 0.02 0.01 0.00 0.00 0.00
0.16 0.20 0.19 0.19 0.24 0.31 0.31 0.31 0.31 0.36 0.43 0.45 0.43 0.44 0.51 0.63 0.92 1.26 1.31 1.27 0.79 0.82 0.88 0.41 0.36 0.36 0.23 0.48 0.73 0.57 0.39 0.93 0.83 1.11 1.14 1.22 0.81 0.28 0.31 0.18 0.08 0.05 0.05 0.04 0.01 0.00 0.01
0.19 0.21 0.16 0.22 0.29 0.34 0.35 0.33 0.40 0.44 0.49 0.44 0.40 0.49 0.74 1.00 1.20 1.77 1.15 0.78 0.77 1.00 1.26 0.84 0.53 0.47 0.41 0.84 0.78 0.75 0.51 1.10 0.71 0.90 1.19 1.09 0.48 0.34 0.44 0.43 0.24 0.14 0.04 0.03 0.03 0.01 0.01
0.26 0.28 0.30 0.37 0.36 0.35 0.34 0.39 0.55 0.63 0.59 0.53 0.53 0.76 1.09 1.54 2.03 1.25 1.30 0.97 1.03 1.65 2.19 1.15 0.76 0.58 0.71 0.99 0.98 0.55 0.99 1.34 0.67 0.91 0.99 0.94 0.57 0.55 0.68 0.48 0.28 0.19 0.07 0.01 0.05 0.10 0.08
0.30 0.39 0.47 0.43 0.47 0.47 0.43 0.45 0.49 0.53 0.60 0.63 0.83 1.08 1.32 2.05 2.40 1.35 1.33 1.06 1.31 2.38 2.05 0.97 0.80 0.73 0.76 0.66 0.62 0.74 1.03 1.25 0.49 0.69 0.93 0.96 0.72 0.58 0.88 0.68 0.22 0.24 0.10 0.03 0.09 0.16 0.17
0.44 0.40 0.43 0.44 0.48 0.51 0.49 0.51 0.45 0.40 0.59 0.80 0.78 0.85 1.37 1.98 2.18 1.50 1.42 1.66 2.15 2.59 1.92 1.34 1.18 0.81 0.73 0.55 0.60 0.97 1.09 1.01 0.63 0.75 0.66 0.69 0.62 0.56 0.65 0.71 0.41 0.25 0.23 0.21 0.15 0.41 0.44
0.36 0.37 0.46 0.50 0.49 0.50 0.50 0.49 0.46 0.64 0.74 0.69 0.75 0.80 1.28 1.52 1.77 1.86 2.38 2.24 2.49 1.56 1.13 1.16 0.99 0.78 0.71 0.66 0.79 0.87 1.21 0.97 1.35 1.09 1.12 1.33 0.94 0.58 0.49 0.94 0.85 0.69 0.79 0.96 0.70 0.65 0.44
0.40 0.47 0.47 0.48 0.48 0.48 0.61 0.54 0.66 0.78 0.71 0.77 1.00 1.00 1.30 1.27 1.91 1.93 3.00 2.15 1.52 0.60 0.99 0.90 0.39 0.45 0.50 0.28 0.56 0.69 0.87 0.68 0.58 0.37 0.71 0.98 1.04 0.73 0.54 0.95 1.23 0.79 0.85 0.87 0.37 0.15 0.12
0.45 0.50 0.52 0.53 0.57 0.59 0.66 0.63 0.57 0.59 0.61 1.01 1.05 1.45 2.40 1.37 1.96 2.52 2.74 2.08 0.95 0.86 1.02 0.63 0.49 0.40 0.37 0.25 0.55 0.60 0.62 0.30 0.24 0.15 0.53 0.59 0.56 0.42 0.35 0.46 0.77 0.99 0.96 0.49 0.48 0.25 0.25
0.47 0.50 0.60 0.68 0.69 0.78 0.78 0.64 0.72 0.69 0.90 1.25 1.24 1.53 2.21 1.49 1.72 3.31 3.06 1.72 0.91 0.73 0.51 0.31 0.36 0.22 0.15 0.20 0.49 0.43 0.44 0.16 0.09 0.02 0.17 0.38 0.65 0.48 0.55 0.60 0.75 0.81 0.45 0.56 1.01 0.54 0.21
0.50 0.53 0.64 0.77 0.76 0.85 0.86 0.73 0.77 1.02 1.15 1.14 1.04 2.10 1.55 1.97 2.45 3.74 2.86 1.54 0.79 0.38 0.43 0.35 0.11 0.11 0.05 0.04 0.30 0.20 0.20 0.08 0.03 0.00 0.12 0.48 0.72 0.55 0.71 0.82 0.57 0.81 1.00 0.51 0.42 0.24 0.27
0.47 0.55 0.59 0.73 0.75 0.75 0.89 0.72 0.58 1.00 1.18 1.16 1.18 1.59 1.52 2.25 3.30 2.57 2.04 1.62 0.77 0.37 0.38 0.36 0.16 0.06 0.05 0.03 0.17 0.12 0.06 0.02 0.01 0.01 0.11 0.40 0.78 0.62 0.32 0.30 0.09 0.35 0.37 0.31 0.57 0.24 0.33
0.42 0.47 0.59 0.62 0.68 0.71 0.85 0.76 0.55 0.82 1.74 2.02 1.46 1.67 2.35 1.54 1.55 1.32 1.60 1.17 0.64 0.39 0.37 0.35 0.11 0.04 0.02 0.04 0.07 0.03 0.05 0.00 0.00 0.01 0.11 0.42 0.90 0.67 0.33 0.71 0.40 0.57 0.37 0.52 0.76 0.84 0.73
0.38 0.44 0.48 0.45 0.52 0.59 0.77 0.58 0.51 0.70 1.13 1.55 1.36 1.58 3.08 2.12 0.80 0.96 1.16 0.99 0.69 0.35 0.28 0.30 0.15 0.07 0.06 0.05 0.02 0.01 0.05 0.00 0.00 0.00 0.06 0.38 0.49 0.54 0.35 0.57 0.64 0.44 0.28 0.60 1.44 1.51 0.40
0.37 0.42 0.40 0.41 0.47 0.51 0.61 0.60 0.64 0.79 0.82 1.08 0.91 0.56 0.67 0.76 0.53 0.52 0.87 0.75 0.61 0.52 0.32 0.28 0.19 0.09 0.06 0.05 0.03 0.02 0.02 0.01 0.00 0.00 0.07 0.42 0.69 0.78 0.36 0.13 0.47 0.50 0.39 0.55 1.14 0.81 0.94
0.39 0.39 0.36 0.40 0.41 0.46 0.52 0.63 0.70 1.07 1.52 1.09 0.74 0.33 0.14 0.06 0.05 0.22 0.75 0.89 0.62 0.53 0.41 0.21 0.11 0.05 0.07 0.04 0.01 0.00 0.00 0.01 0.01 0.01 0.06 0.33 0.87 0.94 0.58 0.21 0.25 0.58 0.56 0.70 0.69 0.59 0.70
0.33 0.35 0.37 0.33 0.36 0.39 0.45 0.58 0.82 1.22 1.81 1.16 0.72 0.33 0.18 0.13 0.06 0.14 0.44 0.66 0.52 0.47 0.30 0.09 0.08 0.12 0.10 0.02 0.00 0.00 0.00 0.00 0.04 0.05 0.17 0.31 0.55 0.83 0.48 0.37 0.37 0.80 0.74 0.59 0.37 0.35 0.44
0.31 0.35 0.40 0.34 0.30 0.31 0.32 0.40 0.51 0.73 1.13 1.03 0.73 0.59 0.40 0.20 0.07 0.07 0.20 0.41 0.43 0.38 0.37 0.09 0.10 0.10 0.06 0.02 0.03 0.03 0.08 0.03 0.04 0.08 0.08 0.13 0.31 0.59 0.45 0.51 0.79 0.58 0.51 0.35 0.36 0.36 0.32
0.33 0.33 0.36 0.33 0.28 0.27 0.25 0.36 0.50 0.62 0.89 0.59 0.59 0.56 0.39 0.17 0.06 0.05 0.16 0.36 0.49 0.46 0.52 0.25 0.09 0.07 0.09 0.10 0.16 0.15 0.19 0.21 0.09 0.05 0.02 0.02 0.18 0.36 0.21 0.17 0.18 0.02 0.05 0.17 0.23 0.33 0.18
0.31 0.31 0.32 0.33 0.26 0.26 0.32 0.37 0.45 0.54 0.55 0.38 0.50 0.50 0.52 0.20 0.09 0.03 0.05 0.16 0.45 0.46 0.53 0.41 0.24 0.14 0.22 0.29 0.24 0.18 0.15 0.10 0.08 0.12 0.03 0.02 0.12 0.42 0.15 0.14 0.01 0.00 0.00 0.00 0.03 0.19 0.25
0.29 0.29 0.30 0.31 0.27 0.21 0.26 0.30 0.26 0.34 0.47 0.35 0.47 0.49 0.36 0.20 0.06 0.02 0.03 0.06 0.30 0.53 0.59 0.47 0.41 0.21 0.31 0.48 0.31 0.20 0.05 0.00 0.01 0.04 0.04 0.07 0.14 0.29 0.20 0.22 0.01 0.00 0.00 0.00 0.03 0.11 0.11
0.27 0.28 0.32 0.31 0.24 0.21 0.20 0.25 0.28 0.27 0.51 0.40 0.35 0.38 0.33 0.20 0.08 0.02 0.02 0.04 0.18 0.42 0.61 0.56 0.71 0.49 0.45 0.53 0.33 0.13 0.03 0.02 0.00 0.01 0.00 0.03 0.04 0.06 0.09 0.11 0.01 0.00 0.00 0.01 0.01 0.00 0.00
0.31 0.31 0.32 0.29 0.24 0.22 0.18 0.21 0.25 0.22 0.42 0.51 0.34 0.33 0.34 0.27 0.11 0.03 0.01 0.01 0.05 0.27 0.60 0.60 0.59 0.41 0.46 0.40 0.16 0.07 0.04 0.02 0.01 0.01 0.00 0.00 0.00 0.01 0.00 0.00 0.00 0.00 0.00 0.00 0.00 0.00 0.00

GFSGBSN_prec_precacc_075.txt.gz
Total_Precipitation_Accumulation
0.16 0.16 0.16 0.16 0.14 0.14 0.14 0.19 0.22 0.19 0.19 0.22 0.29 0.34 0.33 0.29 0.30 0.33 0.31 0.27 0.29 0.29 0.29 0.32 0.41 0.65 0.69 0.36 0.10 0.18 0.15 0.11 0.27 0.72 0.41 0.15 0.08 0.08 0.06 0.02 0.05 0.01 0.00 0.01 0.09 0.05 0.04
0.14 0.13 0.14 0.13 0.15 0.17 0.17 0.24 0.26 0.23 0.24 0.27 0.33 0.34 0.28 0.28 0.28 0.31 0.27 0.23 0.31 0.37 0.37 0.33 0.53 0.91 0.61 0.22 0.02 0.06 0.16 0.11 0.31 0.63 0.56 0.35 0.09 0.04 0.06 0.05 0.08 0.02 0.00 0.01 0.02 0.01 0.01
0.12 0.14 0.13 0.13 0.16 0.18 0.21 0.28 0.28 0.26 0.27 0.33 0.36 0.33 0.25 0.33 0.33 0.31 0.28 0.25 0.26 0.31 0.42 0.55 0.85 1.00 0.49 0.08 0.03 0.09 0.15 0.20 0.31 0.47 0.55 0.37 0.19 0.20 0.10 0.09 0.06 0.06 0.04 0.03 0.00 0.00 0.01
0.12 0.14 0.14 0.15 0.16 0.18 0.23 0.28 0.25 0.25 0.30 0.38 0.46 0.37 0.33 0.38 0.35 0.33 0.33 0.29 0.35 0.45 0.62 0.73 1.18 1.06 0.33 0.01 0.02 0.03 0.12 0.22 0.21 0.49 0.63 0.67 0.59 0.26 0.16 0.11 0.10 0.17 0.09 0.03 0.00 0.00 0.00
0.13 0.13 0.13 0.14 0.14 0.19 0.26 0.25 0.24 0.24 0.30 0.45 0.51 0.44 0.42 0.40 0.44 0.45 0.42 0.46 0.55 0.60 0.73 1.21 1.09 0.65 0.16 0.04 0.06 0.03 0.14 0.20 0.16 0.52 0.81 1.15 1.27 0.56 0.23 0.22 0.23 0.19 0.06 0.01 0.00 0.00 0.00
0.12 0.13 0.14 0.14 0.15 0.22 0.28 0.27 0.27 0.27 0.37 0.49 0.49 0.45 0.47 0.57 0.62 0.60 0.63 0.73 1.02 1.00 1.00 1.55 0.94 0.80 0.14 0.04 0.13 0.08 0.22 0.29 0.41 0.92 1.45 1.61 1.53 1.00 0.44 0.34 0.18 0.03 0.02 0.00 0.00 0.00 0.00
0.13 0.13 0.15 0.13 0.17 0.24 0.26 0.28 0.26 0.31 0.36 0.47 0.47 0.47 0.50 0.60 0.82 1.05 1.23 1.63 1.46 1.61 1.18 0.81 0.51 0.40 0.17 0.26 0.39 0.27 0.35 0.54 0.86 1.39 1.37 1.22 1.20 0.87 0.32 0.12 0.02 0.01 0.02 0.01 0.00 0.00 0.00
0.16 0.20 0.19 0.19 0.24 0.31 0.31 0.31 0.31 0.36 0.43 0.45 0.43 0.44 0.51 0.63 0.92 1.26 1.31 1.27 0.79 0.82 0.88 0.41 0.36 0.36 0.23 0.48 0.74 0.57 0.39 0.93 0.84 1.18 1.37 1.41 0.84 0.28 0.31 0.18 0.08 0.05 0.05 0.04 0.01 0.00 0.01
0.19 0.21 0.16 0.22 0.29 0.34 0.35 0.33 0.40 0.44 0.49 0.44 0.40 0.49 0.74 1.00 1.20 1.77 1.15 0.78 0.77 1.00 1.26 0.85 0.55 0.47 0.41 0.84 0.78 0.75 0.51 1.11 0.72 0.95 1.38 1.18 0.50 0.34 0.44 0.43 0.24 0.14 0.04 0.03 0.03 0.01 0.01
0.26 0.28 0.30 0.37 0.36 0.35 0.34 0.39 0.55 0.63 0.59 0.53 0.53 0.76 1.09 1.54 2.03 1.25 1.30 0.97 1.03 1.65 2.22 1.19 0.78 0.59 0.72 0.99 0.99 0.55 0.99 1.35 0.68 0.96 1.14 0.99 0.57 0.55 0.68 0.48 0.28 0.19 0.07 0.01 0.05 0.10 0.08
0.30 0.39 0.47 0.43 0.47 0.47 0.43 0.45 0.49 0.53 0.60 0.63 0.83 1.08 1.32 2.05 2.40 1.35 1.33 1.06 1.31 2.38 2.07 1.08 0.82 0.74 0.78 0.68 0.63 0.75 1.04 1.28 0.52 0.75 1.09 1.04 0.72 0.58 0.89 0.68 0.22 0.24 0.10 0.03 0.09 0.16 0.17
0.44 0.40 0.43 0.44 0.48 0.51 0.49 0.51 0.45 0.40 0.59 0.80 0.78 0.85 1.37 1.98 2.18 1.50 1.42 1.66 2.15 2.59 1.92 1.38 1.23 0.84 0.75 0.56 0.62 0.98 1.11 1.06 0.68 0.85 0.74 0.71 0.62 0.56 0.65 0.71 0.41 0.25 0.23 0.21 0.15 0.41 0.44
0.36 0.37 0.46 0.50 0.49 0.50 0.50 0.49 0.46 0.64 0.74 0.69 0.75 0.80 1.28 1.52 1.77 1.86 2.38 2.24 2.49 1.56 1.13 1.17 1.03 0.80 0.72 0.67 0.80 0.88 1.23 1.00 1.40 1.16 1.21 1.36 0.94 0.58 0.49 0.94 0.85 0.69 0.79 0.99 0.72 0.67 0.44
0.40 0.47 0.47 0.48 0.48 0.48 0.61 0.54 0.66 0.78 0.71 0.77 1.00 1.00 1.30 1.27 1.91 1.93 3.00 2.15 1.52 0.60 0.99 0.90 0.39 0.46 0.52 0.29 0.56 0.73 0.88 0.69 0.58 0.37 0.72 1.00 1.05 0.73 0.54 0.95 1.23 0.79 0.85 0.88 0.38 0.15 0.12
0.45 0.50 0.52 0.53 0.57 0.59 0.66 0.63 0.57 0.59 0.61 1.01 1.05 1.45 2.40 1.37 1.96 2.52 2.74 2.08 0.95 0.86 1.02 0.63 0.49 0.40 0.37 0.26 0.55 0.60 0.62 0.30 0.24 0.15 0.53 0.59 0.56 0.42 0.35 0.46 0.77 0.99 0.96 0.49 0.48 0.25 0.25
0.47 0.50 0.60 0.68 0.69 0.78 0.78 0.64 0.72 0.69 0.90 1.25 1.24 1.53 2.21 1.49 1.72 3.31 3.06 1.72 0.91 0.73 0.51 0.31 0.36 0.22 0.15 0.20 0.50 0.43 0.44 0.16 0.09 0.02 0.17 0.38 0.65 0.48 0.55 0.60 0.75 0.81 0.45 0.58 1.02 0.54 0.21
0.50 0.53 0.64 0.77 0.76 0.85 0.86 0.73 0.77 1.02 1.15 1.14 1.04 2.10 1.55 1.97 2.45 3.74 2.86 1.54 0.79 0.38 0.43 0.35 0.11 0.11 0.05 0.04 0.30 0.20 0.20 0.08 0.03 0.00 0.12 0.48 0.72 0.55 0.71 0.83 0.58 0.81 1.02 0.54 0.44 0.24 0.27
0.47 0.55 0.59 0.73 0.75 0.75 0.89 0.72 0.58 1.00 1.18 1.16 1.18 1.59 1.52 2.25 3.30 2.57 2.04 1.62 0.77 0.37 0.38 0.36 0.16 0.06 0.05 0.03 0.17 0.12 0.06 0.02 0.01 0.01 0.11 0.40 0.78 0.62 0.33 0.30 0.09 0.35 0.37 0.33 0.58 0.24 0.33
0.42 0.47 0.59 0.62 0.68 0.71 0.85 0.76 0.55 0.82 1.74 2.02 1.46 1.67 2.35 1.54 1.55 1.32 1.60 1.17 0.64 0.39 0.37 0.35 0.11 0.04 0.02 0.04 0.07 0.03 0.05 0.00 0.00 0.01 0.11 0.43 0.91 0.68 0.34 0.72 0.41 0.58 0.38 0.53 0.77 0.84 0.73
0.38 0.44 0.48 0.45 0.52 0.59 0.77 0.58 0.51 0.70 1.13 1.55 1.36 1.58 3.08 2.12 0.80 0.96 1.16 0.99 0.69 0.35 0.28 0.30 0.15 0.07 0.06 0.05 0.02 0.01 0.05 0.00 0.00 0.00 0.06 0.38 0.49 0.54 0.35 0.57 0.64 0.44 0.28 0.60 1.45 1.53 0.40
0.37 0.42 0.40 0.41 0.47 0.51 0.61 0.60 0.64 0.79 0.82 1.08 0.91 0.56 0.67 0.76 0.53 0.52 0.87 0.75 0.61 0.52 0.32 0.28 0.19 0.09 0.06 0.05 0.03 0.02 0.02 0.01 0.00 0.00 0.07 0.42 0.69 0.78 0.36 0.13 0.47 0.50 0.39 0.55 1.14 0.81 0.94
0.39 0.39 0.36 0.40 0.41 0.46 0.52 0.63 0.70 1.07 1.52 1.09 0.74 0.33 0.14 0.06 0.05 0.22 0.75 0.89 0.62 0.53 0.41 0.21 0.11 0.05 0.07 0.04 0.01 0.00 0.00 0.01 0.01 0.01 0.06 0.33 0.87 0.94 0.58 0.21 0.25 0.58 0.56 0.70 0.69 0.59 0.70
0.33 0.35 0.37 0.33 0.36 0.39 0.45 0.58 0.82 1.22 1.81 1.16 0.72 0.33 0.18 0.13 0.06 0.14 0.44 0.66 0.52 0.47 0.30 0.10 0.08 0.12 0.10 0.02 0.00 0.00 0.00 0.00 0.04 0.05 0.17 0.31 0.55 0.83 0.48 0.37 0.37 0.80 0.74 0.59 0.37 0.35 0.44
0.31 0.35 0.40 0.34 0.30 0.31 0.32 0.40 0.51 0.73 1.13 1.03 0.73 0.59 0.40 0.20 0.07 0.07 0.20 0.41 0.43 0.38 0.37 0.09 0.10 0.10 0.06 0.03 0.03 0.03 0.08 0.03 0.04 0.08 0.08 0.13 0.31 0.59 0.45 0.51 0.79 0.58 0.51 0.35 0.36 0.36 0.32
0.33 0.33 0.36 0.33 0.28 0.27 0.25 0.36 0.50 0.62 0.89 0.59 0.59 0.56 0.39 0.17 0.06 0.05 0.16 0.36 0.49 0.46 0.52 0.25 0.09 0.07 0.09 0.12 0.17 0.15 0.19 0.21 0.09 0.05 0.02 0.02 0.18 0.36 0.21 0.17 0.18 0.02 0.05 0.17 0.23 0.33 0.18
0.31 0.31 0.32 0.33 0.26 0.26 0.32 0.37 0.45 0.54 0.55 0.38 0.50 0.50 0.52 0.20 0.09 0.03 0.05 0.16 0.45 0.46 0.53 0.41 0.24 0.15 0.24 0.32 0.26 0.18 0.15 0.10 0.08 0.12 0.03 0.02 0.12 0.42 0.15 0.14 0.01 0.00 0.00 0.00 0.03 0.19 0.25
0.29 0.29 0.30 0.31 0.27 0.21 0.26 0.30 0.26 0.34 0.47 0.35 0.47 0.49 0.36 0.20 0.06 0.02 0.03 0.06 0.30 0.53 0.59 0.47 0.41 0.21 0.35 0.58 0.42 0.21 0.05 0.00 0.01 0.04 0.04 0.07 0.15 0.30 0.20 0.22 0.01 0.00 0.00 0.00 0.03 0.11 0.11
0.27 0.28 0.33 0.31 0.24 0.21 0.20 0.25 0.28 0.27 0.51 0.40 0.35 0.38 0.33 0.20 0.08 0.02 0.02 0.04 0.18 0.42 0.61 0.56 0.71 0.50 0.52 0.71 0.47 0.18 0.03 0.02 0.00 0.01 0.00 0.03 0.05 0.07 0.10 0.12 0.01 0.00 0.00 0.01 0.01 0.00 0.00
0.32 0.31 0.32 0.29 0.24 0.22 0.18 0.21 0.25 0.22 0.42 0.51 0.34 0.33 0.34 0.27 0.11 0.03 0.01 0.01 0.05 0.27 0.60 0.60 0.59 0.42 0.51 0.49 0.30 0.20 0.07 0.02 0.01 0.01 0.00 0.00 0.00 0.01 0.00 0.00 0.00 0.00 0.00 0.00 0.00 0.00 0.00

GFSGBSN_prec_precacc_081.txt.gz
Total_Precipitation_Accumulation
0.16 0.16 0.16 0.16 0.14 0.14 0.14 0.19 0.23 0.19 0.19 0.23 0.31 0.35 0.33 0.30 0.30 0.33 0.31 0.27 0.29 0.29 0.29 0.32 0.41 0.66 0.69 0.36 0.10 0.18 0.15 0.12 0.27 0.72 0.44 0.20 0.09 0.08 0.07 0.04 0.06 0.01 0.02 0.04 0.15 0.06 0.04
0.14 0.14 0.14 0.14 0.15 0.17 0.17 0.24 0.26 0.24 0.25 0.28 0.35 0.35 0.29 0.29 0.28 0.31 0.27 0.23 0.31 0.37 0.37 0.33 0.53 0.91 0.61 0.22 0.02 0.06 0.16 0.12 0.33 0.63 0.57 0.41 0.11 0.04 0.08 0.07 0.10 0.02 0.02 0.03 0.05 0.05 0.03
0.12 0.14 0.14 0.13 0.16 0.18 0.21 0.28 0.28 0.26 0.28 0.34 0.37 0.34 0.26 0.33 0.33 0.31 0.28 0.25 0.26 0.31 0.42 0.55 0.85 1.00 0.49 0.08 0.03 0.09 0.15 0.22 0.36 0.49 0.55 0.43 0.20 0.21 0.11 0.12 0.11 0.06 0.06 0.04 0.00 0.03 0.08
0.12 0.14 0.14 0.15 0.16 0.18 0.23 0.28 0.25 0.25 0.30 0.39 0.47 0.38 0.34 0.39 0.36 0.33 0.33 0.29 0.35 0.45 0.62 0.73 1.18 1.06 0.33 0.02 0.03 0.03 0.12 0.23 0.25 0.54 0.64 0.77 0.62 0.27 0.17 0.11 0.15 0.22 0.11 0.05 0.00 0.00 0.02
0.13 0.13 0.13 0.15 0.14 0.19 0.27 0.25 0.24 0.24 0.31 0.46 0.52 0.45 0.42 0.40 0.44 0.45 0.42 0.46 0.55 0.60 0.73 1.21 1.09 0.65 0.16 0.04 0.06 0.03 0.14 0.21 0.19 0.62 0.84 1.34 1.33 0.57 0.24 0.24 0.25 0.22 0.07 0.02 0.00 0.00 0.00
0.12 0.13 0.14 0.14 0.16 0.22 0.28 0.27 0.27 0.27 0.37 0.50 0.50 0.46 0.47 0.57 0.62 0.60 0.63 0.73 1.02 1.00 1.00 1.55 0.94 0.80 0.14 0.04 0.14 0.08 0.22 0.29 0.45 1.02 1.58 1.90 1.59 1.00 0.44 0.35 0.18 0.04 0.02 0.01 0.00 0.00 0.00
0.13 0.13 0.15 0.13 0.17 0.24 0.26 0.29 0.26 0.31 0.37 0.47 0.47 0.47 0.50 0.60 0.82 1.05 1.23 1.63 1.46 1.61 1.18 0.81 0.51 0.40 0.17 0.26 0.39 0.27 0.35 0.55 0.92 1.46 1.59 1.74 1.27 0.87 0.32 0.12 0.02 0.01 0.02 0.01 0.00 0.00 0.00
0.16 0.20 0.19 0.19 0.24 0.31 0.32 0.32 0.31 0.36 0.44 0.45 0.43 0.45 0.51 0.63 0.92 1.26 1.31 1.27 0.79 0.82 0.88 0.41 0.36 0.36 0.23 0.48 0.74 0.57 0.40 0.96 0.91 1.23 1.53 1.86 0.92 0.28 0.31 0.18 0.08 0.05 0.05 0.04 0.01 0.00 0.02
0.19 0.21 0.16 0.22 0.29 0.34 0.35 0.33 0.40 0.44 0.49 0.44 0.41 0.49 0.75 1.00 1.20 1.77 1.15 0.78 0.77 1.00 1.26 0.86 0.55 0.48 0.41 0.84 0.78 0.75 0.54 1.13 0.74 1.00 1.54 1.48 0.55 0.34 0.44 0.44 0.24 0.14 0.04 0.03 0.03 0.01 0.01
0.26 0.28 0.30 0.37 0.36 0.35 0.34 0.39 0.55 0.63 0.59 0.53 0.53 0.77 1.10 1.54 2.03 1.25 1.30 0.97 1.03 1.65 2.22 1.22 0.79 0.60 0.72 0.99 0.99 0.55 1.00 1.35 0.69 1.03 1.34 1.16 0.60 0.55 0.68 0.49 0.28 0.19 0.07 0.01 0.05 0.10 0.08
0.30 0.39 0.47 0.43 0.47 0.47 0.43 0.45 0.49 0.53 0.60 0.63 0.83 1.08 1.32 2.05 2.40 1.35 1.33 1.06 1.31 2.38 2.08 1.10 0.85 0.77 0.78 0.68 0.63 0.76 1.04 1.29 0.52 0.83 1.30 1.18 0.73 0.58 0.89 0.68 0.22 0.24 0.10 0.03 0.09 0.16 0.17
0.44 0.40 0.43 0.44 0.48 0.51 0.49 0.51 0.45 0.40 0.59 0.80 0.78 0.85 1.37 1.98 2.18 1.50 1.42 1.66 2.15 2.59 1.92 1.39 1.24 0.87 0.77 0.58 0.62 0.98 1.11 1.06 0.68 0.87 0.86 0.78 0.63 0.56 0.65 0.71 0.41 0.25 0.23 0.21 0.15 0.41 0.44
0.36 0.37 0.46 0.50 0.49 0.50 0.50 0.49 0.46 0.64 0.74 0.69 0.75 0.80 1.28 1.52 1.77 1.86 2.38 2.24 2.49 1.56 1.13 1.17 1.06 0.82 0.74 0.68 0.80 0.88 1.23 1.00 1.40 1.17 1.36 1.43 0.96 0.58 0.49 0.94 0.86 0.69 0.80 1.01 0.73 0.68 0.44
0.40 0.47 0.47 0.48 0.48 0.48 0.61 0.54 0.66 0.78 0.71 0.77 1.00 1.00 1.30 1.27 1.91 1.93 3.00 2.15 1.52 0.60 0.99 0.90 0.39 0.47 0.52 0.30 0.57 0.73 0.88 0.69 0.59 0.37 0.78 1.04 1.07 0.73 0.54 0.95 1.23 0.79 0.85 0.89 0.38 0.15 0.12
0.45 0.50 0.52 0.53 0.57 0.59 0.66 0.63 0.57 0.59 0.61 1.01 1.05 1.45 2.40 1.37 1.96 2.52 2.74 2.08 0.95 0.86 1.02 0.63 0.49 0.40 0.37 0.27 0.56 0.62 0.63 0.30 0.24 0.15 0.55 0.60 0.56 0.42 0.35 0.46 0.77 0.99 0.96 0.49 0.48 0.25 0.25
0.47 0.50 0.60 0.68 0.69 0.78 0.78 0.64 0.72 0.69 0.90 1.25 1.24 1.53 2.21 1.49 1.72 3.31 3.06 1.72 0.91 0.73 0.51 0.31 0.36 0.22 0.15 0.20 0.50 0.44 0.44 0.16 0.09 0.02 0.17 0.38 0.65 0.48 0.55 0.60 0.75 0.81 0.45 0.58 1.03 0.55 0.21
0.50 0.53 0.64 0.77 0.76 0.85 0.86 0.73 0.77 1.02 1.15 1.14 1.04 2.10 1.55 1.97 2.45 3.74 2.86 1.54 0.79 0.38 0.43 0.35 0.11 0.11 0.05 0.04 0.30 0.20 0.20 0.08 0.03 0.00 0.12 0.48 0.72 0.56 0.72 0.83 0.58 0.82 1.02 0.54 0.44 0.24 0.27
0.47 0.55 0.59 0.73 0.75 0.75 0.89 0.72 0.58 1.00 1.18 1.16 1.18 1.59 1.52 2.25 3.30 2.57 2.04 1.62 0.77 0.37 0.38 0.36 0.16 0.06 0.05 0.03 0.17 0.12 0.06 0.02 0.01 0.01 0.11 0.40 0.78 0.62 0.33 0.30 0.09 0.35 0.38 0.33 0.58 0.24 0.33
0.42 0.47 0.59 0.62 0.68 0.71 0.85 0.76 0.55 0.82 1.74 2.02 1.46 1.67 2.35 1.54 1.55 1.32 1.60 1.17 0.64 0.39 0.37 0.35 0.11 0.04 0.02 0.04 0.07 0.03 0.05 0.00 0.00 0.01 0.11 0.43 0.91 0.69 0.36 0.72 0.42 0.59 0.38 0.53 0.77 0.86 0.74
0.38 0.44 0.48 0.45 0.52 0.59 0.77 0.58 0.51 0.70 1.13 1.55 1.36 1.58 3.08 2.12 0.80 0.96 1.16 0.99 0.69 0.35 0.28 0.30 0.15 0.07 0.06 0.05 0.02 0.01 0.05 0.00 0.00 0.00 0.06 0.40 0.51 0.54 0.35 0.58 0.64 0.44 0.28 0.60 1.46 1.55 0.41
0.37 0.42 0.40 0.41 0.47 0.51 0.61 0.60 0.64 0.79 0.82 1.08 0.91 0.56 0.67 0.76 0.53 0.52 0.87 0.75 0.61 0.52 0.32 0.28 0.19 0.09 0.06 0.05 0.03 0.02 0.02 0.01 0.00 0.00 0.07 0.45 0.75 0.78 0.36 0.13 0.47 0.50 0.39 0.55 1.15 0.82 0.95
0.39 0.39 0.36 0.40 0.41 0.46 0.52 0.63 0.70 1.07 1.52 1.09 0.74 0.33 0.14 0.06 0.05 0.22 0.75 0.89 0.62 0.53 0.41 0.21 0.11 0.05 0.07 0.04 0.02 0.01 0.01 0.01 0.01 0.01 0.06 0.33 0.87 0.94 0.58 0.21 0.25 0.58 0.56 0.70 0.69 0.59 0.70
0.33 0.35 0.37 0.33 0.36 0.39 0.45 0.58 0.82 1.22 1.81 1.16 0.72 0.33 0.18 0.13 0.06 0.14 0.44 0.66 0.52 0.47 0.30 0.10 0.08 0.12 0.10 0.05 0.04 0.02 0.01 0.01 0.05 0.05 0.17 0.31 0.56 0.83 0.48 0.37 0.37 0.80 0.74 0.59 0.37 0.35 0.44
0.32 0.35 0.40 0.34 0.30 0.31 0.32 0.40 0.51 0.73 1.13 1.03 0.73 0.59 0.40 0.20 0.07 0.07 0.20 0.41 0.43 0.38 0.37 0.09 0.10 0.11 0.07 0.05 0.06 0.07 0.13 0.05 0.05 0.08 0.08 0.13 0.31 0.60 0.45 0.51 0.79 0.58 0.51 0.35 0.36 0.36 0.32
0.34 0.33 0.36 0.33 0.28 0.27 0.25 0.36 0.50 0.62 0.89 0.59 0.59 0.56 0.39 0.17 0.06 0.05 0.16 0.36 0.49 0.46 0.52 0.25 0.09 0.07 0.09 0.13 0.21 0.22 0.30 0.29 0.14 0.07 0.02 0.02 0.18 0.37 0.22 0.17 0.18 0.02 0.05 0.17 0.23 0.33 0.18
0.31 0.31 0.32 0.33 0.26 0.26 0.32 0.37 0.45 0.54 0.55 0.38 0.50 0.50 0.52 0.20 0.09 0.03 0.05 0.16 0.45 0.46 0.53 0.41 0.24 0.15 0.25 0.34 0.33 0.34 0.28 0.14 0.08 0.12 0.03 0.02 0.13 0.46 0.17 0.14 0.01 0.00 0.00 0.00 0.03 0.19 0.25
0.29 0.29 0.30 0.31 0.27 0.21 0.26 0.30 0.26 0.34 0.47 0.35 0.47 0.49 0.36 0.20 0.06 0.02 0.03 0.06 0.30 0.53 0.59 0.47 0.41 0.21 0.36 0.63 0.50 0.31 0.12 0.07 0.06 0.05 0.04 0.08 0.18 0.36 0.24 0.24 0.01 0.00 0.00 0.00 0.03 0.11 0.11
0.27 0.28 0.33 0.31 0.24 0.21 0.20 0.25 0.28 0.27 0.51 0.40 0.35 0.38 0.33 0.20 0.08 0.02 0.02 0.04 0.18 0.42 0.61 0.56 0.71 0.50 0.53 0.80 0.74 0.39 0.12 0.04 0.01 0.01 0.00 0.03 0.06 0.11 0.13 0.16 0.02 0.00 0.00 0.01 0.01 0.00 0.00
0.32 0.31 0.33 0.29 0.24 0.23 0.18 0.21 0.25 0.22 0.42 0.51 0.34 0.33 0.34 0.27 0.11 0.03 0.01 0.01 0.05 0.27 0.60 0.60 0.59 0.42 0.52 0.54 0.47 0.38 0.30 0.24 0.08 0.06 0.02 0.01 0.00 0.01 0.01 0.00 0.00 0.00 0.00 0.00 0.00 0.00 0.00

GFSGBSN_prec_precacc_087.txt.gz
Total_Precipitation_Accumulation
0.16 0.16 0.16 0.16 0.14 0.14 0.14 0.19 0.23 0.19 0.20 0.25 0.32 0.36 0.34 0.31 0.30 0.33 0.31 0.27 0.29 0.29 0.29 0.32 0.41 0.66 0.69 0.36 0.10 0.24 0.17 0.16 0.28 0.74 0.46 0.32 0.11 0.09 0.08 0.06 0.11 0.09 0.12 0.09 0.18 0.06 0.04
0.14 0.14 0.14 0.14 0.15 0.17 0.18 0.25 0.26 0.24 0.25 0.29 0.37 0.36 0.30 0.30 0.29 0.31 0.27 0.23 0.31 0.37 0.37 0.33 0.53 0.91 0.61 0.22 0.02 0.07 0.16 0.15 0.33 0.69 0.59 0.51 0.16 0.04 0.08 0.10 0.13 0.03 0.13 0.12 0.09 0.06 0.03
0.12 0.14 0.14 0.13 0.16 0.18 0.21 0.29 0.28 0.26 0.28 0.35 0.39 0.35 0.27 0.34 0.34 0.32 0.28 0.25 0.26 0.31 0.42 0.55 0.85 1.00 0.49 0.08 0.03 0.09 0.15 0.23 0.37 0.56 0.64 0.57 0.24 0.22 0.12 0.16 0.13 0.06 0.13 0.15 0.06 0.06 0.09
0.12 0.14 0.14 0.15 0.16 0.18 0.23 0.28 0.26 0.25 0.31 0.39 0.48 0.39 0.35 0.39 0.36 0.34 0.33 0.29 0.35 0.45 0.62 0.73 1.18 1.06 0.33 0.02 0.03 0.03 0.12 0.23 0.28 0.60 0.71 0.98 0.66 0.31 0.18 0.13 0.20 0.25 0.16 0.10 0.03 0.02 0.03
0.13 0.13 0.13 0.15 0.14 0.19 0.27 0.25 0.25 0.24 0.31 0.46 0.52 0.45 0.43 0.40 0.44 0.45 0.42 0.46 0.55 0.60 0.73 1.21 1.09 0.65 0.16 0.04 0.06 0.03 0.14 0.21 0.22 0.70 0.94 1.61 1.41 0.62 0.27 0.28 0.32 0.29 0.08 0.03 0.03 0.00 0.00
0.13 0.13 0.14 0.14 0.16 0.22 0.28 0.27 0.27 0.27 0.38 0.50 0.50 0.46 0.48 0.57 0.62 0.60 0.63 0.73 1.02 1.00 1.00 1.55 0.94 0.80 0.15 0.05 0.14 0.08 0.22 0.29 0.47 1.12 1.68 2.34 1.67 1.05 0.47 0.37 0.20 0.06 0.03 0.01 0.01 0.00 0.00
0.14 0.13 0.15 0.13 0.17 0.24 0.27 0.29 0.26 0.31 0.37 0.47 0.47 0.47 0.51 0.60 0.82 1.05 1.23 1.63 1.46 1.61 1.18 0.81 0.51 0.40 0.17 0.26 0.39 0.27 0.35 0.55 0.96 1.52 1.64 2.20 1.32 0.90 0.32 0.13 0.03 0.02 0.03 0.02 0.00 0.00 0.00
0.17 0.21 0.19 0.19 0.24 0.31 0.32 0.32 0.31 0.36 0.44 0.46 0.44 0.45 0.52 0.64 0.92 1.26 1.31 1.27 0.79 0.82 0.88 0.41 0.36 0.36 0.23 0.48 0.74 0.58 0.40 0.97 0.99 1.24 1.56 2.08 0.95 0.29 0.31 0.18 0.09 0.05 0.05 0.05 0.01 0.00 0.02
0.20 0.21 0.16 0.22 0.29 0.34 0.35 0.33 0.40 0.45 0.50 0.45 0.41 0.50 0.75 1.00 1.20 1.77 1.15 0.78 0.77 1.00 1.26 0.86 0.55 0.48 0.41 0.84 0.78 0.76 0.55 1.14 0.77 1.01 1.55 1.60 0.57 0.34 0.45 0.45 0.25 0.14 0.04 0.03 0.03 0.01 0.02
0.26 0.28 0.30 0.37 0.36 0.35 0.34 0.39 0.55 0.64 0.59 0.53 0.53 0.78 1.10 1.54 2.03 1.25 1.30 0.97 1.03 1.65 2.23 1.23 0.79 0.60 0.72 0.99 0.99 0.56 1.01 1.36 0.69 1.04 1.34 1.18 0.60 0.55 0.69 0.50 0.28 0.20 0.07 0.01 0.05 0.10 0.09
0.34 0.39 0.47 0.43 0.47 0.47 0.43 0.45 0.49 0.53 0.60 0.63 0.83 1.09 1.32 2.05 2.40 1.35 1.33 1.06 1.31 2.38 2.09 1.10 0.86 0.77 0.78 0.68 0.63 0.76 1.04 1.29 0.52 0.83 1.31 1.20 0.74 0.59 0.89 0.69 0.22 0.24 0.10 0.03 0.09 0.17 0.18
0.51 0.40 0.43 0.44 0.48 0.51 0.49 0.51 0.45 0.40 0.59 0.80 0.79 0.86 1.37 1.98 2.18 1.50 1.42 1.66 2.15 2.59 1.93 1.39 1.24 0.88 0.77 0.58 0.62 0.99 1.11 1.06 0.68 0.87 0.87 0.80 0.63 0.57 0.65 0.72 0.41 0.25 0.23 0.21 0.16 0.42 0.45
0.51 0.39 0.46 0.50 0.49 0.50 0.50 0.49 0.46 0.64 0.74 0.69 0.75 0.80 1.28 1.52 1.77 1.86 2.38 2.24 2.49 1.56 1.13 1.17 1.06 0.82 0.75 0.68 0.80 0.88 1.23 1.01 1.41 1.18 1.39 1.47 0.98 0.59 0.50 0.97 0.88 0.70 0.81 1.04 0.75 0.70 0.45
0.69 0.55 0.48 0.48 0.48 0.48 0.61 0.54 0.66 0.78 0.71 0.77 1.00 1.00 1.30 1.27 1.91 1.93 3.00 2.15 1.52 0.60 0.99 0.90 0.39 0.47 0.53 0.30 0.57 0.73 0.89 0.69 0.59 0.38 0.81 1.11 1.14 0.74 0.55 0.96 1.25 0.80 0.86 0.89 0.39 0.16 0.12
0.73 0.72 0.55 0.53 0.57 0.59 0.66 0.63 0.57 0.59 0.61 1.01 1.05 1.45 2.40 1.37 1.96 2.52 2.74 2.08 0.95 0.86 1.02 0.63 0.49 0.41 0.38 0.27 0.57 0.63 0.63 0.30 0.24 0.15 0.58 0.66 0.60 0.42 0.36 0.46 0.79 1.02 0.99 0.50 0.49 0.25 0.25
0.77 0.66 0.63 0.68 0.69 0.78 0.78 0.64 0.72 0.69 0.90 1.25 1.24 1.53 2.21 1.49 1.72 3.31 3.06 1.72 0.91 0.73 0.51 0.31 0.36 0.22 0.15 0.21 0.50 0.44 0.44 0.16 0.09 0.02 0.18 0.42 0.69 0.48 0.55 0.61 0.76 0.82 0.46 0.60 1.05 0.56 0.21
0.87 0.75 0.66 0.77 0.76 0.85 0.86 0.73 0.77 1.02 1.15 1.14 1.04 2.10 1.55 1.97 2.45 3.74 2.86 1.54 0.79 0.38 0.43 0.35 0.11 0.11 0.05 0.05 0.30 0.20 0.20 0.08 0.03 0.00 0.12 0.48 0.74 0.59 0.76 0.86 0.60 0.82 1.03 0.55 0.45 0.24 0.27
0.89 0.87 0.65 0.73 0.75 0.75 0.89 0.72 0.58 1.00 1.18 1.16 1.18 1.59 1.52 2.25 3.30 2.57 2.04 1.62 0.77 0.37 0.38 0.36 0.16 0.06 0.05 0.03 0.18 0.12 0.06 0.04 0.01 0.01 0.11 0.40 0.78 0.66 0.35 0.30 0.10 0.36 0.38 0.34 0.59 0.25 0.33
0.75 0.77 0.67 0.62 0.68 0.71 0.85 0.76 0.55 0.82 1.74 2.02 1.46 1.67 2.35 1.54 1.55 1.32 1.60 1.17 0.64 0.39 0.37 0.35 0.11 0.04 0.02 0.04 0.08 0.03 0.06 0.01 0.01 0.02 0.12 0.43 0.94 0.73 0.41 0.76 0.43 0.60 0.39 0.54 0.78 0.88 0.76
0.81 0.70 0.56 0.45 0.52 0.59 0.77 0.58 0.51 0.70 1.13 1.55 1.36 1.58 3.08 2.12 0.80 0.96 1.16 0.99 0.69 0.35 0.28 0.30 0.15 0.07 0.06 0.05 0.03 0.02 0.07 0.03 0.00 0.03 0.15 0.45 0.56 0.55 0.36 0.59 0.64 0.45 0.28 0.60 1.47 1.58 0.42
1.00 0.82 0.58 0.42 0.47 0.51 0.61 0.60 0.64 0.79 0.82 1.08 0.91 0.56 0.67 0.76 0.53 0.52 0.87 0.75 0.61 0.52 0.32 0.28 0.19 0.09 0.06 0.06 0.03 0.03 0.04 0.04 0.04 0.02 0.16 0.72 0.94 0.83 0.37 0.13 0.47 0.50 0.39 0.55 1.15 0.82 0.96
0.90 0.80 0.57 0.43 0.41 0.46 0.52 0.63 0.70 1.07 1.52 1.09 0.74 0.33 0.14 0.06 0.05 0.22 0.75 0.89 0.62 0.53 0.41 0.21 0.11 0.05 0.07 0.04 0.04 0.05 0.07 0.10 0.10 0.08 0.18 0.51 1.04 1.02 0.69 0.28 0.27 0.58 0.56 0.70 0.69 0.59 0.70
0.82 0.68 0.54 0.38 0.36 0.39 0.45 0.58 0.82 1.22 1.81 1.16 0.72 0.33 0.18 0.13 0.06 0.14 0.44 0.66 0.52 0.47 0.30 0.10 0.08 0.12 0.10 0.05 0.04 0.04 0.07 0.12 0.26 0.28 0.30 0.57 0.67 0.92 0.56 0.41 0.47 0.87 0.74 0.59 0.37 0.35 0.44
0.78 0.67 0.51 0.37 0.30 0.31 0.32 0.40 0.51 0.73 1.13 1.03 0.73 0.59 0.40 0.20 0.07 0.07 0.20 0.41 0.43 0.38 0.37 0.09 0.10 0.11 0.07 0.05 0.06 0.07 0.14 0.09 0.09 0.19 0.33 0.31 0.46 0.63 0.50 0.52 0.83 0.58 0.51 0.35 0.36 0.36 0.32
0.80 0.58 0.44 0.35 0.28 0.27 0.25 0.36 0.50 0.62 0.89 0.59 0.59 0.56 0.39 0.17 0.06 0.05 0.16 0.36 0.49 0.46 0.52 0.25 0.09 0.07 0.09 0.13 0.22 0.23 0.31 0.36 0.19 0.11 0.05 0.22 0.38 0.48 0.25 0.18 0.18 0.02 0.05 0.17 0.23 0.33 0.18
0.79 0.51 0.38 0.34 0.26 0.26 0.32 0.37 0.45 0.54 0.55 0.38 0.50 0.50 0.52 0.20 0.09 0.03 0.05 0.16 0.45 0.46 0.53 0.41 0.24 0.15 0.25 0.34 0.35 0.36 0.30 0.25 0.20 0.23 0.19 0.07 0.22 0.60 0.26 0.17 0.02 0.00 0.00 0.00 0.03 0.19 0.25
0.80 0.44 0.35 0.32 0.27 0.21 0.26 0.30 0.26 0.34 0.47 0.35 0.47 0.49 0.36 0.20 0.06 0.02 0.03 0.06 0.30 0.53 0.59 0.47 0.41 0.21 0.36 0.63 0.52 0.33 0.13 0.08 0.15 0.17 0.12 0.29 0.33 0.42 0.30 0.29 0.01 0.00 0.00 0.00 0.03 0.11 0.11
0.74 0.42 0.36 0.31 0.24 0.21 0.20 0.25 0.28 0.27 0.51 0.40 0.35 0.38 0.33 0.20 0.08 0.02 0.02 0.04 0.18 0.42 0.61 0.56 0.71 0.50 0.53 0.80 0.74 0.42 0.14 0.06 0.04 0.08 0.04 0.08 0.19 0.20 0.19 0.21 0.03 0.00 0.00 0.01 0.01 0.00 0.00
0.88 0.49 0.35 0.29 0.24 0.23 0.18 0.21 0.25 0.22 0.42 0.51 0.34 0.33 0.34 0.27 0.11 0.03 0.01 0.01 0.05 0.27 0.60 0.60 0.59 0.42 0.52 0.54 0.47 0.38 0.30 0.24 0.10 0.08 0.02 0.03 0.02 0.05 0.02 0.02 0.00 0.00 0.00 0.00 0.00 0.00 0.00

GFSGBSN_prec_precacc_090.txt.gz
Total_Precipitation_Accumulation
0.16 0.16 0.16 0.16 0.14 0.14 0.14 0.19 0.23 0.20 0.20 0.25 0.32 0.36 0.35 0.31 0.31 0.34 0.31 0.27 0.29 0.29 0.29 0.32 0.41 0.66 0.69 0.37 0.11 0.24 0.17 0.17 0.30 0.76 0.51 0.39 0.20 0.10 0.08 0.07 0.19 0.23 0.15 0.16 0.21 0.07 0.06
0.15 0.14 0.14 0.14 0.15 0.17 0.18 0.25 0.26 0.24 0.25 0.30 0.37 0.36 0.31 0.30 0.29 0.32 0.27 0.23 0.31 0.37 0.37 0.33 0.53 0.91 0.62 0.23 0.02 0.07 0.17 0.16 0.34 0.75 0.65 0.58 0.22 0.06 0.08 0.11 0.17 0.10 0.21 0.22 0.17 0.07 0.03
0.14 0.15 0.14 0.13 0.16 0.18 0.21 0.29 0.28 0.26 0.28 0.35 0.39 0.36 0.27 0.35 0.34 0.32 0.28 0.25 0.26 0.31 0.42 0.55 0.85 1.00 0.49 0.08 0.03 0.09 0.15 0.23 0.37 0.63 0.73 0.61 0.24 0.22 0.12 0.16 0.13 0.10 0.29 0.32 0.17 0.08 0.10
0.15 0.15 0.14 0.15 0.16 0.18 0.23 0.28 0.26 0.25 0.31 0.40 0.48 0.39 0.35 0.40 0.36 0.34 0.33 0.29 0.35 0.45 0.62 0.73 1.18 1.06 0.34 0.02 0.03 0.03 0.12 0.23 0.28 0.63 0.74 0.98 0.66 0.31 0.19 0.13 0.20 0.27 0.24 0.30 0.13 0.04 0.06
0.16 0.15 0.13 0.15 0.14 0.19 0.27 0.25 0.25 0.24 0.31 0.46 0.52 0.45 0.43 0.40 0.44 0.45 0.42 0.46 0.55 0.60 0.73 1.21 1.09 0.66 0.16 0.04 0.06 0.03 0.14 0.22 0.25 0.72 0.94 1.61 1.42 0.62 0.29 0.29 0.33 0.30 0.10 0.08 0.13 0.06 0.03
0.15 0.15 0.15 0.14 0.16 0.22 0.28 0.27 0.27 0.28 0.38 0.50 0.51 0.46 0.48 0.57 0.62 0.60 0.63 0.73 1.02 1.00 1.00 1.55 0.94 0.81 0.15 0.05 0.14 0.08 0.22 0.29 0.50 1.13 1.69 2.40 1.69 1.06 0.48 0.39 0.21 0.06 0.03 0.01 0.03 0.04 0.01
0.17 0.16 0.18 0.14 0.17 0.24 0.27 0.29 0.26 0.31 0.37 0.47 0.47 0.47 0.51 0.61 0.82 1.05 1.23 1.63 1.46 1.61 1.18 0.81 0.51 0.40 0.17 0.26 0.39 0.27 0.35 0.56 0.97 1.55 1.66 2.27 1.34 0.91 0.32 0.13 0.03 0.02 0.03 0.02 0.00 0.01 0.02
0.22 0.26 0.23 0.20 0.24 0.31 0.32 0.32 0.31 0.36 0.44 0.46 0.44 0.46 0.52 0.64 0.92 1.26 1.31 1.27 0.79 0.82 0.88 0.41 0.36 0.36 0.23 0.48 0.74 0.58 0.40 0.98 1.00 1.25 1.57 2.10 0.96 0.29 0.31 0.18 0.09 0.06 0.05 0.06 0.02 0.01 0.03
0.29 0.28 0.21 0.24 0.29 0.34 0.35 0.33 0.40 0.45 0.50 0.45 0.41 0.50 0.75 1.00 1.20 1.77 1.15 0.78 0.77 1.00 1.26 0.86 0.55 0.48 0.41 0.84 0.78 0.76 0.55 1.14 0.77 1.01 1.55 1.60 0.59 0.34 0.45 0.45 0.25 0.15 0.04 0.03 0.04 0.01 0.02
0.35 0.34 0.35 0.38 0.36 0.35 0.34 0.39 0.55 0.64 0.59 0.53 0.53 0.78 1.10 1.54 2.03 1.25 1.30 0.97 1.03 1.65 2.23 1.23 0.79 0.60 0.72 0.99 0.99 0.56 1.01 1.36 0.69 1.04 1.34 1.19 0.61 0.55 0.69 0.50 0.28 0.20 0.07 0.02 0.05 0.10 0.09
0.45 0.52 0.58 0.48 0.47 0.47 0.43 0.45 0.49 0.53 0.60 0.63 0.83 1.09 1.32 2.05 2.40 1.35 1.33 1.06 1.31 2.38 2.09 1.10 0.86 0.77 0.78 0.68 0.63 0.76 1.04 1.29 0.52 0.83 1.32 1.21 0.74 0.59 0.90 0.69 0.22 0.25 0.10 0.03 0.09 0.17 0.18
0.62 0.52 0.54 0.53 0.49 0.51 0.49 0.51 0.45 0.40 0.59 0.80 0.79 0.86 1.37 1.98 2.18 1.50 1.42 1.66 2.15 2.59 1.93 1.39 1.24 0.88 0.77 0.58 0.62 0.99 1.11 1.06 0.68 0.88 0.87 0.80 0.64 0.57 0.65 0.72 0.41 0.26 0.24 0.21 0.16 0.42 0.45
0.71 0.51 0.53 0.57 0.51 0.50 0.50 0.49 0.46 0.64 0.74 0.69 0.75 0.80 1.28 1.52 1.77 1.86 2.38 2.24 2.49 1.56 1.13 1.17 1.06 0.82 0.75 0.68 0.80 0.88 1.23 1.01 1.41 1.18 1.39 1.47 0.98 0.59 0.50 0.99 0.90 0.70 0.81 1.05 0.76 0.71 0.45
0.86 0.87 0.72 0.67 0.60 0.51 0.61 0.54 0.66 0.78 0.71 0.77 1.00 1.00 1.30 1.27 1.91 1.93 3.00 2.15 1.52 0.60 0.99 0.90 0.39 0.47 0.53 0.30 0.57 0.73 0.89 0.69 0.59 0.39 0.81 1.12 1.15 0.74 0.55 0.97 1.26 0.80 0.87 0.90 0.39 0.16 0.12
0.82 0.89 0.87 0.80 0.78 0.68 0.66 0.63 0.57 0.59 0.61 1.01 1.05 1.45 2.40 1.37 1.96 2.52 2.74 2.08 0.95 0.86 1.02 0.63 0.50 0.41 0.38 0.27 0.57 0.63 0.64 0.30 0.24 0.15 0.59 0.66 0.61 0.42 0.36 0.46 0.80 1.03 0.99 0.50 0.51 0.25 0.25
0.90 0.82 0.89 0.99 0.89 0.85 0.78 0.64 0.72 0.69 0.90 1.25 1.24 1.53 2.21 1.49 1.72 3.31 3.06 1.72 0.91 0.73 0.51 0.31 0.36 0.22 0.15 0.21 0.50 0.45 0.44 0.16 0.09 0.02 0.19 0.45 0.76 0.50 0.55 0.61 0.76 0.84 0.47 0.61 1.06 0.57 0.22
1.06 1.01 0.92 0.99 0.96 0.92 0.86 0.73 0.77 1.02 1.15 1.14 1.04 2.10 1.55 1.97 2.45 3.74 2.86 1.54 0.79 0.38 0.43 0.35 0.11 0.11 0.05 0.05 0.30 0.21 0.20 0.09 0.03 0.00 0.13 0.50 0.78 0.64 0.80 0.87 0.60 0.82 1.04 0.56 0.46 0.24 0.27
1.10 1.20 1.05 0.99 0.94 0.80 0.89 0.72 0.58 1.00 1.18 1.16 1.18 1.59 1.52 2.25 3.30 2.57 2.04 1.62 0.77 0.37 0.38 0.36 0.16 0.06 0.05 0.03 0.18 0.13 0.07 0.05 0.02 0.01 0.12 0.41 0.84 0.69 0.36 0.31 0.10 0.36 0.39 0.36 0.61 0.25 0.33
0.87 1.02 1.07 1.00 0.91 0.77 0.85 0.76 0.55 0.82 1.74 2.02 1.46 1.67 2.35 1.54 1.55 1.32 1.60 1.17 0.64 0.39 0.37 0.35 0.11 0.04 0.02 0.04 0.08 0.03 0.06 0.01 0.03 0.07 0.18 0.45 1.00 0.78 0.48 0.81 0.44 0.62 0.39 0.55 0.79 0.89 0.77
1.06 0.92 0.92 0.82 0.85 0.67 0.77 0.58 0.51 0.70 1.13 1.55 1.36 1.58 3.08 2.12 0.80 0.96 1.16 0.99 0.69 0.35 0.28 0.30 0.15 0.07 0.06 0.05 0.03 0.02 0.07 0.03 0.01 0.07 0.25 0.66 0.62 0.56 0.39 0.60 0.64 0.45 0.28 0.60 1.49 1.61 0.43
1.22 1.11 0.93 0.81 0.81 0.61 0.61 0.60 0.64 0.79 0.82 1.08 0.91 0.56 0.67 0.76 0.53 0.52 0.87 0.75 0.61 0.52 0.32 0.28 0.19 0.09 0.06 0.06 0.03 0.03 0.04 0.04 0.06 0.06 0.25 1.02 1.29 0.88 0.37 0.14 0.48 0.51 0.39 0.55 1.16 0.83 0.96
1.12 1.17 0.93 0.86 0.73 0.54 0.52 0.63 0.70 1.07 1.52 1.09 0.74 0.33 0.14 0.06 0.05 0.22 0.75 0.89 0.62 0.53 0.41 0.21 0.11 0.05 0.07 0.04 0.04 0.05 0.07 0.10 0.10 0.10 0.25 0.66 1.25 1.21 0.79 0.35 0.34 0.60 0.56 0.70 0.69 0.59 0.70
1.00 0.99 0.87 0.77 0.70 0.45 0.45 0.58 0.82 1.22 1.81 1.16 0.72 0.33 0.18 0.13 0.06 0.14 0.44 0.66 0.52 0.47 0.30 0.10 0.08 0.12 0.10 0.05 0.04 0.04 0.07 0.12 0.27 0.29 0.32 0.63 0.91 1.11 0.64 0.43 0.56 0.98 0.75 0.59 0.37 0.35 0.44
1.21 1.12 0.84 0.72 0.58 0.38 0.32 0.40 0.51 0.73 1.13 1.03 0.73 0.59 0.40 0.20 0.07 0.07 0.20 0.41 0.43 0.38 0.37 0.09 0.10 0.11 0.07 0.05 0.06 0.07 0.14 0.09 0.09 0.19 0.33 0.31 0.55 0.88 0.68 0.56 0.86 0.59 0.51 0.35 0.36 0.36 0.32
1.05 1.01 0.92 0.67 0.49 0.31 0.25 0.36 0.50 0.62 0.89 0.59 0.59 0.56 0.39 0.17 0.06 0.05 0.16 0.36 0.49 0.46 0.52 0.25 0.09 0.07 0.09 0.13 0.22 0.23 0.31 0.37 0.20 0.11 0.05 0.23 0.39 0.63 0.40 0.22 0.19 0.02 0.05 0.17 0.23 0.33 0.18
0.97 0.85 0.83 0.71 0.42 0.30 0.32 0.37 0.45 0.54 0.55 0.38 0.50 0.50 0.52 0.20 0.09 0.03 0.05 0.16 0.45 0.46 0.53 0.41 0.24 0.15 0.25 0.34 0.35 0.36 0.30 0.25 0.24 0.24 0.19 0.07 0.24 0.73 0.38 0.24 0.03 0.00 0.00 0.00 0.03 0.19 0.25
1.25 0.84 0.66 0.59 0.40 0.22 0.26 0.30 0.26 0.34 0.47 0.35 0.47 0.49 0.36 0.20 0.06 0.02 0.03 0.06 0.30 0.53 0.59 0.47 0.41 0.21 0.36 0.63 0.52 0.33 0.13 0.09 0.15 0.21 0.13 0.32 0.34 0.44 0.34 0.33 0.02 0.00 0.00 0.00 0.03 0.11 0.11
1.15 1.07 0.81 0.51 0.32 0.22 0.20 0.25 0.28 0.27 0.51 0.40 0.35 0.38 0.33 0.20 0.08 0.02 0.02 0.04 0.18 0.42 0.61 0.56 0.71 0.50 0.53 0.80 0.74 0.42 0.14 0.06 0.04 0.08 0.04 0.10 0.21 0.23 0.21 0.26 0.04 0.00 0.00 0.01 0.01 0.00 0.00
1.25 0.82 0.68 0.48 0.30 0.24 0.18 0.21 0.25 0.22 0.42 0.51 0.34 0.33 0.34 0.27 0.11 0.03 0.01 0.01 0.05 0.27 0.60 0.60 0.59 0.42 0.52 0.54 0.47 0.38 0.30 0.24 0.10 0.08 0.02 0.03 0.03 0.07 0.05 0.04 0.00 0.00 0.00 0.00 0.00 0.00 0.00

GFSGBSN_prec_precacc_093.txt.gz
Total_Precipitation_Accumulation
0.16 0.16 0.16 0.16 0.14 0.14 0.14 0.19 0.23 0.20 0.20 0.25 0.32 0.36 0.35 0.32 0.31 0.34 0.32 0.28 0.30 0.29 0.29 0.32 0.41 0.66 0.69 0.38 0.11 0.24 0.17 0.17 0.30 0.76 0.56 0.73 0.37 0.13 0.08 0.07 0.25 0.30 0.17 0.22 0.28 0.14 0.07
0.15 0.15 0.16 0.14 0.15 0.17 0.18 0.25 0.26 0.24 0.25 0.30 0.37 0.36 0.31 0.31 0.29 0.32 0.27 0.24 0.31 0.37 0.37 0.33 0.53 0.91 0.62 0.23 0.02 0.07 0.17 0.16 0.34 0.75 0.71 0.81 0.47 0.11 0.08 0.12 0.20 0.14 0.24 0.25 0.20 0.18 0.05
0.16 0.17 0.15 0.14 0.16 0.18 0.21 0.29 0.28 0.26 0.28 0.35 0.39 0.36 0.27 0.35 0.34 0.32 0.28 0.25 0.26 0.31 0.42 0.55 0.85 1.00 0.49 0.08 0.03 0.09 0.15 0.23 0.37 0.65 0.81 0.74 0.40 0.26 0.13 0.17 0.14 0.11 0.35 0.40 0.25 0.17 0.17
0.17 0.17 0.15 0.16 0.16 0.18 0.23 0.28 0.26 0.25 0.31 0.40 0.48 0.39 0.35 0.40 0.36 0.34 0.33 0.29 0.35 0.45 0.62 0.73 1.18 1.06 0.34 0.02 0.03 0.03 0.12 0.23 0.29 0.66 0.74 0.99 0.67 0.31 0.19 0.13 0.21 0.29 0.32 0.39 0.29 0.14 0.11
0.20 0.17 0.15 0.16 0.15 0.19 0.27 0.25 0.25 0.24 0.31 0.46 0.52 0.45 0.43 0.40 0.44 0.45 0.42 0.46 0.55 0.60 0.73 1.21 1.09 0.66 0.16 0.04 0.06 0.03 0.14 0.23 0.26 0.72 0.94 1.61 1.42 0.62 0.29 0.29 0.34 0.30 0.18 0.17 0.21 0.17 0.10
0.20 0.17 0.17 0.17 0.21 0.25 0.28 0.27 0.27 0.28 0.38 0.50 0.51 0.46 0.48 0.57 0.62 0.60 0.63 0.73 1.02 1.00 1.00 1.55 0.94 0.81 0.15 0.05 0.14 0.08 0.22 0.30 0.50 1.13 1.69 2.40 1.69 1.06 0.48 0.39 0.21 0.06 0.03 0.03 0.06 0.10 0.08
0.22 0.21 0.21 0.19 0.23 0.28 0.28 0.29 0.26 0.31 0.37 0.47 0.47 0.47 0.51 0.61 0.82 1.05 1.23 1.63 1.46 1.61 1.18 0.81 0.51 0.40 0.17 0.26 0.39 0.27 0.35 0.56 0.97 1.55 1.66 2.27 1.34 0.91 0.32 0.13 0.03 0.02 0.03 0.02 0.00 0.02 0.04
0.26 0.31 0.30 0.28 0.31 0.36 0.33 0.32 0.31 0.36 0.44 0.46 0.44 0.46 0.52 0.64 0.92 1.26 1.31 1.27 0.79 0.82 0.88 0.41 0.36 0.36 0.23 0.48 0.74 0.58 0.40 0.98 1.00 1.25 1.57 2.10 0.96 0.29 0.31 0.18 0.09 0.06 0.05 0.06 0.03 0.04 0.06
0.34 0.35 0.28 0.31 0.34 0.39 0.36 0.33 0.40 0.45 0.50 0.45 0.41 0.50 0.75 1.00 1.20 1.77 1.15 0.78 0.77 1.00 1.26 0.86 0.55 0.48 0.41 0.84 0.78 0.76 0.55 1.14 0.77 1.01 1.55 1.60 0.59 0.34 0.45 0.45 0.25 0.15 0.04 0.04 0.04 0.02 0.03
0.44 0.44 0.45 0.49 0.44 0.41 0.38 0.40 0.55 0.64 0.59 0.53 0.53 0.78 1.10 1.54 2.03 1.25 1.30 0.97 1.03 1.65 2.23 1.23 0.79 0.60 0.72 0.99 0.99 0.56 1.01 1.36 0.69 1.04 1.34 1.19 0.61 0.55 0.69 0.51 0.28 0.21 0.08 0.03 0.07 0.11 0.09
0.52 0.62 0.70 0.65 0.62 0.54 0.50 0.49 0.49 0.53 0.60 0.63 0.83 1.09 1.32 2.05 2.40 1.35 1.33 1.06 1.31 2.38 2.09 1.10 0.86 0.77 0.78 0.68 0.63 0.76 1.04 1.29 0.52 0.83 1.32 1.21 0.74 0.59 0.90 0.69 0.22 0.25 0.10 0.03 0.10 0.17 0.18
0.68 0.63 0.65 0.68 0.72 0.65 0.60 0.53 0.45 0.40 0.59 0.80 0.79 0.86 1.37 1.98 2.18 1.50 1.42 1.66 2.15 2.59 1.93 1.39 1.24 0.88 0.77 0.58 0.62 0.99 1.11 1.06 0.68 0.88 0.87 0.80 0.64 0.57 0.65 0.72 0.41 0.26 0.25 0.22 0.16 0.42 0.45
0.74 0.65 0.68 0.72 0.70 0.65 0.63 0.54 0.46 0.64 0.74 0.69 0.75 0.80 1.28 1.52 1.77 1.86 2.38 2.24 2.49 1.56 1.13 1.17 1.06 0.82 0.75 0.68 0.80 0.88 1.23 1.01 1.41 1.18 1.39 1.47 0.98 0.59 0.50 0.99 0.90 0.70 0.83 1.06 0.76 0.71 0.45
0.88 0.96 0.88 0.85 0.80 0.72 0.83 0.65 0.67 0.78 0.71 0.77 1.00 1.00 1.30 1.27 1.91 1.93 3.00 2.15 1.52 0.60 0.99 0.90 0.39 0.47 0.53 0.30 0.57 0.73 0.89 0.69 0.59 0.39 0.82 1.12 1.15 0.74 0.55 0.97 1.26 0.80 0.87 0.91 0.39 0.16 0.12
0.83 0.95 1.00 0.97 1.03 0.99 1.00 0.80 0.60 0.59 0.61 1.01 1.05 1.45 2.40 1.37 1.96 2.52 2.74 2.08 0.95 0.86 1.02 0.63 0.50 0.41 0.38 0.27 0.57 0.63 0.64 0.30 0.24 0.15 0.60 0.66 0.61 0.42 0.36 0.46 0.80 1.03 1.00 0.50 0.52 0.26 0.25
0.93 0.88 1.04 1.13 1.12 1.14 1.04 0.83 0.74 0.69 0.90 1.25 1.24 1.53 2.21 1.49 1.72 3.31 3.06 1.72 0.91 0.73 0.51 0.31 0.36 0.22 0.15 0.21 0.50 0.45 0.44 0.16 0.09 0.02 0.20 0.47 0.76 0.50 0.55 0.61 0.76 0.84 0.47 0.61 1.07 0.58 0.22
1.07 1.06 1.04 1.19 1.20 1.19 1.10 0.87 0.77 1.02 1.15 1.14 1.04 2.10 1.55 1.97 2.45 3.74 2.86 1.54 0.79 0.38 0.43 0.35 0.11 0.11 0.05 0.05 0.30 0.21 0.21 0.09 0.03 0.01 0.13 0.54 0.82 0.67 0.81 0.87 0.60 0.82 1.04 0.56 0.46 0.24 0.27
1.12 1.25 1.21 1.20 1.22 1.12 1.16 0.87 0.58 1.00 1.18 1.16 1.18 1.59 1.52 2.25 3.30 2.57 2.04 1.62 0.77 0.37 0.38 0.36 0.16 0.06 0.05 0.03 0.18 0.13 0.07 0.06 0.02 0.04 0.17 0.45 0.88 0.73 0.39 0.32 0.10 0.36 0.39 0.37 0.62 0.25 0.33
0.91 1.09 1.25 1.27 1.15 1.07 1.16 0.96 0.56 0.82 1.74 2.02 1.46 1.67 2.35 1.54 1.55 1.32 1.60 1.17 0.64 0.39 0.37 0.35 0.11 0.04 0.02 0.04 0.08 0.03 0.06 0.01 0.03 0.11 0.25 0.58 1.12 0.89 0.55 0.87 0.48 0.64 0.39 0.56 0.81 0.91 0.77
1.24 1.04 1.12 1.08 1.09 1.03 1.09 0.70 0.51 0.70 1.13 1.55 1.36 1.58 3.08 2.12 0.80 0.96 1.16 0.99 0.69 0.35 0.28 0.30 0.15 0.07 0.06 0.05 0.03 0.02 0.07 0.03 0.01 0.08 0.29 0.83 0.97 0.64 0.44 0.63 0.65 0.45 0.28 0.60 1.52 1.67 0.43
1.33 1.20 1.09 1.06 1.05 0.98 0.91 0.69 0.64 0.79 0.82 1.08 0.91 0.56 0.67 0.76 0.53 0.52 0.87 0.75 0.61 0.52 0.32 0.28 0.19 0.09 0.06 0.06 0.03 0.03 0.04 0.04 0.06 0.06 0.27 1.07 1.39 0.99 0.40 0.16 0.54 0.53 0.40 0.56 1.21 0.84 0.96
1.22 1.27 1.12 1.26 1.04 0.92 0.82 0.70 0.70 1.07 1.52 1.09 0.74 0.33 0.14 0.06 0.05 0.22 0.75 0.89 0.62 0.53 0.41 0.21 0.11 0.05 0.07 0.04 0.04 0.05 0.07 0.10 0.10 0.10 0.26 0.74 1.34 1.26 0.82 0.36 0.36 0.61 0.57 0.71 0.69 0.59 0.70
1.06 1.07 1.03 1.05 1.14 0.93 0.71 0.62 0.82 1.22 1.81 1.16 0.72 0.33 0.18 0.13 0.06 0.14 0.44 0.66 0.52 0.47 0.30 0.10 0.08 0.12 0.10 0.05 0.04 0.04 0.07 0.12 0.27 0.29 0.32 0.65 0.94 1.14 0.71 0.48 0.66 1.09 0.77 0.59 0.37 0.35 0.44
1.24 1.21 0.94 0.86 0.89 0.87 0.63 0.42 0.51 0.73 1.13 1.03 0.73 0.59 0.40 0.20 0.07 0.07 0.20 0.41 0.43 0.38 0.37 0.09 0.10 0.11 0.07 0.05 0.06 0.07 0.14 0.09 0.09 0.19 0.33 0.31 0.55 0.88 0.75 0.71 0.94 0.60 0.51 0.35 0.36 0.36 0.32
1.06 1.04 0.98 0.83 0.73 0.67 0.53 0.40 0.50 0.62 0.89 0.59 0.59 0.56 0.39 0.17 0.06 0.05 0.16 0.36 0.49 0.46 0.52 0.25 0.09 0.07 0.09 0.13 0.22 0.23 0.31 0.37 0.20 0.11 0.05 0.23 0.39 0.63 0.46 0.36 0.21 0.02 0.05 0.17 0.23 0.33 0.18
0.99 0.90 0.96 1.12 0.81 0.59 0.54 0.42 0.45 0.54 0.55 0.38 0.50 0.50 0.52 0.20 0.09 0.03 0.05 0.16 0.45 0.46 0.53 0.41 0.24 0.15 0.25 0.34 0.35 0.36 0.30 0.25 0.24 0.28 0.20 0.07 0.24 0.73 0.40 0.34 0.08 0.00 0.00 0.00 0.03 0.19 0.25
1.28 0.95 0.75 0.85 1.01 0.63 0.49 0.38 0.27 0.34 0.47 0.35 0.47 0.49 0.36 0.20 0.06 0.02 0.03 0.06 0.30 0.53 0.59 0.47 0.41 0.21 0.36 0.63 0.52 0.33 0.13 0.09 0.15 0.22 0.14 0.34 0.36 0.45 0.35 0.37 0.03 0.00 0.00 0.00 0.03 0.12 0.11
1.22 1.23 1.10 0.65 0.58 0.64 0.46 0.30 0.28 0.27 0.51 0.40 0.35 0.38 0.33 0.20 0.08 0.02 0.02 0.04 0.18 0.42 0.61 0.56 0.71 0.50 0.53 0.80 0.74 0.42 0.14 0.06 0.04 0.08 0.04 0.10 0.21 0.24 0.22 0.27 0.04 0.00 0.00 0.01 0.01 0.00 0.00
1.29 0.91 0.89 0.82 0.55 0.43 0.33 0.23 0.25 0.22 0.42 0.51 0.34 0.33 0.34 0.27 0.11 0.03 0.01 0.01 0.05 0.27 0.60 0.60 0.59 0.42 0.52 0.54 0.47 0.38 0.30 0.24 0.10 0.08 0.02 0.03 0.03 0.08 0.07 0.05 0.01 0.00 0.00 0.00 0.00 0.00 0.00

GFSGBSN_prec_precacc_099.txt.gz
Total_Precipitation_Accumulation
0.23 0.23 0.22 0.22 0.21 0.18 0.17 0.22 0.24 0.20 0.20 0.25 0.32 0.36 0.35 0.32 0.31 0.34 0.32 0.28 0.30 0.29 0.29 0.32 0.41 0.66 0.69 0.38 0.11 0.24 0.17 0.17 0.30 0.76 0.67 0.89 0.41 0.17 0.12 0.24 0.91 0.91 0.74 0.30 0.35 0.18 0.08
0.23 0.24 0.24 0.20 0.22 0.23 0.23 0.27 0.29 0.25 0.25 0.30 0.37 0.37 0.31 0.31 0.29 0.32 0.27 0.24 0.31 0.37 0.37 0.33 0.53 0.91 0.62 0.23 0.02 0.07 0.17 0.16 0.34 0.76 0.74 0.97 0.52 0.12 0.10 0.22 0.49 0.70 0.99 0.39 0.29 0.24 0.08
0.22 0.25 0.23 0.20 0.23 0.26 0.28 0.33 0.31 0.29 0.29 0.35 0.39 0.36 0.27 0.35 0.34 0.32 0.28 0.25 0.26 0.31 0.42 0.55 0.85 1.00 0.49 0.08 0.03 0.09 0.15 0.23 0.37 0.66 0.89 0.90 0.46 0.27 0.13 0.22 0.18 0.43 1.07 0.73 0.32 0.32 0.23
0.22 0.23 0.22 0.23 0.24 0.27 0.32 0.36 0.32 0.31 0.32 0.40 0.48 0.40 0.35 0.40 0.36 0.34 0.33 0.29 0.35 0.45 0.62 0.73 1.18 1.06 0.34 0.02 0.03 0.03 0.12 0.23 0.29 0.67 0.75 1.03 0.73 0.32 0.20 0.14 0.22 0.37 0.73 0.96 0.43 0.37 0.33
0.23 0.22 0.21 0.23 0.24 0.31 0.40 0.38 0.33 0.30 0.34 0.47 0.52 0.45 0.43 0.40 0.44 0.45 0.42 0.46 0.55 0.60 0.73 1.21 1.09 0.66 0.16 0.04 0.06 0.03 0.14 0.23 0.26 0.72 0.94 1.61 1.42 0.63 0.29 0.29 0.34 0.31 0.27 0.47 0.48 0.32 0.44
0.21 0.21 0.23 0.25 0.29 0.37 0.43 0.41 0.39 0.38 0.46 0.52 0.51 0.46 0.48 0.57 0.62 0.60 0.63 0.73 1.02 1.00 1.00 1.55 0.94 0.81 0.15 0.05 0.14 0.08 0.22 0.30 0.50 1.13 1.69 2.40 1.69 1.06 0.48 0.39 0.21 0.06 0.03 0.06 0.19 0.23 0.31
0.22 0.22 0.25 0.25 0.30 0.37 0.39 0.41 0.40 0.44 0.44 0.49 0.48 0.47 0.51 0.61 0.82 1.05 1.23 1.63 1.46 1.61 1.18 0.81 0.51 0.40 0.17 0.26 0.39 0.27 0.35 0.56 0.97 1.55 1.66 2.27 1.34 0.91 0.32 0.13 0.03 0.02 0.03 0.02 0.01 0.06 0.13
0.26 0.31 0.31 0.35 0.40 0.47 0.46 0.45 0.48 0.54 0.56 0.53 0.45 0.46 0.52 0.64 0.92 1.26 1.31 1.27 0.79 0.82 0.88 0.41 0.36 0.36 0.23 0.48 0.74 0.58 0.40 0.98 1.00 1.25 1.57 2.10 0.96 0.29 0.31 0.18 0.09 0.06 0.05 0.06 0.04 0.05 0.09
0.34 0.35 0.28 0.35 0.44 0.51 0.51 0.49 0.60 0.64 0.67 0.57 0.44 0.50 0.75 1.00 1.20 1.77 1.15 0.78 0.77 1.00 1.26 0.86 0.55 0.48 0.41 0.84 0.78 0.76 0.55 1.14 0.77 1.01 1.55 1.60 0.59 0.34 0.45 0.45 0.25 0.15 0.04 0.04 0.05 0.03 0.06
0.44 0.44 0.45 0.51 0.52 0.52 0.54 0.63 0.84 0.94 0.92 0.77 0.61 0.78 1.10 1.54 2.03 1.25 1.30 0.97 1.03 1.65 2.23 1.23 0.79 0.60 0.72 0.99 0.99 0.56 1.01 1.36 0.69 1.04 1.34 1.19 0.61 0.55 0.69 0.51 0.28 0.21 0.08 0.03 0.07 0.11 0.10
0.52 0.62 0.70 0.66 0.70 0.70 0.67 0.78 0.87 0.92 1.00 0.94 0.97 1.11 1.32 2.05 2.40 1.35 1.33 1.06 1.31 2.38 2.09 1.10 0.86 0.77 0.78 0.68 0.63 0.76 1.04 1.29 0.52 0.83 1.32 1.21 0.74 0.59 0.90 0.69 0.22 0.25 0.10 0.04 0.11 0.17 0.18
0.68 0.63 0.65 0.68 0.75 0.80 0.78 0.81 0.79 0.76 0.96 1.12 0.94 0.88 1.37 1.98 2.18 1.50 1.42 1.66 2.15 2.59 1.93 1.39 1.24 0.88 0.77 0.58 0.62 0.99 1.11 1.06 0.68 0.88 0.87 0.80 0.64 0.57 0.65 0.72 0.41 0.26 0.25 0.22 0.18 0.45 0.47
0.75 0.65 0.68 0.72 0.73 0.76 0.79 0.84 0.90 1.03 1.06 0.94 0.87 0.83 1.28 1.52 1.77 1.86 2.38 2.24 2.49 1.56 1.13 1.17 1.06 0.82 0.75 0.68 0.80 0.88 1.23 1.01 1.41 1.18 1.39 1.47 0.98 0.59 0.50 0.99 0.90 0.70 0.87 1.11 0.82 0.90 0.50
0.88 0.96 0.88 0.85 0.83 0.84 0.99 0.95 1.12 1.26 1.11 1.06 1.10 1.02 1.30 1.27 1.91 1.93 3.00 2.15 1.52 0.60 0.99 0.90 0.39 0.47 0.53 0.30 0.57 0.73 0.89 0.69 0.59 0.39 0.82 1.12 1.15 0.74 0.55 0.97 1.26 0.81 0.92 0.99 0.40 0.17 0.14
0.85 0.96 1.01 0.97 1.05 1.10 1.21 1.06 1.00 1.10 1.15 1.38 1.20 1.46 2.40 1.37 1.96 2.52 2.74 2.08 0.95 0.86 1.02 0.63 0.50 0.41 0.38 0.27 0.57 0.63 0.64 0.30 0.24 0.15 0.61 0.66 0.61 0.42 0.36 0.46 0.81 1.04 1.01 0.53 0.57 0.27 0.25
0.95 0.90 1.06 1.14 1.13 1.24 1.24 1.09 1.14 1.15 1.40 1.56 1.39 1.55 2.21 1.49 1.72 3.31 3.06 1.72 0.91 0.73 0.51 0.31 0.36 0.22 0.15 0.21 0.50 0.45 0.44 0.16 0.09 0.02 0.20 0.47 0.78 0.50 0.56 0.64 0.78 0.84 0.48 0.63 1.10 0.63 0.22
1.19 1.15 1.10 1.21 1.21 1.27 1.30 1.18 1.19 1.47 1.67 1.42 1.14 2.15 1.55 1.97 2.45 3.74 2.86 1.54 0.79 0.38 0.43 0.35 0.11 0.11 0.05 0.05 0.30 0.21 0.21 0.09 0.03 0.01 0.13 0.56 0.89 0.70 0.88 0.90 0.61 0.84 1.05 0.56 0.46 0.25 0.27
1.20 1.34 1.28 1.22 1.26 1.21 1.40 1.32 1.09 1.47 1.68 1.51 1.26 1.61 1.52 2.25 3.31 2.58 2.04 1.62 0.77 0.37 0.38 0.36 0.16 0.06 0.05 0.03 0.18 0.13 0.07 0.06 0.03 0.04 0.19 0.54 1.02 0.82 0.41 0.38 0.15 0.41 0.43 0.39 0.62 0.26 0.33
1.02 1.20 1.31 1.31 1.22 1.21 1.34 1.48 1.23 1.37 2.15 2.24 1.55 1.71 2.39 1.54 1.56 1.34 1.60 1.17 0.64 0.39 0.37 0.35 0.11 0.04 0.02 0.04 0.08 0.03 0.06 0.01 0.03 0.11 0.29 0.65 1.34 1.07 0.64 0.94 0.62 0.77 0.41 0.57 0.81 0.92 0.77
1.30 1.09 1.18 1.14 1.17 1.18 1.29 1.12 1.12 1.22 1.49 1.75 1.44 1.59 3.11 2.13 0.81 0.98 1.16 0.99 0.69 0.35 0.28 0.30 0.15 0.07 0.06 0.05 0.03 0.02 0.07 0.03 0.01 0.08 0.30 0.86 1.04 0.83 0.62 0.82 0.84 0.62 0.40 0.63 1.55 1.73 0.44
1.37 1.26 1.19 1.15 1.19 1.17 1.27 1.14 1.08 1.13 1.12 1.30 0.94 0.56 0.67 0.76 0.54 0.53 0.87 0.75 0.61 0.52 0.32 0.28 0.19 0.09 0.06 0.06 0.03 0.03 0.04 0.04 0.06 0.06 0.27 1.08 1.40 1.01 0.43 0.17 0.67 0.68 0.51 0.75 1.43 0.87 0.98
1.29 1.38 1.37 1.60 1.35 1.25 1.21 1.34 1.10 1.36 1.78 1.27 0.75 0.33 0.14 0.06 0.05 0.23 0.75 0.89 0.62 0.53 0.41 0.21 0.11 0.05 0.07 0.04 0.04 0.05 0.07 0.10 0.10 0.10 0.26 0.74 1.34 1.29 0.83 0.36 0.36 0.62 0.61 0.81 0.83 0.73 0.77
1.13 1.19 1.25 1.33 1.41 1.26 1.07 1.26 1.26 1.48 2.08 1.28 0.72 0.33 0.18 0.13 0.06 0.14 0.44 0.66 0.52 0.47 0.30 0.10 0.08 0.12 0.10 0.05 0.04 0.04 0.07 0.12 0.27 0.29 0.32 0.65 0.94 1.14 0.71 0.48 0.69 1.12 0.77 0.59 0.37 0.37 0.48
1.27 1.24 0.98 0.98 1.03 1.16 1.07 0.99 0.93 0.97 1.23 1.05 0.73 0.59 0.40 0.20 0.07 0.07 0.20 0.41 0.43 0.38 0.37 0.09 0.10 0.11 0.07 0.05 0.06 0.07 0.14 0.09 0.09 0.19 0.33 0.31 0.55 0.89 0.75 0.73 1.02 0.62 0.51 0.35 0.36 0.36 0.32
1.08 1.06 1.01 0.85 0.83 0.93 0.96 1.03 0.80 0.75 0.92 0.60 0.59 0.56 0.39 0.17 0.06 0.05 0.16 0.36 0.49 0.46 0.52 0.25 0.09 0.07 0.09 0.13 0.22 0.23 0.31 0.37 0.20 0.11 0.05 0.23 0.39 0.63 0.46 0.38 0.25 0.02 0.05 0.17 0.23 0.33 0.18
1.00 0.91 0.99 1.14 0.89 0.76 0.81 0.84 0.73 0.68 0.60 0.38 0.50 0.50 0.52 0.20 0.09 0.03 0.05 0.16 0.45 0.46 0.53 0.41 0.24 0.15 0.25 0.34 0.35 0.36 0.30 0.25 0.25 0.29 0.20 0.07 0.24 0.73 0.40 0.36 0.09 0.00 0.00 0.00 0.03 0.19 0.25
1.29 0.95 0.76 0.86 1.07 0.85 0.83 0.75 0.56 0.60 0.51 0.35 0.47 0.49 0.36 0.20 0.06 0.02 0.03 0.06 0.30 0.53 0.59 0.47 0.41 0.21 0.36 0.63 0.52 0.33 0.13 0.09 0.15 0.22 0.14 0.34 0.36 0.45 0.35 0.37 0.03 0.00 0.00 0.00 0.03 0.12 0.11
1.22 1.23 1.10 0.66 0.60 0.84 0.95 0.80 0.60 0.49 0.54 0.40 0.35 0.38 0.33 0.20 0.08 0.02 0.02 0.04 0.18 0.42 0.61 0.56 0.71 0.50 0.53 0.80 0.74 0.42 0.14 0.06 0.04 0.08 0.04 0.10 0.22 0.24 0.22 0.27 0.04 0.00 0.00 0.01 0.01 0.00 0.00
1.29 0.91 0.90 0.83 0.57 0.52 0.76 0.79 0.66 0.40 0.45 0.51 0.34 0.33 0.34 0.27 0.11 0.03 0.01 0.01 0.05 0.27 0.60 0.60 0.59 0.42 0.52 0.54 0.47 0.38 0.30 0.24 0.10 0.08 0.02 0.03 0.03 0.09 0.08 0.05 0.01 0.01 0.00 0.00 0.00 0.00 0.00

GFSGBSN_prec_precacc_105.txt.gz
Total_Precipitation_Accumulation
0.25 0.25 0.24 0.24 0.24 0.23 0.21 0.26 0.31 0.26 0.27 0.35 0.38 0.39 0.36 0.32 0.31 0.34 0.32 0.28 0.30 0.29 0.29 0.32 0.41 0.66 0.69 0.38 0.11 0.24 0.17 0.17 0.30 0.78 0.76 0.94 0.51 0.27 0.15 0.24 1.13 1.35 1.17 0.68 0.69 0.35 0.22
0.25 0.25 0.25 0.21 0.23 0.25 0.26 0.31 0.34 0.33 0.33 0.38 0.46 0.44 0.33 0.32 0.29 0.32 0.27 0.24 0.31 0.37 0.37 0.33 0.53 0.91 0.62 0.23 0.02 0.07 0.17 0.16 0.34 0.76 0.76 1.03 0.58 0.18 0.11 0.24 0.66 1.13 1.52 0.90 0.73 0.56 0.17
0.22 0.25 0.23 0.21 0.24 0.26 0.29 0.39 0.39 0.36 0.37 0.43 0.48 0.44 0.32 0.37 0.34 0.32 0.28 0.25 0.26 0.31 0.42 0.55 0.85 1.00 0.49 0.08 0.03 0.09 0.15 0.23 0.37 0.66 0.89 0.90 0.47 0.28 0.13 0.24 0.25 0.73 1.64 1.32 0.77 0.77 0.32
0.23 0.23 0.22 0.23 0.24 0.28 0.33 0.39 0.38 0.37 0.39 0.48 0.58 0.50 0.41 0.42 0.36 0.34 0.33 0.29 0.35 0.45 0.62 0.73 1.18 1.06 0.34 0.02 0.03 0.03 0.12 0.23 0.29 0.67 0.75 1.03 0.73 0.32 0.20 0.15 0.26 0.48 1.31 1.66 0.93 0.69 0.49
0.23 0.22 0.21 0.23 0.24 0.31 0.40 0.38 0.36 0.35 0.42 0.58 0.67 0.59 0.49 0.43 0.45 0.45 0.42 0.46 0.55 0.60 0.73 1.21 1.09 0.66 0.16 0.04 0.06 0.03 0.14 0.23 0.26 0.72 0.94 1.61 1.42 0.63 0.30 0.31 0.38 0.36 0.52 0.97 1.09 0.73 0.63
0.22 0.22 0.24 0.25 0.29 0.37 0.43 0.41 0.41 0.44 0.55 0.69 0.70 0.61 0.57 0.60 0.63 0.61 0.63 0.73 1.02 1.00 1.00 1.55 0.94 0.81 0.15 0.05 0.14 0.08 0.22 0.30 0.50 1.13 1.69 2.40 1.69 1.06 0.48 0.39 0.22 0.08 0.10 0.23 0.54 0.69 0.55
0.23 0.23 0.26 0.25 0.31 0.37 0.39 0.41 0.41 0.48 0.53 0.60 0.61 0.60 0.62 0.65 0.84 1.06 1.23 1.63 1.46 1.61 1.18 0.81 0.51 0.40 0.17 0.26 0.39 0.27 0.35 0.56 0.97 1.55 1.66 2.27 1.34 0.91 0.32 0.13 0.03 0.02 0.04 0.07 0.14 0.24 0.43
0.28 0.32 0.32 0.35 0.41 0.47 0.47 0.46 0.48 0.55 0.62 0.62 0.60 0.62 0.64 0.68 0.94 1.27 1.31 1.27 0.79 0.82 0.88 0.41 0.36 0.36 0.23 0.48 0.74 0.58 0.40 0.98 1.00 1.25 1.57 2.10 0.96 0.29 0.31 0.18 0.09 0.06 0.05 0.07 0.09 0.13 0.18
0.36 0.36 0.29 0.36 0.45 0.52 0.51 0.50 0.60 0.65 0.68 0.66 0.63 0.72 0.90 1.08 1.25 1.80 1.16 0.78 0.77 1.00 1.26 0.86 0.55 0.48 0.41 0.84 0.78 0.76 0.55 1.14 0.77 1.01 1.55 1.60 0.59 0.34 0.45 0.45 0.25 0.15 0.04 0.04 0.06 0.08 0.09
0.46 0.46 0.46 0.53 0.53 0.54 0.55 0.63 0.84 0.94 0.93 0.88 0.90 1.16 1.34 1.68 2.08 1.26 1.30 0.97 1.03 1.65 2.23 1.23 0.79 0.60 0.72 0.99 0.99 0.56 1.01 1.36 0.69 1.04 1.34 1.19 0.61 0.55 0.69 0.51 0.28 0.21 0.08 0.03 0.07 0.12 0.11
0.54 0.64 0.72 0.68 0.73 0.72 0.70 0.80 0.88 0.92 1.00 1.06 1.26 1.47 1.60 2.25 2.53 1.39 1.33 1.06 1.31 2.38 2.09 1.10 0.86 0.77 0.78 0.68 0.63 0.76 1.04 1.29 0.52 0.83 1.32 1.21 0.74 0.59 0.90 0.69 0.22 0.25 0.10 0.04 0.11 0.17 0.18
0.69 0.66 0.67 0.70 0.77 0.83 0.82 0.83 0.81 0.76 0.96 1.19 1.15 1.12 1.61 2.14 2.26 1.53 1.42 1.66 2.15 2.59 1.93 1.39 1.24 0.88 0.77 0.58 0.62 0.99 1.11 1.06 0.68 0.88 0.87 0.80 0.64 0.57 0.65 0.72 0.41 0.26 0.25 0.23 0.18 0.46 0.49
0.77 0.67 0.71 0.75 0.76 0.78 0.82 0.88 0.92 1.03 1.06 0.98 1.04 1.10 1.54 1.67 1.86 1.87 2.38 2.24 2.49 1.57 1.13 1.17 1.06 0.82 0.75 0.68 0.80 0.88 1.23 1.01 1.41 1.18 1.39 1.47 0.98 0.59 0.50 0.99 0.90 0.70 0.87 1.13 0.86 0.94 0.51
0.91 0.99 0.91 0.88 0.86 0.86 1.04 1.00 1.15 1.26 1.12 1.16 1.27 1.27 1.54 1.37 1.95 1.93 3.00 2.15 1.54 0.62 0.99 0.90 0.39 0.47 0.53 0.30 0.57 0.73 0.89 0.69 0.59 0.39 0.82 1.12 1.15 0.74 0.55 0.97 1.27 0.84 0.96 0.99 0.40 0.17 0.14
0.88 0.99 1.04 1.00 1.09 1.16 1.29 1.13 1.05 1.11 1.20 1.63 1.58 1.69 2.61 1.46 1.98 2.52 2.74 2.08 0.97 0.86 1.02 0.63 0.50 0.41 0.38 0.27 0.57 0.63 0.64 0.30 0.24 0.15 0.61 0.66 0.61 0.42 0.36 0.47 0.83 1.09 1.06 0.56 0.61 0.29 0.25
0.98 0.94 1.10 1.20 1.19 1.30 1.32 1.19 1.19 1.16 1.47 1.83 1.78 1.86 2.44 1.56 1.73 3.31 3.07 1.72 0.92 0.73 0.51 0.31 0.36 0.22 0.15 0.21 0.50 0.45 0.44 0.16 0.09 0.02 0.20 0.47 0.78 0.50 0.56 0.66 0.82 0.89 0.54 0.70 1.18 0.75 0.26
1.22 1.20 1.17 1.28 1.28 1.33 1.40 1.29 1.22 1.47 1.74 1.70 1.41 2.39 1.76 2.04 2.46 3.75 2.88 1.54 0.79 0.38 0.43 0.35 0.11 0.11 0.05 0.05 0.30 0.21 0.21 0.09 0.03 0.01 0.13 0.56 0.92 0.70 0.90 0.94 0.64 0.91 1.12 0.62 0.51 0.28 0.28
1.23 1.43 1.44 1.43 1.44 1.32 1.50 1.39 1.12 1.48 1.78 1.86 1.55 1.86 1.64 2.32 3.33 2.59 2.06 1.63 0.77 0.37 0.38 0.36 0.16 0.06 0.05 0.03 0.18 0.13 0.07 0.06 0.03 0.04 0.19 0.54 1.05 0.83 0.41 0.41 0.21 0.48 0.55 0.64 0.74 0.29 0.33
1.08 1.29 1.45 1.50 1.32 1.26 1.38 1.52 1.24 1.39 2.33 2.50 1.80 2.00 2.62 1.66 1.57 1.36 1.63 1.17 0.64 0.39 0.37 0.35 0.11 0.04 0.02 0.04 0.08 0.03 0.06 0.01 0.03 0.11 0.29 0.66 1.36 1.09 0.64 0.97 0.66 0.82 0.49 0.71 1.17 1.14 0.79
1.36 1.17 1.23 1.18 1.25 1.24 1.31 1.13 1.13 1.25 1.72 2.14 1.78 1.88 3.40 2.31 0.83 0.99 1.18 1.00 0.69 0.35 0.28 0.30 0.15 0.07 0.06 0.05 0.03 0.02 0.07 0.03 0.01 0.08 0.30 0.86 1.04 0.84 0.62 0.85 0.88 0.64 0.44 0.73 1.74 2.06 0.56
1.40 1.29 1.21 1.21 1.27 1.30 1.54 1.21 1.09 1.20 1.35 1.76 1.37 0.71 0.73 0.81 0.57 0.54 0.88 0.75 0.61 0.52 0.32 0.28 0.19 0.09 0.06 0.06 0.03 0.03 0.04 0.04 0.06 0.06 0.27 1.08 1.40 1.01 0.43 0.17 0.67 0.68 0.52 0.76 1.52 0.99 1.07
1.32 1.41 1.43 1.74 1.58 1.83 1.94 1.51 1.22 1.49 2.09 1.73 1.02 0.38 0.15 0.08 0.07 0.25 0.76 0.89 0.63 0.53 0.41 0.21 0.11 0.05 0.07 0.04 0.04 0.05 0.07 0.10 0.10 0.10 0.26 0.74 1.34 1.29 0.83 0.36 0.36 0.62 0.61 0.81 0.83 0.77 0.84
1.15 1.21 1.30 1.38 1.53 1.50 1.32 1.42 1.59 1.72 2.42 1.67 0.90 0.35 0.19 0.14 0.06 0.15 0.45 0.66 0.52 0.47 0.30 0.10 0.08 0.12 0.10 0.05 0.04 0.04 0.07 0.12 0.27 0.29 0.32 0.65 0.94 1.14 0.71 0.48 0.70 1.12 0.77 0.59 0.37 0.37 0.49
1.28 1.25 1.01 1.01 1.09 1.30 1.36 1.34 1.24 1.18 1.42 1.16 0.80 0.60 0.40 0.20 0.07 0.07 0.20 0.41 0.43 0.38 0.37 0.09 0.10 0.11 0.07 0.05 0.06 0.07 0.14 0.09 0.09 0.19 0.33 0.31 0.55 0.89 0.75 0.73 1.02 0.62 0.51 0.35 0.36 0.36 0.32
1.09 1.07 1.03 0.87 0.85 0.97 1.13 1.36 0.97 0.86 1.01 0.68 0.61 0.56 0.39 0.17 0.07 0.05 0.16 0.36 0.49 0.46 0.52 0.25 0.09 0.07 0.09 0.13 0.22 0.23 0.31 0.37 0.20 0.11 0.05 0.23 0.39 0.63 0.46 0.38 0.25 0.02 0.05 0.17 0.23 0.37 0.19
1.01 0.92 1.00 1.15 0.90 0.77 0.92 1.08 0.82 0.71 0.64 0.42 0.51 0.50 0.52 0.20 0.09 0.03 0.05 0.16 0.45 0.46 0.53 0.41 0.24 0.15 0.25 0.34 0.35 0.36 0.30 0.25 0.25 0.29 0.20 0.07 0.24 0.73 0.40 0.36 0.09 0.00 0.00 0.00 0.03 0.21 0.29
1.31 0.96 0.77 0.86 1.07 0.85 0.89 1.02 0.81 0.66 0.58 0.37 0.47 0.49 0.36 0.20 0.06 0.02 0.03 0.06 0.30 0.53 0.59 0.47 0.41 0.21 0.36 0.63 0.52 0.33 0.13 0.09 0.15 0.22 0.14 0.34 0.36 0.45 0.35 0.37 0.03 0.00 0.00 0.00 0.03 0.12 0.11
1.25 1.25 1.11 0.66 0.60 0.84 0.99 1.06 1.05 0.73 0.66 0.41 0.36 0.38 0.33 0.20 0.08 0.02 0.02 0.04 0.18 0.42 0.61 0.56 0.71 0.50 0.53 0.80 0.74 0.42 0.14 0.06 0.04 0.08 0.04 0.10 0.22 0.24 0.22 0.27 0.04 0.00 0.00 0.01 0.01 0.00 0.00
1.31 0.93 0.91 0.83 0.57 0.53 0.78 0.88 1.03 0.72 0.61 0.53 0.34 0.33 0.34 0.27 0.11 0.03 0.01 0.01 0.05 0.27 0.60 0.60 0.59 0.42 0.52 0.54 0.47 0.38 0.30 0.24 0.10 0.08 0.02 0.03 0.03 0.09 0.08 0.05 0.01 0.01 0.00 0.00 0.00 0.00 0.00

GFSGBSN_prec_precacc_108.txt.gz
Total_Precipitation_Accumulation
0.25 0.26 0.25 0.25 0.25 0.23 0.21 0.26 0.31 0.26 0.28 0.36 0.40 0.43 0.39 0.34 0.32 0.35 0.32 0.28 0.30 0.29 0.29 0.32 0.41 0.66 0.69 0.38 0.11 0.24 0.17 0.17 0.30 0.78 0.76 0.97 0.59 0.37 0.20 0.25 1.13 1.36 1.18 0.71 0.77 0.55 0.37
0.25 0.26 0.26 0.22 0.23 0.25 0.26 0.31 0.34 0.34 0.33 0.38 0.47 0.47 0.37 0.35 0.30 0.32 0.27 0.24 0.31 0.37 0.37 0.33 0.53 0.91 0.62 0.23 0.02 0.07 0.17 0.16 0.34 0.76 0.76 1.03 0.60 0.23 0.12 0.24 0.66 1.13 1.52 0.90 0.75 0.64 0.25
0.23 0.26 0.24 0.22 0.24 0.26 0.29 0.39 0.39 0.36 0.37 0.43 0.48 0.46 0.37 0.39 0.35 0.32 0.28 0.25 0.26 0.31 0.42 0.55 0.85 1.00 0.49 0.08 0.03 0.09 0.15 0.23 0.37 0.66 0.89 0.91 0.48 0.30 0.13 0.24 0.25 0.73 1.64 1.32 0.78 0.83 0.39
0.23 0.24 0.23 0.24 0.24 0.28 0.33 0.39 0.38 0.37 0.39 0.48 0.58 0.52 0.46 0.47 0.37 0.34 0.33 0.29 0.35 0.45 0.62 0.73 1.18 1.06 0.34 0.02 0.03 0.03 0.12 0.23 0.29 0.67 0.75 1.03 0.74 0.33 0.21 0.16 0.26 0.48 1.31 1.67 0.94 0.91 0.69
0.24 0.23 0.22 0.24 0.25 0.32 0.41 0.38 0.36 0.35 0.42 0.58 0.67 0.59 0.54 0.47 0.46 0.45 0.42 0.46 0.55 0.60 0.73 1.21 1.09 0.66 0.16 0.04 0.06 0.03 0.14 0.23 0.26 0.72 0.94 1.61 1.43 0.64 0.31 0.32 0.38 0.36 0.52 0.97 1.09 0.81 0.87
0.23 0.23 0.25 0.26 0.30 0.38 0.44 0.42 0.41 0.44 0.55 0.69 0.70 0.61 0.59 0.63 0.64 0.61 0.63 0.73 1.02 1.00 1.00 1.55 0.94 0.81 0.15 0.05 0.14 0.08 0.22 0.30 0.50 1.13 1.69 2.40 1.70 1.08 0.48 0.39 0.22 0.08 0.11 0.24 0.55 0.71 0.68
0.25 0.25 0.27 0.27 0.32 0.38 0.40 0.42 0.41 0.48 0.53 0.60 0.61 0.60 0.62 0.66 0.85 1.06 1.23 1.63 1.46 1.61 1.18 0.81 0.51 0.40 0.17 0.26 0.39 0.27 0.35 0.56 0.97 1.55 1.66 2.27 1.34 0.91 0.32 0.13 0.03 0.02 0.04 0.07 0.15 0.26 0.51
0.29 0.33 0.33 0.38 0.43 0.49 0.48 0.47 0.49 0.55 0.62 0.62 0.60 0.62 0.64 0.69 0.94 1.27 1.31 1.27 0.79 0.82 0.88 0.41 0.36 0.36 0.23 0.48 0.74 0.58 0.40 0.98 1.00 1.25 1.57 2.10 0.97 0.29 0.31 0.18 0.09 0.06 0.05 0.07 0.09 0.15 0.23
0.37 0.37 0.30 0.37 0.46 0.54 0.53 0.52 0.61 0.65 0.68 0.66 0.63 0.72 0.94 1.10 1.25 1.80 1.16 0.78 0.77 1.00 1.26 0.86 0.55 0.48 0.41 0.84 0.78 0.76 0.55 1.14 0.77 1.01 1.55 1.60 0.59 0.34 0.45 0.45 0.25 0.15 0.04 0.04 0.06 0.10 0.11
0.46 0.47 0.47 0.53 0.54 0.55 0.56 0.66 0.87 0.94 0.93 0.88 0.90 1.17 1.39 1.72 2.09 1.26 1.30 0.97 1.03 1.65 2.23 1.23 0.79 0.60 0.72 0.99 0.99 0.56 1.01 1.36 0.69 1.04 1.34 1.19 0.61 0.55 0.69 0.51 0.28 0.21 0.08 0.03 0.07 0.13 0.13
0.54 0.65 0.72 0.69 0.73 0.73 0.71 0.82 0.90 0.92 1.00 1.06 1.26 1.47 1.62 2.27 2.55 1.41 1.33 1.06 1.31 2.38 2.10 1.10 0.86 0.77 0.78 0.68 0.63 0.76 1.04 1.29 0.52 0.83 1.32 1.21 0.74 0.59 0.90 0.69 0.22 0.25 0.10 0.04 0.12 0.18 0.18
0.69 0.66 0.67 0.70 0.78 0.84 0.83 0.85 0.83 0.76 0.96 1.20 1.15 1.12 1.62 2.16 2.27 1.54 1.42 1.66 2.15 2.60 1.95 1.39 1.24 0.88 0.77 0.58 0.62 0.99 1.11 1.06 0.68 0.88 0.87 0.80 0.64 0.57 0.65 0.72 0.41 0.26 0.26 0.23 0.19 0.47 0.49
0.77 0.68 0.71 0.76 0.78 0.80 0.83 0.90 0.95 1.03 1.07 1.00 1.04 1.10 1.56 1.69 1.87 1.87 2.38 2.24 2.50 1.59 1.14 1.17 1.06 0.82 0.75 0.68 0.80 0.88 1.23 1.01 1.41 1.18 1.39 1.47 0.98 0.59 0.50 0.99 0.91 0.71 0.89 1.14 0.87 0.96 0.51
0.92 0.99 0.92 0.89 0.88 0.88 1.06 1.03 1.19 1.31 1.16 1.17 1.27 1.28 1.55 1.38 2.01 1.95 3.00 2.15 1.54 0.64 0.99 0.90 0.39 0.47 0.53 0.30 0.57 0.73 0.89 0.69 0.59 0.39 0.82 1.12 1.15 0.74 0.55 0.98 1.29 0.87 0.98 1.01 0.40 0.18 0.14
0.88 1.00 1.05 1.02 1.11 1.17 1.30 1.17 1.12 1.21 1.25 1.64 1.63 1.80 2.63 1.47 2.01 2.53 2.74 2.08 0.98 0.87 1.03 0.63 0.50 0.41 0.38 0.27 0.57 0.63 0.64 0.30 0.24 0.15 0.61 0.66 0.61 0.42 0.36 0.47 0.85 1.12 1.11 0.59 0.63 0.29 0.25
0.98 0.95 1.12 1.22 1.19 1.31 1.34 1.25 1.28 1.26 1.49 1.83 1.82 2.02 2.53 1.64 1.73 3.31 3.07 1.72 0.92 0.73 0.51 0.31 0.36 0.22 0.15 0.21 0.50 0.45 0.44 0.16 0.09 0.02 0.20 0.47 0.78 0.50 0.56 0.66 0.85 0.93 0.58 0.79 1.24 0.79 0.26
1.23 1.21 1.20 1.30 1.28 1.33 1.41 1.36 1.37 1.51 1.74 1.70 1.43 2.48 1.92 2.17 2.50 3.75 2.88 1.54 0.79 0.38 0.43 0.35 0.11 0.11 0.05 0.05 0.30 0.21 0.21 0.09 0.03 0.01 0.13 0.56 0.92 0.70 0.90 0.95 0.66 0.93 1.16 0.67 0.65 0.38 0.29
1.24 1.44 1.47 1.46 1.44 1.32 1.51 1.41 1.15 1.48 1.78 1.87 1.56 1.88 1.71 2.44 3.41 2.60 2.07 1.63 0.77 0.37 0.38 0.36 0.16 0.06 0.05 0.03 0.18 0.13 0.07 0.06 0.03 0.04 0.19 0.54 1.06 0.83 0.41 0.41 0.23 0.51 0.61 0.73 0.82 0.34 0.36
1.09 1.31 1.48 1.54 1.34 1.26 1.39 1.53 1.25 1.39 2.33 2.51 1.84 2.10 2.70 1.79 1.60 1.37 1.63 1.17 0.64 0.39 0.37 0.35 0.11 0.04 0.02 0.04 0.08 0.03 0.06 0.01 0.03 0.11 0.29 0.66 1.36 1.09 0.64 0.97 0.66 0.83 0.49 0.73 1.25 1.26 0.80
1.37 1.18 1.25 1.23 1.27 1.24 1.35 1.19 1.14 1.25 1.72 2.15 1.86 1.99 3.50 2.51 0.87 0.99 1.18 1.00 0.69 0.35 0.28 0.30 0.15 0.07 0.06 0.05 0.03 0.02 0.07 0.03 0.01 0.08 0.30 0.86 1.04 0.84 0.62 0.85 0.88 0.64 0.44 0.73 1.74 2.12 0.65
1.41 1.30 1.23 1.25 1.30 1.32 1.71 1.37 1.10 1.20 1.35 1.77 1.46 0.77 0.75 0.87 0.59 0.54 0.88 0.75 0.61 0.52 0.32 0.28 0.19 0.09 0.06 0.06 0.03 0.03 0.04 0.04 0.06 0.06 0.27 1.08 1.40 1.01 0.43 0.17 0.67 0.68 0.52 0.76 1.52 0.99 1.09
1.32 1.42 1.44 1.76 1.61 1.85 2.08 1.66 1.24 1.49 2.10 1.74 1.09 0.46 0.16 0.09 0.08 0.25 0.76 0.89 0.63 0.53 0.41 0.21 0.11 0.05 0.07 0.04 0.04 0.05 0.07 0.10 0.10 0.10 0.26 0.74 1.34 1.29 0.83 0.36 0.36 0.62 0.61 0.81 0.83 0.77 0.84
1.15 1.22 1.31 1.40 1.54 1.51 1.37 1.53 1.67 1.80 2.44 1.67 0.91 0.42 0.25 0.16 0.06 0.15 0.45 0.66 0.52 0.47 0.30 0.10 0.08 0.12 0.10 0.05 0.04 0.04 0.07 0.12 0.27 0.29 0.32 0.65 0.94 1.14 0.71 0.48 0.70 1.12 0.77 0.59 0.37 0.37 0.49
1.28 1.26 1.02 1.03 1.09 1.31 1.38 1.38 1.28 1.21 1.45 1.17 0.80 0.67 0.49 0.21 0.07 0.07 0.20 0.41 0.43 0.38 0.37 0.09 0.10 0.11 0.07 0.05 0.06 0.07 0.14 0.09 0.09 0.19 0.33 0.31 0.55 0.89 0.75 0.73 1.02 0.63 0.51 0.35 0.36 0.36 0.32
1.09 1.07 1.04 0.88 0.86 0.98 1.14 1.36 0.98 0.87 1.02 0.69 0.62 0.61 0.40 0.17 0.07 0.05 0.16 0.36 0.49 0.46 0.52 0.25 0.09 0.07 0.09 0.13 0.22 0.23 0.31 0.37 0.20 0.11 0.05 0.23 0.39 0.63 0.46 0.38 0.25 0.02 0.05 0.17 0.23 0.37 0.20
1.01 0.92 1.01 1.16 0.90 0.78 0.92 1.09 0.83 0.72 0.65 0.43 0.51 0.51 0.52 0.20 0.09 0.03 0.05 0.16 0.45 0.46 0.53 0.41 0.24 0.15 0.25 0.34 0.35 0.36 0.30 0.25 0.25 0.29 0.20 0.07 0.24 0.73 0.40 0.36 0.09 0.00 0.00 0.00 0.03 0.21 0.30
1.31 0.96 0.77 0.87 1.07 0.85 0.89 1.02 0.81 0.67 0.59 0.37 0.48 0.49 0.36 0.20 0.06 0.02 0.03 0.06 0.30 0.53 0.59 0.47 0.41 0.21 0.36 0.63 0.52 0.33 0.13 0.09 0.15 0.22 0.14 0.34 0.36 0.45 0.35 0.37 0.03 0.00 0.00 0.00 0.03 0.12 0.11
1.25 1.25 1.12 0.66 0.61 0.84 0.99 1.06 1.06 0.80 0.67 0.42 0.36 0.38 0.33 0.20 0.08 0.02 0.02 0.04 0.18 0.42 0.61 0.56 0.71 0.50 0.53 0.80 0.74 0.42 0.14 0.06 0.04 0.08 0.04 0.10 0.22 0.24 0.22 0.27 0.04 0.00 0.00 0.01 0.01 0.00 0.00
1.31 0.93 0.91 0.83 0.58 0.53 0.78 0.88 1.03 0.79 0.62 0.53 0.34 0.33 0.34 0.27 0.11 0.03 0.01 0.01 0.05 0.27 0.60 0.60 0.59 0.42 0.52 0.54 0.47 0.38 0.30 0.24 0.10 0.08 0.02 0.03 0.03 0.09 0.08 0.05 0.01 0.01 0.00 0.00 0.00 0.00 0.00

GFSGBSN_prec_precacc_114.txt.gz
Total_Precipitation_Accumulation
0.26 0.26 0.25 0.25 0.25 0.23 0.21 0.26 0.31 0.26 0.28 0.36 0.41 0.43 0.39 0.35 0.35 0.39 0.35 0.30 0.30 0.30 0.29 0.33 0.41 0.66 0.69 0.38 0.11 0.24 0.17 0.17 0.30 0.78 0.76 1.01 0.65 0.43 0.31 0.34 1.21 1.41 1.25 0.78 0.85 0.64 0.49
0.26 0.27 0.27 0.23 0.25 0.26 0.27 0.31 0.34 0.34 0.33 0.38 0.47 0.47 0.38 0.37 0.33 0.38 0.32 0.25 0.31 0.37 0.37 0.33 0.53 0.91 0.62 0.23 0.02 0.07 0.17 0.16 0.34 0.76 0.77 1.05 0.65 0.33 0.24 0.32 0.75 1.21 1.56 0.94 0.76 0.65 0.33
0.24 0.27 0.25 0.23 0.26 0.28 0.30 0.40 0.39 0.36 0.37 0.43 0.49 0.46 0.38 0.43 0.38 0.36 0.34 0.28 0.26 0.31 0.42 0.55 0.85 1.00 0.49 0.08 0.03 0.09 0.15 0.23 0.37 0.66 0.89 0.92 0.48 0.36 0.22 0.26 0.25 0.76 1.67 1.34 0.78 0.83 0.40
0.25 0.26 0.25 0.26 0.26 0.30 0.34 0.41 0.39 0.37 0.40 0.48 0.58 0.52 0.46 0.48 0.41 0.38 0.40 0.34 0.35 0.45 0.62 0.73 1.18 1.07 0.34 0.02 0.03 0.03 0.12 0.23 0.29 0.67 0.75 1.03 0.75 0.41 0.27 0.19 0.27 0.49 1.32 1.69 0.94 0.91 0.71
0.26 0.25 0.24 0.26 0.28 0.34 0.43 0.41 0.39 0.37 0.44 0.60 0.67 0.59 0.54 0.48 0.49 0.47 0.45 0.49 0.56 0.60 0.73 1.21 1.09 0.66 0.16 0.04 0.06 0.03 0.14 0.23 0.26 0.72 0.94 1.62 1.45 0.68 0.33 0.34 0.40 0.37 0.52 0.97 1.09 0.81 0.88
0.25 0.25 0.27 0.28 0.32 0.41 0.46 0.45 0.44 0.47 0.57 0.71 0.71 0.61 0.59 0.63 0.65 0.62 0.64 0.74 1.02 1.00 1.00 1.55 0.94 0.81 0.15 0.05 0.14 0.08 0.22 0.30 0.50 1.13 1.69 2.40 1.71 1.11 0.49 0.46 0.29 0.10 0.12 0.24 0.55 0.71 0.68
0.27 0.26 0.28 0.28 0.34 0.41 0.44 0.46 0.46 0.52 0.56 0.62 0.64 0.64 0.63 0.66 0.86 1.08 1.24 1.63 1.46 1.61 1.18 0.81 0.51 0.40 0.17 0.26 0.39 0.27 0.35 0.56 0.97 1.55 1.66 2.27 1.36 0.97 0.38 0.13 0.03 0.02 0.04 0.07 0.15 0.26 0.51
0.31 0.35 0.35 0.39 0.46 0.52 0.52 0.51 0.53 0.59 0.64 0.65 0.65 0.67 0.66 0.70 0.99 1.31 1.32 1.27 0.79 0.82 0.88 0.41 0.36 0.36 0.23 0.48 0.74 0.58 0.40 0.98 1.00 1.25 1.57 2.11 0.97 0.29 0.32 0.19 0.09 0.06 0.06 0.07 0.09 0.15 0.23
0.38 0.38 0.31 0.39 0.49 0.57 0.57 0.56 0.65 0.69 0.71 0.71 0.71 0.79 0.99 1.13 1.29 1.82 1.16 0.78 0.77 1.00 1.26 0.86 0.55 0.48 0.41 0.84 0.78 0.76 0.55 1.14 0.77 1.01 1.55 1.60 0.60 0.34 0.45 0.45 0.25 0.15 0.05 0.04 0.06 0.10 0.11
0.47 0.48 0.48 0.56 0.57 0.58 0.61 0.70 0.90 0.98 0.95 0.92 0.99 1.29 1.45 1.73 2.10 1.26 1.30 0.97 1.03 1.65 2.23 1.23 0.79 0.60 0.72 0.99 0.99 0.56 1.01 1.36 0.69 1.04 1.34 1.19 0.61 0.55 0.69 0.51 0.29 0.22 0.08 0.03 0.08 0.13 0.14
0.56 0.65 0.73 0.70 0.75 0.75 0.73 0.84 0.93 0.94 1.02 1.11 1.41 1.61 1.68 2.28 2.56 1.42 1.35 1.06 1.31 2.38 2.10 1.10 0.86 0.77 0.78 0.68 0.63 0.76 1.04 1.29 0.52 0.83 1.32 1.21 0.74 0.59 0.90 0.69 0.22 0.25 0.10 0.04 0.12 0.18 0.18
0.70 0.66 0.68 0.72 0.79 0.86 0.85 0.87 0.86 0.79 1.00 1.31 1.33 1.28 1.72 2.17 2.28 1.55 1.45 1.66 2.15 2.61 1.96 1.39 1.24 0.88 0.77 0.58 0.62 0.99 1.11 1.06 0.68 0.88 0.87 0.80 0.64 0.57 0.65 0.72 0.41 0.26 0.27 0.24 0.20 0.48 0.50
0.77 0.68 0.72 0.77 0.80 0.84 0.85 0.92 0.99 1.08 1.16 1.17 1.21 1.26 1.61 1.70 1.88 1.89 2.39 2.24 2.52 1.62 1.15 1.17 1.06 0.82 0.75 0.68 0.80 0.88 1.23 1.01 1.41 1.18 1.39 1.47 0.98 0.59 0.50 0.99 0.91 0.73 0.95 1.21 0.91 0.97 0.52
0.92 1.00 0.93 0.90 0.92 0.91 1.07 1.05 1.24 1.37 1.28 1.27 1.34 1.30 1.58 1.40 2.03 2.01 3.01 2.16 1.60 0.65 0.99 0.90 0.39 0.47 0.53 0.30 0.57 0.73 0.89 0.69 0.59 0.39 0.82 1.12 1.15 0.74 0.55 0.99 1.32 0.91 1.07 1.13 0.57 0.24 0.17
0.89 1.00 1.06 1.04 1.14 1.19 1.31 1.19 1.17 1.26 1.30 1.66 1.64 1.94 2.72 1.52 2.10 2.69 2.75 2.14 1.02 0.87 1.03 0.63 0.50 0.41 0.38 0.27 0.57 0.63 0.64 0.30 0.24 0.15 0.61 0.66 0.61 0.42 0.36 0.47 0.87 1.16 1.19 0.67 0.72 0.31 0.26
1.02 0.96 1.13 1.25 1.22 1.32 1.35 1.27 1.31 1.27 1.50 1.83 1.84 2.12 2.64 1.81 1.83 3.37 3.09 1.76 0.92 0.73 0.51 0.31 0.36 0.22 0.15 0.21 0.50 0.45 0.44 0.16 0.09 0.02 0.20 0.47 0.78 0.50 0.56 0.67 0.89 0.97 0.64 0.88 1.35 0.86 0.30
1.28 1.22 1.20 1.33 1.31 1.34 1.41 1.37 1.39 1.52 1.74 1.70 1.45 2.58 2.09 2.39 2.57 3.77 2.91 1.56 0.79 0.38 0.43 0.35 0.11 0.11 0.05 0.05 0.30 0.21 0.21 0.09 0.03 0.01 0.13 0.57 0.93 0.71 0.90 0.96 0.67 0.95 1.19 0.73 0.91 0.48 0.43
1.29 1.45 1.48 1.48 1.47 1.33 1.51 1.41 1.16 1.48 1.78 1.88 1.59 2.07 1.96 2.60 3.52 2.63 2.08 1.63 0.77 0.37 0.38 0.36 0.16 0.06 0.05 0.03 0.18 0.13 0.07 0.06 0.03 0.04 0.19 0.55 1.06 0.83 0.41 0.41 0.23 0.53 0.62 0.74 0.86 0.48 0.40
1.12 1.31 1.48 1.55 1.38 1.27 1.39 1.54 1.26 1.39 2.33 2.52 1.86 2.25 2.91 1.88 1.66 1.39 1.64 1.17 0.64 0.39 0.37 0.35 0.11 0.04 0.02 0.04 0.08 0.03 0.06 0.01 0.03 0.11 0.29 0.66 1.36 1.09 0.64 0.98 0.67 0.84 0.49 0.73 1.25 1.27 0.84
1.41 1.18 1.26 1.23 1.31 1.28 1.35 1.19 1.14 1.25 1.72 2.16 1.87 2.07 3.56 2.60 0.92 1.01 1.18 1.00 0.69 0.35 0.28 0.30 0.15 0.07 0.06 0.05 0.03 0.02 0.07 0.03 0.01 0.08 0.30 0.86 1.04 0.84 0.62 0.86 0.88 0.64 0.44 0.73 1.74 2.13 0.67
1.45 1.31 1.23 1.25 1.33 1.36 1.72 1.38 1.10 1.20 1.35 1.77 1.46 0.79 0.77 0.89 0.61 0.55 0.88 0.75 0.61 0.52 0.32 0.28 0.19 0.09 0.06 0.06 0.03 0.03 0.04 0.04 0.06 0.06 0.27 1.08 1.40 1.01 0.43 0.17 0.67 0.68 0.52 0.76 1.52 0.99 1.09
1.34 1.42 1.44 1.76 1.62 1.88 2.10 1.71 1.25 1.49 2.10 1.74 1.09 0.50 0.18 0.12 0.08 0.25 0.76 0.89 0.63 0.53 0.41 0.21 0.11 0.05 0.07 0.04 0.04 0.05 0.07 0.10 0.10 0.10 0.26 0.74 1.34 1.29 0.83 0.36 0.36 0.62 0.61 0.81 0.83 0.77 0.84
1.16 1.22 1.31 1.40 1.54 1.52 1.38 1.55 1.67 1.80 2.45 1.67 0.91 0.42 0.26 0.18 0.07 0.15 0.45 0.66 0.52 0.47 0.30 0.10 0.08 0.12 0.10 0.05 0.04 0.04 0.07 0.12 0.27 0.29 0.32 0.65 0.94 1.14 0.71 0.48 0.70 1.12 0.77 0.59 0.38 0.37 0.49
1.29 1.26 1.02 1.03 1.10 1.31 1.38 1.38 1.29 1.22 1.45 1.17 0.81 0.67 0.51 0.22 0.07 0.07 0.20 0.41 0.43 0.38 0.37 0.09 0.10 0.11 0.07 0.05 0.06 0.07 0.14 0.09 0.09 0.19 0.33 0.31 0.55 0.89 0.75 0.73 1.02 0.63 0.51 0.35 0.36 0.36 0.32
1.10 1.07 1.04 0.88 0.86 0.98 1.14 1.37 0.98 0.89 1.02 0.71 0.62 0.61 0.41 0.17 0.07 0.05 0.16 0.36 0.49 0.46 0.52 0.25 0.09 0.07 0.09 0.13 0.22 0.23 0.31 0.37 0.20 0.11 0.05 0.23 0.39 0.63 0.46 0.38 0.25 0.02 0.05 0.17 0.23 0.37 0.20
1.02 0.92 1.01 1.16 0.90 0.78 0.92 1.09 0.84 0.72 0.66 0.44 0.52 0.51 0.52 0.20 0.09 0.03 0.05 0.16 0.45 0.46 0.53 0.41 0.24 0.15 0.25 0.34 0.35 0.36 0.30 0.25 0.25 0.29 0.20 0.07 0.24 0.73 0.40 0.36 0.09 0.00 0.00 0.00 0.03 0.21 0.30
1.31 0.96 0.77 0.87 1.08 0.85 0.89 1.02 0.81 0.67 0.59 0.38 0.49 0.50 0.37 0.20 0.06 0.02 0.03 0.06 0.30 0.53 0.59 0.47 0.41 0.21 0.36 0.63 0.52 0.33 0.13 0.09 0.15 0.22 0.14 0.34 0.36 0.45 0.35 0.37 0.03 0.00 0.00 0.00 0.04 0.12 0.11
1.25 1.25 1.12 0.67 0.61 0.84 0.99 1.06 1.06 0.81 0.68 0.44 0.36 0.38 0.33 0.20 0.08 0.02 0.02 0.04 0.18 0.42 0.61 0.56 0.71 0.50 0.53 0.80 0.74 0.42 0.14 0.06 0.04 0.08 0.04 0.10 0.22 0.24 0.22 0.27 0.04 0.00 0.00 0.01 0.01 0.00 0.00
1.32 0.93 0.91 0.83 0.58 0.53 0.78 0.88 1.03 0.82 0.66 0.56 0.36 0.34 0.34 0.27 0.11 0.03 0.01 0.01 0.05 0.27 0.60 0.60 0.59 0.42 0.52 0.54 0.47 0.38 0.30 0.24 0.10 0.08 0.02 0.03 0.03 0.09 0.08 0.05 0.01 0.01 0.00 0.00 0.00 0.00 0.00

GFSGBSN_prec_precacc_117.txt.gz
Total_Precipitation_Accumulation
0.27 0.28 0.27 0.27 0.27 0.25 0.22 0.27 0.31 0.26 0.28 0.37 0.41 0.44 0.39 0.35 0.35 0.40 0.45 0.43 0.34 0.31 0.29 0.33 0.41 0.66 0.69 0.38 0.11 0.24 0.17 0.17 0.30 0.78 0.76 1.01 0.66 0.44 0.32 0.34 1.23 1.43 1.25 0.78 0.85 0.64 0.50
0.27 0.28 0.28 0.24 0.26 0.27 0.28 0.32 0.36 0.34 0.34 0.39 0.48 0.48 0.38 0.37 0.33 0.38 0.36 0.32 0.35 0.38 0.38 0.34 0.53 0.91 0.62 0.23 0.02 0.07 0.17 0.16 0.34 0.76 0.77 1.05 0.66 0.34 0.25 0.32 0.76 1.22 1.56 0.94 0.76 0.65 0.33
0.25 0.28 0.26 0.24 0.27 0.29 0.31 0.41 0.40 0.36 0.38 0.45 0.50 0.47 0.38 0.43 0.38 0.36 0.35 0.33 0.31 0.32 0.43 0.56 0.86 1.00 0.50 0.08 0.03 0.09 0.15 0.23 0.37 0.66 0.89 0.92 0.48 0.36 0.22 0.26 0.25 0.76 1.67 1.34 0.78 0.84 0.41
0.26 0.27 0.26 0.27 0.27 0.30 0.35 0.42 0.40 0.38 0.41 0.50 0.60 0.54 0.47 0.49 0.41 0.38 0.40 0.36 0.40 0.48 0.62 0.73 1.18 1.07 0.34 0.02 0.03 0.03 0.12 0.23 0.29 0.67 0.75 1.03 0.75 0.41 0.27 0.19 0.27 0.49 1.32 1.69 0.94 0.92 0.71
0.27 0.27 0.25 0.27 0.28 0.35 0.44 0.42 0.39 0.38 0.44 0.61 0.70 0.60 0.56 0.49 0.49 0.47 0.45 0.50 0.57 0.61 0.73 1.21 1.09 0.66 0.16 0.04 0.06 0.03 0.14 0.23 0.26 0.72 0.94 1.62 1.45 0.68 0.34 0.35 0.40 0.37 0.53 0.98 1.09 0.81 0.88
0.26 0.26 0.28 0.29 0.33 0.41 0.47 0.46 0.45 0.48 0.58 0.73 0.73 0.63 0.63 0.65 0.65 0.62 0.65 0.74 1.02 1.00 1.00 1.55 0.94 0.81 0.15 0.05 0.14 0.08 0.22 0.30 0.50 1.13 1.69 2.40 1.71 1.11 0.50 0.48 0.31 0.15 0.17 0.26 0.55 0.71 0.68
0.28 0.26 0.29 0.29 0.34 0.41 0.44 0.47 0.47 0.54 0.57 0.63 0.65 0.67 0.70 0.69 0.86 1.09 1.24 1.63 1.46 1.61 1.18 0.81 0.51 0.40 0.17 0.26 0.39 0.27 0.35 0.56 0.97 1.55 1.66 2.27 1.36 0.97 0.39 0.16 0.04 0.03 0.05 0.07 0.15 0.26 0.51
0.31 0.35 0.36 0.40 0.46 0.53 0.53 0.54 0.55 0.60 0.65 0.67 0.67 0.73 0.75 0.72 0.99 1.31 1.32 1.27 0.79 0.82 0.88 0.41 0.36 0.36 0.23 0.48 0.74 0.58 0.40 0.98 1.00 1.25 1.57 2.11 0.97 0.30 0.32 0.19 0.10 0.06 0.06 0.08 0.12 0.16 0.23
0.38 0.39 0.32 0.40 0.49 0.58 0.60 0.59 0.66 0.71 0.74 0.75 0.75 0.87 1.08 1.17 1.31 1.82 1.17 0.78 0.77 1.00 1.26 0.86 0.55 0.48 0.41 0.84 0.78 0.76 0.55 1.14 0.77 1.01 1.55 1.61 0.60 0.34 0.45 0.45 0.25 0.15 0.05 0.05 0.08 0.10 0.11
0.48 0.48 0.49 0.56 0.58 0.61 0.65 0.72 0.91 1.01 0.99 0.96 1.03 1.36 1.50 1.75 2.11 1.27 1.30 0.97 1.04 1.66 2.24 1.23 0.79 0.60 0.72 0.99 0.99 0.56 1.01 1.36 0.69 1.04 1.34 1.19 0.61 0.55 0.69 0.51 0.29 0.22 0.09 0.03 0.08 0.13 0.14
0.57 0.66 0.75 0.71 0.76 0.78 0.76 0.84 0.96 0.97 1.05 1.14 1.46 1.67 1.73 2.33 2.56 1.44 1.38 1.06 1.31 2.38 2.12 1.10 0.86 0.77 0.78 0.68 0.63 0.76 1.04 1.29 0.52 0.83 1.32 1.21 0.74 0.59 0.90 0.69 0.22 0.25 0.10 0.04 0.12 0.18 0.18
0.73 0.67 0.70 0.72 0.80 0.89 0.86 0.87 0.89 0.82 1.01 1.33 1.35 1.30 1.77 2.19 2.29 1.55 1.47 1.66 2.15 2.61 1.97 1.39 1.24 0.88 0.77 0.58 0.62 0.99 1.11 1.06 0.68 0.88 0.87 0.80 0.64 0.57 0.65 0.72 0.41 0.26 0.27 0.24 0.20 0.48 0.50
0.82 0.69 0.74 0.78 0.81 0.86 0.86 0.93 1.00 1.10 1.17 1.18 1.22 1.27 1.63 1.70 1.89 1.90 2.39 2.25 2.54 1.64 1.15 1.17 1.06 0.82 0.75 0.68 0.80 0.88 1.23 1.01 1.41 1.18 1.39 1.47 0.98 0.59 0.50 0.99 0.91 0.73 0.95 1.22 0.92 0.98 0.52
0.97 1.03 0.95 0.91 0.93 0.92 1.08 1.05 1.25 1.38 1.28 1.29 1.35 1.31 1.60 1.41 2.03 2.01 3.02 2.19 1.65 0.66 0.99 0.90 0.39 0.47 0.53 0.30 0.57 0.73 0.89 0.69 0.59 0.39 0.82 1.12 1.15 0.74 0.55 0.99 1.32 0.91 1.08 1.23 0.80 0.33 0.21
0.93 1.04 1.08 1.05 1.15 1.20 1.31 1.19 1.17 1.26 1.30 1.67 1.66 1.94 2.73 1.54 2.11 2.69 2.77 2.20 1.04 0.87 1.03 0.63 0.50 0.41 0.38 0.27 0.57 0.63 0.64 0.30 0.24 0.15 0.61 0.66 0.61 0.42 0.36 0.47 0.87 1.16 1.19 0.68 0.77 0.35 0.32
1.04 0.99 1.14 1.25 1.23 1.32 1.35 1.27 1.31 1.27 1.50 1.84 1.84 2.12 2.67 1.82 1.84 3.38 3.11 1.79 0.92 0.73 0.51 0.31 0.36 0.22 0.15 0.21 0.50 0.45 0.44 0.16 0.09 0.02 0.20 0.47 0.78 0.50 0.56 0.67 0.89 0.98 0.64 0.88 1.35 0.87 0.37
1.29 1.23 1.21 1.33 1.31 1.34 1.41 1.37 1.39 1.52 1.74 1.70 1.45 2.59 2.14 2.40 2.58 3.78 2.93 1.56 0.79 0.38 0.43 0.35 0.11 0.11 0.05 0.05 0.30 0.21 0.21 0.09 0.03 0.01 0.13 0.57 0.93 0.71 0.90 0.96 0.67 0.95 1.19 0.73 0.91 0.48 0.53
1.30 1.45 1.48 1.48 1.47 1.33 1.51 1.41 1.16 1.48 1.78 1.88 1.59 2.08 1.97 2.62 3.52 2.63 2.08 1.63 0.77 0.37 0.38 0.36 0.16 0.06 0.05 0.03 0.18 0.13 0.07 0.06 0.03 0.04 0.19 0.55 1.06 0.83 0.41 0.41 0.23 0.53 0.62 0.74 0.86 0.48 0.43
1.13 1.31 1.48 1.55 1.38 1.27 1.39 1.54 1.26 1.39 2.33 2.52 1.86 2.26 2.91 1.88 1.66 1.39 1.64 1.17 0.64 0.39 0.37 0.35 0.11 0.04 0.02 0.04 0.08 0.03 0.06 0.01 0.03 0.11 0.29 0.66 1.36 1.09 0.64 0.98 0.67 0.84 0.49 0.73 1.25 1.27 0.84
1.41 1.18 1.26 1.23 1.31 1.28 1.35 1.19 1.14 1.25 1.72 2.16 1.87 2.07 3.56 2.60 0.92 1.01 1.18 1.00 0.69 0.35 0.28 0.30 0.15 0.07 0.06 0.05 0.03 0.02 0.07 0.03 0.01 0.08 0.30 0.86 1.04 0.84 0.62 0.86 0.88 0.64 0.44 0.73 1.74 2.13 0.67
1.45 1.31 1.23 1.25 1.33 1.36 1.72 1.38 1.10 1.20 1.35 1.77 1.46 0.79 0.77 0.89 0.61 0.55 0.88 0.75 0.61 0.52 0.32 0.28 0.19 0.09 0.06 0.06 0.03 0.03 0.04 0.04 0.06 0.06 0.27 1.08 1.40 1.01 0.43 0.17 0.67 0.68 0.52 0.76 1.52 0.99 1.09
1.34 1.42 1.44 1.76 1.62 1.88 2.10 1.71 1.25 1.49 2.10 1.74 1.09 0.50 0.18 0.12 0.08 0.25 0.76 0.89 0.63 0.53 0.41 0.21 0.11 0.05 0.07 0.04 0.04 0.05 0.07 0.10 0.10 0.10 0.26 0.74 1.34 1.29 0.83 0.36 0.36 0.62 0.61 0.81 0.83 0.77 0.84
1.16 1.22 1.31 1.40 1.54 1.52 1.38 1.55 1.67 1.80 2.45 1.67 0.91 0.42 0.26 0.18 0.07 0.15 0.45 0.66 0.52 0.47 0.30 0.10 0.08 0.12 0.10 0.05 0.04 0.04 0.07 0.12 0.27 0.29 0.32 0.65 0.94 1.14 0.71 0.48 0.70 1.12 0.77 0.59 0.38 0.37 0.49
1.29 1.26 1.02 1.03 1.10 1.31 1.38 1.38 1.29 1.22 1.45 1.18 0.81 0.67 0.51 0.22 0.07 0.07 0.20 0.41 0.43 0.38 0.37 0.09 0.10 0.11 0.07 0.05 0.06 0.07 0.14 0.09 0.09 0.19 0.33 0.31 0.55 0.89 0.75 0.73 1.02 0.63 0.51 0.35 0.36 0.36 0.32
1.10 1.07 1.04 0.88 0.86 0.98 1.14 1.37 0.98 0.89 1.02 0.71 0.63 0.61 0.41 0.17 0.07 0.05 0.16 0.36 0.49 0.46 0.52 0.25 0.09 0.07 0.09 0.13 0.22 0.23 0.31 0.37 0.20 0.11 0.05 0.23 0.39 0.63 0.46 0.38 0.25 0.02 0.05 0.17 0.23 0.37 0.20
1.02 0.92 1.01 1.16 0.90 0.78 0.92 1.09 0.84 0.72 0.66 0.44 0.52 0.51 0.52 0.20 0.09 0.03 0.05 0.16 0.45 0.46 0.53 0.41 0.24 0.15 0.25 0.34 0.35 0.36 0.30 0.25 0.25 0.29 0.20 0.07 0.24 0.73 0.40 0.36 0.09 0.00 0.00 0.00 0.03 0.21 0.30
1.32 0.96 0.77 0.87 1.08 0.85 0.89 1.02 0.81 0.67 0.59 0.38 0.49 0.50 0.37 0.20 0.06 0.02 0.03 0.06 0.30 0.53 0.59 0.47 0.41 0.21 0.36 0.63 0.52 0.33 0.13 0.09 0.15 0.22 0.14 0.34 0.36 0.45 0.35 0.37 0.03 0.00 0.00 0.00 0.04 0.12 0.11
1.25 1.25 1.12 0.67 0.61 0.84 0.99 1.06 1.06 0.81 0.68 0.44 0.36 0.38 0.33 0.20 0.08 0.02 0.02 0.04 0.18 0.42 0.61 0.56 0.71 0.50 0.53 0.80 0.74 0.42 0.14 0.06 0.04 0.08 0.04 0.10 0.22 0.24 0.22 0.27 0.04 0.00 0.00 0.01 0.01 0.00 0.00
1.32 0.93 0.91 0.83 0.58 0.53 0.78 0.88 1.03 0.82 0.66 0.57 0.36 0.34 0.34 0.27 0.11 0.03 0.01 0.01 0.05 0.27 0.60 0.60 0.59 0.42 0.52 0.54 0.47 0.38 0.30 0.24 0.10 0.08 0.02 0.03 0.03 0.09 0.08 0.05 0.01 0.01 0.00 0.00 0.00 0.00 0.00

GFSGBSN_prec_precacc_120.txt.gz
Total_Precipitation_Accumulation
0.29 0.29 0.29 0.28 0.28 0.26 0.23 0.28 0.32 0.27 0.30 0.38 0.43 0.47 0.42 0.35 0.35 0.40 0.45 0.52 0.52 0.36 0.30 0.33 0.41 0.66 0.69 0.38 0.11 0.24 0.17 0.17 0.30 0.78 0.76 1.01 0.66 0.45 0.32 0.34 1.23 1.43 1.25 0.78 0.85 0.64 0.50
0.29 0.30 0.31 0.25 0.27 0.28 0.29 0.33 0.37 0.35 0.35 0.40 0.50 0.51 0.42 0.41 0.34 0.38 0.36 0.33 0.41 0.48 0.38 0.34 0.54 0.91 0.62 0.23 0.02 0.07 0.17 0.16 0.34 0.76 0.77 1.05 0.66 0.36 0.26 0.33 0.76 1.22 1.56 0.94 0.76 0.65 0.33
0.26 0.31 0.29 0.25 0.29 0.30 0.32 0.42 0.42 0.38 0.39 0.46 0.53 0.50 0.42 0.50 0.40 0.36 0.35 0.33 0.33 0.36 0.43 0.56 0.86 1.00 0.50 0.08 0.03 0.09 0.15 0.23 0.37 0.66 0.89 0.92 0.48 0.36 0.22 0.26 0.25 0.76 1.67 1.34 0.78 0.84 0.41
0.26 0.29 0.27 0.28 0.28 0.31 0.37 0.44 0.42 0.41 0.44 0.52 0.63 0.57 0.50 0.55 0.45 0.39 0.40 0.37 0.40 0.50 0.63 0.73 1.18 1.07 0.34 0.02 0.03 0.03 0.12 0.23 0.29 0.67 0.75 1.03 0.75 0.41 0.27 0.19 0.27 0.49 1.32 1.69 0.94 0.92 0.71
0.28 0.27 0.26 0.29 0.29 0.35 0.45 0.45 0.43 0.41 0.46 0.63 0.72 0.63 0.60 0.55 0.52 0.47 0.45 0.50 0.57 0.63 0.75 1.22 1.10 0.66 0.16 0.04 0.06 0.03 0.14 0.23 0.26 0.72 0.94 1.62 1.45 0.68 0.34 0.36 0.40 0.38 0.54 0.98 1.09 0.81 0.88
0.26 0.27 0.29 0.30 0.33 0.42 0.49 0.50 0.48 0.50 0.61 0.75 0.75 0.66 0.70 0.69 0.68 0.62 0.66 0.78 1.05 1.02 1.01 1.55 0.94 0.81 0.15 0.05 0.14 0.08 0.22 0.30 0.50 1.13 1.69 2.40 1.71 1.11 0.50 0.49 0.33 0.15 0.18 0.26 0.55 0.71 0.68
0.28 0.28 0.31 0.29 0.34 0.42 0.47 0.51 0.49 0.56 0.60 0.67 0.70 0.72 0.78 0.73 0.90 1.09 1.25 1.64 1.47 1.61 1.18 0.81 0.51 0.40 0.17 0.26 0.39 0.27 0.35 0.56 0.97 1.55 1.66 2.27 1.36 0.97 0.39 0.17 0.05 0.03 0.05 0.07 0.15 0.26 0.51
0.33 0.38 0.39 0.41 0.46 0.55 0.56 0.57 0.57 0.64 0.70 0.73 0.73 0.80 0.79 0.75 1.02 1.31 1.32 1.28 0.79 0.82 0.88 0.41 0.36 0.36 0.23 0.48 0.74 0.58 0.40 0.98 1.00 1.25 1.57 2.12 0.97 0.30 0.32 0.20 0.11 0.08 0.06 0.08 0.13 0.16 0.23
0.43 0.45 0.36 0.42 0.49 0.61 0.62 0.60 0.69 0.75 0.79 0.82 0.83 0.92 1.11 1.20 1.34 1.82 1.18 0.79 0.77 1.00 1.26 0.86 0.55 0.48 0.41 0.84 0.78 0.76 0.55 1.14 0.77 1.01 1.55 1.61 0.60 0.34 0.45 0.45 0.25 0.15 0.06 0.05 0.09 0.10 0.11
0.56 0.58 0.54 0.60 0.58 0.62 0.66 0.72 0.94 1.06 1.02 1.00 1.09 1.41 1.54 1.78 2.13 1.27 1.34 0.98 1.04 1.66 2.25 1.23 0.79 0.60 0.72 0.99 0.99 0.56 1.01 1.36 0.69 1.04 1.34 1.19 0.61 0.55 0.69 0.51 0.29 0.22 0.09 0.03 0.08 0.13 0.14
0.67 0.76 0.80 0.73 0.77 0.79 0.76 0.85 0.97 1.00 1.06 1.16 1.51 1.71 1.77 2.34 2.56 1.46 1.41 1.07 1.31 2.38 2.12 1.11 0.86 0.77 0.78 0.68 0.63 0.76 1.04 1.29 0.52 0.83 1.32 1.21 0.74 0.59 0.90 0.69 0.22 0.25 0.10 0.04 0.12 0.18 0.18
0.82 0.75 0.75 0.73 0.80 0.89 0.86 0.87 0.89 0.83 1.01 1.35 1.37 1.32 1.78 2.19 2.29 1.55 1.47 1.66 2.15 2.61 1.97 1.39 1.24 0.88 0.77 0.58 0.62 0.99 1.11 1.06 0.68 0.88 0.87 0.80 0.64 0.57 0.65 0.72 0.41 0.26 0.27 0.24 0.20 0.48 0.51
0.87 0.75 0.77 0.78 0.82 0.86 0.86 0.93 1.01 1.10 1.17 1.19 1.23 1.27 1.63 1.70 1.89 1.90 2.39 2.25 2.54 1.64 1.15 1.17 1.06 0.82 0.75 0.68 0.80 0.88 1.23 1.01 1.41 1.18 1.39 1.47 0.98 0.59 0.50 0.99 0.91 0.73 0.95 1.22 0.92 0.99 0.56
1.00 1.06 0.96 0.91 0.93 0.93 1.08 1.05 1.25 1.38 1.28 1.29 1.36 1.31 1.60 1.41 2.03 2.02 3.03 2.19 1.66 0.67 0.99 0.90 0.39 0.47 0.53 0.30 0.57 0.73 0.89 0.69 0.59 0.39 0.82 1.12 1.15 0.74 0.55 0.99 1.32 0.91 1.08 1.29 0.89 0.38 0.25
0.94 1.07 1.08 1.05 1.15 1.20 1.31 1.19 1.17 1.26 1.30 1.68 1.67 1.94 2.73 1.54 2.11 2.69 2.77 2.20 1.05 0.87 1.03 0.63 0.50 0.41 0.38 0.27 0.57 0.63 0.64 0.30 0.24 0.15 0.61 0.66 0.61 0.42 0.36 0.47 0.87 1.16 1.19 0.69 0.85 0.43 0.34
1.06 1.00 1.14 1.25 1.23 1.32 1.35 1.27 1.31 1.27 1.50 1.84 1.84 2.12 2.67 1.82 1.84 3.38 3.11 1.79 0.92 0.73 0.51 0.31 0.36 0.22 0.15 0.21 0.50 0.45 0.44 0.16 0.09 0.02 0.20 0.47 0.78 0.50 0.56 0.67 0.89 0.98 0.64 0.89 1.35 0.88 0.40
1.31 1.23 1.21 1.33 1.31 1.34 1.41 1.37 1.39 1.52 1.74 1.70 1.45 2.59 2.14 2.40 2.58 3.78 2.93 1.56 0.79 0.38 0.43 0.35 0.11 0.11 0.05 0.05 0.30 0.21 0.21 0.09 0.03 0.01 0.13 0.57 0.93 0.71 0.90 0.96 0.67 0.95 1.19 0.73 0.91 0.48 0.55
1.31 1.45 1.48 1.48 1.47 1.33 1.51 1.41 1.16 1.48 1.78 1.88 1.59 2.08 1.97 2.62 3.52 2.63 2.08 1.63 0.77 0.37 0.38 0.36 0.16 0.06 0.05 0.03 0.18 0.13 0.07 0.06 0.03 0.04 0.19 0.55 1.06 0.83 0.41 0.41 0.23 0.53 0.62 0.74 0.86 0.48 0.43
1.14 1.31 1.49 1.55 1.38 1.27 1.39 1.54 1.26 1.39 2.33 2.52 1.86 2.26 2.91 1.88 1.66 1.39 1.64 1.17 0.64 0.39 0.37 0.35 0.11 0.04 0.02 0.04 0.08 0.03 0.06 0.01 0.03 0.11 0.29 0.66 1.36 1.09 0.64 0.98 0.67 0.84 0.49 0.73 1.25 1.27 0.85
1.42 1.18 1.26 1.23 1.31 1.28 1.35 1.19 1.14 1.25 1.72 2.16 1.87 2.07 3.56 2.60 0.92 1.01 1.18 1.00 0.69 0.35 0.28 0.30 0.15 0.07 0.06 0.05 0.03 0.02 0.07 0.03 0.01 0.08 0.30 0.86 1.04 0.84 0.62 0.86 0.88 0.64 0.44 0.73 1.74 2.13 0.67
1.46 1.31 1.23 1.25 1.33 1.36 1.72 1.38 1.10 1.20 1.35 1.77 1.46 0.79 0.77 0.89 0.61 0.55 0.88 0.75 0.61 0.52 0.32 0.28 0.19 0.09 0.06 0.06 0.03 0.03 0.04 0.04 0.06 0.06 0.27 1.08 1.40 1.01 0.43 0.17 0.67 0.68 0.52 0.76 1.52 0.99 1.09
1.35 1.42 1.44 1.76 1.62 1.88 2.10 1.71 1.25 1.49 2.10 1.74 1.09 0.50 0.18 0.12 0.08 0.25 0.76 0.89 0.63 0.53 0.41 0.21 0.11 0.05 0.07 0.04 0.04 0.05 0.07 0.10 0.10 0.10 0.26 0.74 1.34 1.29 0.83 0.36 0.36 0.62 0.61 0.81 0.83 0.77 0.84
1.17 1.22 1.31 1.40 1.54 1.52 1.38 1.55 1.67 1.80 2.45 1.67 0.91 0.42 0.26 0.18 0.07 0.15 0.45 0.66 0.52 0.47 0.30 0.10 0.08 0.12 0.10 0.05 0.04 0.04 0.07 0.12 0.27 0.29 0.32 0.65 0.94 1.14 0.71 0.48 0.70 1.12 0.77 0.59 0.38 0.37 0.49
1.29 1.27 1.02 1.03 1.10 1.31 1.38 1.38 1.29 1.22 1.45 1.18 0.81 0.67 0.51 0.22 0.07 0.07 0.20 0.41 0.43 0.38 0.37 0.09 0.10 0.11 0.07 0.05 0.06 0.07 0.14 0.09 0.09 0.19 0.33 0.31 0.55 0.89 0.75 0.73 1.02 0.63 0.51 0.35 0.36 0.36 0.32
1.10 1.08 1.04 0.88 0.86 0.98 1.14 1.37 0.98 0.89 1.02 0.71 0.63 0.61 0.41 0.17 0.07 0.05 0.16 0.36 0.49 0.46 0.52 0.25 0.09 0.07 0.09 0.13 0.22 0.23 0.31 0.37 0.20 0.11 0.05 0.23 0.39 0.63 0.46 0.38 0.25 0.02 0.05 0.17 0.23 0.37 0.20
1.02 0.93 1.01 1.16 0.90 0.78 0.92 1.09 0.84 0.72 0.66 0.44 0.52 0.51 0.52 0.20 0.09 0.03 0.05 0.16 0.45 0.46 0.53 0.41 0.24 0.15 0.25 0.34 0.35 0.36 0.30 0.25 0.25 0.29 0.20 0.07 0.24 0.73 0.40 0.36 0.09 0.00 0.00 0.00 0.03 0.21 0.30
1.32 0.96 0.78 0.87 1.08 0.85 0.89 1.02 0.81 0.67 0.59 0.38 0.49 0.50 0.37 0.20 0.06 0.02 0.03 0.06 0.30 0.53 0.59 0.47 0.41 0.21 0.36 0.63 0.52 0.33 0.13 0.09 0.15 0.22 0.14 0.34 0.36 0.45 0.35 0.37 0.03 0.00 0.00 0.00 0.04 0.12 0.11
1.25 1.25 1.12 0.67 0.61 0.84 0.99 1.06 1.06 0.81 0.68 0.44 0.36 0.38 0.33 0.20 0.08 0.02 0.02 0.04 0.18 0.42 0.61 0.56 0.71 0.50 0.53 0.80 0.74 0.42 0.14 0.06 0.04 0.08 0.04 0.10 0.22 0.24 0.22 0.27 0.04 0.00 0.00 0.01 0.01 0.00 0.00
1.32 0.93 0.91 0.84 0.58 0.53 0.78 0.88 1.03 0.82 0.66 0.57 0.36 0.34 0.34 0.27 0.11 0.03 0.01 0.01 0.05 0.27 0.60 0.60 0.59 0.42 0.52 0.54 0.47 0.38 0.30 0.24 0.10 0.08 0.02 0.03 0.03 0.09 0.08 0.05 0.01 0.01 0.00 0.00 0.00 0.00 0.00

GFSGBSN_prec_precacc_123.txt.gz
Total_Precipitation_Accumulation
0.29 0.30 0.32 0.29 0.28 0.26 0.23 0.29 0.34 0.29 0.34 0.47 0.53 0.55 0.50 0.47 0.47 0.43 0.45 0.52 0.61 0.47 0.31 0.33 0.41 0.66 0.69 0.38 0.11 0.24 0.17 0.17 0.30 0.78 0.76 1.01 0.66 0.45 0.32 0.34 1.24 1.43 1.25 0.78 0.85 0.64 0.50
0.29 0.31 0.32 0.25 0.28 0.28 0.29 0.34 0.40 0.44 0.48 0.54 0.63 0.65 0.53 0.52 0.49 0.48 0.37 0.33 0.43 0.67 0.48 0.34 0.54 0.91 0.62 0.23 0.02 0.07 0.17 0.16 0.34 0.76 0.77 1.05 0.67 0.38 0.27 0.34 0.77 1.22 1.56 0.94 0.76 0.65 0.33
0.26 0.31 0.29 0.26 0.29 0.30 0.33 0.45 0.47 0.48 0.51 0.57 0.63 0.62 0.52 0.59 0.54 0.51 0.38 0.33 0.35 0.47 0.46 0.56 0.86 1.00 0.50 0.08 0.03 0.09 0.15 0.23 0.37 0.66 0.89 0.92 0.48 0.38 0.23 0.26 0.25 0.76 1.68 1.34 0.78 0.84 0.41
0.27 0.30 0.29 0.30 0.29 0.31 0.39 0.48 0.49 0.48 0.49 0.57 0.68 0.62 0.60 0.68 0.51 0.46 0.41 0.37 0.41 0.54 0.65 0.73 1.19 1.07 0.34 0.02 0.03 0.03 0.12 0.23 0.29 0.67 0.75 1.04 0.77 0.42 0.29 0.19 0.28 0.49 1.32 1.69 0.94 0.92 0.71
0.30 0.31 0.29 0.31 0.29 0.36 0.48 0.50 0.47 0.44 0.51 0.68 0.78 0.70 0.67 0.65 0.58 0.53 0.45 0.51 0.59 0.67 0.75 1.22 1.10 0.66 0.16 0.04 0.06 0.03 0.14 0.23 0.26 0.72 0.94 1.64 1.48 0.69 0.35 0.38 0.41 0.38 0.54 0.98 1.09 0.81 0.88
0.31 0.34 0.35 0.32 0.33 0.43 0.53 0.54 0.51 0.55 0.66 0.81 0.80 0.73 0.80 0.76 0.74 0.67 0.67 0.80 1.08 1.06 1.02 1.55 0.94 0.81 0.15 0.05 0.14 0.08 0.22 0.30 0.50 1.13 1.70 2.42 1.72 1.12 0.51 0.52 0.35 0.15 0.18 0.26 0.55 0.71 0.68
0.33 0.38 0.39 0.31 0.35 0.43 0.50 0.54 0.52 0.63 0.65 0.73 0.74 0.81 0.85 0.77 0.93 1.11 1.25 1.65 1.48 1.61 1.18 0.81 0.51 0.40 0.17 0.26 0.39 0.27 0.35 0.56 0.97 1.55 1.66 2.29 1.37 0.97 0.40 0.18 0.06 0.05 0.06 0.08 0.15 0.26 0.51
0.38 0.49 0.44 0.42 0.46 0.56 0.59 0.59 0.59 0.69 0.75 0.80 0.78 0.83 0.83 0.81 1.06 1.32 1.32 1.28 0.79 0.82 0.88 0.41 0.36 0.36 0.23 0.48 0.74 0.58 0.40 0.98 1.00 1.25 1.57 2.13 0.98 0.30 0.33 0.21 0.13 0.10 0.07 0.08 0.13 0.16 0.23
0.48 0.52 0.38 0.43 0.50 0.62 0.64 0.62 0.70 0.79 0.82 0.88 0.87 0.93 1.12 1.22 1.35 1.82 1.18 0.79 0.77 1.00 1.26 0.86 0.55 0.48 0.41 0.84 0.78 0.76 0.55 1.14 0.77 1.01 1.55 1.61 0.60 0.34 0.45 0.45 0.26 0.16 0.06 0.05 0.09 0.10 0.11
0.61 0.61 0.55 0.60 0.58 0.63 0.67 0.74 0.94 1.08 1.04 1.04 1.11 1.42 1.54 1.78 2.13 1.27 1.34 0.98 1.04 1.66 2.25 1.23 0.79 0.60 0.72 0.99 0.99 0.56 1.01 1.36 0.69 1.04 1.34 1.19 0.61 0.55 0.69 0.51 0.29 0.22 0.10 0.03 0.08 0.13 0.14
0.71 0.76 0.80 0.73 0.77 0.79 0.77 0.86 0.97 1.01 1.07 1.18 1.52 1.71 1.77 2.34 2.56 1.47 1.41 1.07 1.31 2.38 2.13 1.11 0.86 0.77 0.78 0.68 0.63 0.76 1.04 1.29 0.52 0.83 1.32 1.21 0.74 0.59 0.90 0.69 0.22 0.25 0.10 0.04 0.12 0.18 0.18
0.84 0.75 0.75 0.73 0.80 0.89 0.87 0.88 0.90 0.83 1.02 1.36 1.37 1.32 1.78 2.19 2.29 1.55 1.47 1.66 2.15 2.61 1.97 1.39 1.24 0.88 0.77 0.58 0.62 0.99 1.11 1.06 0.68 0.88 0.87 0.80 0.64 0.57 0.65 0.72 0.41 0.26 0.27 0.24 0.20 0.49 0.52
0.89 0.75 0.77 0.78 0.82 0.86 0.86 0.93 1.01 1.10 1.17 1.19 1.23 1.27 1.63 1.70 1.89 1.90 2.39 2.25 2.54 1.64 1.15 1.17 1.06 0.82 0.75 0.68 0.80 0.88 1.23 1.01 1.41 1.18 1.39 1.47 0.98 0.59 0.50 0.99 0.91 0.73 0.95 1.22 0.93 1.02 0.62
1.00 1.06 0.96 0.91 0.93 0.93 1.08 1.05 1.25 1.38 1.28 1.29 1.36 1.31 1.60 1.41 2.03 2.02 3.03 2.19 1.66 0.68 0.99 0.90 0.39 0.47 0.53 0.30 0.57 0.73 0.89 0.69 0.59 0.39 0.82 1.12 1.15 0.74 0.55 0.99 1.32 0.91 1.08 1.30 0.91 0.47 0.28
0.95 1.07 1.08 1.05 1.15 1.20 1.31 1.19 1.17 1.26 1.30 1.68 1.67 1.94 2.73 1.54 2.11 2.69 2.77 2.20 1.05 0.87 1.03 0.63 0.50 0.41 0.38 0.27 0.57 0.63 0.64 0.30 0.24 0.15 0.61 0.66 0.61 0.42 0.36 0.47 0.87 1.16 1.20 0.72 0.88 0.44 0.35
1.06 1.00 1.14 1.25 1.23 1.32 1.35 1.27 1.31 1.27 1.50 1.84 1.84 2.12 2.67 1.82 1.84 3.38 3.11 1.79 0.92 0.73 0.51 0.31 0.36 0.22 0.15 0.21 0.50 0.45 0.44 0.16 0.09 0.02 0.20 0.47 0.78 0.50 0.56 0.67 0.89 0.98 0.64 0.89 1.35 0.88 0.41
1.31 1.23 1.21 1.33 1.31 1.34 1.41 1.37 1.39 1.52 1.74 1.70 1.45 2.59 2.14 2.40 2.58 3.78 2.93 1.56 0.79 0.38 0.43 0.35 0.11 0.11 0.05 0.05 0.30 0.21 0.21 0.09 0.03 0.01 0.13 0.57 0.93 0.71 0.90 0.96 0.67 0.95 1.19 0.73 0.91 0.48 0.55
1.31 1.45 1.48 1.48 1.47 1.33 1.51 1.41 1.16 1.48 1.78 1.88 1.59 2.08 1.97 2.62 3.52 2.63 2.08 1.63 0.77 0.37 0.38 0.36 0.16 0.06 0.05 0.03 0.18 0.13 0.07 0.06 0.03 0.04 0.19 0.55 1.06 0.83 0.41 0.41 0.23 0.53 0.62 0.74 0.86 0.48 0.43
1.14 1.31 1.49 1.55 1.38 1.27 1.39 1.54 1.26 1.39 2.33 2.52 1.86 2.26 2.91 1.88 1.66 1.39 1.64 1.17 0.64 0.39 0.37 0.35 0.11 0.04 0.02 0.04 0.08 0.03 0.06 0.01 0.03 0.11 0.29 0.66 1.36 1.09 0.64 0.98 0.67 0.84 0.49 0.73 1.25 1.27 0.85
1.42 1.18 1.26 1.23 1.31 1.28 1.35 1.19 1.14 1.25 1.72 2.16 1.87 2.07 3.56 2.60 0.92 1.01 1.18 1.00 0.69 0.35 0.28 0.30 0.15 0.07 0.06 0.05 0.03 0.02 0.07 0.03 0.01 0.08 0.30 0.86 1.04 0.84 0.62 0.86 0.88 0.64 0.44 0.73 1.74 2.13 0.67
1.46 1.31 1.23 1.25 1.33 1.36 1.72 1.38 1.10 1.20 1.35 1.77 1.46 0.79 0.77 0.89 0.61 0.55 0.88 0.75 0.61 0.52 0.32 0.28 0.19 0.09 0.06 0.06 0.03 0.03 0.04 0.04 0.06 0.06 0.27 1.08 1.40 1.01 0.43 0.17 0.67 0.68 0.52 0.76 1.52 0.99 1.09
1.35 1.42 1.44 1.76 1.62 1.88 2.10 1.71 1.25 1.49 2.10 1.74 1.09 0.50 0.18 0.12 0.08 0.25 0.76 0.89 0.63 0.53 0.41 0.21 0.11 0.05 0.07 0.04 0.04 0.05 0.07 0.10 0.10 0.10 0.26 0.74 1.34 1.29 0.83 0.36 0.36 0.62 0.61 0.81 0.83 0.77 0.84
1.17 1.22 1.31 1.40 1.54 1.52 1.38 1.55 1.67 1.80 2.45 1.67 0.91 0.42 0.26 0.18 0.07 0.15 0.45 0.66 0.52 0.47 0.30 0.10 0.08 0.12 0.10 0.05 0.04 0.04 0.07 0.12 0.27 0.29 0.32 0.65 0.94 1.14 0.71 0.48 0.70 1.12 0.77 0.59 0.38 0.37 0.49
1.29 1.27 1.02 1.03 1.10 1.31 1.38 1.38 1.29 1.22 1.45 1.18 0.81 0.67 0.51 0.22 0.07 0.07 0.20 0.41 0.43 0.38 0.37 0.09 0.10 0.11 0.07 0.05 0.06 0.07 0.14 0.09 0.09 0.19 0.33 0.31 0.55 0.89 0.75 0.73 1.02 0.63 0.51 0.35 0.36 0.36 0.32
1.10 1.08 1.04 0.88 0.86 0.98 1.14 1.37 0.98 0.89 1.02 0.71 0.63 0.61 0.41 0.17 0.07 0.05 0.16 0.36 0.49 0.46 0.52 0.25 0.09 0.07 0.09 0.13 0.22 0.23 0.31 0.37 0.20 0.11 0.05 0.23 0.39 0.63 0.46 0.38 0.25 0.02 0.05 0.17 0.23 0.37 0.20
1.02 0.93 1.02 1.16 0.90 0.78 0.92 1.09 0.84 0.72 0.66 0.44 0.52 0.51 0.52 0.20 0.09 0.03 0.05 0.16 0.45 0.46 0.53 0.41 0.24 0.15 0.25 0.34 0.35 0.36 0.30 0.25 0.25 0.29 0.20 0.07 0.24 0.73 0.40 0.36 0.09 0.00 0.00 0.00 0.03 0.21 0.30
1.32 0.96 0.78 0.87 1.08 0.85 0.89 1.02 0.81 0.67 0.59 0.38 0.49 0.50 0.37 0.20 0.06 0.02 0.03 0.06 0.30 0.53 0.59 0.47 0.41 0.21 0.36 0.63 0.52 0.33 0.13 0.09 0.15 0.22 0.14 0.34 0.36 0.45 0.35 0.37 0.03 0.00 0.00 0.00 0.04 0.12 0.11
1.25 1.25 1.12 0.67 0.61 0.84 0.99 1.06 1.06 0.81 0.68 0.44 0.36 0.38 0.33 0.20 0.08 0.02 0.02 0.04 0.18 0.42 0.61 0.56 0.71 0.50 0.53 0.80 0.74 0.42 0.14 0.06 0.04 0.08 0.04 0.10 0.22 0.24 0.22 0.27 0.04 0.00 0.00 0.01 0.01 0.00 0.00
1.32 0.93 0.91 0.84 0.59 0.53 0.78 0.88 1.03 0.82 0.66 0.57 0.36 0.34 0.34 0.27 0.11 0.03 0.01 0.01 0.05 0.27 0.60 0.60 0.59 0.42 0.52 0.54 0.47 0.38 0.30 0.24 0.10 0.08 0.02 0.03 0.03 0.09 0.08 0.05 0.01 0.01 0.00 0.00 0.00 0.00 0.00

GFSGBSN_prec_precacc_126.txt.gz
Total_Precipitation_Accumulation
0.29 0.31 0.33 0.31 0.30 0.27 0.24 0.32 0.40 0.42 0.46 0.58 0.68 0.69 0.61 0.56 0.70 0.74 0.58 0.52 0.64 0.57 0.35 0.35 0.41 0.66 0.69 0.38 0.11 0.24 0.17 0.17 0.30 0.78 0.76 1.01 0.66 0.45 0.32 0.34 1.24 1.43 1.25 0.78 0.85 0.64 0.50
0.30 0.33 0.36 0.31 0.30 0.29 0.30 0.38 0.45 0.49 0.53 0.61 0.71 0.73 0.61 0.57 0.60 0.72 0.54 0.33 0.44 0.77 0.54 0.35 0.54 0.91 0.62 0.23 0.02 0.07 0.17 0.16 0.34 0.76 0.77 1.05 0.67 0.40 0.28 0.35 0.78 1.22 1.56 0.94 0.76 0.65 0.33
0.30 0.38 0.38 0.34 0.32 0.30 0.35 0.47 0.50 0.51 0.54 0.61 0.68 0.66 0.58 0.63 0.59 0.62 0.47 0.33 0.42 0.82 0.55 0.57 0.86 1.00 0.50 0.08 0.03 0.09 0.15 0.23 0.37 0.66 0.89 0.92 0.49 0.41 0.25 0.26 0.25 0.76 1.68 1.34 0.78 0.84 0.41
0.32 0.38 0.41 0.36 0.31 0.32 0.41 0.51 0.51 0.51 0.53 0.60 0.74 0.63 0.65 0.71 0.54 0.49 0.43 0.37 0.47 0.72 0.70 0.74 1.19 1.07 0.34 0.02 0.03 0.03 0.12 0.23 0.29 0.67 0.75 1.04 0.79 0.45 0.30 0.20 0.28 0.50 1.32 1.69 0.94 0.92 0.71
0.35 0.38 0.39 0.35 0.30 0.37 0.51 0.53 0.48 0.48 0.57 0.74 0.83 0.73 0.72 0.66 0.59 0.55 0.45 0.51 0.63 0.71 0.76 1.22 1.10 0.66 0.16 0.04 0.06 0.03 0.14 0.23 0.26 0.72 0.94 1.66 1.51 0.71 0.36 0.39 0.43 0.39 0.54 0.98 1.09 0.81 0.88
0.34 0.39 0.40 0.34 0.34 0.44 0.55 0.57 0.53 0.60 0.73 0.89 0.84 0.77 0.83 0.77 0.75 0.69 0.68 0.82 1.09 1.06 1.02 1.55 0.94 0.81 0.15 0.05 0.14 0.08 0.22 0.30 0.50 1.13 1.70 2.44 1.75 1.15 0.53 0.56 0.42 0.17 0.19 0.27 0.55 0.71 0.68
0.37 0.42 0.39 0.32 0.35 0.44 0.52 0.58 0.54 0.66 0.70 0.81 0.77 0.81 0.85 0.78 0.95 1.11 1.25 1.66 1.48 1.61 1.18 0.81 0.51 0.40 0.17 0.26 0.39 0.27 0.35 0.56 0.97 1.55 1.67 2.32 1.40 0.98 0.40 0.19 0.07 0.07 0.11 0.14 0.15 0.26 0.51
0.42 0.51 0.44 0.43 0.47 0.57 0.60 0.61 0.60 0.72 0.78 0.84 0.80 0.83 0.83 0.81 1.07 1.32 1.32 1.28 0.79 0.82 0.88 0.41 0.36 0.36 0.23 0.48 0.74 0.58 0.40 0.98 1.00 1.25 1.58 2.15 0.99 0.31 0.34 0.23 0.15 0.13 0.10 0.09 0.13 0.16 0.23
0.51 0.53 0.39 0.44 0.50 0.62 0.65 0.63 0.71 0.81 0.86 0.91 0.88 0.94 1.12 1.22 1.35 1.82 1.18 0.79 0.77 1.00 1.26 0.86 0.55 0.48 0.41 0.84 0.78 0.76 0.55 1.14 0.77 1.01 1.56 1.62 0.60 0.35 0.47 0.45 0.26 0.16 0.06 0.05 0.09 0.10 0.11
0.63 0.61 0.55 0.61 0.58 0.63 0.68 0.74 0.95 1.08 1.05 1.06 1.12 1.42 1.54 1.78 2.13 1.27 1.34 0.98 1.04 1.66 2.25 1.23 0.79 0.60 0.72 0.99 0.99 0.56 1.01 1.36 0.69 1.04 1.34 1.19 0.61 0.55 0.69 0.51 0.29 0.22 0.10 0.04 0.08 0.13 0.14
0.72 0.77 0.80 0.74 0.77 0.79 0.77 0.86 0.98 1.01 1.07 1.18 1.52 1.71 1.77 2.34 2.56 1.47 1.41 1.07 1.31 2.38 2.13 1.11 0.86 0.77 0.78 0.68 0.63 0.76 1.04 1.29 0.52 0.83 1.32 1.21 0.74 0.59 0.90 0.69 0.22 0.25 0.10 0.04 0.12 0.18 0.18
0.85 0.75 0.75 0.73 0.80 0.89 0.87 0.88 0.90 0.83 1.02 1.36 1.37 1.32 1.78 2.19 2.29 1.55 1.47 1.66 2.15 2.61 1.97 1.39 1.24 0.88 0.77 0.58 0.62 0.99 1.11 1.06 0.68 0.88 0.87 0.80 0.64 0.57 0.65 0.72 0.41 0.26 0.27 0.24 0.20 0.49 0.53
0.89 0.76 0.78 0.78 0.82 0.86 0.86 0.93 1.01 1.10 1.17 1.19 1.23 1.27 1.63 1.70 1.89 1.90 2.39 2.25 2.54 1.64 1.15 1.17 1.06 0.82 0.75 0.68 0.80 0.88 1.23 1.01 1.41 1.18 1.39 1.47 0.98 0.59 0.50 0.99 0.91 0.73 0.95 1.22 0.93 1.09 0.63
1.00 1.07 0.96 0.91 0.93 0.93 1.08 1.05 1.25 1.38 1.28 1.29 1.36 1.31 1.60 1.41 2.03 2.02 3.03 2.19 1.66 0.68 0.99 0.90 0.39 0.47 0.53 0.30 0.57 0.73 0.89 0.69 0.59 0.39 0.82 1.12 1.15 0.74 0.55 0.99 1.32 0.91 1.08 1.30 0.93 0.50 0.28
0.95 1.07 1.08 1.05 1.15 1.20 1.31 1.19 1.17 1.26 1.30 1.68 1.67 1.94 2.73 1.54 2.11 2.69 2.77 2.20 1.05 0.87 1.03 0.63 0.50 0.41 0.38 0.27 0.57 0.63 0.64 0.30 0.24 0.15 0.61 0.66 0.61 0.42 0.36 0.47 0.87 1.16 1.21 0.72 0.89 0.44 0.35
1.06 1.00 1.14 1.25 1.23 1.32 1.35 1.27 1.31 1.27 1.50 1.84 1.84 2.12 2.67 1.82 1.84 3.38 3.11 1.79 0.92 0.73 0.51 0.31 0.36 0.22 0.15 0.21 0.50 0.45 0.44 0.16 0.09 0.02 0.20 0.47 0.78 0.50 0.56 0.67 0.89 0.98 0.64 0.89 1.35 0.88 0.41
1.31 1.23 1.21 1.33 1.31 1.34 1.41 1.37 1.39 1.52 1.74 1.70 1.45 2.59 2.14 2.40 2.58 3.78 2.93 1.56 0.79 0.38 0.43 0.35 0.11 0.11 0.05 0.05 0.30 0.21 0.21 0.09 0.03 0.01 0.13 0.57 0.93 0.71 0.90 0.96 0.67 0.95 1.19 0.73 0.91 0.48 0.55
1.31 1.46 1.48 1.48 1.47 1.33 1.51 1.41 1.16 1.48 1.78 1.88 1.59 2.08 1.97 2.62 3.52 2.63 2.08 1.63 0.77 0.37 0.38 0.36 0.16 0.06 0.05 0.03 0.18 0.13 0.07 0.06 0.03 0.04 0.19 0.55 1.06 0.83 0.41 0.41 0.23 0.53 0.62 0.74 0.86 0.48 0.43
1.14 1.31 1.49 1.55 1.38 1.27 1.39 1.54 1.26 1.39 2.33 2.52 1.86 2.26 2.91 1.88 1.66 1.39 1.64 1.17 0.64 0.39 0.37 0.35 0.11 0.04 0.02 0.04 0.08 0.03 0.06 0.01 0.03 0.11 0.29 0.66 1.36 1.09 0.64 0.98 0.67 0.84 0.49 0.73 1.25 1.27 0.85
1.42 1.18 1.26 1.23 1.31 1.28 1.35 1.19 1.14 1.25 1.72 2.16 1.87 2.07 3.56 2.60 0.92 1.01 1.18 1.00 0.69 0.35 0.28 0.30 0.15 0.07 0.06 0.05 0.03 0.02 0.07 0.03 0.01 0.08 0.30 0.86 1.04 0.84 0.62 0.86 0.88 0.64 0.44 0.73 1.74 2.13 0.67
1.46 1.31 1.23 1.25 1.33 1.36 1.72 1.38 1.10 1.20 1.35 1.77 1.46 0.79 0.77 0.89 0.61 0.55 0.88 0.75 0.61 0.52 0.32 0.28 0.19 0.09 0.06 0.06 0.03 0.03 0.04 0.04 0.06 0.06 0.27 1.08 1.40 1.01 0.43 0.17 0.67 0.68 0.52 0.76 1.52 0.99 1.09
1.35 1.42 1.44 1.76 1.62 1.88 2.10 1.71 1.25 1.49 2.10 1.74 1.09 0.50 0.18 0.12 0.08 0.25 0.76 0.89 0.63 0.53 0.41 0.21 0.11 0.05 0.07 0.04 0.04 0.05 0.07 0.10 0.10 0.10 0.26 0.74 1.34 1.29 0.83 0.36 0.36 0.62 0.61 0.81 0.83 0.77 0.84
1.17 1.22 1.31 1.40 1.54 1.52 1.38 1.55 1.67 1.80 2.45 1.67 0.91 0.42 0.26 0.18 0.07 0.15 0.45 0.66 0.52 0.47 0.30 0.10 0.08 0.12 0.10 0.05 0.04 0.04 0.07 0.12 0.27 0.29 0.32 0.65 0.94 1.14 0.71 0.48 0.70 1.12 0.77 0.59 0.38 0.37 0.49
1.30 1.27 1.03 1.03 1.10 1.31 1.38 1.38 1.29 1.22 1.45 1.18 0.81 0.67 0.51 0.22 0.07 0.07 0.20 0.41 0.43 0.38 0.37 0.09 0.10 0.11 0.07 0.05 0.06 0.07 0.14 0.09 0.09 0.19 0.33 0.31 0.55 0.89 0.75 0.73 1.02 0.63 0.51 0.35 0.36 0.36 0.32
1.10 1.08 1.04 0.88 0.86 0.98 1.14 1.37 0.98 0.89 1.02 0.71 0.63 0.61 0.41 0.17 0.07 0.05 0.16 0.36 0.49 0.46 0.52 0.25 0.09 0.07 0.09 0.13 0.22 0.23 0.31 0.37 0.20 0.11 0.05 0.23 0.39 0.63 0.46 0.38 0.25 0.02 0.05 0.17 0.23 0.37 0.20
1.02 0.94 1.02 1.16 0.90 0.78 0.92 1.09 0.84 0.72 0.66 0.44 0.52 0.51 0.52 0.20 0.09 0.03 0.05 0.16 0.45 0.46 0.53 0.41 0.24 0.15 0.25 0.34 0.35 0.36 0.30 0.25 0.25 0.29 0.20 0.07 0.24 0.73 0.40 0.36 0.09 0.00 0.00 0.00 0.03 0.21 0.30
1.32 0.97 0.78 0.87 1.08 0.85 0.89 1.02 0.81 0.67 0.59 0.38 0.49 0.50 0.37 0.20 0.06 0.02 0.03 0.06 0.30 0.53 0.59 0.47 0.41 0.21 0.36 0.63 0.52 0.33 0.13 0.09 0.15 0.22 0.14 0.34 0.36 0.45 0.35 0.37 0.03 0.00 0.00 0.00 0.04 0.12 0.11
1.25 1.25 1.13 0.67 0.61 0.84 0.99 1.06 1.06 0.81 0.68 0.44 0.36 0.38 0.33 0.20 0.08 0.02 0.02 0.04 0.18 0.42 0.61 0.56 0.71 0.50 0.53 0.80 0.74 0.42 0.14 0.06 0.04 0.08 0.04 0.10 0.22 0.24 0.22 0.27 0.04 0.00 0.00 0.01 0.01 0.00 0.00
1.33 0.94 0.92 0.84 0.59 0.53 0.78 0.88 1.03 0.82 0.66 0.57 0.36 0.34 0.34 0.27 0.11 0.03 0.01 0.01 0.05 0.27 0.60 0.60 0.59 0.42 0.52 0.54 0.47 0.38 0.30 0.24 0.10 0.08 0.02 0.03 0.03 0.09 0.08 0.05 0.01 0.01 0.00 0.00 0.00 0.00 0.00

GFSGBSN_prec_precacc_129.txt.gz
Total_Precipitation_Accumulation
0.34 0.38 0.42 0.44 0.35 0.29 0.26 0.35 0.42 0.43 0.50 0.65 0.74 0.75 0.68 0.62 0.76 0.87 0.66 0.53 0.64 0.62 0.46 0.37 0.41 0.66 0.69 0.38 0.11 0.24 0.18 0.19 0.31 0.78 0.76 1.01 0.66 0.45 0.32 0.34 1.24 1.43 1.25 0.78 0.85 0.64 0.50
0.35 0.40 0.44 0.39 0.33 0.30 0.34 0.42 0.47 0.52 0.59 0.65 0.78 0.76 0.66 0.62 0.62 0.76 0.57 0.34 0.45 0.82 0.60 0.38 0.54 0.91 0.62 0.23 0.02 0.07 0.17 0.16 0.34 0.76 0.77 1.05 0.67 0.40 0.28 0.35 0.78 1.22 1.56 0.94 0.76 0.65 0.33
0.33 0.42 0.43 0.37 0.34 0.31 0.39 0.52 0.53 0.55 0.62 0.66 0.74 0.67 0.59 0.65 0.59 0.63 0.47 0.34 0.56 1.01 0.59 0.58 0.86 1.00 0.50 0.08 0.03 0.09 0.15 0.23 0.37 0.66 0.89 0.92 0.49 0.42 0.26 0.26 0.25 0.76 1.68 1.34 0.78 0.84 0.41
0.35 0.41 0.42 0.38 0.31 0.32 0.45 0.54 0.53 0.56 0.64 0.67 0.79 0.65 0.66 0.71 0.54 0.49 0.43 0.41 0.72 0.95 0.74 0.74 1.19 1.07 0.34 0.02 0.03 0.03 0.12 0.23 0.29 0.67 0.75 1.04 0.79 0.46 0.31 0.20 0.28 0.50 1.33 1.69 0.94 0.92 0.71
0.39 0.40 0.40 0.36 0.30 0.37 0.53 0.56 0.51 0.53 0.66 0.80 0.84 0.75 0.73 0.66 0.60 0.55 0.45 0.55 0.75 0.73 0.76 1.22 1.10 0.66 0.16 0.04 0.06 0.03 0.14 0.23 0.26 0.72 0.94 1.66 1.51 0.71 0.37 0.40 0.43 0.39 0.55 0.98 1.09 0.81 0.88
0.38 0.41 0.41 0.35 0.34 0.44 0.56 0.60 0.55 0.62 0.77 0.91 0.85 0.77 0.83 0.77 0.75 0.69 0.69 0.83 1.10 1.06 1.02 1.55 0.94 0.81 0.15 0.05 0.14 0.08 0.22 0.30 0.50 1.13 1.71 2.44 1.76 1.16 0.53 0.57 0.45 0.22 0.23 0.28 0.55 0.71 0.68
0.40 0.43 0.40 0.33 0.35 0.44 0.53 0.59 0.56 0.69 0.72 0.81 0.78 0.82 0.86 0.78 0.95 1.11 1.26 1.67 1.48 1.61 1.18 0.81 0.51 0.40 0.17 0.26 0.39 0.27 0.35 0.56 0.97 1.55 1.67 2.32 1.40 0.98 0.40 0.19 0.09 0.10 0.15 0.18 0.16 0.26 0.51
0.44 0.52 0.45 0.44 0.47 0.57 0.61 0.62 0.62 0.74 0.80 0.86 0.80 0.83 0.84 0.81 1.07 1.32 1.32 1.28 0.79 0.82 0.88 0.41 0.36 0.36 0.23 0.48 0.74 0.58 0.40 0.98 1.00 1.25 1.58 2.15 0.99 0.31 0.34 0.23 0.15 0.13 0.10 0.09 0.13 0.16 0.23
0.53 0.54 0.40 0.44 0.50 0.62 0.65 0.63 0.72 0.81 0.87 0.92 0.88 0.94 1.12 1.22 1.35 1.82 1.18 0.79 0.77 1.00 1.26 0.86 0.55 0.48 0.41 0.84 0.78 0.76 0.55 1.14 0.77 1.01 1.56 1.62 0.60 0.35 0.47 0.46 0.26 0.16 0.06 0.05 0.09 0.10 0.11
0.64 0.62 0.56 0.61 0.58 0.63 0.68 0.74 0.95 1.08 1.05 1.06 1.12 1.42 1.54 1.78 2.13 1.27 1.34 0.98 1.04 1.66 2.25 1.23 0.79 0.60 0.72 0.99 0.99 0.56 1.01 1.36 0.69 1.04 1.34 1.19 0.61 0.55 0.70 0.51 0.29 0.22 0.10 0.04 0.08 0.13 0.14
0.73 0.78 0.81 0.74 0.77 0.79 0.77 0.86 0.98 1.01 1.07 1.18 1.52 1.71 1.77 2.34 2.56 1.47 1.41 1.07 1.31 2.38 2.13 1.11 0.86 0.77 0.78 0.68 0.63 0.76 1.04 1.29 0.52 0.83 1.32 1.21 0.74 0.59 0.90 0.70 0.22 0.26 0.10 0.04 0.12 0.18 0.18
0.85 0.76 0.76 0.73 0.80 0.89 0.87 0.88 0.90 0.83 1.02 1.36 1.37 1.32 1.78 2.19 2.29 1.55 1.47 1.66 2.15 2.61 1.97 1.39 1.24 0.88 0.77 0.58 0.62 0.99 1.11 1.06 0.68 0.88 0.87 0.80 0.64 0.57 0.65 0.72 0.41 0.27 0.27 0.24 0.20 0.50 0.53
0.89 0.76 0.78 0.78 0.82 0.86 0.86 0.93 1.01 1.10 1.17 1.19 1.23 1.27 1.63 1.70 1.89 1.90 2.39 2.25 2.54 1.64 1.15 1.17 1.06 0.82 0.75 0.68 0.80 0.88 1.23 1.01 1.41 1.18 1.39 1.47 0.98 0.59 0.50 0.99 0.91 0.73 0.95 1.22 0.93 1.10 0.63
1.00 1.07 0.96 0.91 0.93 0.93 1.08 1.05 1.25 1.38 1.28 1.29 1.36 1.31 1.60 1.41 2.03 2.02 3.03 2.19 1.66 0.68 0.99 0.90 0.39 0.47 0.53 0.30 0.57 0.73 0.89 0.69 0.59 0.39 0.82 1.12 1.15 0.74 0.55 0.99 1.32 0.91 1.08 1.30 0.94 0.50 0.28
0.95 1.07 1.08 1.05 1.15 1.20 1.31 1.19 1.17 1.26 1.30 1.68 1.67 1.94 2.73 1.54 2.11 2.69 2.77 2.20 1.05 0.87 1.03 0.63 0.50 0.41 0.38 0.27 0.57 0.63 0.64 0.30 0.24 0.15 0.61 0.66 0.61 0.42 0.36 0.47 0.87 1.16 1.21 0.72 0.89 0.44 0.35
1.06 1.00 1.14 1.25 1.23 1.32 1.35 1.27 1.31 1.27 1.50 1.84 1.84 2.12 2.67 1.82 1.84 3.38 3.11 1.79 0.92 0.73 0.51 0.31 0.36 0.22 0.15 0.21 0.50 0.45 0.44 0.16 0.09 0.02 0.20 0.47 0.78 0.50 0.56 0.67 0.89 0.98 0.64 0.89 1.35 0.88 0.41
1.31 1.23 1.21 1.33 1.31 1.34 1.41 1.37 1.39 1.52 1.74 1.70 1.45 2.59 2.14 2.40 2.58 3.78 2.93 1.56 0.79 0.38 0.43 0.35 0.11 0.11 0.05 0.05 0.30 0.21 0.21 0.09 0.03 0.01 0.13 0.57 0.93 0.71 0.90 0.96 0.67 0.95 1.19 0.73 0.91 0.48 0.55
1.31 1.46 1.48 1.48 1.47 1.33 1.51 1.41 1.16 1.48 1.78 1.88 1.59 2.08 1.97 2.62 3.52 2.63 2.08 1.63 0.77 0.37 0.38 0.36 0.16 0.06 0.05 0.03 0.18 0.13 0.07 0.06 0.03 0.04 0.19 0.55 1.06 0.83 0.41 0.41 0.23 0.53 0.62 0.74 0.86 0.48 0.43
1.14 1.31 1.49 1.55 1.38 1.27 1.39 1.54 1.26 1.39 2.33 2.52 1.86 2.26 2.91 1.88 1.66 1.39 1.64 1.17 0.64 0.39 0.37 0.35 0.11 0.04 0.02 0.04 0.08 0.03 0.06 0.01 0.03 0.11 0.29 0.66 1.36 1.09 0.64 0.98 0.67 0.84 0.49 0.73 1.25 1.27 0.85
1.42 1.18 1.26 1.23 1.31 1.28 1.35 1.19 1.14 1.25 1.72 2.16 1.87 2.07 3.56 2.60 0.92 1.01 1.18 1.00 0.69 0.35 0.28 0.30 0.15 0.07 0.06 0.05 0.03 0.02 0.07 0.03 0.01 0.08 0.30 0.86 1.04 0.84 0.62 0.86 0.88 0.64 0.44 0.73 1.74 2.13 0.67
1.46 1.31 1.23 1.25 1.33 1.36 1.72 1.38 1.10 1.20 1.35 1.77 1.46 0.79 0.77 0.89 0.61 0.55 0.88 0.75 0.61 0.52 0.32 0.28 0.19 0.09 0.06 0.06 0.03 0.03 0.04 0.04 0.06 0.06 0.27 1.08 1.40 1.01 0.43 0.17 0.67 0.68 0.52 0.76 1.52 0.99 1.09
1.35 1.42 1.44 1.76 1.62 1.88 2.10 1.71 1.25 1.49 2.10 1.74 1.09 0.50 0.18 0.12 0.08 0.25 0.76 0.89 0.63 0.53 0.41 0.21 0.11 0.05 0.07 0.04 0.04 0.05 0.07 0.10 0.10 0.10 0.26 0.74 1.34 1.29 0.83 0.36 0.36 0.62 0.61 0.81 0.83 0.77 0.84
1.17 1.22 1.31 1.40 1.54 1.52 1.38 1.55 1.67 1.80 2.45 1.67 0.91 0.42 0.26 0.18 0.07 0.15 0.45 0.66 0.52 0.47 0.30 0.10 0.08 0.12 0.10 0.05 0.04 0.04 0.07 0.12 0.27 0.29 0.32 0.65 0.94 1.14 0.71 0.48 0.70 1.12 0.77 0.59 0.38 0.37 0.49
1.30 1.27 1.03 1.03 1.10 1.31 1.38 1.38 1.29 1.22 1.45 1.18 0.81 0.67 0.51 0.22 0.07 0.07 0.20 0.41 0.43 0.38 0.37 0.09 0.10 0.11 0.07 0.05 0.06 0.07 0.14 0.09 0.09 0.19 0.33 0.31 0.55 0.89 0.75 0.73 1.02 0.63 0.51 0.35 0.36 0.36 0.32
1.11 1.09 1.04 0.89 0.86 0.98 1.14 1.37 0.98 0.89 1.02 0.71 0.63 0.61 0.41 0.17 0.07 0.05 0.16 0.36 0.49 0.46 0.52 0.25 0.09 0.07 0.09 0.13 0.22 0.23 0.31 0.37 0.20 0.11 0.05 0.23 0.39 0.63 0.46 0.38 0.25 0.02 0.05 0.17 0.23 0.37 0.20
1.03 0.94 1.02 1.17 0.91 0.78 0.92 1.09 0.84 0.72 0.66 0.44 0.52 0.51 0.52 0.20 0.09 0.03 0.05 0.16 0.45 0.46 0.53 0.41 0.24 0.15 0.25 0.34 0.35 0.36 0.30 0.25 0.25 0.29 0.20 0.07 0.24 0.73 0.40 0.36 0.09 0.00 0.00 0.00 0.03 0.21 0.30
1.33 0.98 0.79 0.89 1.09 0.86 0.90 1.03 0.81 0.67 0.59 0.38 0.49 0.50 0.37 0.20 0.06 0.02 0.03 0.06 0.30 0.53 0.59 0.47 0.41 0.21 0.36 0.63 0.52 0.33 0.13 0.09 0.15 0.22 0.14 0.34 0.36 0.45 0.35 0.37 0.03 0.00 0.00 0.00 0.04 0.12 0.11
1.26 1.26 1.15 0.70 0.63 0.87 1.00 1.07 1.06 0.81 0.68 0.44 0.36 0.38 0.33 0.20 0.08 0.02 0.02 0.04 0.18 0.42 0.61 0.56 0.71 0.50 0.53 0.80 0.74 0.42 0.14 0.06 0.04 0.08 0.04 0.10 0.22 0.24 0.22 0.27 0.04 0.00 0.00 0.01 0.01 0.00 0.00
1.33 0.94 0.94 0.89 0.62 0.56 0.80 0.90 1.05 0.84 0.67 0.57 0.36 0.34 0.34 0.27 0.11 0.03 0.01 0.01 0.05 0.27 0.60 0.60 0.59 0.42 0.52 0.54 0.47 0.38 0.30 0.24 0.10 0.08 0.02 0.03 0.03 0.09 0.08 0.05 0.01 0.01 0.00 0.00 0.00 0.00 0.00

GFSGBSN_prec_precacc_132.txt.gz
Total_Precipitation_Accumulation
0.37 0.39 0.43 0.45 0.36 0.31 0.30 0.40 0.47 0.50 0.58 0.69 0.77 0.76 0.70 0.64 0.78 0.88 0.66 0.54 0.64 0.67 0.56 0.37 0.41 0.66 0.69 0.38 0.11 0.24 0.19 0.22 0.32 0.78 0.76 1.01 0.66 0.45 0.32 0.34 1.24 1.43 1.25 0.78 0.85 0.64 0.50
0.38 0.41 0.45 0.39 0.34 0.32 0.38 0.47 0.51 0.58 0.71 0.72 0.79 0.77 0.66 0.64 0.62 0.76 0.57 0.34 0.45 0.92 0.64 0.38 0.54 0.91 0.62 0.23 0.02 0.07 0.17 0.16 0.34 0.76 0.77 1.05 0.67 0.40 0.28 0.35 0.79 1.22 1.56 0.94 0.76 0.65 0.33
0.35 0.43 0.44 0.38 0.35 0.32 0.42 0.55 0.55 0.59 0.68 0.68 0.75 0.67 0.60 0.66 0.60 0.63 0.48 0.37 0.65 1.06 0.59 0.58 0.86 1.00 0.50 0.08 0.03 0.09 0.15 0.23 0.37 0.66 0.89 0.92 0.49 0.43 0.27 0.27 0.25 0.76 1.68 1.34 0.78 0.84 0.41
0.37 0.42 0.43 0.38 0.32 0.34 0.46 0.56 0.54 0.58 0.65 0.68 0.80 0.66 0.67 0.71 0.54 0.49 0.44 0.45 0.78 0.99 0.75 0.74 1.19 1.07 0.34 0.02 0.03 0.03 0.12 0.23 0.29 0.67 0.75 1.04 0.79 0.47 0.32 0.20 0.28 0.50 1.33 1.69 0.94 0.92 0.71
0.40 0.40 0.40 0.37 0.31 0.39 0.54 0.57 0.52 0.53 0.67 0.81 0.86 0.76 0.74 0.67 0.60 0.56 0.48 0.59 0.76 0.74 0.76 1.22 1.10 0.66 0.16 0.04 0.06 0.03 0.14 0.23 0.26 0.72 0.94 1.66 1.52 0.74 0.39 0.40 0.44 0.39 0.55 0.99 1.09 0.81 0.88
0.39 0.41 0.41 0.35 0.35 0.46 0.57 0.60 0.56 0.62 0.78 0.92 0.86 0.78 0.83 0.77 0.76 0.70 0.69 0.84 1.10 1.06 1.02 1.55 0.94 0.81 0.15 0.05 0.14 0.08 0.22 0.30 0.50 1.13 1.71 2.46 1.79 1.18 0.55 0.59 0.47 0.24 0.26 0.28 0.55 0.71 0.68
0.41 0.44 0.40 0.33 0.35 0.45 0.54 0.59 0.56 0.69 0.72 0.82 0.78 0.82 0.86 0.78 0.95 1.11 1.26 1.67 1.48 1.61 1.18 0.81 0.51 0.40 0.17 0.26 0.39 0.27 0.35 0.56 0.97 1.55 1.67 2.32 1.41 0.99 0.41 0.20 0.10 0.12 0.17 0.19 0.16 0.26 0.51
0.45 0.53 0.45 0.44 0.47 0.57 0.61 0.62 0.62 0.74 0.80 0.86 0.80 0.83 0.84 0.81 1.07 1.32 1.32 1.28 0.79 0.82 0.88 0.41 0.36 0.36 0.23 0.48 0.74 0.58 0.40 0.98 1.00 1.25 1.58 2.15 1.00 0.31 0.34 0.25 0.16 0.14 0.10 0.09 0.13 0.16 0.23
0.54 0.55 0.40 0.44 0.50 0.62 0.65 0.63 0.72 0.81 0.87 0.92 0.88 0.94 1.12 1.22 1.35 1.82 1.18 0.79 0.77 1.00 1.26 0.86 0.55 0.48 0.41 0.84 0.78 0.76 0.55 1.14 0.77 1.01 1.56 1.62 0.60 0.35 0.48 0.47 0.26 0.16 0.06 0.05 0.09 0.10 0.11
0.65 0.62 0.56 0.61 0.58 0.63 0.68 0.74 0.95 1.08 1.05 1.06 1.12 1.42 1.54 1.78 2.13 1.27 1.34 0.98 1.04 1.66 2.25 1.23 0.79 0.60 0.72 0.99 0.99 0.56 1.01 1.36 0.69 1.04 1.34 1.19 0.61 0.55 0.70 0.52 0.29 0.22 0.10 0.04 0.08 0.13 0.14
0.74 0.78 0.81 0.74 0.77 0.79 0.77 0.86 0.98 1.01 1.07 1.18 1.52 1.71 1.77 2.34 2.56 1.47 1.41 1.07 1.31 2.38 2.13 1.11 0.86 0.77 0.78 0.68 0.63 0.76 1.04 1.29 0.52 0.83 1.32 1.21 0.74 0.59 0.90 0.70 0.22 0.27 0.11 0.04 0.12 0.18 0.18
0.85 0.76 0.76 0.73 0.80 0.89 0.87 0.88 0.90 0.83 1.02 1.36 1.37 1.32 1.78 2.19 2.29 1.55 1.47 1.66 2.15 2.61 1.97 1.39 1.24 0.88 0.77 0.58 0.62 0.99 1.11 1.06 0.68 0.88 0.87 0.80 0.64 0.57 0.65 0.72 0.41 0.27 0.27 0.24 0.20 0.50 0.53
0.89 0.76 0.78 0.78 0.82 0.86 0.86 0.93 1.01 1.10 1.17 1.19 1.23 1.27 1.63 1.70 1.89 1.90 2.39 2.25 2.54 1.64 1.15 1.17 1.06 0.82 0.75 0.68 0.80 0.88 1.23 1.01 1.41 1.18 1.39 1.47 0.98 0.59 0.50 0.99 0.91 0.73 0.95 1.22 0.93 1.11 0.63
1.00 1.07 0.96 0.91 0.93 0.93 1.08 1.05 1.25 1.38 1.28 1.29 1.36 1.31 1.60 1.41 2.03 2.02 3.03 2.19 1.66 0.68 0.99 0.90 0.39 0.47 0.53 0.30 0.57 0.73 0.89 0.69 0.59 0.39 0.82 1.12 1.15 0.74 0.55 0.99 1.32 0.91 1.09 1.31 0.94 0.50 0.28
0.95 1.07 1.08 1.05 1.15 1.20 1.31 1.19 1.17 1.26 1.30 1.68 1.67 1.94 2.73 1.54 2.11 2.69 2.77 2.20 1.05 0.87 1.03 0.63 0.50 0.41 0.38 0.27 0.57 0.63 0.64 0.30 0.24 0.15 0.61 0.66 0.61 0.42 0.36 0.47 0.87 1.16 1.21 0.72 0.89 0.44 0.35
1.06 1.00 1.14 1.25 1.23 1.32 1.35 1.27 1.31 1.27 1.50 1.84 1.84 2.12 2.67 1.82 1.84 3.38 3.11 1.79 0.92 0.73 0.51 0.31 0.36 0.22 0.15 0.21 0.50 0.45 0.44 0.16 0.09 0.02 0.20 0.47 0.78 0.50 0.56 0.67 0.89 0.98 0.64 0.89 1.35 0.88 0.41
1.31 1.23 1.21 1.33 1.31 1.34 1.41 1.37 1.39 1.52 1.74 1.70 1.45 2.59 2.14 2.40 2.58 3.78 2.93 1.56 0.79 0.38 0.43 0.35 0.11 0.11 0.05 0.05 0.30 0.21 0.21 0.09 0.03 0.01 0.13 0.57 0.93 0.71 0.90 0.96 0.67 0.95 1.19 0.73 0.91 0.48 0.55
1.31 1.46 1.48 1.48 1.47 1.33 1.51 1.41 1.16 1.48 1.78 1.88 1.59 2.08 1.97 2.62 3.52 2.63 2.08 1.63 0.77 0.37 0.38 0.36 0.16 0.06 0.05 0.03 0.18 0.13 0.07 0.06 0.03 0.04 0.19 0.55 1.06 0.83 0.41 0.41 0.23 0.53 0.62 0.74 0.86 0.48 0.43
1.14 1.31 1.49 1.55 1.38 1.27 1.39 1.54 1.26 1.39 2.33 2.52 1.86 2.26 2.91 1.88 1.66 1.39 1.64 1.17 0.64 0.39 0.37 0.35 0.11 0.04 0.02 0.04 0.08 0.03 0.06 0.01 0.03 0.11 0.29 0.66 1.36 1.09 0.64 0.98 0.67 0.84 0.49 0.73 1.25 1.27 0.85
1.42 1.18 1.26 1.23 1.31 1.28 1.35 1.19 1.14 1.25 1.72 2.16 1.87 2.07 3.56 2.60 0.92 1.01 1.18 1.00 0.69 0.35 0.28 0.30 0.15 0.07 0.06 0.05 0.03 0.02 0.07 0.03 0.01 0.08 0.30 0.86 1.04 0.84 0.62 0.86 0.88 0.64 0.44 0.73 1.74 2.13 0.67
1.46 1.31 1.23 1.25 1.33 1.36 1.72 1.38 1.10 1.20 1.35 1.77 1.46 0.79 0.77 0.89 0.61 0.55 0.88 0.75 0.61 0.52 0.32 0.28 0.19 0.09 0.06 0.06 0.03 0.03 0.04 0.04 0.06 0.06 0.27 1.08 1.40 1.01 0.43 0.17 0.67 0.68 0.52 0.76 1.52 0.99 1.09
1.35 1.42 1.44 1.76 1.62 1.88 2.10 1.71 1.25 1.49 2.10 1.74 1.09 0.50 0.18 0.12 0.08 0.25 0.76 0.89 0.63 0.53 0.41 0.21 0.11 0.05 0.07 0.04 0.04 0.05 0.07 0.10 0.10 0.10 0.26 0.74 1.34 1.29 0.83 0.36 0.36 0.62 0.61 0.81 0.83 0.77 0.84
1.18 1.22 1.32 1.40 1.54 1.52 1.38 1.55 1.67 1.80 2.45 1.67 0.91 0.42 0.26 0.18 0.07 0.15 0.45 0.66 0.52 0.47 0.30 0.10 0.08 0.12 0.10 0.05 0.04 0.04 0.07 0.12 0.27 0.29 0.32 0.65 0.94 1.14 0.71 0.48 0.70 1.12 0.77 0.59 0.38 0.37 0.49
1.31 1.28 1.03 1.04 1.10 1.31 1.38 1.38 1.29 1.22 1.45 1.18 0.81 0.67 0.51 0.22 0.07 0.07 0.20 0.41 0.43 0.38 0.37 0.09 0.10 0.11 0.07 0.05 0.06 0.07 0.14 0.09 0.09 0.19 0.33 0.31 0.55 0.89 0.75 0.73 1.02 0.63 0.51 0.35 0.36 0.36 0.32
1.11 1.09 1.05 0.90 0.87 0.98 1.14 1.37 0.98 0.89 1.02 0.71 0.63 0.61 0.41 0.17 0.07 0.05 0.16 0.36 0.49 0.46 0.52 0.25 0.09 0.07 0.09 0.13 0.22 0.23 0.31 0.37 0.20 0.11 0.05 0.23 0.39 0.63 0.46 0.38 0.25 0.02 0.05 0.17 0.23 0.37 0.20
1.03 0.94 1.03 1.18 0.92 0.80 0.93 1.09 0.84 0.72 0.66 0.44 0.52 0.51 0.52 0.20 0.09 0.03 0.05 0.16 0.45 0.46 0.53 0.41 0.24 0.15 0.25 0.34 0.35 0.36 0.30 0.25 0.25 0.29 0.20 0.07 0.24 0.73 0.40 0.36 0.09 0.00 0.00 0.00 0.03 0.21 0.30
1.33 0.98 0.80 0.89 1.10 0.88 0.92 1.04 0.83 0.68 0.60 0.38 0.49 0.50 0.37 0.20 0.06 0.02 0.03 0.06 0.30 0.53 0.59 0.47 0.41 0.21 0.36 0.63 0.52 0.33 0.13 0.09 0.15 0.22 0.14 0.34 0.36 0.45 0.35 0.37 0.03 0.00 0.00 0.00 0.04 0.12 0.11
1.27 1.26 1.15 0.70 0.64 0.88 1.03 1.11 1.09 0.84 0.70 0.44 0.36 0.38 0.33 0.20 0.08 0.02 0.02 0.04 0.18 0.42 0.61 0.56 0.71 0.50 0.53 0.80 0.74 0.42 0.14 0.06 0.04 0.08 0.04 0.10 0.22 0.24 0.22 0.27 0.04 0.00 0.00 0.01 0.01 0.00 0.00
1.34 0.95 0.94 0.89 0.63 0.57 0.82 0.94 1.10 0.90 0.72 0.60 0.36 0.34 0.34 0.27 0.11 0.03 0.01 0.01 0.05 0.27 0.60 0.60 0.59 0.42 0.52 0.54 0.47 0.38 0.30 0.24 0.10 0.08 0.02 0.03 0.03 0.09 0.08 0.05 0.01 0.01 0.00 0.00 0.00 0.00 0.00

GFSGBSN_prec_precacc_135.txt.gz
Total_Precipitation_Accumulation
0.38 0.39 0.43 0.45 0.38 0.33 0.32 0.42 0.48 0.52 0.60 0.70 0.78 0.79 0.71 0.64 0.78 0.88 0.67 0.54 0.64 0.75 0.57 0.37 0.41 0.66 0.69 0.38 0.11 0.24 0.21 0.30 0.33 0.78 0.76 1.01 0.66 0.45 0.32 0.34 1.24 1.43 1.25 0.78 0.85 0.64 0.50
0.38 0.41 0.45 0.40 0.37 0.33 0.38 0.48 0.52 0.58 0.72 0.74 0.80 0.78 0.68 0.64 0.62 0.76 0.57 0.34 0.50 1.06 0.65 0.38 0.54 0.91 0.62 0.23 0.02 0.08 0.20 0.16 0.34 0.76 0.77 1.05 0.67 0.40 0.28 0.35 0.79 1.22 1.56 0.94 0.76 0.65 0.33
0.35 0.43 0.44 0.38 0.36 0.34 0.42 0.55 0.55 0.59 0.68 0.69 0.77 0.68 0.60 0.66 0.60 0.65 0.54 0.51 0.81 1.13 0.60 0.58 0.86 1.00 0.50 0.08 0.03 0.09 0.15 0.23 0.37 0.66 0.89 0.92 0.49 0.43 0.28 0.27 0.25 0.76 1.68 1.34 0.78 0.84 0.41
0.37 0.42 0.43 0.39 0.33 0.35 0.46 0.56 0.54 0.58 0.65 0.69 0.82 0.67 0.67 0.71 0.55 0.54 0.53 0.55 0.82 1.00 0.75 0.74 1.19 1.07 0.34 0.02 0.03 0.03 0.12 0.23 0.29 0.67 0.75 1.04 0.79 0.47 0.32 0.21 0.28 0.50 1.33 1.70 0.95 0.92 0.71
0.40 0.40 0.40 0.37 0.31 0.40 0.54 0.57 0.52 0.53 0.67 0.81 0.86 0.77 0.77 0.68 0.60 0.58 0.50 0.59 0.76 0.74 0.76 1.22 1.10 0.66 0.16 0.04 0.06 0.03 0.14 0.23 0.26 0.72 0.94 1.66 1.53 0.74 0.39 0.41 0.44 0.41 0.56 0.99 1.09 0.81 0.88
0.39 0.41 0.41 0.35 0.35 0.46 0.57 0.60 0.56 0.62 0.78 0.92 0.86 0.78 0.84 0.77 0.76 0.70 0.69 0.84 1.10 1.06 1.02 1.55 0.94 0.81 0.15 0.05 0.14 0.08 0.22 0.30 0.50 1.13 1.72 2.47 1.81 1.19 0.57 0.61 0.48 0.27 0.27 0.29 0.56 0.71 0.68
0.41 0.44 0.40 0.33 0.36 0.46 0.55 0.59 0.56 0.69 0.72 0.82 0.78 0.82 0.86 0.78 0.95 1.11 1.26 1.67 1.48 1.61 1.18 0.81 0.51 0.40 0.17 0.26 0.39 0.27 0.35 0.56 0.97 1.55 1.67 2.33 1.43 1.00 0.42 0.21 0.11 0.14 0.18 0.19 0.16 0.26 0.51
0.45 0.53 0.45 0.44 0.47 0.57 0.61 0.62 0.62 0.74 0.80 0.86 0.80 0.83 0.84 0.81 1.07 1.32 1.32 1.28 0.79 0.82 0.88 0.41 0.36 0.36 0.23 0.48 0.74 0.58 0.40 0.98 1.00 1.25 1.58 2.16 1.01 0.31 0.35 0.26 0.18 0.16 0.11 0.09 0.13 0.16 0.23
0.54 0.55 0.40 0.44 0.50 0.62 0.65 0.63 0.72 0.81 0.87 0.92 0.88 0.94 1.12 1.22 1.35 1.82 1.18 0.79 0.77 1.00 1.26 0.86 0.55 0.48 0.41 0.84 0.78 0.76 0.55 1.14 0.77 1.01 1.56 1.63 0.60 0.35 0.48 0.47 0.27 0.17 0.07 0.06 0.09 0.10 0.11
0.65 0.62 0.56 0.61 0.58 0.63 0.68 0.74 0.95 1.08 1.05 1.06 1.12 1.42 1.54 1.78 2.13 1.27 1.34 0.98 1.04 1.66 2.25 1.23 0.79 0.60 0.72 0.99 0.99 0.56 1.01 1.36 0.69 1.04 1.34 1.19 0.61 0.55 0.70 0.52 0.30 0.24 0.11 0.04 0.08 0.13 0.14
0.74 0.78 0.81 0.74 0.77 0.79 0.77 0.86 0.98 1.01 1.07 1.18 1.52 1.71 1.77 2.34 2.56 1.47 1.41 1.07 1.31 2.38 2.13 1.11 0.86 0.77 0.78 0.68 0.63 0.76 1.04 1.29 0.52 0.83 1.32 1.21 0.74 0.59 0.90 0.70 0.22 0.28 0.11 0.04 0.13 0.18 0.18
0.85 0.76 0.76 0.73 0.80 0.89 0.87 0.88 0.90 0.83 1.02 1.36 1.37 1.32 1.78 2.19 2.29 1.55 1.47 1.66 2.15 2.61 1.97 1.39 1.24 0.88 0.77 0.58 0.62 0.99 1.11 1.06 0.68 0.88 0.87 0.80 0.64 0.57 0.65 0.72 0.41 0.28 0.27 0.25 0.20 0.50 0.54
0.89 0.76 0.78 0.78 0.82 0.86 0.86 0.93 1.01 1.10 1.17 1.19 1.23 1.27 1.63 1.70 1.89 1.90 2.39 2.25 2.54 1.64 1.15 1.17 1.06 0.82 0.75 0.68 0.80 0.88 1.23 1.01 1.41 1.18 1.39 1.47 0.98 0.59 0.50 0.99 0.91 0.73 0.96 1.26 0.95 1.12 0.64
1.00 1.07 0.96 0.91 0.93 0.93 1.08 1.05 1.25 1.38 1.28 1.29 1.36 1.31 1.60 1.41 2.03 2.02 3.03 2.19 1.66 0.68 0.99 0.90 0.39 0.47 0.53 0.30 0.57 0.73 0.89 0.69 0.59 0.39 0.82 1.12 1.15 0.74 0.55 0.99 1.32 0.91 1.09 1.32 0.95 0.51 0.28
0.95 1.07 1.08 1.05 1.15 1.20 1.31 1.19 1.17 1.26 1.30 1.68 1.67 1.94 2.73 1.54 2.11 2.69 2.77 2.20 1.05 0.87 1.03 0.63 0.50 0.41 0.38 0.27 0.57 0.63 0.64 0.30 0.24 0.15 0.61 0.66 0.61 0.42 0.36 0.47 0.87 1.16 1.21 0.72 0.89 0.44 0.35
1.06 1.00 1.14 1.25 1.23 1.32 1.35 1.27 1.31 1.27 1.50 1.84 1.84 2.12 2.67 1.82 1.84 3.38 3.11 1.79 0.92 0.73 0.51 0.31 0.36 0.22 0.15 0.21 0.50 0.45 0.44 0.16 0.09 0.02 0.20 0.47 0.78 0.50 0.56 0.67 0.89 0.98 0.64 0.89 1.35 0.88 0.41
1.31 1.23 1.21 1.33 1.31 1.34 1.41 1.37 1.39 1.52 1.74 1.70 1.45 2.59 2.14 2.40 2.58 3.78 2.93 1.56 0.79 0.38 0.43 0.35 0.11 0.11 0.05 0.05 0.30 0.21 0.21 0.09 0.03 0.01 0.13 0.57 0.93 0.71 0.90 0.96 0.67 0.95 1.19 0.73 0.91 0.48 0.55
1.31 1.46 1.48 1.48 1.47 1.33 1.51 1.41 1.16 1.48 1.78 1.88 1.59 2.08 1.97 2.62 3.52 2.63 2.08 1.63 0.77 0.37 0.38 0.36 0.16 0.06 0.05 0.03 0.18 0.13 0.07 0.06 0.03 0.04 0.19 0.55 1.06 0.83 0.41 0.41 0.23 0.53 0.62 0.74 0.86 0.48 0.43
1.14 1.31 1.49 1.55 1.38 1.27 1.39 1.54 1.26 1.39 2.33 2.52 1.86 2.26 2.91 1.88 1.66 1.39 1.64 1.17 0.64 0.39 0.37 0.35 0.11 0.04 0.02 0.04 0.08 0.03 0.06 0.01 0.03 0.11 0.29 0.66 1.36 1.09 0.64 0.98 0.67 0.84 0.49 0.73 1.25 1.27 0.85
1.42 1.18 1.26 1.23 1.31 1.28 1.35 1.19 1.14 1.25 1.72 2.16 1.87 2.07 3.56 2.60 0.92 1.01 1.18 1.00 0.69 0.35 0.28 0.30 0.15 0.07 0.06 0.05 0.03 0.02 0.07 0.03 0.01 0.08 0.30 0.86 1.04 0.84 0.62 0.86 0.88 0.64 0.44 0.73 1.74 2.13 0.67
1.46 1.31 1.23 1.25 1.33 1.36 1.72 1.38 1.10 1.20 1.35 1.77 1.46 0.79 0.77 0.89 0.61 0.55 0.88 0.75 0.61 0.52 0.32 0.28 0.19 0.09 0.06 0.06 0.03 0.03 0.04 0.04 0.06 0.06 0.27 1.08 1.40 1.01 0.43 0.17 0.67 0.68 0.52 0.76 1.52 0.99 1.09
1.35 1.42 1.44 1.76 1.62 1.88 2.10 1.71 1.25 1.49 2.10 1.74 1.09 0.50 0.18 0.12 0.08 0.25 0.76 0.89 0.63 0.53 0.41 0.21 0.11 0.05 0.07 0.04 0.04 0.05 0.07 0.10 0.10 0.10 0.26 0.74 1.34 1.29 0.83 0.36 0.36 0.62 0.61 0.81 0.83 0.77 0.84
1.18 1.22 1.32 1.40 1.55 1.52 1.38 1.55 1.67 1.80 2.45 1.67 0.91 0.42 0.26 0.18 0.07 0.15 0.45 0.66 0.52 0.47 0.30 0.10 0.08 0.12 0.10 0.05 0.04 0.04 0.07 0.12 0.27 0.29 0.32 0.65 0.94 1.14 0.71 0.48 0.70 1.12 0.77 0.59 0.38 0.37 0.49
1.31 1.28 1.03 1.04 1.11 1.32 1.40 1.39 1.29 1.22 1.45 1.18 0.81 0.67 0.51 0.22 0.07 0.07 0.20 0.41 0.43 0.38 0.37 0.09 0.10 0.11 0.07 0.05 0.06 0.07 0.14 0.09 0.09 0.19 0.33 0.31 0.55 0.89 0.75 0.73 1.02 0.63 0.51 0.35 0.36 0.36 0.32
1.11 1.09 1.05 0.90 0.88 1.00 1.17 1.40 0.99 0.89 1.03 0.71 0.63 0.61 0.41 0.17 0.07 0.05 0.16 0.36 0.49 0.46 0.52 0.25 0.09 0.07 0.09 0.13 0.22 0.23 0.31 0.37 0.20 0.11 0.05 0.23 0.39 0.63 0.46 0.38 0.25 0.02 0.05 0.17 0.23 0.37 0.20
1.04 0.94 1.03 1.18 0.92 0.80 0.95 1.13 0.87 0.75 0.67 0.45 0.52 0.51 0.52 0.20 0.09 0.03 0.05 0.16 0.45 0.46 0.53 0.41 0.24 0.15 0.25 0.34 0.35 0.36 0.30 0.25 0.25 0.29 0.20 0.07 0.24 0.73 0.40 0.36 0.09 0.00 0.00 0.00 0.03 0.21 0.30
1.33 0.98 0.80 0.89 1.10 0.88 0.94 1.07 0.87 0.71 0.62 0.40 0.49 0.50 0.37 0.20 0.06 0.02 0.03 0.06 0.30 0.53 0.59 0.47 0.41 0.21 0.36 0.63 0.52 0.33 0.13 0.09 0.15 0.22 0.14 0.34 0.36 0.45 0.35 0.37 0.03 0.00 0.00 0.00 0.04 0.12 0.11
1.27 1.27 1.16 0.71 0.64 0.89 1.03 1.12 1.13 0.88 0.74 0.48 0.38 0.39 0.34 0.20 0.08 0.02 0.02 0.04 0.18 0.42 0.61 0.56 0.71 0.50 0.53 0.80 0.74 0.42 0.14 0.06 0.04 0.08 0.04 0.10 0.22 0.24 0.22 0.27 0.04 0.00 0.00 0.01 0.01 0.00 0.00
1.34 0.95 0.95 0.90 0.63 0.58 0.83 0.95 1.12 0.94 0.77 0.66 0.39 0.35 0.38 0.29 0.11 0.03 0.01 0.01 0.05 0.27 0.60 0.60 0.59 0.42 0.52 0.54 0.47 0.38 0.30 0.24 0.10 0.08 0.02 0.03 0.03 0.09 0.08 0.05 0.01 0.01 0.00 0.00 0.00 0.00 0.00

GFSGBSN_prec_precacc_138.txt.gz
Total_Precipitation_Accumulation
0.38 0.40 0.44 0.47 0.39 0.34 0.33 0.42 0.48 0.52 0.60 0.72 0.80 0.81 0.72 0.65 0.78 0.88 0.68 0.54 0.66 0.83 0.59 0.37 0.41 0.66 0.69 0.38 0.11 0.24 0.22 0.31 0.33 0.78 0.76 1.01 0.66 0.45 0.32 0.34 1.24 1.43 1.25 0.78 0.85 0.64 0.50
0.38 0.42 0.46 0.41 0.37 0.34 0.39 0.48 0.52 0.58 0.72 0.75 0.82 0.78 0.68 0.65 0.63 0.76 0.57 0.36 0.56 1.09 0.65 0.38 0.54 0.91 0.62 0.23 0.02 0.08 0.20 0.16 0.34 0.76 0.77 1.05 0.67 0.40 0.28 0.35 0.79 1.22 1.56 0.94 0.76 0.65 0.33
0.35 0.43 0.45 0.39 0.37 0.34 0.43 0.56 0.55 0.59 0.68 0.69 0.78 0.68 0.61 0.69 0.63 0.68 0.59 0.58 0.85 1.13 0.60 0.58 0.86 1.00 0.50 0.08 0.03 0.09 0.15 0.23 0.37 0.66 0.89 0.92 0.49 0.43 0.28 0.27 0.25 0.76 1.68 1.34 0.78 0.84 0.41
0.37 0.42 0.44 0.39 0.34 0.35 0.47 0.56 0.54 0.58 0.65 0.69 0.82 0.68 0.68 0.74 0.61 0.60 0.59 0.56 0.82 1.00 0.75 0.74 1.19 1.07 0.34 0.02 0.03 0.03 0.12 0.23 0.29 0.67 0.75 1.04 0.79 0.47 0.32 0.21 0.28 0.50 1.33 1.70 0.95 0.92 0.71
0.40 0.40 0.41 0.38 0.32 0.40 0.54 0.58 0.52 0.53 0.67 0.81 0.86 0.77 0.77 0.68 0.60 0.60 0.52 0.59 0.76 0.74 0.76 1.22 1.10 0.66 0.16 0.04 0.06 0.03 0.14 0.23 0.26 0.72 0.94 1.66 1.53 0.74 0.39 0.41 0.44 0.41 0.57 1.00 1.09 0.81 0.88
0.39 0.41 0.41 0.36 0.35 0.47 0.57 0.60 0.56 0.62 0.78 0.92 0.86 0.78 0.84 0.77 0.76 0.70 0.69 0.84 1.10 1.06 1.02 1.55 0.94 0.81 0.15 0.05 0.14 0.08 0.22 0.30 0.50 1.13 1.72 2.47 1.81 1.19 0.58 0.63 0.49 0.28 0.28 0.30 0.56 0.71 0.68
0.41 0.44 0.40 0.33 0.36 0.46 0.55 0.59 0.56 0.69 0.72 0.82 0.78 0.82 0.86 0.78 0.95 1.11 1.26 1.67 1.48 1.61 1.18 0.81 0.51 0.40 0.17 0.26 0.39 0.27 0.35 0.56 0.97 1.55 1.67 2.33 1.43 1.00 0.42 0.22 0.12 0.15 0.19 0.20 0.16 0.26 0.51
0.46 0.53 0.45 0.44 0.47 0.58 0.62 0.62 0.62 0.74 0.80 0.86 0.80 0.83 0.84 0.81 1.07 1.32 1.32 1.28 0.79 0.82 0.88 0.41 0.36 0.36 0.23 0.48 0.74 0.58 0.40 0.98 1.00 1.25 1.58 2.17 1.01 0.31 0.35 0.26 0.18 0.16 0.12 0.09 0.13 0.16 0.23
0.54 0.55 0.40 0.44 0.50 0.62 0.65 0.63 0.72 0.81 0.87 0.92 0.88 0.94 1.12 1.22 1.35 1.82 1.18 0.79 0.77 1.00 1.26 0.86 0.55 0.48 0.41 0.84 0.78 0.76 0.55 1.14 0.77 1.01 1.56 1.63 0.60 0.35 0.48 0.47 0.28 0.17 0.09 0.06 0.09 0.10 0.11
0.65 0.62 0.56 0.61 0.58 0.63 0.68 0.74 0.95 1.08 1.05 1.06 1.12 1.42 1.54 1.78 2.13 1.27 1.34 0.98 1.04 1.66 2.25 1.23 0.79 0.60 0.72 0.99 0.99 0.56 1.01 1.36 0.69 1.04 1.34 1.19 0.61 0.55 0.70 0.52 0.31 0.25 0.11 0.04 0.08 0.13 0.15
0.74 0.78 0.81 0.74 0.77 0.79 0.77 0.86 0.98 1.01 1.07 1.18 1.52 1.71 1.77 2.34 2.56 1.47 1.41 1.07 1.31 2.38 2.13 1.11 0.86 0.77 0.78 0.68 0.63 0.76 1.04 1.29 0.52 0.83 1.32 1.21 0.74 0.59 0.90 0.70 0.22 0.28 0.12 0.04 0.13 0.18 0.18
0.85 0.76 0.76 0.73 0.80 0.89 0.87 0.88 0.90 0.83 1.02 1.36 1.37 1.32 1.78 2.19 2.29 1.55 1.47 1.66 2.15 2.61 1.97 1.39 1.24 0.88 0.77 0.58 0.62 0.99 1.11 1.06 0.68 0.88 0.87 0.80 0.64 0.57 0.65 0.72 0.41 0.28 0.28 0.25 0.20 0.51 0.55
0.89 0.76 0.78 0.78 0.82 0.86 0.86 0.93 1.01 1.10 1.17 1.19 1.23 1.27 1.63 1.70 1.89 1.90 2.39 2.25 2.54 1.64 1.15 1.17 1.06 0.82 0.75 0.68 0.80 0.88 1.23 1.01 1.41 1.18 1.39 1.47 0.98 0.59 0.50 0.99 0.91 0.73 0.98 1.31 0.97 1.14 0.66
1.00 1.07 0.96 0.91 0.93 0.93 1.08 1.05 1.25 1.38 1.28 1.29 1.36 1.31 1.60 1.41 2.03 2.02 3.03 2.19 1.66 0.68 0.99 0.90 0.39 0.47 0.53 0.30 0.57 0.73 0.89 0.69 0.59 0.39 0.82 1.12 1.15 0.74 0.55 0.99 1.32 0.91 1.09 1.34 0.97 0.52 0.28
0.95 1.07 1.08 1.05 1.15 1.20 1.31 1.19 1.17 1.26 1.30 1.68 1.67 1.94 2.73 1.54 2.11 2.69 2.77 2.20 1.05 0.87 1.03 0.63 0.50 0.41 0.38 0.27 0.57 0.63 0.64 0.30 0.24 0.15 0.61 0.66 0.61 0.42 0.36 0.47 0.87 1.16 1.21 0.72 0.89 0.44 0.35
1.06 1.00 1.14 1.25 1.23 1.32 1.35 1.27 1.31 1.27 1.50 1.84 1.84 2.12 2.67 1.82 1.84 3.38 3.11 1.79 0.92 0.73 0.51 0.31 0.36 0.22 0.15 0.21 0.50 0.45 0.44 0.16 0.09 0.02 0.20 0.47 0.78 0.50 0.56 0.67 0.89 0.98 0.64 0.89 1.36 0.88 0.41
1.31 1.23 1.21 1.33 1.31 1.34 1.41 1.37 1.39 1.52 1.74 1.70 1.45 2.59 2.14 2.40 2.58 3.78 2.93 1.56 0.79 0.38 0.43 0.35 0.11 0.11 0.05 0.05 0.30 0.21 0.21 0.09 0.03 0.01 0.13 0.57 0.93 0.71 0.90 0.96 0.67 0.95 1.19 0.73 0.91 0.48 0.55
1.31 1.46 1.48 1.48 1.47 1.33 1.51 1.41 1.16 1.48 1.78 1.88 1.59 2.08 1.97 2.62 3.52 2.63 2.08 1.63 0.77 0.37 0.38 0.36 0.16 0.06 0.05 0.03 0.18 0.13 0.07 0.06 0.03 0.04 0.19 0.55 1.06 0.83 0.41 0.41 0.23 0.53 0.62 0.74 0.86 0.48 0.43
1.14 1.31 1.49 1.55 1.38 1.27 1.39 1.54 1.26 1.39 2.33 2.52 1.86 2.26 2.91 1.88 1.66 1.39 1.64 1.17 0.64 0.39 0.37 0.35 0.11 0.04 0.02 0.04 0.08 0.03 0.06 0.01 0.03 0.11 0.29 0.66 1.36 1.09 0.64 0.98 0.67 0.84 0.49 0.73 1.25 1.27 0.85
1.42 1.18 1.26 1.23 1.31 1.28 1.35 1.19 1.14 1.25 1.72 2.16 1.87 2.07 3.56 2.60 0.92 1.01 1.18 1.00 0.69 0.35 0.28 0.30 0.15 0.07 0.06 0.05 0.03 0.02 0.07 0.03 0.01 0.08 0.30 0.86 1.04 0.84 0.62 0.86 0.88 0.64 0.44 0.73 1.74 2.13 0.67
1.46 1.31 1.23 1.25 1.33 1.36 1.72 1.38 1.10 1.20 1.35 1.77 1.46 0.79 0.77 0.89 0.61 0.55 0.88 0.75 0.61 0.52 0.32 0.28 0.19 0.09 0.06 0.06 0.03 0.03 0.04 0.04 0.06 0.06 0.27 1.08 1.40 1.01 0.43 0.17 0.67 0.68 0.52 0.76 1.52 0.99 1.09
1.35 1.42 1.44 1.76 1.62 1.88 2.10 1.71 1.25 1.49 2.10 1.74 1.09 0.50 0.18 0.12 0.08 0.25 0.76 0.89 0.63 0.53 0.41 0.21 0.11 0.05 0.07 0.04 0.04 0.05 0.07 0.10 0.10 0.10 0.26 0.74 1.34 1.29 0.83 0.36 0.36 0.62 0.61 0.81 0.83 0.77 0.84
1.18 1.22 1.32 1.40 1.55 1.52 1.38 1.55 1.68 1.81 2.45 1.67 0.91 0.42 0.26 0.18 0.07 0.15 0.45 0.66 0.52 0.47 0.30 0.10 0.08 0.12 0.10 0.05 0.04 0.04 0.07 0.12 0.27 0.29 0.32 0.65 0.94 1.14 0.71 0.48 0.70 1.12 0.77 0.59 0.38 0.37 0.49
1.31 1.28 1.03 1.04 1.11 1.32 1.40 1.41 1.31 1.23 1.47 1.18 0.81 0.67 0.51 0.22 0.07 0.07 0.20 0.41 0.43 0.38 0.37 0.09 0.10 0.11 0.07 0.05 0.06 0.07 0.14 0.09 0.09 0.19 0.33 0.31 0.55 0.89 0.75 0.73 1.02 0.63 0.51 0.35 0.36 0.36 0.32
1.11 1.09 1.05 0.90 0.88 1.00 1.17 1.41 1.02 0.91 1.06 0.72 0.63 0.61 0.41 0.17 0.07 0.05 0.16 0.36 0.49 0.46 0.52 0.25 0.09 0.07 0.09 0.13 0.22 0.23 0.31 0.37 0.20 0.11 0.05 0.23 0.39 0.63 0.46 0.38 0.25 0.02 0.05 0.17 0.23 0.37 0.20
1.04 0.94 1.03 1.18 0.92 0.80 0.95 1.13 0.89 0.78 0.70 0.46 0.53 0.53 0.52 0.20 0.09 0.03 0.05 0.16 0.45 0.46 0.53 0.41 0.24 0.15 0.25 0.34 0.35 0.36 0.30 0.25 0.25 0.29 0.20 0.07 0.24 0.73 0.40 0.36 0.09 0.00 0.00 0.00 0.03 0.21 0.30
1.36 0.99 0.80 0.89 1.10 0.88 0.94 1.07 0.88 0.74 0.67 0.42 0.49 0.51 0.39 0.21 0.06 0.02 0.03 0.06 0.30 0.53 0.59 0.47 0.41 0.21 0.36 0.63 0.52 0.33 0.13 0.09 0.15 0.22 0.14 0.34 0.36 0.45 0.35 0.37 0.03 0.00 0.00 0.00 0.04 0.12 0.11
1.28 1.28 1.16 0.71 0.65 0.89 1.03 1.12 1.13 0.91 0.80 0.53 0.39 0.42 0.37 0.22 0.09 0.02 0.02 0.04 0.18 0.42 0.61 0.56 0.71 0.50 0.53 0.80 0.74 0.42 0.14 0.06 0.04 0.08 0.04 0.10 0.22 0.24 0.22 0.27 0.04 0.00 0.00 0.01 0.01 0.00 0.00
1.34 0.95 0.95 0.90 0.63 0.58 0.83 0.95 1.12 0.95 0.86 0.76 0.43 0.36 0.42 0.34 0.12 0.03 0.01 0.01 0.05 0.27 0.60 0.60 0.59 0.42 0.52 0.54 0.47 0.38 0.30 0.24 0.10 0.08 0.02 0.03 0.03 0.09 0.08 0.05 0.01 0.01 0.00 0.00 0.00 0.00 0.00

GFSGBSN_prec_precacc_141.txt.gz
Total_Precipitation_Accumulation
0.39 0.41 0.45 0.47 0.40 0.35 0.34 0.43 0.49 0.54 0.62 0.73 0.81 0.81 0.72 0.65 0.78 0.89 0.69 0.61 0.74 0.84 0.59 0.37 0.41 0.66 0.69 0.38 0.11 0.24 0.22 0.31 0.33 0.78 0.76 1.01 0.66 0.45 0.32 0.34 1.24 1.43 1.25 0.78 0.85 0.64 0.50
0.39 0.43 0.47 0.42 0.38 0.35 0.40 0.49 0.52 0.59 0.75 0.78 0.84 0.80 0.69 0.67 0.64 0.76 0.60 0.43 0.57 1.09 0.65 0.38 0.54 0.91 0.62 0.23 0.02 0.08 0.20 0.16 0.34 0.76 0.77 1.05 0.67 0.40 0.28 0.35 0.79 1.22 1.56 0.94 0.76 0.65 0.33
0.36 0.44 0.46 0.40 0.37 0.35 0.43 0.56 0.55 0.60 0.69 0.71 0.80 0.71 0.63 0.72 0.66 0.70 0.61 0.60 0.85 1.13 0.60 0.58 0.86 1.00 0.50 0.08 0.03 0.09 0.15 0.23 0.37 0.66 0.89 0.92 0.49 0.43 0.28 0.27 0.25 0.76 1.68 1.34 0.78 0.84 0.41
0.37 0.42 0.45 0.40 0.34 0.35 0.47 0.56 0.54 0.58 0.65 0.69 0.82 0.68 0.68 0.74 0.62 0.60 0.59 0.56 0.82 1.00 0.75 0.74 1.19 1.07 0.34 0.02 0.03 0.03 0.12 0.23 0.29 0.67 0.75 1.04 0.79 0.47 0.32 0.21 0.28 0.50 1.33 1.70 0.95 0.92 0.71
0.40 0.40 0.41 0.38 0.32 0.40 0.54 0.58 0.52 0.53 0.67 0.81 0.86 0.77 0.77 0.68 0.60 0.60 0.52 0.59 0.76 0.74 0.76 1.22 1.10 0.66 0.16 0.04 0.06 0.03 0.14 0.23 0.26 0.72 0.94 1.66 1.53 0.74 0.39 0.42 0.45 0.41 0.57 1.00 1.09 0.81 0.88
0.39 0.41 0.41 0.36 0.35 0.47 0.57 0.60 0.56 0.62 0.78 0.92 0.86 0.78 0.84 0.77 0.76 0.70 0.69 0.84 1.10 1.06 1.02 1.55 0.94 0.81 0.15 0.05 0.14 0.08 0.22 0.30 0.50 1.13 1.72 2.48 1.82 1.19 0.58 0.64 0.49 0.29 0.30 0.30 0.56 0.71 0.68
0.41 0.44 0.40 0.33 0.36 0.46 0.55 0.59 0.56 0.69 0.72 0.82 0.78 0.82 0.86 0.78 0.95 1.11 1.26 1.67 1.48 1.61 1.18 0.81 0.51 0.40 0.17 0.26 0.39 0.27 0.35 0.56 0.97 1.55 1.67 2.33 1.43 1.00 0.42 0.22 0.12 0.15 0.19 0.20 0.16 0.26 0.51
0.46 0.53 0.45 0.44 0.47 0.58 0.62 0.62 0.62 0.74 0.80 0.86 0.80 0.83 0.84 0.81 1.07 1.32 1.32 1.28 0.79 0.82 0.88 0.41 0.36 0.36 0.23 0.48 0.74 0.58 0.40 0.98 1.00 1.25 1.58 2.17 1.01 0.31 0.35 0.26 0.18 0.16 0.12 0.09 0.13 0.16 0.23
0.54 0.55 0.40 0.44 0.50 0.62 0.65 0.63 0.72 0.81 0.87 0.92 0.88 0.94 1.12 1.22 1.35 1.82 1.18 0.79 0.77 1.00 1.26 0.86 0.55 0.48 0.41 0.84 0.78 0.76 0.55 1.14 0.77 1.01 1.56 1.63 0.60 0.35 0.48 0.47 0.28 0.17 0.09 0.06 0.09 0.10 0.11
0.65 0.62 0.56 0.61 0.58 0.63 0.68 0.74 0.95 1.08 1.05 1.06 1.12 1.42 1.54 1.78 2.13 1.27 1.34 0.98 1.04 1.66 2.25 1.23 0.79 0.60 0.72 0.99 0.99 0.56 1.01 1.36 0.69 1.04 1.34 1.19 0.61 0.55 0.70 0.52 0.31 0.25 0.12 0.04 0.08 0.13 0.15
0.74 0.78 0.81 0.74 0.77 0.79 0.77 0.86 0.98 1.01 1.07 1.18 1.52 1.71 1.77 2.34 2.56 1.47 1.41 1.07 1.31 2.38 2.13 1.11 0.86 0.77 0.78 0.68 0.63 0.76 1.04 1.29 0.52 0.83 1.32 1.21 0.74 0.59 0.90 0.70 0.22 0.28 0.12 0.04 0.13 0.18 0.18
0.85 0.76 0.76 0.73 0.80 0.89 0.87 0.88 0.90 0.83 1.02 1.36 1.37 1.32 1.78 2.19 2.29 1.55 1.47 1.66 2.15 2.61 1.97 1.39 1.24 0.88 0.77 0.58 0.62 0.99 1.11 1.06 0.68 0.88 0.87 0.80 0.64 0.57 0.65 0.72 0.41 0.28 0.28 0.25 0.20 0.51 0.55
0.89 0.76 0.78 0.78 0.82 0.86 0.86 0.93 1.01 1.10 1.17 1.19 1.23 1.27 1.63 1.70 1.89 1.90 2.39 2.25 2.54 1.64 1.15 1.17 1.06 0.82 0.75 0.68 0.80 0.88 1.23 1.01 1.41 1.18 1.39 1.47 0.98 0.59 0.50 0.99 0.91 0.73 0.98 1.33 0.97 1.15 0.66
1.00 1.07 0.96 0.91 0.93 0.93 1.08 1.05 1.25 1.38 1.28 1.29 1.36 1.31 1.60 1.41 2.03 2.02 3.03 2.19 1.66 0.68 0.99 0.90 0.39 0.47 0.53 0.30 0.57 0.73 0.89 0.69 0.59 0.39 0.82 1.12 1.15 0.74 0.55 0.99 1.32 0.91 1.09 1.35 0.98 0.53 0.29
0.95 1.07 1.08 1.05 1.15 1.20 1.31 1.19 1.17 1.26 1.30 1.68 1.67 1.94 2.73 1.54 2.11 2.69 2.77 2.20 1.05 0.87 1.03 0.63 0.50 0.41 0.38 0.27 0.57 0.63 0.64 0.30 0.24 0.15 0.61 0.66 0.61 0.42 0.36 0.47 0.87 1.16 1.21 0.72 0.89 0.44 0.35
1.06 1.00 1.14 1.25 1.23 1.32 1.35 1.27 1.31 1.27 1.50 1.84 1.84 2.12 2.67 1.82 1.84 3.38 3.11 1.79 0.92 0.73 0.51 0.31 0.36 0.22 0.15 0.21 0.50 0.45 0.44 0.16 0.09 0.02 0.20 0.47 0.78 0.50 0.56 0.67 0.89 0.98 0.64 0.89 1.36 0.88 0.41
1.31 1.23 1.21 1.33 1.31 1.34 1.41 1.37 1.39 1.52 1.74 1.70 1.45 2.59 2.14 2.40 2.58 3.78 2.93 1.56 0.79 0.38 0.43 0.35 0.11 0.11 0.05 0.05 0.30 0.21 0.21 0.09 0.03 0.01 0.13 0.57 0.93 0.71 0.90 0.96 0.67 0.95 1.19 0.73 0.91 0.48 0.55
1.31 1.46 1.48 1.48 1.47 1.33 1.51 1.41 1.16 1.48 1.78 1.88 1.59 2.08 1.97 2.62 3.52 2.63 2.08 1.63 0.77 0.37 0.38 0.36 0.16 0.06 0.05 0.03 0.18 0.13 0.07 0.06 0.03 0.04 0.19 0.55 1.06 0.83 0.41 0.41 0.23 0.53 0.62 0.74 0.86 0.48 0.43
1.14 1.31 1.49 1.55 1.38 1.27 1.39 1.54 1.26 1.39 2.33 2.52 1.86 2.26 2.91 1.88 1.66 1.39 1.64 1.17 0.64 0.39 0.37 0.35 0.11 0.04 0.02 0.04 0.08 0.03 0.06 0.01 0.03 0.11 0.29 0.66 1.36 1.09 0.64 0.98 0.67 0.84 0.49 0.73 1.25 1.27 0.85
1.42 1.18 1.26 1.23 1.31 1.28 1.35 1.19 1.14 1.25 1.72 2.16 1.87 2.07 3.56 2.60 0.92 1.01 1.18 1.00 0.69 0.35 0.28 0.30 0.15 0.07 0.06 0.05 0.03 0.02 0.07 0.03 0.01 0.08 0.30 0.86 1.04 0.84 0.62 0.86 0.88 0.64 0.44 0.73 1.74 2.13 0.67
1.46 1.31 1.23 1.25 1.33 1.36 1.72 1.39 1.10 1.20 1.35 1.77 1.46 0.79 0.77 0.89 0.61 0.55 0.88 0.75 0.61 0.52 0.32 0.28 0.19 0.09 0.06 0.06 0.03 0.03 0.04 0.04 0.06 0.06 0.27 1.08 1.40 1.01 0.43 0.17 0.67 0.68 0.52 0.76 1.52 0.99 1.09
1.35 1.42 1.44 1.77 1.62 1.88 2.10 1.71 1.25 1.49 2.10 1.74 1.09 0.50 0.18 0.12 0.08 0.25 0.76 0.89 0.63 0.53 0.41 0.21 0.11 0.05 0.07 0.04 0.04 0.05 0.07 0.10 0.10 0.10 0.26 0.74 1.34 1.29 0.83 0.36 0.36 0.62 0.61 0.81 0.83 0.77 0.84
1.18 1.22 1.32 1.40 1.55 1.52 1.38 1.56 1.68 1.81 2.45 1.67 0.91 0.42 0.26 0.18 0.07 0.15 0.45 0.66 0.52 0.47 0.30 0.10 0.08 0.12 0.10 0.05 0.04 0.04 0.07 0.12 0.27 0.29 0.32 0.65 0.94 1.14 0.71 0.48 0.70 1.12 0.77 0.59 0.38 0.37 0.49
1.31 1.28 1.03 1.04 1.11 1.32 1.40 1.41 1.32 1.24 1.47 1.18 0.81 0.67 0.52 0.22 0.07 0.07 0.20 0.41 0.43 0.38 0.37 0.09 0.10 0.11 0.07 0.05 0.06 0.07 0.14 0.09 0.09 0.19 0.33 0.31 0.55 0.89 0.75 0.73 1.02 0.63 0.51 0.35 0.36 0.36 0.32
1.11 1.09 1.05 0.90 0.88 1.00 1.17 1.41 1.03 0.93 1.07 0.72 0.63 0.61 0.41 0.18 0.07 0.05 0.16 0.36 0.49 0.46 0.52 0.25 0.09 0.07 0.09 0.13 0.22 0.23 0.31 0.37 0.20 0.11 0.05 0.23 0.39 0.63 0.46 0.38 0.25 0.02 0.05 0.17 0.23 0.37 0.20
1.05 0.95 1.03 1.19 0.93 0.81 0.95 1.13 0.89 0.79 0.74 0.48 0.53 0.53 0.53 0.21 0.09 0.03 0.05 0.16 0.45 0.46 0.53 0.41 0.24 0.15 0.25 0.34 0.35 0.36 0.30 0.25 0.25 0.29 0.20 0.07 0.24 0.73 0.40 0.36 0.09 0.00 0.00 0.00 0.03 0.21 0.30
1.37 1.01 0.81 0.90 1.11 0.89 0.94 1.07 0.88 0.75 0.72 0.45 0.50 0.51 0.40 0.22 0.06 0.02 0.03 0.06 0.30 0.53 0.59 0.47 0.41 0.21 0.36 0.63 0.52 0.33 0.13 0.09 0.15 0.22 0.14 0.34 0.36 0.45 0.35 0.37 0.03 0.00 0.00 0.00 0.04 0.12 0.11
1.28 1.28 1.16 0.72 0.65 0.89 1.04 1.12 1.14 0.92 0.86 0.62 0.42 0.42 0.40 0.26 0.10 0.02 0.02 0.04 0.18 0.42 0.61 0.56 0.71 0.50 0.53 0.80 0.74 0.42 0.14 0.06 0.04 0.08 0.04 0.10 0.22 0.24 0.22 0.27 0.04 0.00 0.00 0.01 0.01 0.00 0.00
1.34 0.95 0.95 0.90 0.63 0.58 0.83 0.95 1.12 0.96 0.88 0.84 0.49 0.37 0.46 0.46 0.17 0.03 0.01 0.01 0.05 0.27 0.60 0.60 0.59 0.42 0.52 0.54 0.47 0.38 0.30 0.24 0.10 0.08 0.02 0.03 0.03 0.09 0.08 0.05 0.01 0.01 0.00 0.00 0.00 0.00 0.00

GFSGBSN_prec_precacc_144.txt.gz
Total_Precipitation_Accumulation
0.39 0.42 0.46 0.48 0.41 0.36 0.35 0.44 0.50 0.56 0.64 0.76 0.82 0.81 0.73 0.66 0.79 0.90 0.71 0.63 0.76 0.84 0.59 0.37 0.41 0.66 0.69 0.38 0.11 0.24 0.22 0.31 0.33 0.78 0.76 1.01 0.66 0.45 0.32 0.34 1.24 1.43 1.25 0.78 0.85 0.64 0.50
0.39 0.43 0.47 0.42 0.38 0.35 0.40 0.49 0.52 0.60 0.76 0.79 0.86 0.81 0.71 0.68 0.65 0.78 0.62 0.45 0.57 1.09 0.65 0.38 0.54 0.91 0.62 0.23 0.02 0.08 0.20 0.16 0.34 0.76 0.77 1.05 0.67 0.40 0.28 0.35 0.79 1.22 1.56 0.94 0.76 0.65 0.33
0.36 0.44 0.47 0.40 0.37 0.35 0.43 0.56 0.55 0.60 0.69 0.71 0.80 0.71 0.64 0.73 0.68 0.73 0.63 0.60 0.85 1.13 0.60 0.58 0.86 1.00 0.50 0.08 0.03 0.09 0.15 0.23 0.37 0.66 0.89 0.92 0.49 0.43 0.28 0.27 0.25 0.76 1.68 1.34 0.78 0.84 0.41
0.37 0.42 0.45 0.40 0.34 0.35 0.47 0.56 0.54 0.58 0.65 0.69 0.82 0.68 0.68 0.74 0.62 0.60 0.59 0.56 0.82 1.00 0.75 0.74 1.19 1.07 0.34 0.02 0.03 0.03 0.12 0.23 0.29 0.67 0.75 1.04 0.79 0.47 0.32 0.21 0.28 0.50 1.33 1.70 0.95 0.92 0.71
0.40 0.40 0.41 0.38 0.32 0.40 0.54 0.58 0.52 0.53 0.67 0.81 0.86 0.77 0.77 0.68 0.60 0.60 0.52 0.59 0.76 0.74 0.76 1.22 1.10 0.66 0.16 0.04 0.06 0.03 0.14 0.23 0.26 0.72 0.94 1.66 1.53 0.74 0.39 0.42 0.45 0.41 0.57 1.01 1.10 0.81 0.89
0.39 0.41 0.41 0.36 0.35 0.47 0.57 0.60 0.56 0.62 0.78 0.92 0.86 0.78 0.84 0.77 0.76 0.70 0.69 0.84 1.10 1.06 1.02 1.55 0.94 0.81 0.15 0.05 0.14 0.08 0.22 0.30 0.50 1.13 1.72 2.48 1.82 1.19 0.58 0.64 0.50 0.29 0.30 0.31 0.56 0.71 0.68
0.41 0.44 0.40 0.33 0.36 0.46 0.55 0.59 0.56 0.69 0.72 0.82 0.78 0.82 0.86 0.78 0.95 1.11 1.26 1.67 1.48 1.61 1.18 0.81 0.51 0.40 0.17 0.26 0.39 0.27 0.35 0.56 0.97 1.55 1.67 2.33 1.43 1.00 0.42 0.22 0.12 0.15 0.19 0.20 0.16 0.26 0.51
0.46 0.53 0.45 0.44 0.47 0.58 0.62 0.62 0.62 0.74 0.80 0.86 0.80 0.83 0.84 0.81 1.07 1.32 1.32 1.28 0.79 0.82 0.88 0.41 0.36 0.36 0.23 0.48 0.74 0.58 0.40 0.98 1.00 1.25 1.58 2.17 1.01 0.31 0.35 0.26 0.18 0.16 0.13 0.09 0.13 0.16 0.23
0.54 0.55 0.40 0.44 0.50 0.62 0.65 0.63 0.72 0.81 0.87 0.92 0.88 0.94 1.12 1.22 1.35 1.82 1.18 0.79 0.77 1.00 1.26 0.86 0.55 0.48 0.41 0.84 0.78 0.76 0.55 1.14 0.77 1.01 1.56 1.63 0.60 0.35 0.48 0.47 0.28 0.18 0.09 0.06 0.09 0.10 0.11
0.65 0.62 0.56 0.61 0.58 0.63 0.68 0.74 0.95 1.08 1.05 1.06 1.12 1.42 1.54 1.78 2.13 1.27 1.34 0.98 1.04 1.66 2.25 1.23 0.79 0.60 0.72 0.99 0.99 0.56 1.01 1.36 0.69 1.04 1.34 1.19 0.61 0.55 0.70 0.52 0.31 0.25 0.12 0.04 0.08 0.13 0.15
0.74 0.78 0.81 0.74 0.77 0.79 0.77 0.86 0.98 1.01 1.07 1.18 1.52 1.71 1.77 2.34 2.56 1.47 1.41 1.07 1.31 2.38 2.13 1.11 0.86 0.77 0.78 0.68 0.63 0.76 1.04 1.29 0.52 0.83 1.32 1.21 0.74 0.59 0.90 0.70 0.22 0.28 0.12 0.04 0.13 0.18 0.18
0.85 0.76 0.76 0.73 0.80 0.89 0.87 0.88 0.90 0.83 1.02 1.36 1.37 1.32 1.78 2.19 2.29 1.55 1.47 1.66 2.15 2.61 1.97 1.39 1.24 0.88 0.77 0.58 0.62 0.99 1.11 1.06 0.68 0.88 0.87 0.80 0.64 0.57 0.65 0.72 0.41 0.28 0.28 0.25 0.20 0.51 0.55
0.89 0.76 0.78 0.78 0.82 0.86 0.86 0.93 1.01 1.10 1.17 1.19 1.23 1.27 1.63 1.70 1.89 1.90 2.39 2.25 2.54 1.64 1.15 1.17 1.06 0.82 0.75 0.68 0.80 0.88 1.23 1.01 1.41 1.18 1.39 1.47 0.98 0.59 0.50 0.99 0.91 0.73 0.98 1.33 0.97 1.15 0.66
1.01 1.07 0.96 0.91 0.93 0.93 1.08 1.05 1.25 1.38 1.28 1.29 1.36 1.31 1.60 1.41 2.03 2.02 3.03 2.19 1.66 0.68 0.99 0.90 0.39 0.47 0.53 0.30 0.57 0.73 0.89 0.69 0.59 0.39 0.82 1.12 1.15 0.74 0.55 0.99 1.32 0.91 1.09 1.35 0.98 0.53 0.29
0.95 1.07 1.08 1.05 1.15 1.20 1.31 1.19 1.17 1.26 1.30 1.68 1.67 1.94 2.73 1.54 2.11 2.69 2.77 2.20 1.05 0.87 1.03 0.63 0.50 0.41 0.38 0.27 0.57 0.63 0.64 0.30 0.24 0.15 0.61 0.66 0.61 0.42 0.36 0.47 0.87 1.16 1.21 0.72 0.89 0.44 0.35
1.06 1.00 1.14 1.25 1.23 1.32 1.35 1.27 1.31 1.27 1.50 1.84 1.84 2.12 2.67 1.82 1.84 3.38 3.11 1.79 0.92 0.73 0.51 0.31 0.36 0.22 0.15 0.21 0.50 0.45 0.44 0.16 0.09 0.02 0.20 0.47 0.78 0.50 0.56 0.67 0.89 0.98 0.64 0.89 1.36 0.88 0.41
1.31 1.23 1.22 1.33 1.31 1.34 1.41 1.37 1.39 1.52 1.74 1.70 1.45 2.59 2.14 2.40 2.58 3.78 2.93 1.56 0.79 0.38 0.43 0.35 0.11 0.11 0.05 0.05 0.30 0.21 0.21 0.09 0.03 0.01 0.13 0.57 0.93 0.71 0.90 0.96 0.67 0.95 1.19 0.73 0.91 0.48 0.55
1.31 1.46 1.48 1.49 1.47 1.33 1.51 1.41 1.16 1.48 1.78 1.88 1.59 2.08 1.97 2.62 3.52 2.63 2.08 1.63 0.77 0.37 0.38 0.36 0.16 0.06 0.05 0.03 0.18 0.13 0.07 0.06 0.03 0.04 0.19 0.55 1.06 0.83 0.41 0.41 0.23 0.53 0.62 0.74 0.86 0.48 0.43
1.14 1.32 1.49 1.56 1.38 1.27 1.40 1.54 1.26 1.39 2.33 2.52 1.86 2.26 2.91 1.88 1.66 1.39 1.64 1.17 0.64 0.39 0.37 0.35 0.11 0.04 0.02 0.04 0.08 0.03 0.06 0.01 0.03 0.11 0.29 0.66 1.36 1.09 0.64 0.98 0.67 0.84 0.49 0.73 1.25 1.27 0.85
1.42 1.19 1.26 1.24 1.32 1.28 1.35 1.19 1.15 1.25 1.72 2.16 1.87 2.07 3.56 2.60 0.92 1.01 1.18 1.00 0.69 0.35 0.28 0.30 0.15 0.07 0.06 0.05 0.03 0.02 0.07 0.03 0.01 0.08 0.30 0.86 1.04 0.84 0.62 0.86 0.88 0.64 0.44 0.73 1.74 2.13 0.67
1.46 1.31 1.24 1.26 1.33 1.37 1.72 1.39 1.11 1.20 1.35 1.77 1.46 0.79 0.77 0.89 0.61 0.55 0.88 0.75 0.61 0.52 0.32 0.28 0.19 0.09 0.06 0.06 0.03 0.03 0.04 0.04 0.06 0.06 0.27 1.08 1.40 1.01 0.43 0.17 0.67 0.68 0.52 0.76 1.52 0.99 1.09
1.36 1.43 1.44 1.77 1.62 1.88 2.10 1.72 1.26 1.50 2.10 1.74 1.09 0.50 0.18 0.12 0.08 0.25 0.76 0.89 0.63 0.53 0.41 0.21 0.11 0.05 0.07 0.04 0.04 0.05 0.07 0.10 0.10 0.10 0.26 0.74 1.34 1.29 0.83 0.36 0.36 0.62 0.61 0.81 0.83 0.77 0.84
1.19 1.24 1.33 1.41 1.55 1.52 1.38 1.56 1.69 1.82 2.46 1.67 0.91 0.42 0.26 0.18 0.07 0.15 0.45 0.66 0.52 0.47 0.30 0.10 0.08 0.12 0.10 0.05 0.04 0.04 0.07 0.12 0.27 0.29 0.32 0.65 0.94 1.14 0.71 0.48 0.70 1.12 0.77 0.59 0.38 0.37 0.49
1.32 1.29 1.04 1.04 1.11 1.33 1.40 1.41 1.32 1.25 1.48 1.18 0.81 0.67 0.52 0.22 0.07 0.07 0.20 0.41 0.43 0.38 0.37 0.09 0.10 0.11 0.07 0.05 0.06 0.07 0.14 0.09 0.09 0.19 0.33 0.31 0.55 0.89 0.75 0.73 1.02 0.63 0.51 0.35 0.36 0.36 0.32
1.11 1.09 1.05 0.90 0.88 1.00 1.18 1.41 1.03 0.94 1.09 0.73 0.63 0.62 0.42 0.18 0.07 0.05 0.16 0.36 0.49 0.46 0.52 0.25 0.09 0.07 0.09 0.13 0.22 0.23 0.31 0.37 0.20 0.11 0.05 0.23 0.39 0.63 0.46 0.38 0.25 0.02 0.05 0.17 0.23 0.37 0.20
1.05 0.95 1.04 1.19 0.93 0.81 0.96 1.13 0.89 0.80 0.76 0.50 0.54 0.54 0.56 0.23 0.09 0.03 0.05 0.16 0.45 0.46 0.53 0.41 0.24 0.15 0.25 0.34 0.35 0.36 0.30 0.25 0.25 0.29 0.20 0.07 0.24 0.73 0.40 0.36 0.09 0.00 0.00 0.00 0.03 0.21 0.30
1.37 1.01 0.82 0.90 1.11 0.89 0.94 1.08 0.89 0.76 0.75 0.49 0.51 0.52 0.48 0.29 0.08 0.02 0.03 0.06 0.30 0.53 0.59 0.47 0.41 0.21 0.36 0.63 0.52 0.33 0.13 0.09 0.15 0.22 0.14 0.34 0.36 0.45 0.35 0.37 0.03 0.00 0.00 0.00 0.04 0.12 0.11
1.28 1.28 1.17 0.72 0.65 0.89 1.04 1.13 1.14 0.93 0.86 0.66 0.43 0.43 0.46 0.35 0.14 0.03 0.03 0.05 0.18 0.42 0.61 0.56 0.71 0.50 0.53 0.80 0.74 0.42 0.14 0.06 0.04 0.08 0.04 0.10 0.22 0.24 0.22 0.27 0.04 0.00 0.00 0.01 0.01 0.00 0.00
1.34 0.95 0.95 0.90 0.64 0.58 0.83 0.95 1.12 0.96 0.88 0.87 0.52 0.38 0.47 0.55 0.24 0.05 0.02 0.01 0.05 0.27 0.60 0.60 0.59 0.42 0.52 0.54 0.47 0.39 0.30 0.24 0.10 0.08 0.02 0.03 0.03 0.09 0.08 0.05 0.01 0.01 0.00 0.00 0.00 0.00 0.00

GFSGBSN_prec_precacc_150.txt.gz
Total_Precipitation_Accumulation
0.39 0.42 0.46 0.48 0.41 0.36 0.35 0.45 0.53 0.60 0.66 0.77 0.83 0.82 0.74 0.68 0.80 0.90 0.71 0.63 0.76 0.84 0.59 0.37 0.41 0.66 0.69 0.38 0.11 0.24 0.22 0.31 0.33 0.78 0.76 1.01 0.66 0.45 0.32 0.34 1.24 1.43 1.25 0.78 0.85 0.64 0.50
0.39 0.43 0.47 0.42 0.38 0.35 0.40 0.49 0.52 0.60 0.76 0.79 0.86 0.82 0.72 0.69 0.65 0.78 0.62 0.45 0.57 1.09 0.65 0.38 0.54 0.91 0.62 0.23 0.02 0.08 0.20 0.16 0.34 0.76 0.77 1.05 0.67 0.40 0.28 0.35 0.79 1.22 1.56 0.94 0.76 0.65 0.33
0.36 0.44 0.47 0.40 0.37 0.35 0.43 0.56 0.55 0.60 0.69 0.71 0.80 0.71 0.64 0.73 0.68 0.73 0.63 0.60 0.85 1.13 0.60 0.58 0.86 1.00 0.50 0.08 0.03 0.09 0.15 0.23 0.37 0.66 0.89 0.92 0.49 0.43 0.28 0.27 0.25 0.76 1.68 1.34 0.78 0.84 0.41
0.37 0.42 0.45 0.40 0.34 0.35 0.47 0.56 0.54 0.58 0.65 0.69 0.82 0.68 0.68 0.74 0.62 0.60 0.59 0.56 0.82 1.00 0.75 0.74 1.19 1.07 0.34 0.02 0.03 0.03 0.12 0.23 0.29 0.67 0.75 1.04 0.79 0.47 0.32 0.21 0.28 0.50 1.33 1.70 0.95 0.92 0.71
0.40 0.40 0.41 0.38 0.32 0.40 0.54 0.58 0.52 0.53 0.67 0.81 0.86 0.77 0.77 0.68 0.60 0.60 0.52 0.59 0.76 0.74 0.76 1.22 1.10 0.66 0.16 0.04 0.06 0.03 0.14 0.23 0.26 0.72 0.94 1.66 1.53 0.74 0.39 0.42 0.45 0.41 0.57 1.01 1.10 0.81 0.89
0.39 0.41 0.41 0.36 0.35 0.47 0.57 0.60 0.56 0.62 0.78 0.92 0.86 0.78 0.84 0.77 0.76 0.70 0.69 0.84 1.10 1.06 1.02 1.55 0.94 0.81 0.15 0.05 0.14 0.08 0.22 0.30 0.50 1.13 1.72 2.48 1.82 1.19 0.58 0.64 0.50 0.29 0.30 0.31 0.56 0.71 0.68
0.41 0.44 0.40 0.33 0.36 0.46 0.55 0.59 0.56 0.69 0.72 0.82 0.78 0.82 0.86 0.78 0.95 1.11 1.26 1.67 1.48 1.61 1.18 0.81 0.51 0.40 0.17 0.26 0.39 0.27 0.35 0.56 0.97 1.55 1.67 2.33 1.43 1.00 0.42 0.22 0.12 0.15 0.19 0.20 0.16 0.26 0.51
0.46 0.53 0.45 0.44 0.47 0.58 0.62 0.62 0.62 0.74 0.80 0.86 0.80 0.83 0.84 0.81 1.07 1.32 1.32 1.28 0.79 0.82 0.88 0.41 0.36 0.36 0.23 0.48 0.74 0.58 0.40 0.98 1.00 1.25 1.58 2.17 1.01 0.31 0.35 0.26 0.18 0.16 0.13 0.09 0.13 0.16 0.23
0.55 0.55 0.40 0.44 0.50 0.62 0.65 0.63 0.72 0.81 0.87 0.92 0.88 0.94 1.12 1.22 1.35 1.82 1.18 0.79 0.77 1.00 1.26 0.86 0.55 0.48 0.41 0.84 0.78 0.76 0.55 1.14 0.77 1.01 1.56 1.63 0.60 0.35 0.48 0.47 0.28 0.18 0.09 0.06 0.09 0.10 0.11
0.66 0.63 0.56 0.61 0.58 0.63 0.68 0.74 0.95 1.08 1.05 1.06 1.12 1.42 1.54 1.78 2.13 1.27 1.34 0.98 1.04 1.66 2.25 1.23 0.79 0.60 0.72 0.99 0.99 0.56 1.01 1.36 0.69 1.04 1.34 1.19 0.61 0.55 0.70 0.52 0.31 0.25 0.12 0.04 0.08 0.14 0.15
0.74 0.78 0.82 0.74 0.77 0.79 0.77 0.86 0.98 1.01 1.07 1.18 1.52 1.71 1.77 2.34 2.56 1.47 1.41 1.07 1.31 2.38 2.13 1.11 0.86 0.77 0.78 0.68 0.63 0.76 1.04 1.29 0.52 0.83 1.32 1.21 0.74 0.59 0.90 0.70 0.22 0.28 0.12 0.04 0.13 0.18 0.19
0.87 0.77 0.77 0.73 0.80 0.89 0.87 0.88 0.90 0.83 1.02 1.36 1.37 1.32 1.78 2.19 2.29 1.55 1.47 1.66 2.15 2.61 1.97 1.39 1.24 0.88 0.77 0.58 0.62 0.99 1.11 1.06 0.68 0.88 0.87 0.80 0.64 0.57 0.65 0.72 0.41 0.28 0.28 0.25 0.20 0.51 0.55
0.91 0.77 0.79 0.79 0.82 0.86 0.86 0.93 1.01 1.10 1.17 1.19 1.23 1.27 1.63 1.70 1.89 1.90 2.39 2.25 2.54 1.64 1.15 1.17 1.06 0.82 0.75 0.68 0.80 0.88 1.23 1.01 1.41 1.18 1.39 1.47 0.98 0.59 0.50 0.99 0.91 0.73 0.98 1.33 0.97 1.15 0.66
1.03 1.07 0.97 0.93 0.95 0.94 1.08 1.05 1.25 1.38 1.28 1.29 1.36 1.31 1.60 1.41 2.03 2.02 3.03 2.19 1.66 0.68 0.99 0.90 0.39 0.47 0.53 0.30 0.57 0.73 0.89 0.69 0.59 0.39 0.82 1.12 1.15 0.74 0.55 0.99 1.32 0.91 1.09 1.35 0.98 0.53 0.29
0.96 1.08 1.09 1.06 1.17 1.21 1.31 1.19 1.17 1.26 1.30 1.68 1.67 1.94 2.73 1.54 2.11 2.69 2.77 2.20 1.05 0.87 1.03 0.63 0.50 0.41 0.38 0.27 0.57 0.63 0.64 0.30 0.24 0.15 0.61 0.66 0.61 0.42 0.36 0.47 0.87 1.16 1.21 0.72 0.89 0.44 0.35
1.07 1.00 1.15 1.27 1.24 1.33 1.35 1.27 1.31 1.27 1.50 1.84 1.84 2.12 2.67 1.82 1.84 3.38 3.11 1.79 0.92 0.73 0.51 0.31 0.36 0.22 0.15 0.21 0.50 0.45 0.44 0.16 0.09 0.02 0.20 0.47 0.78 0.50 0.56 0.67 0.89 0.98 0.64 0.89 1.36 0.88 0.41
1.32 1.24 1.22 1.34 1.32 1.34 1.41 1.37 1.39 1.52 1.74 1.70 1.45 2.59 2.14 2.40 2.58 3.78 2.93 1.56 0.79 0.38 0.43 0.35 0.11 0.11 0.05 0.05 0.30 0.21 0.21 0.09 0.03 0.01 0.13 0.57 0.93 0.71 0.90 0.96 0.67 0.95 1.19 0.73 0.91 0.48 0.55
1.32 1.47 1.49 1.49 1.48 1.33 1.51 1.41 1.16 1.48 1.78 1.88 1.59 2.08 1.97 2.62 3.52 2.63 2.08 1.63 0.77 0.37 0.38 0.36 0.16 0.06 0.05 0.03 0.18 0.13 0.07 0.06 0.03 0.04 0.19 0.55 1.06 0.83 0.41 0.41 0.23 0.53 0.62 0.74 0.86 0.48 0.43
1.15 1.32 1.50 1.56 1.39 1.27 1.40 1.54 1.26 1.39 2.33 2.52 1.86 2.26 2.91 1.88 1.66 1.39 1.64 1.17 0.64 0.39 0.37 0.35 0.11 0.04 0.02 0.04 0.08 0.03 0.06 0.01 0.03 0.11 0.29 0.66 1.36 1.09 0.64 0.98 0.67 0.84 0.49 0.73 1.25 1.27 0.85
1.43 1.20 1.27 1.25 1.32 1.28 1.35 1.19 1.15 1.25 1.72 2.16 1.87 2.07 3.56 2.60 0.92 1.01 1.18 1.00 0.69 0.35 0.28 0.30 0.15 0.07 0.06 0.05 0.03 0.02 0.07 0.03 0.01 0.08 0.30 0.86 1.04 0.84 0.62 0.86 0.88 0.64 0.44 0.73 1.74 2.13 0.67
1.46 1.32 1.25 1.27 1.35 1.37 1.72 1.39 1.11 1.21 1.35 1.77 1.46 0.79 0.77 0.89 0.61 0.55 0.88 0.75 0.61 0.52 0.32 0.28 0.19 0.09 0.06 0.06 0.03 0.03 0.04 0.04 0.06 0.06 0.27 1.08 1.40 1.01 0.43 0.17 0.67 0.68 0.52 0.76 1.52 0.99 1.09
1.37 1.44 1.46 1.78 1.64 1.88 2.11 1.72 1.26 1.50 2.10 1.74 1.09 0.50 0.18 0.12 0.08 0.25 0.76 0.89 0.63 0.53 0.41 0.21 0.11 0.05 0.07 0.04 0.04 0.05 0.07 0.10 0.10 0.10 0.26 0.74 1.34 1.29 0.83 0.36 0.36 0.62 0.61 0.81 0.83 0.77 0.84
1.20 1.25 1.34 1.42 1.56 1.54 1.40 1.56 1.70 1.83 2.46 1.67 0.91 0.42 0.26 0.18 0.07 0.15 0.45 0.66 0.52 0.47 0.30 0.10 0.08 0.12 0.10 0.05 0.04 0.04 0.07 0.12 0.27 0.29 0.32 0.65 0.94 1.14 0.71 0.48 0.70 1.12 0.77 0.59 0.38 0.37 0.49
1.33 1.29 1.05 1.05 1.12 1.35 1.42 1.42 1.35 1.26 1.50 1.18 0.81 0.67 0.54 0.23 0.07 0.07 0.20 0.41 0.43 0.38 0.37 0.09 0.10 0.11 0.07 0.05 0.06 0.07 0.14 0.09 0.09 0.19 0.33 0.31 0.55 0.89 0.75 0.73 1.02 0.63 0.51 0.35 0.36 0.36 0.32
1.12 1.09 1.06 0.91 0.89 1.02 1.21 1.46 1.08 0.96 1.11 0.74 0.64 0.65 0.46 0.22 0.08 0.05 0.16 0.36 0.49 0.46 0.52 0.25 0.09 0.07 0.09 0.13 0.22 0.23 0.31 0.37 0.20 0.11 0.05 0.23 0.39 0.63 0.46 0.38 0.25 0.02 0.05 0.17 0.23 0.37 0.20
1.05 0.95 1.04 1.20 0.94 0.82 0.96 1.14 0.89 0.80 0.78 0.53 0.55 0.56 0.64 0.33 0.13 0.03 0.06 0.16 0.46 0.47 0.54 0.41 0.24 0.15 0.25 0.34 0.35 0.38 0.31 0.25 0.25 0.29 0.20 0.07 0.24 0.73 0.40 0.36 0.09 0.00 0.00 0.00 0.03 0.21 0.30
1.37 1.01 0.82 0.91 1.12 0.89 0.94 1.08 0.89 0.76 0.76 0.55 0.55 0.56 0.58 0.41 0.12 0.02 0.05 0.07 0.31 0.54 0.60 0.47 0.41 0.21 0.36 0.64 0.54 0.35 0.13 0.09 0.15 0.22 0.14 0.34 0.36 0.45 0.35 0.37 0.03 0.00 0.00 0.00 0.04 0.12 0.11
1.28 1.28 1.17 0.72 0.66 0.90 1.04 1.13 1.14 0.93 0.87 0.69 0.45 0.43 0.51 0.43 0.18 0.05 0.04 0.06 0.20 0.44 0.64 0.58 0.77 0.54 0.55 0.82 0.76 0.43 0.14 0.06 0.04 0.08 0.04 0.10 0.22 0.25 0.22 0.28 0.04 0.00 0.00 0.01 0.01 0.00 0.00
1.35 0.95 0.95 0.90 0.64 0.58 0.83 0.96 1.13 0.96 0.89 0.89 0.54 0.38 0.48 0.60 0.28 0.06 0.03 0.03 0.07 0.28 0.64 0.68 0.71 0.51 0.64 0.66 0.56 0.45 0.34 0.27 0.11 0.09 0.02 0.03 0.03 0.09 0.08 0.05 0.01 0.01 0.00 0.00 0.00 0.00 0.00

GFSGBSN_prec_precacc_153.txt.gz
Total_Precipitation_Accumulation
0.39 0.42 0.46 0.48 0.41 0.36 0.35 0.45 0.53 0.60 0.66 0.77 0.83 0.82 0.74 0.68 0.80 0.90 0.71 0.63 0.76 0.84 0.59 0.37 0.41 0.66 0.69 0.38 0.11 0.24 0.22 0.31 0.33 0.78 0.76 1.01 0.66 0.45 0.32 0.34 1.24 1.43 1.25 0.78 0.85 0.64 0.50
0.39 0.43 0.47 0.42 0.38 0.35 0.40 0.49 0.52 0.60 0.76 0.79 0.86 0.82 0.72 0.69 0.65 0.78 0.62 0.45 0.57 1.09 0.65 0.38 0.54 0.91 0.62 0.23 0.02 0.08 0.20 0.16 0.34 0.76 0.77 1.05 0.67 0.40 0.28 0.35 0.79 1.22 1.56 0.94 0.76 0.65 0.33
0.36 0.44 0.47 0.40 0.37 0.35 0.43 0.56 0.55 0.60 0.69 0.71 0.80 0.71 0.64 0.73 0.68 0.73 0.63 0.60 0.85 1.13 0.60 0.58 0.86 1.00 0.50 0.08 0.03 0.09 0.15 0.23 0.37 0.66 0.89 0.92 0.49 0.43 0.28 0.27 0.25 0.76 1.68 1.34 0.78 0.84 0.41
0.37 0.42 0.45 0.40 0.34 0.35 0.47 0.56 0.54 0.58 0.65 0.69 0.82 0.68 0.68 0.74 0.62 0.60 0.59 0.56 0.82 1.00 0.75 0.74 1.19 1.07 0.34 0.02 0.03 0.03 0.12 0.23 0.29 0.67 0.75 1.04 0.79 0.47 0.32 0.21 0.28 0.50 1.33 1.70 0.95 0.92 0.71
0.40 0.40 0.41 0.38 0.32 0.40 0.54 0.58 0.52 0.53 0.67 0.81 0.86 0.77 0.77 0.68 0.60 0.60 0.52 0.59 0.76 0.74 0.76 1.22 1.10 0.66 0.16 0.04 0.06 0.03 0.14 0.23 0.26 0.72 0.94 1.66 1.53 0.74 0.39 0.42 0.45 0.41 0.57 1.01 1.10 0.81 0.89
0.39 0.41 0.41 0.36 0.35 0.47 0.57 0.60 0.56 0.62 0.78 0.92 0.86 0.78 0.84 0.77 0.76 0.70 0.69 0.84 1.10 1.06 1.02 1.55 0.94 0.81 0.15 0.05 0.14 0.08 0.22 0.30 0.50 1.13 1.72 2.48 1.82 1.19 0.58 0.64 0.50 0.29 0.30 0.31 0.56 0.71 0.68
0.41 0.44 0.40 0.33 0.36 0.46 0.55 0.59 0.56 0.69 0.72 0.82 0.78 0.82 0.86 0.78 0.95 1.11 1.26 1.67 1.48 1.61 1.18 0.81 0.51 0.40 0.17 0.26 0.39 0.27 0.35 0.56 0.97 1.55 1.67 2.33 1.43 1.00 0.42 0.22 0.12 0.15 0.19 0.20 0.16 0.26 0.51
0.46 0.53 0.46 0.44 0.47 0.58 0.62 0.62 0.62 0.74 0.80 0.86 0.80 0.83 0.84 0.81 1.07 1.32 1.32 1.28 0.79 0.82 0.88 0.41 0.36 0.36 0.23 0.48 0.74 0.58 0.40 0.98 1.00 1.25 1.58 2.17 1.01 0.31 0.35 0.26 0.18 0.16 0.13 0.09 0.13 0.16 0.23
0.55 0.55 0.40 0.44 0.50 0.62 0.65 0.63 0.72 0.81 0.87 0.92 0.88 0.94 1.12 1.22 1.35 1.82 1.18 0.79 0.77 1.00 1.26 0.86 0.55 0.48 0.41 0.84 0.78 0.76 0.55 1.14 0.77 1.01 1.56 1.63 0.60 0.35 0.48 0.47 0.28 0.18 0.09 0.06 0.09 0.10 0.11
0.66 0.63 0.57 0.61 0.58 0.63 0.68 0.74 0.95 1.08 1.05 1.06 1.12 1.42 1.54 1.78 2.13 1.27 1.34 0.98 1.04 1.66 2.25 1.23 0.79 0.60 0.72 0.99 0.99 0.56 1.01 1.36 0.69 1.04 1.34 1.19 0.61 0.55 0.70 0.52 0.31 0.25 0.12 0.04 0.08 0.14 0.15
0.75 0.79 0.82 0.74 0.77 0.79 0.77 0.86 0.98 1.01 1.07 1.18 1.52 1.71 1.77 2.34 2.56 1.47 1.41 1.07 1.31 2.38 2.13 1.11 0.86 0.77 0.78 0.68 0.63 0.76 1.04 1.29 0.52 0.83 1.32 1.21 0.74 0.59 0.90 0.70 0.22 0.28 0.12 0.04 0.13 0.18 0.19
0.88 0.78 0.78 0.74 0.81 0.90 0.87 0.88 0.90 0.83 1.02 1.36 1.37 1.32 1.78 2.19 2.29 1.55 1.47 1.66 2.15 2.61 1.97 1.39 1.24 0.88 0.77 0.58 0.62 0.99 1.11 1.06 0.68 0.88 0.87 0.80 0.64 0.57 0.65 0.72 0.41 0.28 0.28 0.25 0.20 0.51 0.55
0.92 0.78 0.80 0.79 0.83 0.87 0.87 0.93 1.01 1.10 1.17 1.19 1.23 1.27 1.63 1.70 1.89 1.90 2.39 2.25 2.54 1.64 1.15 1.17 1.06 0.82 0.75 0.68 0.80 0.88 1.23 1.01 1.41 1.18 1.39 1.47 0.98 0.59 0.50 0.99 0.91 0.73 0.98 1.33 0.97 1.15 0.66
1.04 1.08 0.98 0.93 0.95 0.94 1.08 1.05 1.25 1.38 1.28 1.29 1.36 1.31 1.60 1.41 2.03 2.02 3.03 2.19 1.66 0.68 0.99 0.90 0.39 0.47 0.53 0.30 0.57 0.73 0.89 0.69 0.59 0.39 0.82 1.12 1.15 0.74 0.55 0.99 1.32 0.91 1.09 1.35 0.98 0.53 0.29
0.97 1.08 1.09 1.07 1.17 1.21 1.31 1.19 1.17 1.26 1.30 1.68 1.67 1.94 2.73 1.54 2.11 2.69 2.77 2.20 1.05 0.87 1.03 0.63 0.50 0.41 0.38 0.27 0.57 0.63 0.64 0.30 0.24 0.15 0.61 0.66 0.61 0.42 0.36 0.47 0.87 1.16 1.21 0.72 0.89 0.44 0.35
1.07 1.01 1.15 1.27 1.24 1.33 1.35 1.27 1.31 1.27 1.50 1.84 1.84 2.12 2.67 1.82 1.84 3.38 3.11 1.79 0.92 0.73 0.51 0.31 0.36 0.22 0.15 0.21 0.50 0.45 0.44 0.16 0.09 0.02 0.20 0.47 0.78 0.50 0.56 0.67 0.89 0.98 0.64 0.89 1.36 0.88 0.41
1.32 1.24 1.22 1.35 1.32 1.34 1.41 1.37 1.39 1.52 1.74 1.70 1.45 2.59 2.14 2.40 2.58 3.78 2.93 1.56 0.79 0.38 0.43 0.35 0.11 0.11 0.05 0.05 0.30 0.21 0.21 0.09 0.03 0.01 0.13 0.57 0.93 0.71 0.90 0.96 0.67 0.95 1.19 0.73 0.91 0.48 0.55
1.32 1.47 1.49 1.50 1.48 1.33 1.51 1.41 1.16 1.48 1.78 1.88 1.59 2.08 1.97 2.62 3.52 2.63 2.08 1.63 0.77 0.37 0.38 0.36 0.16 0.06 0.05 0.03 0.18 0.13 0.07 0.06 0.03 0.04 0.19 0.55 1.06 0.83 0.41 0.41 0.23 0.53 0.62 0.74 0.86 0.48 0.43
1.15 1.32 1.50 1.56 1.39 1.28 1.40 1.54 1.26 1.39 2.33 2.52 1.86 2.26 2.91 1.88 1.66 1.39 1.64 1.17 0.64 0.39 0.37 0.35 0.11 0.04 0.02 0.04 0.08 0.03 0.06 0.01 0.03 0.11 0.29 0.66 1.36 1.09 0.64 0.98 0.67 0.84 0.49 0.73 1.25 1.27 0.85
1.43 1.20 1.27 1.25 1.32 1.29 1.35 1.19 1.15 1.25 1.72 2.16 1.87 2.07 3.56 2.60 0.92 1.01 1.18 1.00 0.69 0.35 0.28 0.30 0.15 0.07 0.06 0.05 0.03 0.02 0.07 0.03 0.01 0.08 0.30 0.86 1.04 0.84 0.62 0.86 0.88 0.64 0.44 0.73 1.74 2.13 0.67
1.46 1.32 1.25 1.27 1.35 1.38 1.72 1.39 1.11 1.21 1.35 1.77 1.46 0.79 0.77 0.89 0.61 0.55 0.88 0.75 0.61 0.52 0.32 0.28 0.19 0.09 0.06 0.06 0.03 0.03 0.04 0.04 0.06 0.06 0.27 1.08 1.40 1.01 0.43 0.17 0.67 0.68 0.52 0.76 1.52 0.99 1.09
1.37 1.44 1.46 1.78 1.64 1.88 2.12 1.72 1.26 1.50 2.10 1.74 1.09 0.50 0.18 0.12 0.08 0.25 0.76 0.89 0.63 0.53 0.41 0.21 0.11 0.05 0.07 0.04 0.04 0.05 0.07 0.10 0.10 0.10 0.26 0.74 1.34 1.29 0.83 0.36 0.36 0.62 0.61 0.81 0.83 0.77 0.84
1.20 1.25 1.34 1.42 1.57 1.54 1.40 1.57 1.70 1.83 2.46 1.67 0.91 0.42 0.26 0.18 0.07 0.15 0.45 0.66 0.52 0.47 0.30 0.10 0.08 0.12 0.10 0.05 0.04 0.04 0.07 0.12 0.27 0.29 0.32 0.65 0.94 1.14 0.71 0.48 0.70 1.12 0.77 0.60 0.38 0.37 0.49
1.33 1.29 1.05 1.06 1.13 1.35 1.42 1.43 1.38 1.32 1.52 1.18 0.81 0.68 0.55 0.24 0.08 0.07 0.20 0.41 0.43 0.38 0.37 0.09 0.10 0.11 0.07 0.05 0.06 0.07 0.14 0.09 0.09 0.19 0.33 0.31 0.55 0.89 0.75 0.73 1.02 0.63 0.51 0.35 0.36 0.36 0.32
1.12 1.09 1.06 0.91 0.89 1.02 1.21 1.46 1.09 0.98 1.12 0.75 0.64 0.65 0.47 0.24 0.09 0.05 0.16 0.36 0.49 0.47 0.52 0.25 0.09 0.07 0.09 0.13 0.22 0.24 0.31 0.37 0.20 0.11 0.05 0.23 0.39 0.63 0.46 0.38 0.25 0.02 0.05 0.17 0.23 0.37 0.20
1.05 0.95 1.04 1.20 0.94 0.82 0.96 1.14 0.89 0.80 0.78 0.53 0.55 0.58 0.67 0.36 0.14 0.04 0.07 0.17 0.47 0.47 0.54 0.41 0.24 0.15 0.25 0.34 0.35 0.39 0.31 0.25 0.25 0.29 0.20 0.07 0.24 0.73 0.40 0.36 0.09 0.00 0.00 0.00 0.03 0.21 0.30
1.37 1.01 0.82 0.91 1.12 0.89 0.94 1.08 0.89 0.76 0.76 0.55 0.55 0.56 0.59 0.43 0.13 0.03 0.06 0.08 0.32 0.54 0.60 0.48 0.41 0.21 0.36 0.64 0.55 0.36 0.14 0.09 0.15 0.22 0.14 0.34 0.36 0.45 0.35 0.38 0.03 0.00 0.00 0.00 0.04 0.12 0.11
1.29 1.28 1.17 0.72 0.66 0.90 1.04 1.13 1.14 0.93 0.87 0.69 0.45 0.43 0.52 0.45 0.18 0.05 0.05 0.07 0.21 0.45 0.65 0.59 0.78 0.55 0.56 0.85 0.79 0.44 0.17 0.07 0.05 0.08 0.04 0.10 0.23 0.26 0.24 0.30 0.05 0.00 0.00 0.01 0.01 0.00 0.00
1.35 0.96 0.95 0.90 0.64 0.58 0.83 0.96 1.13 0.97 0.90 0.90 0.54 0.38 0.48 0.61 0.28 0.06 0.03 0.03 0.07 0.29 0.66 0.71 0.73 0.53 0.66 0.69 0.60 0.49 0.38 0.30 0.14 0.11 0.02 0.05 0.06 0.10 0.09 0.06 0.01 0.01 0.00 0.00 0.00 0.00 0.00

GFSGBSN_prec_precacc_156.txt.gz
Total_Precipitation_Accumulation
0.39 0.42 0.46 0.48 0.41 0.36 0.35 0.45 0.53 0.60 0.66 0.77 0.83 0.82 0.74 0.68 0.80 0.90 0.71 0.63 0.76 0.84 0.59 0.37 0.41 0.66 0.69 0.38 0.11 0.24 0.22 0.31 0.33 0.78 0.76 1.01 0.66 0.45 0.32 0.34 1.24 1.43 1.25 0.78 0.85 0.64 0.50
0.39 0.43 0.47 0.42 0.38 0.35 0.40 0.49 0.52 0.60 0.76 0.79 0.86 0.82 0.72 0.69 0.65 0.78 0.62 0.45 0.57 1.09 0.65 0.38 0.54 0.91 0.62 0.23 0.02 0.08 0.20 0.16 0.34 0.76 0.77 1.05 0.67 0.40 0.28 0.35 0.79 1.22 1.56 0.94 0.76 0.65 0.33
0.36 0.44 0.47 0.40 0.37 0.35 0.43 0.56 0.55 0.60 0.69 0.71 0.80 0.71 0.64 0.73 0.68 0.73 0.63 0.60 0.85 1.13 0.60 0.58 0.86 1.00 0.50 0.08 0.03 0.09 0.15 0.23 0.37 0.66 0.89 0.92 0.49 0.43 0.28 0.27 0.25 0.76 1.68 1.34 0.78 0.84 0.41
0.37 0.42 0.45 0.40 0.34 0.35 0.47 0.56 0.54 0.58 0.65 0.69 0.82 0.68 0.68 0.74 0.62 0.60 0.59 0.56 0.82 1.00 0.75 0.74 1.19 1.07 0.34 0.02 0.03 0.03 0.12 0.23 0.29 0.67 0.75 1.04 0.79 0.47 0.32 0.21 0.28 0.50 1.33 1.70 0.95 0.92 0.71
0.40 0.40 0.41 0.38 0.32 0.40 0.54 0.58 0.52 0.53 0.67 0.81 0.86 0.77 0.77 0.68 0.60 0.60 0.52 0.59 0.76 0.74 0.76 1.22 1.10 0.66 0.16 0.04 0.06 0.03 0.14 0.23 0.26 0.72 0.94 1.66 1.53 0.74 0.39 0.42 0.45 0.41 0.57 1.01 1.10 0.81 0.89
0.39 0.41 0.41 0.36 0.35 0.47 0.57 0.60 0.56 0.62 0.78 0.92 0.86 0.78 0.84 0.77 0.76 0.70 0.69 0.84 1.10 1.06 1.02 1.55 0.94 0.81 0.15 0.05 0.14 0.08 0.22 0.30 0.50 1.13 1.72 2.48 1.82 1.19 0.58 0.64 0.50 0.29 0.30 0.31 0.56 0.71 0.68
0.42 0.44 0.40 0.33 0.36 0.46 0.55 0.59 0.56 0.69 0.72 0.82 0.78 0.82 0.86 0.78 0.95 1.11 1.26 1.67 1.48 1.61 1.18 0.81 0.51 0.40 0.17 0.26 0.39 0.27 0.35 0.56 0.97 1.55 1.67 2.33 1.43 1.00 0.42 0.22 0.12 0.15 0.19 0.20 0.16 0.26 0.51
0.47 0.54 0.46 0.44 0.47 0.58 0.62 0.62 0.62 0.74 0.80 0.86 0.80 0.83 0.84 0.81 1.07 1.32 1.32 1.28 0.79 0.82 0.88 0.41 0.36 0.36 0.23 0.48 0.74 0.58 0.40 0.98 1.00 1.25 1.58 2.17 1.01 0.31 0.35 0.26 0.18 0.16 0.13 0.09 0.13 0.16 0.23
0.56 0.56 0.41 0.45 0.50 0.62 0.65 0.63 0.72 0.81 0.87 0.92 0.88 0.94 1.12 1.22 1.35 1.82 1.18 0.79 0.77 1.00 1.26 0.86 0.55 0.48 0.41 0.84 0.78 0.76 0.55 1.14 0.77 1.01 1.56 1.63 0.60 0.35 0.48 0.47 0.28 0.18 0.09 0.06 0.09 0.10 0.11
0.67 0.63 0.57 0.61 0.59 0.63 0.68 0.74 0.95 1.08 1.05 1.06 1.12 1.42 1.54 1.78 2.13 1.27 1.34 0.98 1.04 1.66 2.25 1.23 0.79 0.60 0.72 0.99 0.99 0.56 1.01 1.36 0.69 1.04 1.34 1.19 0.61 0.55 0.70 0.52 0.31 0.25 0.12 0.04 0.08 0.14 0.15
0.76 0.79 0.83 0.74 0.77 0.79 0.78 0.86 0.98 1.02 1.07 1.18 1.52 1.71 1.77 2.34 2.56 1.47 1.41 1.07 1.31 2.38 2.13 1.11 0.86 0.77 0.78 0.68 0.63 0.76 1.04 1.29 0.52 0.83 1.32 1.21 0.74 0.59 0.90 0.70 0.22 0.28 0.12 0.04 0.13 0.18 0.19
0.88 0.78 0.78 0.74 0.81 0.90 0.87 0.88 0.90 0.83 1.02 1.36 1.37 1.32 1.78 2.19 2.29 1.55 1.47 1.66 2.15 2.61 1.97 1.39 1.24 0.88 0.77 0.58 0.62 0.99 1.11 1.06 0.68 0.88 0.87 0.80 0.64 0.57 0.65 0.72 0.41 0.28 0.28 0.25 0.20 0.51 0.55
0.92 0.78 0.80 0.80 0.84 0.87 0.87 0.93 1.01 1.10 1.17 1.19 1.23 1.27 1.63 1.70 1.89 1.90 2.39 2.25 2.54 1.64 1.15 1.17 1.06 0.82 0.75 0.68 0.80 0.88 1.23 1.01 1.41 1.18 1.39 1.47 0.98 0.59 0.50 0.99 0.91 0.73 0.98 1.33 0.97 1.15 0.66
1.04 1.08 0.98 0.94 0.95 0.94 1.08 1.05 1.25 1.38 1.28 1.29 1.36 1.31 1.60 1.41 2.03 2.02 3.03 2.19 1.66 0.68 0.99 0.90 0.39 0.47 0.53 0.30 0.57 0.73 0.89 0.69 0.59 0.39 0.82 1.12 1.15 0.74 0.55 0.99 1.32 0.91 1.09 1.35 0.98 0.53 0.29
0.97 1.08 1.09 1.07 1.17 1.22 1.31 1.19 1.17 1.26 1.30 1.68 1.67 1.94 2.73 1.54 2.11 2.69 2.77 2.20 1.05 0.87 1.03 0.63 0.50 0.41 0.38 0.27 0.57 0.63 0.64 0.30 0.24 0.15 0.61 0.66 0.61 0.42 0.36 0.47 0.87 1.16 1.21 0.72 0.89 0.44 0.35
1.08 1.01 1.15 1.28 1.24 1.33 1.35 1.27 1.31 1.27 1.50 1.84 1.84 2.12 2.67 1.82 1.84 3.38 3.11 1.79 0.92 0.73 0.51 0.31 0.36 0.22 0.15 0.21 0.50 0.45 0.44 0.16 0.09 0.02 0.20 0.47 0.78 0.50 0.56 0.67 0.89 0.98 0.64 0.89 1.36 0.88 0.41
1.32 1.24 1.22 1.35 1.32 1.34 1.41 1.37 1.39 1.52 1.74 1.70 1.45 2.59 2.14 2.40 2.58 3.78 2.93 1.56 0.79 0.38 0.43 0.35 0.11 0.11 0.05 0.05 0.30 0.21 0.21 0.09 0.03 0.01 0.13 0.57 0.93 0.71 0.90 0.96 0.67 0.95 1.19 0.73 0.91 0.48 0.55
1.32 1.47 1.49 1.50 1.48 1.33 1.51 1.41 1.16 1.48 1.78 1.88 1.59 2.08 1.97 2.62 3.52 2.63 2.08 1.63 0.77 0.37 0.38 0.36 0.16 0.06 0.05 0.03 0.18 0.13 0.07 0.06 0.03 0.04 0.19 0.55 1.06 0.83 0.41 0.41 0.23 0.53 0.62 0.74 0.86 0.48 0.43
1.15 1.33 1.50 1.56 1.39 1.28 1.40 1.54 1.26 1.39 2.33 2.52 1.86 2.26 2.91 1.88 1.66 1.39 1.64 1.17 0.64 0.39 0.37 0.35 0.11 0.04 0.02 0.04 0.08 0.03 0.06 0.01 0.03 0.11 0.29 0.66 1.36 1.09 0.64 0.98 0.67 0.84 0.49 0.73 1.25 1.27 0.85
1.43 1.20 1.27 1.25 1.32 1.29 1.35 1.19 1.15 1.25 1.72 2.16 1.87 2.07 3.56 2.60 0.92 1.01 1.18 1.00 0.69 0.35 0.28 0.30 0.15 0.07 0.06 0.05 0.03 0.02 0.07 0.03 0.01 0.08 0.30 0.86 1.04 0.84 0.63 0.86 0.88 0.64 0.44 0.73 1.74 2.13 0.67
1.46 1.32 1.25 1.27 1.35 1.38 1.72 1.39 1.11 1.21 1.35 1.77 1.46 0.79 0.77 0.89 0.61 0.55 0.88 0.75 0.61 0.52 0.32 0.28 0.19 0.09 0.06 0.06 0.03 0.03 0.04 0.04 0.06 0.06 0.27 1.08 1.40 1.01 0.43 0.17 0.67 0.68 0.52 0.76 1.52 0.99 1.09
1.37 1.44 1.46 1.79 1.64 1.88 2.12 1.72 1.26 1.50 2.10 1.74 1.09 0.50 0.18 0.12 0.08 0.25 0.76 0.89 0.63 0.53 0.41 0.21 0.11 0.05 0.07 0.04 0.04 0.05 0.07 0.10 0.10 0.10 0.26 0.74 1.34 1.29 0.83 0.36 0.36 0.62 0.61 0.81 0.83 0.77 0.84
1.20 1.25 1.35 1.43 1.57 1.54 1.40 1.57 1.70 1.83 2.46 1.67 0.91 0.42 0.26 0.18 0.07 0.15 0.45 0.66 0.52 0.47 0.30 0.10 0.08 0.12 0.10 0.05 0.04 0.04 0.07 0.12 0.27 0.29 0.32 0.65 0.94 1.15 0.72 0.48 0.70 1.12 0.77 0.60 0.38 0.37 0.49
1.33 1.29 1.05 1.06 1.13 1.35 1.42 1.43 1.38 1.33 1.52 1.18 0.81 0.68 0.55 0.24 0.08 0.07 0.20 0.41 0.43 0.38 0.37 0.09 0.10 0.11 0.07 0.05 0.06 0.07 0.14 0.09 0.09 0.19 0.33 0.31 0.55 0.90 0.77 0.73 1.03 0.63 0.51 0.35 0.36 0.36 0.32
1.12 1.09 1.06 0.91 0.89 1.02 1.21 1.46 1.09 0.98 1.13 0.75 0.65 0.66 0.48 0.24 0.09 0.05 0.16 0.36 0.49 0.47 0.52 0.26 0.09 0.07 0.09 0.13 0.22 0.24 0.31 0.37 0.20 0.11 0.05 0.23 0.39 0.65 0.49 0.39 0.25 0.02 0.05 0.17 0.23 0.37 0.20
1.05 0.95 1.04 1.20 0.94 0.82 0.96 1.14 0.89 0.80 0.78 0.53 0.55 0.59 0.69 0.38 0.14 0.04 0.07 0.17 0.47 0.47 0.54 0.41 0.24 0.15 0.25 0.34 0.35 0.39 0.31 0.26 0.25 0.29 0.20 0.07 0.24 0.75 0.41 0.36 0.09 0.00 0.00 0.00 0.03 0.21 0.30
1.37 1.01 0.82 0.91 1.12 0.89 0.94 1.08 0.89 0.77 0.77 0.55 0.55 0.56 0.61 0.45 0.13 0.03 0.06 0.09 0.32 0.55 0.61 0.48 0.41 0.21 0.36 0.64 0.56 0.37 0.14 0.09 0.16 0.22 0.14 0.34 0.37 0.46 0.35 0.38 0.03 0.00 0.00 0.00 0.04 0.12 0.11
1.29 1.28 1.17 0.72 0.66 0.90 1.04 1.13 1.14 0.93 0.88 0.69 0.45 0.43 0.52 0.45 0.18 0.05 0.05 0.07 0.21 0.45 0.66 0.59 0.79 0.55 0.57 0.86 0.80 0.45 0.18 0.08 0.06 0.09 0.06 0.14 0.26 0.27 0.25 0.33 0.06 0.00 0.00 0.01 0.01 0.00 0.00
1.35 0.96 0.95 0.91 0.64 0.58 0.83 0.96 1.13 0.97 0.90 0.90 0.54 0.38 0.48 0.62 0.28 0.06 0.03 0.03 0.07 0.29 0.67 0.72 0.73 0.53 0.67 0.70 0.60 0.50 0.39 0.31 0.14 0.12 0.02 0.05 0.06 0.10 0.11 0.08 0.01 0.01 0.00 0.00 0.00 0.00 0.00

GFSGBSN_prec_precacc_159.txt.gz
Total_Precipitation_Accumulation
0.39 0.42 0.46 0.48 0.41 0.36 0.35 0.45 0.53 0.60 0.66 0.77 0.83 0.82 0.74 0.68 0.80 0.90 0.71 0.63 0.76 0.84 0.59 0.37 0.41 0.66 0.69 0.38 0.11 0.24 0.22 0.31 0.33 0.78 0.76 1.01 0.66 0.45 0.32 0.34 1.24 1.43 1.25 0.78 0.85 0.64 0.50
0.39 0.43 0.47 0.42 0.38 0.35 0.40 0.49 0.52 0.60 0.76 0.79 0.86 0.82 0.72 0.69 0.65 0.78 0.62 0.45 0.57 1.09 0.65 0.38 0.54 0.91 0.62 0.23 0.02 0.08 0.20 0.16 0.34 0.76 0.77 1.05 0.67 0.40 0.28 0.35 0.79 1.22 1.56 0.94 0.76 0.65 0.33
0.36 0.44 0.47 0.40 0.37 0.35 0.43 0.56 0.55 0.60 0.69 0.71 0.80 0.71 0.64 0.73 0.68 0.73 0.63 0.60 0.85 1.13 0.60 0.58 0.86 1.00 0.50 0.08 0.03 0.09 0.15 0.23 0.37 0.66 0.89 0.92 0.49 0.43 0.28 0.27 0.25 0.76 1.68 1.34 0.78 0.84 0.41
0.38 0.42 0.45 0.40 0.34 0.35 0.47 0.56 0.54 0.58 0.65 0.69 0.82 0.68 0.68 0.74 0.62 0.60 0.59 0.56 0.82 1.00 0.75 0.74 1.19 1.07 0.34 0.02 0.03 0.03 0.12 0.23 0.29 0.67 0.75 1.04 0.79 0.47 0.32 0.21 0.28 0.50 1.33 1.70 0.95 0.92 0.71
0.41 0.41 0.41 0.38 0.32 0.40 0.54 0.58 0.52 0.53 0.67 0.81 0.86 0.77 0.77 0.68 0.60 0.60 0.52 0.59 0.76 0.74 0.76 1.22 1.10 0.66 0.16 0.04 0.06 0.03 0.14 0.23 0.26 0.72 0.94 1.66 1.53 0.74 0.39 0.42 0.45 0.41 0.57 1.01 1.10 0.81 0.89
0.40 0.42 0.41 0.36 0.36 0.47 0.58 0.60 0.56 0.62 0.78 0.92 0.86 0.78 0.84 0.77 0.76 0.70 0.69 0.84 1.10 1.06 1.02 1.55 0.94 0.81 0.15 0.05 0.14 0.08 0.22 0.30 0.50 1.13 1.72 2.48 1.82 1.19 0.58 0.64 0.50 0.29 0.30 0.31 0.56 0.71 0.68
0.42 0.44 0.40 0.33 0.36 0.46 0.55 0.60 0.56 0.69 0.72 0.82 0.78 0.82 0.86 0.78 0.95 1.11 1.26 1.67 1.48 1.61 1.18 0.81 0.51 0.40 0.17 0.26 0.39 0.27 0.35 0.56 0.97 1.55 1.67 2.33 1.43 1.00 0.42 0.22 0.12 0.15 0.19 0.20 0.16 0.26 0.51
0.47 0.54 0.46 0.44 0.47 0.58 0.62 0.62 0.62 0.74 0.80 0.86 0.80 0.83 0.84 0.81 1.07 1.32 1.32 1.28 0.79 0.82 0.88 0.41 0.36 0.36 0.23 0.48 0.74 0.58 0.40 0.98 1.00 1.25 1.58 2.17 1.01 0.31 0.35 0.26 0.18 0.16 0.13 0.09 0.13 0.16 0.23
0.56 0.56 0.41 0.45 0.50 0.62 0.65 0.63 0.72 0.81 0.87 0.92 0.88 0.94 1.12 1.22 1.35 1.82 1.18 0.79 0.77 1.00 1.26 0.86 0.55 0.48 0.41 0.84 0.78 0.76 0.55 1.14 0.77 1.01 1.56 1.63 0.60 0.35 0.48 0.47 0.28 0.18 0.09 0.06 0.09 0.10 0.11
0.67 0.64 0.57 0.61 0.59 0.63 0.68 0.74 0.96 1.08 1.05 1.06 1.12 1.42 1.54 1.78 2.13 1.27 1.34 0.98 1.04 1.66 2.25 1.23 0.79 0.60 0.72 0.99 0.99 0.56 1.01 1.36 0.69 1.04 1.34 1.19 0.61 0.55 0.70 0.52 0.31 0.25 0.12 0.04 0.08 0.14 0.15
0.76 0.80 0.83 0.75 0.77 0.79 0.78 0.86 0.99 1.02 1.07 1.18 1.52 1.71 1.77 2.34 2.56 1.47 1.41 1.07 1.31 2.38 2.13 1.11 0.86 0.77 0.78 0.68 0.63 0.76 1.04 1.29 0.52 0.83 1.32 1.21 0.74 0.59 0.90 0.70 0.22 0.28 0.12 0.04 0.13 0.18 0.19
0.89 0.79 0.79 0.75 0.82 0.90 0.87 0.88 0.90 0.83 1.02 1.36 1.37 1.32 1.78 2.19 2.29 1.55 1.47 1.66 2.15 2.62 1.97 1.39 1.24 0.88 0.77 0.58 0.62 0.99 1.11 1.06 0.68 0.88 0.87 0.80 0.64 0.57 0.65 0.72 0.41 0.28 0.28 0.25 0.20 0.51 0.55
0.93 0.78 0.81 0.80 0.84 0.87 0.87 0.93 1.01 1.10 1.17 1.19 1.23 1.27 1.63 1.70 1.89 1.90 2.39 2.25 2.54 1.64 1.15 1.17 1.06 0.82 0.75 0.68 0.80 0.88 1.23 1.01 1.41 1.18 1.39 1.47 0.98 0.59 0.50 0.99 0.91 0.73 0.98 1.33 0.97 1.15 0.66
1.04 1.08 0.98 0.94 0.95 0.94 1.08 1.05 1.25 1.38 1.28 1.29 1.36 1.31 1.60 1.41 2.03 2.02 3.03 2.19 1.66 0.68 0.99 0.90 0.39 0.47 0.53 0.30 0.57 0.73 0.89 0.69 0.59 0.39 0.82 1.12 1.15 0.74 0.55 0.99 1.32 0.91 1.09 1.35 0.98 0.53 0.29
0.97 1.08 1.09 1.07 1.17 1.22 1.31 1.19 1.17 1.26 1.30 1.68 1.67 1.94 2.73 1.54 2.11 2.69 2.77 2.20 1.05 0.87 1.03 0.63 0.50 0.41 0.38 0.27 0.57 0.63 0.64 0.30 0.24 0.15 0.61 0.66 0.61 0.42 0.36 0.47 0.87 1.16 1.21 0.72 0.89 0.44 0.35
1.08 1.01 1.15 1.28 1.24 1.33 1.35 1.27 1.31 1.27 1.50 1.84 1.84 2.12 2.67 1.82 1.84 3.38 3.11 1.79 0.92 0.73 0.51 0.31 0.36 0.22 0.15 0.21 0.50 0.45 0.44 0.16 0.09 0.02 0.20 0.47 0.78 0.50 0.56 0.67 0.89 0.98 0.64 0.89 1.36 0.88 0.41
1.33 1.24 1.22 1.35 1.32 1.34 1.41 1.37 1.39 1.52 1.74 1.70 1.45 2.59 2.14 2.40 2.58 3.78 2.93 1.56 0.79 0.38 0.43 0.35 0.11 0.11 0.05 0.05 0.30 0.21 0.21 0.09 0.03 0.01 0.13 0.57 0.93 0.71 0.90 0.96 0.67 0.95 1.19 0.73 0.91 0.48 0.55
1.32 1.47 1.49 1.50 1.48 1.33 1.51 1.41 1.16 1.48 1.78 1.88 1.59 2.08 1.97 2.62 3.52 2.63 2.08 1.63 0.77 0.37 0.38 0.36 0.16 0.06 0.05 0.03 0.18 0.13 0.07 0.06 0.03 0.04 0.19 0.55 1.06 0.83 0.41 0.41 0.23 0.53 0.62 0.74 0.86 0.48 0.43
1.15 1.33 1.50 1.56 1.39 1.28 1.40 1.54 1.26 1.39 2.33 2.52 1.86 2.26 2.91 1.88 1.66 1.39 1.64 1.17 0.64 0.39 0.37 0.35 0.11 0.04 0.02 0.04 0.08 0.03 0.06 0.01 0.03 0.11 0.29 0.66 1.36 1.09 0.64 0.98 0.67 0.84 0.49 0.73 1.25 1.27 0.85
1.43 1.20 1.27 1.25 1.32 1.29 1.35 1.19 1.15 1.25 1.72 2.16 1.87 2.07 3.56 2.60 0.92 1.01 1.18 1.00 0.69 0.35 0.28 0.30 0.15 0.07 0.06 0.05 0.03 0.02 0.07 0.03 0.01 0.08 0.30 0.86 1.04 0.84 0.63 0.86 0.88 0.64 0.44 0.73 1.74 2.13 0.67
1.46 1.32 1.25 1.27 1.35 1.38 1.72 1.39 1.11 1.21 1.35 1.77 1.46 0.79 0.77 0.89 0.61 0.55 0.88 0.75 0.61 0.52 0.32 0.28 0.19 0.09 0.06 0.06 0.03 0.03 0.04 0.04 0.06 0.06 0.27 1.08 1.40 1.01 0.43 0.17 0.67 0.68 0.52 0.76 1.52 0.99 1.09
1.37 1.44 1.46 1.79 1.64 1.88 2.12 1.72 1.26 1.50 2.10 1.74 1.09 0.50 0.18 0.12 0.08 0.25 0.76 0.89 0.63 0.53 0.41 0.21 0.11 0.05 0.07 0.04 0.04 0.05 0.07 0.10 0.10 0.10 0.26 0.74 1.34 1.29 0.83 0.36 0.36 0.62 0.61 0.81 0.83 0.77 0.84
1.20 1.25 1.35 1.43 1.57 1.54 1.40 1.57 1.70 1.83 2.46 1.67 0.91 0.42 0.26 0.18 0.07 0.15 0.45 0.66 0.52 0.47 0.30 0.10 0.08 0.12 0.10 0.05 0.04 0.04 0.07 0.12 0.27 0.29 0.32 0.65 0.95 1.16 0.73 0.48 0.70 1.12 0.77 0.60 0.38 0.37 0.49
1.33 1.29 1.05 1.06 1.13 1.35 1.42 1.43 1.38 1.33 1.52 1.18 0.81 0.68 0.55 0.24 0.08 0.07 0.20 0.41 0.43 0.38 0.37 0.09 0.10 0.11 0.07 0.05 0.06 0.07 0.14 0.09 0.09 0.19 0.33 0.31 0.56 0.93 0.78 0.74 1.04 0.63 0.51 0.35 0.36 0.36 0.32
1.12 1.09 1.06 0.91 0.89 1.02 1.21 1.46 1.09 0.98 1.13 0.75 0.65 0.66 0.49 0.24 0.09 0.05 0.16 0.36 0.49 0.47 0.52 0.26 0.09 0.07 0.09 0.13 0.22 0.24 0.31 0.37 0.20 0.11 0.05 0.23 0.40 0.67 0.51 0.40 0.25 0.02 0.05 0.17 0.23 0.37 0.20
1.05 0.95 1.04 1.20 0.94 0.82 0.96 1.14 0.89 0.80 0.78 0.53 0.56 0.59 0.70 0.39 0.14 0.04 0.07 0.17 0.47 0.47 0.54 0.41 0.24 0.15 0.25 0.34 0.35 0.39 0.31 0.26 0.25 0.29 0.20 0.07 0.24 0.76 0.43 0.38 0.09 0.00 0.00 0.00 0.03 0.21 0.30
1.37 1.01 0.82 0.91 1.12 0.89 0.94 1.08 0.89 0.77 0.77 0.55 0.55 0.57 0.62 0.46 0.13 0.03 0.06 0.09 0.32 0.55 0.61 0.48 0.41 0.21 0.36 0.64 0.56 0.37 0.14 0.09 0.16 0.22 0.14 0.34 0.37 0.47 0.36 0.40 0.03 0.00 0.00 0.00 0.04 0.12 0.12
1.29 1.28 1.17 0.72 0.66 0.90 1.04 1.13 1.14 0.93 0.88 0.69 0.45 0.43 0.52 0.46 0.18 0.05 0.05 0.07 0.21 0.45 0.66 0.59 0.79 0.55 0.57 0.87 0.81 0.45 0.18 0.08 0.07 0.09 0.06 0.15 0.27 0.28 0.26 0.35 0.07 0.00 0.00 0.01 0.01 0.00 0.00
1.35 0.96 0.95 0.91 0.64 0.58 0.83 0.96 1.13 0.97 0.90 0.90 0.54 0.38 0.49 0.63 0.28 0.06 0.03 0.03 0.07 0.29 0.67 0.72 0.73 0.54 0.68 0.71 0.61 0.51 0.39 0.32 0.15 0.12 0.02 0.06 0.06 0.10 0.11 0.08 0.01 0.01 0.00 0.00 0.00 0.00 0.00